<?xml version="1.0" encoding="UTF-8" standalone="no" ?>
<gpx xmlns="http://www.topografix.com/GPX/1/1" xmlns:xsi="http://www.w3.org/2001/XMLSchema-instance" xsi:schemaLocation="http://www.topografix.com/GPX/1/1 http://www.topografix.com/GPX/1/1/gpx.xsd" version="1.1" creator="VisuGPX - https://www.visugpx.com">
  <metadata>
    <name>L\'huisserienne</name>
    <desc><![CDATA[Trace VTT réalisée lors de la rando de l\'huisserie]]></desc>
  </metadata>
  <trk>
    <name><![CDATA[2010-10-10T06:27:18Z]]></name>
    <trkseg>
      <trkpt lat="48.02413" lon="-0.76933">
        <ele>100</ele>
        <time>2010-10-10T06:27:18Z</time>
      </trkpt>
      <trkpt lat="48.024" lon="-0.76933">
        <ele>92.2</ele>
        <time>2010-10-10T06:29:24Z</time>
      </trkpt>
      <trkpt lat="48.02397" lon="-0.76934">
        <ele>92.2</ele>
        <time>2010-10-10T06:29:25Z</time>
      </trkpt>
      <trkpt lat="48.02391" lon="-0.76939">
        <ele>92.2</ele>
        <time>2010-10-10T06:29:30Z</time>
      </trkpt>
      <trkpt lat="48.02383" lon="-0.76942">
        <ele>92.2</ele>
        <time>2010-10-10T06:29:42Z</time>
      </trkpt>
      <trkpt lat="48.02362" lon="-0.76951">
        <ele>92</ele>
        <time>2010-10-10T06:29:47Z</time>
      </trkpt>
      <trkpt lat="48.02347" lon="-0.76957">
        <ele>92.2</ele>
        <time>2010-10-10T06:29:52Z</time>
      </trkpt>
      <trkpt lat="48.02343" lon="-0.76957">
        <ele>92.2</ele>
        <time>2010-10-10T06:29:54Z</time>
      </trkpt>
      <trkpt lat="48.02338" lon="-0.76954">
        <ele>92.2</ele>
        <time>2010-10-10T06:29:56Z</time>
      </trkpt>
      <trkpt lat="48.02336" lon="-0.76954">
        <ele>92.2</ele>
        <time>2010-10-10T06:29:57Z</time>
      </trkpt>
      <trkpt lat="48.02328" lon="-0.76965">
        <ele>92.2</ele>
        <time>2010-10-10T06:30:01Z</time>
      </trkpt>
      <trkpt lat="48.02317" lon="-0.76988">
        <ele>92.2</ele>
        <time>2010-10-10T06:30:06Z</time>
      </trkpt>
      <trkpt lat="48.02313" lon="-0.76996">
        <ele>92</ele>
        <time>2010-10-10T06:30:08Z</time>
      </trkpt>
      <trkpt lat="48.02302" lon="-0.77003">
        <ele>92</ele>
        <time>2010-10-10T06:30:11Z</time>
      </trkpt>
      <trkpt lat="48.02298" lon="-0.77003">
        <ele>92</ele>
        <time>2010-10-10T06:30:12Z</time>
      </trkpt>
      <trkpt lat="48.02295" lon="-0.77001">
        <ele>92</ele>
        <time>2010-10-10T06:30:13Z</time>
      </trkpt>
      <trkpt lat="48.0229" lon="-0.76994">
        <ele>92.2</ele>
        <time>2010-10-10T06:30:15Z</time>
      </trkpt>
      <trkpt lat="48.02287" lon="-0.76984">
        <ele>92.4</ele>
        <time>2010-10-10T06:30:17Z</time>
      </trkpt>
      <trkpt lat="48.02284" lon="-0.76969">
        <ele>92.8</ele>
        <time>2010-10-10T06:30:20Z</time>
      </trkpt>
      <trkpt lat="48.02282" lon="-0.76964">
        <ele>92.8</ele>
        <time>2010-10-10T06:30:21Z</time>
      </trkpt>
      <trkpt lat="48.02275" lon="-0.76961">
        <ele>92.8</ele>
        <time>2010-10-10T06:30:23Z</time>
      </trkpt>
      <trkpt lat="48.02254" lon="-0.7696">
        <ele>93</ele>
        <time>2010-10-10T06:30:28Z</time>
      </trkpt>
      <trkpt lat="48.02235" lon="-0.76947">
        <ele>93.4</ele>
        <time>2010-10-10T06:30:33Z</time>
      </trkpt>
      <trkpt lat="48.02228" lon="-0.76943">
        <ele>93.4</ele>
        <time>2010-10-10T06:30:35Z</time>
      </trkpt>
      <trkpt lat="48.02217" lon="-0.76935">
        <ele>93.6</ele>
        <time>2010-10-10T06:30:38Z</time>
      </trkpt>
      <trkpt lat="48.02204" lon="-0.76922">
        <ele>94</ele>
        <time>2010-10-10T06:30:42Z</time>
      </trkpt>
      <trkpt lat="48.022" lon="-0.76919">
        <ele>94</ele>
        <time>2010-10-10T06:30:43Z</time>
      </trkpt>
      <trkpt lat="48.0218" lon="-0.76905">
        <ele>94.4</ele>
        <time>2010-10-10T06:30:48Z</time>
      </trkpt>
      <trkpt lat="48.02176" lon="-0.76903">
        <ele>94.6</ele>
        <time>2010-10-10T06:30:49Z</time>
      </trkpt>
      <trkpt lat="48.02161" lon="-0.76891">
        <ele>94.8</ele>
        <time>2010-10-10T06:30:53Z</time>
      </trkpt>
      <trkpt lat="48.02142" lon="-0.76876">
        <ele>95.4</ele>
        <time>2010-10-10T06:30:58Z</time>
      </trkpt>
      <trkpt lat="48.02138" lon="-0.76873">
        <ele>95.6</ele>
        <time>2010-10-10T06:30:59Z</time>
      </trkpt>
      <trkpt lat="48.02123" lon="-0.76864">
        <ele>96</ele>
        <time>2010-10-10T06:31:03Z</time>
      </trkpt>
      <trkpt lat="48.02108" lon="-0.76854">
        <ele>96.2</ele>
        <time>2010-10-10T06:31:07Z</time>
      </trkpt>
      <trkpt lat="48.02104" lon="-0.76851">
        <ele>96.4</ele>
        <time>2010-10-10T06:31:08Z</time>
      </trkpt>
      <trkpt lat="48.02098" lon="-0.76846">
        <ele>96.6</ele>
        <time>2010-10-10T06:31:10Z</time>
      </trkpt>
      <trkpt lat="48.02088" lon="-0.76838">
        <ele>96.8</ele>
        <time>2010-10-10T06:31:13Z</time>
      </trkpt>
      <trkpt lat="48.02072" lon="-0.76825">
        <ele>97.2</ele>
        <time>2010-10-10T06:31:18Z</time>
      </trkpt>
      <trkpt lat="48.02062" lon="-0.76818">
        <ele>97.4</ele>
        <time>2010-10-10T06:31:21Z</time>
      </trkpt>
      <trkpt lat="48.02056" lon="-0.76815">
        <ele>97.4</ele>
        <time>2010-10-10T06:31:23Z</time>
      </trkpt>
      <trkpt lat="48.02054" lon="-0.76817">
        <ele>97.4</ele>
        <time>2010-10-10T06:31:24Z</time>
      </trkpt>
      <trkpt lat="48.02047" lon="-0.76832">
        <ele>97.4</ele>
        <time>2010-10-10T06:31:27Z</time>
      </trkpt>
      <trkpt lat="48.02044" lon="-0.76836">
        <ele>97.4</ele>
        <time>2010-10-10T06:31:28Z</time>
      </trkpt>
      <trkpt lat="48.0204" lon="-0.7684">
        <ele>97.4</ele>
        <time>2010-10-10T06:31:29Z</time>
      </trkpt>
      <trkpt lat="48.02026" lon="-0.76859">
        <ele>97.2</ele>
        <time>2010-10-10T06:31:33Z</time>
      </trkpt>
      <trkpt lat="48.02016" lon="-0.76875">
        <ele>97</ele>
        <time>2010-10-10T06:31:36Z</time>
      </trkpt>
      <trkpt lat="48.02015" lon="-0.76882">
        <ele>96.8</ele>
        <time>2010-10-10T06:31:37Z</time>
      </trkpt>
      <trkpt lat="48.02014" lon="-0.76916">
        <ele>96.6</ele>
        <time>2010-10-10T06:31:41Z</time>
      </trkpt>
      <trkpt lat="48.02014" lon="-0.76925">
        <ele>96.6</ele>
        <time>2010-10-10T06:31:42Z</time>
      </trkpt>
      <trkpt lat="48.02016" lon="-0.76946">
        <ele>96.4</ele>
        <time>2010-10-10T06:31:45Z</time>
      </trkpt>
      <trkpt lat="48.02016" lon="-0.76952">
        <ele>96.4</ele>
        <time>2010-10-10T06:31:46Z</time>
      </trkpt>
      <trkpt lat="48.02016" lon="-0.76962">
        <ele>96.2</ele>
        <time>2010-10-10T06:31:49Z</time>
      </trkpt>
      <trkpt lat="48.02015" lon="-0.76963">
        <ele>96.2</ele>
        <time>2010-10-10T06:31:50Z</time>
      </trkpt>
      <trkpt lat="48.02017" lon="-0.76976">
        <ele>94.8</ele>
        <time>2010-10-10T06:32:19Z</time>
      </trkpt>
      <trkpt lat="48.02017" lon="-0.76981">
        <ele>94.6</ele>
        <time>2010-10-10T06:32:20Z</time>
      </trkpt>
      <trkpt lat="48.02015" lon="-0.77008">
        <ele>94.4</ele>
        <time>2010-10-10T06:32:24Z</time>
      </trkpt>
      <trkpt lat="48.02012" lon="-0.77015">
        <ele>94.4</ele>
        <time>2010-10-10T06:32:25Z</time>
      </trkpt>
      <trkpt lat="48.02001" lon="-0.77026">
        <ele>94.2</ele>
        <time>2010-10-10T06:32:27Z</time>
      </trkpt>
      <trkpt lat="48.01994" lon="-0.7703">
        <ele>94.2</ele>
        <time>2010-10-10T06:32:28Z</time>
      </trkpt>
      <trkpt lat="48.01979" lon="-0.77035">
        <ele>94</ele>
        <time>2010-10-10T06:32:30Z</time>
      </trkpt>
      <trkpt lat="48.0197" lon="-0.77036">
        <ele>93.8</ele>
        <time>2010-10-10T06:32:31Z</time>
      </trkpt>
      <trkpt lat="48.01962" lon="-0.77036">
        <ele>93.8</ele>
        <time>2010-10-10T06:32:32Z</time>
      </trkpt>
      <trkpt lat="48.01953" lon="-0.77037">
        <ele>93.6</ele>
        <time>2010-10-10T06:32:33Z</time>
      </trkpt>
      <trkpt lat="48.01937" lon="-0.77043">
        <ele>93.6</ele>
        <time>2010-10-10T06:32:35Z</time>
      </trkpt>
      <trkpt lat="48.0193" lon="-0.77046">
        <ele>93.4</ele>
        <time>2010-10-10T06:32:36Z</time>
      </trkpt>
      <trkpt lat="48.01918" lon="-0.77052">
        <ele>93.2</ele>
        <time>2010-10-10T06:32:38Z</time>
      </trkpt>
      <trkpt lat="48.01913" lon="-0.77057">
        <ele>93.2</ele>
        <time>2010-10-10T06:32:39Z</time>
      </trkpt>
      <trkpt lat="48.01895" lon="-0.77073">
        <ele>92.8</ele>
        <time>2010-10-10T06:32:42Z</time>
      </trkpt>
      <trkpt lat="48.0188" lon="-0.77079">
        <ele>92.6</ele>
        <time>2010-10-10T06:32:44Z</time>
      </trkpt>
      <trkpt lat="48.01872" lon="-0.7708">
        <ele>92.6</ele>
        <time>2010-10-10T06:32:45Z</time>
      </trkpt>
      <trkpt lat="48.01854" lon="-0.77076">
        <ele>92.4</ele>
        <time>2010-10-10T06:32:47Z</time>
      </trkpt>
      <trkpt lat="48.01846" lon="-0.77072">
        <ele>92.2</ele>
        <time>2010-10-10T06:32:48Z</time>
      </trkpt>
      <trkpt lat="48.01838" lon="-0.77068">
        <ele>92.2</ele>
        <time>2010-10-10T06:32:49Z</time>
      </trkpt>
      <trkpt lat="48.01821" lon="-0.77059">
        <ele>91.8</ele>
        <time>2010-10-10T06:32:51Z</time>
      </trkpt>
      <trkpt lat="48.01813" lon="-0.77055">
        <ele>91.8</ele>
        <time>2010-10-10T06:32:52Z</time>
      </trkpt>
      <trkpt lat="48.01799" lon="-0.77047">
        <ele>91.6</ele>
        <time>2010-10-10T06:32:54Z</time>
      </trkpt>
      <trkpt lat="48.01779" lon="-0.77033">
        <ele>91.4</ele>
        <time>2010-10-10T06:32:57Z</time>
      </trkpt>
      <trkpt lat="48.01773" lon="-0.77027">
        <ele>91.2</ele>
        <time>2010-10-10T06:32:58Z</time>
      </trkpt>
      <trkpt lat="48.01764" lon="-0.77013">
        <ele>91.2</ele>
        <time>2010-10-10T06:33:00Z</time>
      </trkpt>
      <trkpt lat="48.01751" lon="-0.76986">
        <ele>90.8</ele>
        <time>2010-10-10T06:33:04Z</time>
      </trkpt>
      <trkpt lat="48.01747" lon="-0.76978">
        <ele>90.8</ele>
        <time>2010-10-10T06:33:05Z</time>
      </trkpt>
      <trkpt lat="48.01739" lon="-0.76962">
        <ele>90.6</ele>
        <time>2010-10-10T06:33:07Z</time>
      </trkpt>
      <trkpt lat="48.01731" lon="-0.76947">
        <ele>90.4</ele>
        <time>2010-10-10T06:33:09Z</time>
      </trkpt>
      <trkpt lat="48.0173" lon="-0.76938">
        <ele>90.4</ele>
        <time>2010-10-10T06:33:10Z</time>
      </trkpt>
      <trkpt lat="48.01731" lon="-0.76931">
        <ele>90.4</ele>
        <time>2010-10-10T06:33:11Z</time>
      </trkpt>
      <trkpt lat="48.01738" lon="-0.76914">
        <ele>90.2</ele>
        <time>2010-10-10T06:33:14Z</time>
      </trkpt>
      <trkpt lat="48.0174" lon="-0.76908">
        <ele>90</ele>
        <time>2010-10-10T06:33:15Z</time>
      </trkpt>
      <trkpt lat="48.01743" lon="-0.76903">
        <ele>90</ele>
        <time>2010-10-10T06:33:16Z</time>
      </trkpt>
      <trkpt lat="48.01746" lon="-0.76899">
        <ele>90</ele>
        <time>2010-10-10T06:33:17Z</time>
      </trkpt>
      <trkpt lat="48.01749" lon="-0.76891">
        <ele>89.8</ele>
        <time>2010-10-10T06:33:19Z</time>
      </trkpt>
      <trkpt lat="48.0175" lon="-0.76887">
        <ele>89.8</ele>
        <time>2010-10-10T06:33:20Z</time>
      </trkpt>
      <trkpt lat="48.01742" lon="-0.76865">
        <ele>89.6</ele>
        <time>2010-10-10T06:33:25Z</time>
      </trkpt>
      <trkpt lat="48.01728" lon="-0.7686">
        <ele>89.6</ele>
        <time>2010-10-10T06:33:29Z</time>
      </trkpt>
      <trkpt lat="48.01721" lon="-0.76858">
        <ele>89.6</ele>
        <time>2010-10-10T06:33:31Z</time>
      </trkpt>
      <trkpt lat="48.01715" lon="-0.7686">
        <ele>89.8</ele>
        <time>2010-10-10T06:33:33Z</time>
      </trkpt>
      <trkpt lat="48.01701" lon="-0.76858">
        <ele>90</ele>
        <time>2010-10-10T06:33:38Z</time>
      </trkpt>
      <trkpt lat="48.01682" lon="-0.76855">
        <ele>90.2</ele>
        <time>2010-10-10T06:33:43Z</time>
      </trkpt>
      <trkpt lat="48.01664" lon="-0.76855">
        <ele>90.2</ele>
        <time>2010-10-10T06:33:47Z</time>
      </trkpt>
      <trkpt lat="48.01654" lon="-0.76856">
        <ele>90.2</ele>
        <time>2010-10-10T06:33:49Z</time>
      </trkpt>
      <trkpt lat="48.01643" lon="-0.76856">
        <ele>90.2</ele>
        <time>2010-10-10T06:33:51Z</time>
      </trkpt>
      <trkpt lat="48.01625" lon="-0.76854">
        <ele>90</ele>
        <time>2010-10-10T06:33:54Z</time>
      </trkpt>
      <trkpt lat="48.01618" lon="-0.76853">
        <ele>90</ele>
        <time>2010-10-10T06:33:55Z</time>
      </trkpt>
      <trkpt lat="48.01605" lon="-0.76852">
        <ele>90</ele>
        <time>2010-10-10T06:33:57Z</time>
      </trkpt>
      <trkpt lat="48.01583" lon="-0.76851">
        <ele>89.8</ele>
        <time>2010-10-10T06:34:00Z</time>
      </trkpt>
      <trkpt lat="48.01568" lon="-0.76851">
        <ele>89.6</ele>
        <time>2010-10-10T06:34:02Z</time>
      </trkpt>
      <trkpt lat="48.0156" lon="-0.76851">
        <ele>89.6</ele>
        <time>2010-10-10T06:34:03Z</time>
      </trkpt>
      <trkpt lat="48.01535" lon="-0.76851">
        <ele>89.2</ele>
        <time>2010-10-10T06:34:06Z</time>
      </trkpt>
      <trkpt lat="48.01528" lon="-0.76852">
        <ele>89.2</ele>
        <time>2010-10-10T06:34:07Z</time>
      </trkpt>
      <trkpt lat="48.01515" lon="-0.76853">
        <ele>89</ele>
        <time>2010-10-10T06:34:09Z</time>
      </trkpt>
      <trkpt lat="48.01511" lon="-0.76854">
        <ele>88.8</ele>
        <time>2010-10-10T06:34:10Z</time>
      </trkpt>
      <trkpt lat="48.01505" lon="-0.76848">
        <ele>88.6</ele>
        <time>2010-10-10T06:34:13Z</time>
      </trkpt>
      <trkpt lat="48.01506" lon="-0.7684">
        <ele>88.4</ele>
        <time>2010-10-10T06:34:15Z</time>
      </trkpt>
      <trkpt lat="48.01506" lon="-0.76836">
        <ele>88.2</ele>
        <time>2010-10-10T06:34:16Z</time>
      </trkpt>
      <trkpt lat="48.01506" lon="-0.76831">
        <ele>88</ele>
        <time>2010-10-10T06:34:17Z</time>
      </trkpt>
      <trkpt lat="48.01502" lon="-0.76821">
        <ele>87.4</ele>
        <time>2010-10-10T06:34:21Z</time>
      </trkpt>
      <trkpt lat="48.01496" lon="-0.76819">
        <ele>87.4</ele>
        <time>2010-10-10T06:34:23Z</time>
      </trkpt>
      <trkpt lat="48.01492" lon="-0.76818">
        <ele>87.2</ele>
        <time>2010-10-10T06:34:24Z</time>
      </trkpt>
      <trkpt lat="48.01489" lon="-0.76817">
        <ele>87.2</ele>
        <time>2010-10-10T06:34:25Z</time>
      </trkpt>
      <trkpt lat="48.01475" lon="-0.76811">
        <ele>86.8</ele>
        <time>2010-10-10T06:34:29Z</time>
      </trkpt>
      <trkpt lat="48.01468" lon="-0.76808">
        <ele>86.6</ele>
        <time>2010-10-10T06:34:31Z</time>
      </trkpt>
      <trkpt lat="48.01455" lon="-0.76806">
        <ele>86.6</ele>
        <time>2010-10-10T06:34:34Z</time>
      </trkpt>
      <trkpt lat="48.01442" lon="-0.76807">
        <ele>86.4</ele>
        <time>2010-10-10T06:34:37Z</time>
      </trkpt>
      <trkpt lat="48.01434" lon="-0.76807">
        <ele>86.2</ele>
        <time>2010-10-10T06:34:39Z</time>
      </trkpt>
      <trkpt lat="48.01421" lon="-0.76808">
        <ele>86.2</ele>
        <time>2010-10-10T06:34:43Z</time>
      </trkpt>
      <trkpt lat="48.01419" lon="-0.7681">
        <ele>86</ele>
        <time>2010-10-10T06:34:44Z</time>
      </trkpt>
      <trkpt lat="48.01417" lon="-0.76815">
        <ele>86</ele>
        <time>2010-10-10T06:34:45Z</time>
      </trkpt>
      <trkpt lat="48.01418" lon="-0.76821">
        <ele>86</ele>
        <time>2010-10-10T06:34:46Z</time>
      </trkpt>
      <trkpt lat="48.0142" lon="-0.76844">
        <ele>85.8</ele>
        <time>2010-10-10T06:34:49Z</time>
      </trkpt>
      <trkpt lat="48.01421" lon="-0.76862">
        <ele>85.6</ele>
        <time>2010-10-10T06:34:51Z</time>
      </trkpt>
      <trkpt lat="48.01423" lon="-0.76872">
        <ele>85.4</ele>
        <time>2010-10-10T06:34:52Z</time>
      </trkpt>
      <trkpt lat="48.01429" lon="-0.76901">
        <ele>85</ele>
        <time>2010-10-10T06:34:55Z</time>
      </trkpt>
      <trkpt lat="48.01432" lon="-0.76919">
        <ele>84.8</ele>
        <time>2010-10-10T06:34:57Z</time>
      </trkpt>
      <trkpt lat="48.01434" lon="-0.76927">
        <ele>84.6</ele>
        <time>2010-10-10T06:34:58Z</time>
      </trkpt>
      <trkpt lat="48.01437" lon="-0.76946">
        <ele>84.2</ele>
        <time>2010-10-10T06:35:01Z</time>
      </trkpt>
      <trkpt lat="48.01437" lon="-0.7695">
        <ele>84</ele>
        <time>2010-10-10T06:35:02Z</time>
      </trkpt>
      <trkpt lat="48.01437" lon="-0.76956">
        <ele>83.8</ele>
        <time>2010-10-10T06:35:04Z</time>
      </trkpt>
      <trkpt lat="48.01436" lon="-0.76959">
        <ele>83.6</ele>
        <time>2010-10-10T06:35:05Z</time>
      </trkpt>
      <trkpt lat="48.0143" lon="-0.76964">
        <ele>83.2</ele>
        <time>2010-10-10T06:35:08Z</time>
      </trkpt>
      <trkpt lat="48.01428" lon="-0.76965">
        <ele>83</ele>
        <time>2010-10-10T06:35:09Z</time>
      </trkpt>
      <trkpt lat="48.01416" lon="-0.76973">
        <ele>82.2</ele>
        <time>2010-10-10T06:35:14Z</time>
      </trkpt>
      <trkpt lat="48.0141" lon="-0.76969">
        <ele>82</ele>
        <time>2010-10-10T06:35:15Z</time>
      </trkpt>
      <trkpt lat="48.01407" lon="-0.76966">
        <ele>82</ele>
        <time>2010-10-10T06:35:16Z</time>
      </trkpt>
      <trkpt lat="48.014" lon="-0.76955">
        <ele>81.6</ele>
        <time>2010-10-10T06:35:19Z</time>
      </trkpt>
      <trkpt lat="48.01393" lon="-0.7695">
        <ele>81.4</ele>
        <time>2010-10-10T06:35:21Z</time>
      </trkpt>
      <trkpt lat="48.01389" lon="-0.76948">
        <ele>81.2</ele>
        <time>2010-10-10T06:35:22Z</time>
      </trkpt>
      <trkpt lat="48.01384" lon="-0.76946">
        <ele>81</ele>
        <time>2010-10-10T06:35:23Z</time>
      </trkpt>
      <trkpt lat="48.0137" lon="-0.76939">
        <ele>80.8</ele>
        <time>2010-10-10T06:35:26Z</time>
      </trkpt>
      <trkpt lat="48.0135" lon="-0.76928">
        <ele>80.2</ele>
        <time>2010-10-10T06:35:30Z</time>
      </trkpt>
      <trkpt lat="48.01329" lon="-0.76914">
        <ele>79.8</ele>
        <time>2010-10-10T06:35:34Z</time>
      </trkpt>
      <trkpt lat="48.01313" lon="-0.76905">
        <ele>79.6</ele>
        <time>2010-10-10T06:35:37Z</time>
      </trkpt>
      <trkpt lat="48.01308" lon="-0.76901">
        <ele>79.4</ele>
        <time>2010-10-10T06:35:38Z</time>
      </trkpt>
      <trkpt lat="48.01288" lon="-0.76889">
        <ele>79.2</ele>
        <time>2010-10-10T06:35:42Z</time>
      </trkpt>
      <trkpt lat="48.01275" lon="-0.76881">
        <ele>79</ele>
        <time>2010-10-10T06:35:45Z</time>
      </trkpt>
      <trkpt lat="48.01271" lon="-0.76879">
        <ele>78.8</ele>
        <time>2010-10-10T06:35:46Z</time>
      </trkpt>
      <trkpt lat="48.01254" lon="-0.76868">
        <ele>78.4</ele>
        <time>2010-10-10T06:35:51Z</time>
      </trkpt>
      <trkpt lat="48.01235" lon="-0.7686">
        <ele>78</ele>
        <time>2010-10-10T06:35:56Z</time>
      </trkpt>
      <trkpt lat="48.01231" lon="-0.76858">
        <ele>78</ele>
        <time>2010-10-10T06:35:57Z</time>
      </trkpt>
      <trkpt lat="48.01217" lon="-0.76851">
        <ele>77.8</ele>
        <time>2010-10-10T06:36:01Z</time>
      </trkpt>
      <trkpt lat="48.0121" lon="-0.76847">
        <ele>77.6</ele>
        <time>2010-10-10T06:36:03Z</time>
      </trkpt>
      <trkpt lat="48.01203" lon="-0.76837">
        <ele>77.4</ele>
        <time>2010-10-10T06:36:07Z</time>
      </trkpt>
      <trkpt lat="48.01202" lon="-0.76835">
        <ele>77.4</ele>
        <time>2010-10-10T06:36:08Z</time>
      </trkpt>
      <trkpt lat="48.01201" lon="-0.76829">
        <ele>77.4</ele>
        <time>2010-10-10T06:36:10Z</time>
      </trkpt>
      <trkpt lat="48.012" lon="-0.76822">
        <ele>77.4</ele>
        <time>2010-10-10T06:36:13Z</time>
      </trkpt>
      <trkpt lat="48.01198" lon="-0.76808">
        <ele>77.6</ele>
        <time>2010-10-10T06:36:19Z</time>
      </trkpt>
      <trkpt lat="48.01197" lon="-0.76803">
        <ele>77.8</ele>
        <time>2010-10-10T06:36:21Z</time>
      </trkpt>
      <trkpt lat="48.01197" lon="-0.76802">
        <ele>77.8</ele>
        <time>2010-10-10T06:36:22Z</time>
      </trkpt>
      <trkpt lat="48.01197" lon="-0.76797">
        <ele>78.2</ele>
        <time>2010-10-10T06:36:25Z</time>
      </trkpt>
      <trkpt lat="48.01196" lon="-0.76797">
        <ele>78.4</ele>
        <time>2010-10-10T06:36:26Z</time>
      </trkpt>
      <trkpt lat="48.01188" lon="-0.76782">
        <ele>80.6</ele>
        <time>2010-10-10T06:36:42Z</time>
      </trkpt>
      <trkpt lat="48.01188" lon="-0.7678">
        <ele>80.8</ele>
        <time>2010-10-10T06:36:43Z</time>
      </trkpt>
      <trkpt lat="48.01182" lon="-0.76762">
        <ele>82.4</ele>
        <time>2010-10-10T06:36:51Z</time>
      </trkpt>
      <trkpt lat="48.0118" lon="-0.76758">
        <ele>82.8</ele>
        <time>2010-10-10T06:36:53Z</time>
      </trkpt>
      <trkpt lat="48.01174" lon="-0.76746">
        <ele>84.2</ele>
        <time>2010-10-10T06:36:59Z</time>
      </trkpt>
      <trkpt lat="48.01167" lon="-0.76742">
        <ele>85</ele>
        <time>2010-10-10T06:37:03Z</time>
      </trkpt>
      <trkpt lat="48.01161" lon="-0.7674">
        <ele>85.6</ele>
        <time>2010-10-10T06:37:06Z</time>
      </trkpt>
      <trkpt lat="48.01151" lon="-0.76736">
        <ele>87</ele>
        <time>2010-10-10T06:37:12Z</time>
      </trkpt>
      <trkpt lat="48.01148" lon="-0.76735">
        <ele>87</ele>
        <time>2010-10-10T06:37:13Z</time>
      </trkpt>
      <trkpt lat="48.01133" lon="-0.76734">
        <ele>87.2</ele>
        <time>2010-10-10T06:37:17Z</time>
      </trkpt>
      <trkpt lat="48.01128" lon="-0.76735">
        <ele>87.2</ele>
        <time>2010-10-10T06:37:18Z</time>
      </trkpt>
      <trkpt lat="48.01114" lon="-0.76739">
        <ele>87</ele>
        <time>2010-10-10T06:37:21Z</time>
      </trkpt>
      <trkpt lat="48.0111" lon="-0.76741">
        <ele>87</ele>
        <time>2010-10-10T06:37:22Z</time>
      </trkpt>
      <trkpt lat="48.01091" lon="-0.76749">
        <ele>86.8</ele>
        <time>2010-10-10T06:37:26Z</time>
      </trkpt>
      <trkpt lat="48.01086" lon="-0.76752">
        <ele>86.8</ele>
        <time>2010-10-10T06:37:27Z</time>
      </trkpt>
      <trkpt lat="48.01081" lon="-0.76756">
        <ele>86.6</ele>
        <time>2010-10-10T06:37:28Z</time>
      </trkpt>
      <trkpt lat="48.01075" lon="-0.7676">
        <ele>86.4</ele>
        <time>2010-10-10T06:37:29Z</time>
      </trkpt>
      <trkpt lat="48.01064" lon="-0.7677">
        <ele>86.2</ele>
        <time>2010-10-10T06:37:31Z</time>
      </trkpt>
      <trkpt lat="48.01058" lon="-0.76774">
        <ele>86.2</ele>
        <time>2010-10-10T06:37:32Z</time>
      </trkpt>
      <trkpt lat="48.01045" lon="-0.76781">
        <ele>86</ele>
        <time>2010-10-10T06:37:34Z</time>
      </trkpt>
      <trkpt lat="48.01038" lon="-0.76784">
        <ele>86</ele>
        <time>2010-10-10T06:37:35Z</time>
      </trkpt>
      <trkpt lat="48.01016" lon="-0.7679">
        <ele>85.6</ele>
        <time>2010-10-10T06:37:38Z</time>
      </trkpt>
      <trkpt lat="48.00995" lon="-0.76795">
        <ele>85.2</ele>
        <time>2010-10-10T06:37:41Z</time>
      </trkpt>
      <trkpt lat="48.00977" lon="-0.76799">
        <ele>84.8</ele>
        <time>2010-10-10T06:37:44Z</time>
      </trkpt>
      <trkpt lat="48.00971" lon="-0.76799">
        <ele>84.6</ele>
        <time>2010-10-10T06:37:45Z</time>
      </trkpt>
      <trkpt lat="48.00966" lon="-0.76801">
        <ele>84.4</ele>
        <time>2010-10-10T06:37:46Z</time>
      </trkpt>
      <trkpt lat="48.00956" lon="-0.76806">
        <ele>84.2</ele>
        <time>2010-10-10T06:37:48Z</time>
      </trkpt>
      <trkpt lat="48.00947" lon="-0.76809">
        <ele>83.8</ele>
        <time>2010-10-10T06:37:50Z</time>
      </trkpt>
      <trkpt lat="48.00943" lon="-0.7681">
        <ele>83.6</ele>
        <time>2010-10-10T06:37:51Z</time>
      </trkpt>
      <trkpt lat="48.00935" lon="-0.76812">
        <ele>83.4</ele>
        <time>2010-10-10T06:37:53Z</time>
      </trkpt>
      <trkpt lat="48.00926" lon="-0.76816">
        <ele>83.2</ele>
        <time>2010-10-10T06:37:55Z</time>
      </trkpt>
      <trkpt lat="48.00918" lon="-0.76821">
        <ele>82.8</ele>
        <time>2010-10-10T06:37:57Z</time>
      </trkpt>
      <trkpt lat="48.00907" lon="-0.76828">
        <ele>82.4</ele>
        <time>2010-10-10T06:38:00Z</time>
      </trkpt>
      <trkpt lat="48.00901" lon="-0.7683">
        <ele>82.2</ele>
        <time>2010-10-10T06:38:02Z</time>
      </trkpt>
      <trkpt lat="48.00881" lon="-0.76835">
        <ele>81.4</ele>
        <time>2010-10-10T06:38:08Z</time>
      </trkpt>
      <trkpt lat="48.00878" lon="-0.76836">
        <ele>81.4</ele>
        <time>2010-10-10T06:38:09Z</time>
      </trkpt>
      <trkpt lat="48.00862" lon="-0.76843">
        <ele>81</ele>
        <time>2010-10-10T06:38:14Z</time>
      </trkpt>
      <trkpt lat="48.00855" lon="-0.76846">
        <ele>80.8</ele>
        <time>2010-10-10T06:38:16Z</time>
      </trkpt>
      <trkpt lat="48.00842" lon="-0.76849">
        <ele>80.6</ele>
        <time>2010-10-10T06:38:21Z</time>
      </trkpt>
      <trkpt lat="48.00833" lon="-0.76851">
        <ele>80.4</ele>
        <time>2010-10-10T06:38:25Z</time>
      </trkpt>
      <trkpt lat="48.00831" lon="-0.76849">
        <ele>80.2</ele>
        <time>2010-10-10T06:38:26Z</time>
      </trkpt>
      <trkpt lat="48.00827" lon="-0.7684">
        <ele>80</ele>
        <time>2010-10-10T06:38:29Z</time>
      </trkpt>
      <trkpt lat="48.00826" lon="-0.76837">
        <ele>79.8</ele>
        <time>2010-10-10T06:38:30Z</time>
      </trkpt>
      <trkpt lat="48.00826" lon="-0.76834">
        <ele>79.8</ele>
        <time>2010-10-10T06:38:31Z</time>
      </trkpt>
      <trkpt lat="48.00826" lon="-0.76829">
        <ele>79.6</ele>
        <time>2010-10-10T06:38:33Z</time>
      </trkpt>
      <trkpt lat="48.00825" lon="-0.7682">
        <ele>79.2</ele>
        <time>2010-10-10T06:38:36Z</time>
      </trkpt>
      <trkpt lat="48.00825" lon="-0.76812">
        <ele>78.8</ele>
        <time>2010-10-10T06:38:38Z</time>
      </trkpt>
      <trkpt lat="48.00823" lon="-0.76799">
        <ele>78.6</ele>
        <time>2010-10-10T06:38:41Z</time>
      </trkpt>
      <trkpt lat="48.00821" lon="-0.76784">
        <ele>78.4</ele>
        <time>2010-10-10T06:38:44Z</time>
      </trkpt>
      <trkpt lat="48.00821" lon="-0.76775">
        <ele>78.4</ele>
        <time>2010-10-10T06:38:46Z</time>
      </trkpt>
      <trkpt lat="48.0082" lon="-0.76756">
        <ele>78</ele>
        <time>2010-10-10T06:38:51Z</time>
      </trkpt>
      <trkpt lat="48.00819" lon="-0.76751">
        <ele>78</ele>
        <time>2010-10-10T06:38:52Z</time>
      </trkpt>
      <trkpt lat="48.00815" lon="-0.76728">
        <ele>77.6</ele>
        <time>2010-10-10T06:38:57Z</time>
      </trkpt>
      <trkpt lat="48.00814" lon="-0.76724">
        <ele>77.6</ele>
        <time>2010-10-10T06:38:58Z</time>
      </trkpt>
      <trkpt lat="48.00807" lon="-0.76704">
        <ele>77.4</ele>
        <time>2010-10-10T06:39:03Z</time>
      </trkpt>
      <trkpt lat="48.00806" lon="-0.76701">
        <ele>77.2</ele>
        <time>2010-10-10T06:39:04Z</time>
      </trkpt>
      <trkpt lat="48.008" lon="-0.76683">
        <ele>77.2</ele>
        <time>2010-10-10T06:39:08Z</time>
      </trkpt>
      <trkpt lat="48.00798" lon="-0.76675">
        <ele>77</ele>
        <time>2010-10-10T06:39:10Z</time>
      </trkpt>
      <trkpt lat="48.00793" lon="-0.76658">
        <ele>77</ele>
        <time>2010-10-10T06:39:14Z</time>
      </trkpt>
      <trkpt lat="48.00791" lon="-0.76649">
        <ele>76.8</ele>
        <time>2010-10-10T06:39:16Z</time>
      </trkpt>
      <trkpt lat="48.00789" lon="-0.76638">
        <ele>76.8</ele>
        <time>2010-10-10T06:39:19Z</time>
      </trkpt>
      <trkpt lat="48.00788" lon="-0.76622">
        <ele>76.8</ele>
        <time>2010-10-10T06:39:23Z</time>
      </trkpt>
      <trkpt lat="48.00788" lon="-0.76617">
        <ele>76.8</ele>
        <time>2010-10-10T06:39:24Z</time>
      </trkpt>
      <trkpt lat="48.00786" lon="-0.76593">
        <ele>77.4</ele>
        <time>2010-10-10T06:39:29Z</time>
      </trkpt>
      <trkpt lat="48.00786" lon="-0.76588">
        <ele>77.4</ele>
        <time>2010-10-10T06:39:30Z</time>
      </trkpt>
      <trkpt lat="48.00786" lon="-0.76563">
        <ele>77.6</ele>
        <time>2010-10-10T06:39:35Z</time>
      </trkpt>
      <trkpt lat="48.00782" lon="-0.76534">
        <ele>77.8</ele>
        <time>2010-10-10T06:39:41Z</time>
      </trkpt>
      <trkpt lat="48.00778" lon="-0.76508">
        <ele>77.6</ele>
        <time>2010-10-10T06:39:48Z</time>
      </trkpt>
      <trkpt lat="48.00777" lon="-0.76505">
        <ele>77.6</ele>
        <time>2010-10-10T06:39:49Z</time>
      </trkpt>
      <trkpt lat="48.00775" lon="-0.76484">
        <ele>77.6</ele>
        <time>2010-10-10T06:39:54Z</time>
      </trkpt>
      <trkpt lat="48.00775" lon="-0.76475">
        <ele>77.6</ele>
        <time>2010-10-10T06:39:56Z</time>
      </trkpt>
      <trkpt lat="48.00777" lon="-0.76457">
        <ele>77.6</ele>
        <time>2010-10-10T06:40:00Z</time>
      </trkpt>
      <trkpt lat="48.00776" lon="-0.76448">
        <ele>77.8</ele>
        <time>2010-10-10T06:40:02Z</time>
      </trkpt>
      <trkpt lat="48.00774" lon="-0.76427">
        <ele>78.4</ele>
        <time>2010-10-10T06:40:05Z</time>
      </trkpt>
      <trkpt lat="48.00775" lon="-0.76416">
        <ele>78.4</ele>
        <time>2010-10-10T06:40:07Z</time>
      </trkpt>
      <trkpt lat="48.00776" lon="-0.76396">
        <ele>78.6</ele>
        <time>2010-10-10T06:40:10Z</time>
      </trkpt>
      <trkpt lat="48.00777" lon="-0.76385">
        <ele>78.8</ele>
        <time>2010-10-10T06:40:12Z</time>
      </trkpt>
      <trkpt lat="48.00777" lon="-0.76367">
        <ele>79.6</ele>
        <time>2010-10-10T06:40:15Z</time>
      </trkpt>
      <trkpt lat="48.00778" lon="-0.76356">
        <ele>80</ele>
        <time>2010-10-10T06:40:17Z</time>
      </trkpt>
      <trkpt lat="48.00781" lon="-0.76337">
        <ele>80</ele>
        <time>2010-10-10T06:40:20Z</time>
      </trkpt>
      <trkpt lat="48.00783" lon="-0.76326">
        <ele>79.8</ele>
        <time>2010-10-10T06:40:22Z</time>
      </trkpt>
      <trkpt lat="48.00785" lon="-0.76305">
        <ele>80.4</ele>
        <time>2010-10-10T06:40:25Z</time>
      </trkpt>
      <trkpt lat="48.00786" lon="-0.76299">
        <ele>80.8</ele>
        <time>2010-10-10T06:40:26Z</time>
      </trkpt>
      <trkpt lat="48.00789" lon="-0.76278">
        <ele>81</ele>
        <time>2010-10-10T06:40:30Z</time>
      </trkpt>
      <trkpt lat="48.0079" lon="-0.7627">
        <ele>81.2</ele>
        <time>2010-10-10T06:40:32Z</time>
      </trkpt>
      <trkpt lat="48.00799" lon="-0.7625">
        <ele>82</ele>
        <time>2010-10-10T06:40:37Z</time>
      </trkpt>
      <trkpt lat="48.008" lon="-0.76244">
        <ele>82.2</ele>
        <time>2010-10-10T06:40:38Z</time>
      </trkpt>
      <trkpt lat="48.00804" lon="-0.76227">
        <ele>82.6</ele>
        <time>2010-10-10T06:40:41Z</time>
      </trkpt>
      <trkpt lat="48.00805" lon="-0.76221">
        <ele>82.6</ele>
        <time>2010-10-10T06:40:42Z</time>
      </trkpt>
      <trkpt lat="48.00806" lon="-0.76215">
        <ele>82.8</ele>
        <time>2010-10-10T06:40:43Z</time>
      </trkpt>
      <trkpt lat="48.00812" lon="-0.76189">
        <ele>83</ele>
        <time>2010-10-10T06:40:47Z</time>
      </trkpt>
      <trkpt lat="48.00814" lon="-0.76181">
        <ele>83.2</ele>
        <time>2010-10-10T06:40:48Z</time>
      </trkpt>
      <trkpt lat="48.00821" lon="-0.76158">
        <ele>83.4</ele>
        <time>2010-10-10T06:40:51Z</time>
      </trkpt>
      <trkpt lat="48.00829" lon="-0.76125">
        <ele>83.4</ele>
        <time>2010-10-10T06:40:55Z</time>
      </trkpt>
      <trkpt lat="48.00838" lon="-0.76095">
        <ele>83.4</ele>
        <time>2010-10-10T06:40:59Z</time>
      </trkpt>
      <trkpt lat="48.00844" lon="-0.76074">
        <ele>83.4</ele>
        <time>2010-10-10T06:41:02Z</time>
      </trkpt>
      <trkpt lat="48.00846" lon="-0.76067">
        <ele>83.4</ele>
        <time>2010-10-10T06:41:03Z</time>
      </trkpt>
      <trkpt lat="48.00847" lon="-0.76062">
        <ele>83.4</ele>
        <time>2010-10-10T06:41:04Z</time>
      </trkpt>
      <trkpt lat="48.00847" lon="-0.76051">
        <ele>83.4</ele>
        <time>2010-10-10T06:41:06Z</time>
      </trkpt>
      <trkpt lat="48.00839" lon="-0.7605">
        <ele>83.6</ele>
        <time>2010-10-10T06:41:08Z</time>
      </trkpt>
      <trkpt lat="48.00832" lon="-0.7605">
        <ele>83.6</ele>
        <time>2010-10-10T06:41:10Z</time>
      </trkpt>
      <trkpt lat="48.0082" lon="-0.76048">
        <ele>83.6</ele>
        <time>2010-10-10T06:41:13Z</time>
      </trkpt>
      <trkpt lat="48.00816" lon="-0.76048">
        <ele>83.6</ele>
        <time>2010-10-10T06:41:14Z</time>
      </trkpt>
      <trkpt lat="48.008" lon="-0.76046">
        <ele>83.6</ele>
        <time>2010-10-10T06:41:18Z</time>
      </trkpt>
      <trkpt lat="48.00783" lon="-0.76045">
        <ele>83.6</ele>
        <time>2010-10-10T06:41:22Z</time>
      </trkpt>
      <trkpt lat="48.00779" lon="-0.76045">
        <ele>83.6</ele>
        <time>2010-10-10T06:41:23Z</time>
      </trkpt>
      <trkpt lat="48.00757" lon="-0.76046">
        <ele>83.6</ele>
        <time>2010-10-10T06:41:28Z</time>
      </trkpt>
      <trkpt lat="48.00753" lon="-0.76046">
        <ele>83.6</ele>
        <time>2010-10-10T06:41:29Z</time>
      </trkpt>
      <trkpt lat="48.00745" lon="-0.76046">
        <ele>83.8</ele>
        <time>2010-10-10T06:41:31Z</time>
      </trkpt>
      <trkpt lat="48.00736" lon="-0.76046">
        <ele>83.8</ele>
        <time>2010-10-10T06:41:33Z</time>
      </trkpt>
      <trkpt lat="48.00728" lon="-0.76045">
        <ele>83.8</ele>
        <time>2010-10-10T06:41:35Z</time>
      </trkpt>
      <trkpt lat="48.00715" lon="-0.76041">
        <ele>84</ele>
        <time>2010-10-10T06:41:38Z</time>
      </trkpt>
      <trkpt lat="48.00697" lon="-0.76035">
        <ele>84</ele>
        <time>2010-10-10T06:41:42Z</time>
      </trkpt>
      <trkpt lat="48.00687" lon="-0.76034">
        <ele>84</ele>
        <time>2010-10-10T06:41:44Z</time>
      </trkpt>
      <trkpt lat="48.00678" lon="-0.76035">
        <ele>84</ele>
        <time>2010-10-10T06:41:46Z</time>
      </trkpt>
      <trkpt lat="48.0066" lon="-0.76039">
        <ele>84</ele>
        <time>2010-10-10T06:41:50Z</time>
      </trkpt>
      <trkpt lat="48.00656" lon="-0.7604">
        <ele>84</ele>
        <time>2010-10-10T06:41:51Z</time>
      </trkpt>
      <trkpt lat="48.00639" lon="-0.76044">
        <ele>84</ele>
        <time>2010-10-10T06:41:55Z</time>
      </trkpt>
      <trkpt lat="48.00621" lon="-0.76047">
        <ele>84</ele>
        <time>2010-10-10T06:41:59Z</time>
      </trkpt>
      <trkpt lat="48.00617" lon="-0.76048">
        <ele>84</ele>
        <time>2010-10-10T06:42:00Z</time>
      </trkpt>
      <trkpt lat="48.00595" lon="-0.76047">
        <ele>84</ele>
        <time>2010-10-10T06:42:05Z</time>
      </trkpt>
      <trkpt lat="48.00591" lon="-0.76047">
        <ele>84</ele>
        <time>2010-10-10T06:42:06Z</time>
      </trkpt>
      <trkpt lat="48.00577" lon="-0.76034">
        <ele>84</ele>
        <time>2010-10-10T06:42:10Z</time>
      </trkpt>
      <trkpt lat="48.00572" lon="-0.76016">
        <ele>84</ele>
        <time>2010-10-10T06:42:13Z</time>
      </trkpt>
      <trkpt lat="48.00569" lon="-0.76003">
        <ele>84</ele>
        <time>2010-10-10T06:42:15Z</time>
      </trkpt>
      <trkpt lat="48.00564" lon="-0.75973">
        <ele>84</ele>
        <time>2010-10-10T06:42:19Z</time>
      </trkpt>
      <trkpt lat="48.00558" lon="-0.7595">
        <ele>84</ele>
        <time>2010-10-10T06:42:22Z</time>
      </trkpt>
      <trkpt lat="48.00557" lon="-0.75942">
        <ele>84</ele>
        <time>2010-10-10T06:42:23Z</time>
      </trkpt>
      <trkpt lat="48.0055" lon="-0.75909">
        <ele>84</ele>
        <time>2010-10-10T06:42:27Z</time>
      </trkpt>
      <trkpt lat="48.00544" lon="-0.75876">
        <ele>83.8</ele>
        <time>2010-10-10T06:42:31Z</time>
      </trkpt>
      <trkpt lat="48.00543" lon="-0.75868">
        <ele>83.8</ele>
        <time>2010-10-10T06:42:32Z</time>
      </trkpt>
      <trkpt lat="48.00539" lon="-0.75843">
        <ele>83.8</ele>
        <time>2010-10-10T06:42:35Z</time>
      </trkpt>
      <trkpt lat="48.00534" lon="-0.75811">
        <ele>83.8</ele>
        <time>2010-10-10T06:42:39Z</time>
      </trkpt>
      <trkpt lat="48.00533" lon="-0.75794">
        <ele>83.8</ele>
        <time>2010-10-10T06:42:41Z</time>
      </trkpt>
      <trkpt lat="48.00533" lon="-0.75778">
        <ele>83.6</ele>
        <time>2010-10-10T06:42:43Z</time>
      </trkpt>
      <trkpt lat="48.00537" lon="-0.75745">
        <ele>83.6</ele>
        <time>2010-10-10T06:42:47Z</time>
      </trkpt>
      <trkpt lat="48.00545" lon="-0.75713">
        <ele>83.4</ele>
        <time>2010-10-10T06:42:51Z</time>
      </trkpt>
      <trkpt lat="48.00553" lon="-0.7569">
        <ele>83.4</ele>
        <time>2010-10-10T06:42:54Z</time>
      </trkpt>
      <trkpt lat="48.00556" lon="-0.75682">
        <ele>83.4</ele>
        <time>2010-10-10T06:42:55Z</time>
      </trkpt>
      <trkpt lat="48.00565" lon="-0.75651">
        <ele>83.2</ele>
        <time>2010-10-10T06:42:59Z</time>
      </trkpt>
      <trkpt lat="48.00571" lon="-0.75627">
        <ele>83.2</ele>
        <time>2010-10-10T06:43:02Z</time>
      </trkpt>
      <trkpt lat="48.00572" lon="-0.75619">
        <ele>83</ele>
        <time>2010-10-10T06:43:03Z</time>
      </trkpt>
      <trkpt lat="48.00579" lon="-0.75588">
        <ele>83</ele>
        <time>2010-10-10T06:43:07Z</time>
      </trkpt>
      <trkpt lat="48.00581" lon="-0.75572">
        <ele>82.8</ele>
        <time>2010-10-10T06:43:09Z</time>
      </trkpt>
      <trkpt lat="48.00582" lon="-0.75564">
        <ele>82.8</ele>
        <time>2010-10-10T06:43:10Z</time>
      </trkpt>
      <trkpt lat="48.00582" lon="-0.75556">
        <ele>82.8</ele>
        <time>2010-10-10T06:43:11Z</time>
      </trkpt>
      <trkpt lat="48.00583" lon="-0.75542">
        <ele>82.6</ele>
        <time>2010-10-10T06:43:13Z</time>
      </trkpt>
      <trkpt lat="48.00584" lon="-0.75535">
        <ele>82.6</ele>
        <time>2010-10-10T06:43:14Z</time>
      </trkpt>
      <trkpt lat="48.00584" lon="-0.75528">
        <ele>82.6</ele>
        <time>2010-10-10T06:43:15Z</time>
      </trkpt>
      <trkpt lat="48.00583" lon="-0.75509">
        <ele>82.4</ele>
        <time>2010-10-10T06:43:18Z</time>
      </trkpt>
      <trkpt lat="48.00583" lon="-0.75502">
        <ele>82.4</ele>
        <time>2010-10-10T06:43:19Z</time>
      </trkpt>
      <trkpt lat="48.00583" lon="-0.75496">
        <ele>82.2</ele>
        <time>2010-10-10T06:43:20Z</time>
      </trkpt>
      <trkpt lat="48.00582" lon="-0.75464">
        <ele>82</ele>
        <time>2010-10-10T06:43:25Z</time>
      </trkpt>
      <trkpt lat="48.0058" lon="-0.75438">
        <ele>81.8</ele>
        <time>2010-10-10T06:43:29Z</time>
      </trkpt>
      <trkpt lat="48.00582" lon="-0.75432">
        <ele>81.8</ele>
        <time>2010-10-10T06:43:30Z</time>
      </trkpt>
      <trkpt lat="48.00594" lon="-0.75412">
        <ele>81.6</ele>
        <time>2010-10-10T06:43:34Z</time>
      </trkpt>
      <trkpt lat="48.00611" lon="-0.75403">
        <ele>81.4</ele>
        <time>2010-10-10T06:43:38Z</time>
      </trkpt>
      <trkpt lat="48.00615" lon="-0.75401">
        <ele>81.2</ele>
        <time>2010-10-10T06:43:39Z</time>
      </trkpt>
      <trkpt lat="48.00633" lon="-0.75399">
        <ele>81</ele>
        <time>2010-10-10T06:43:43Z</time>
      </trkpt>
      <trkpt lat="48.00636" lon="-0.75399">
        <ele>81</ele>
        <time>2010-10-10T06:43:44Z</time>
      </trkpt>
      <trkpt lat="48.00647" lon="-0.75394">
        <ele>80.6</ele>
        <time>2010-10-10T06:43:47Z</time>
      </trkpt>
      <trkpt lat="48.00655" lon="-0.75392">
        <ele>80.4</ele>
        <time>2010-10-10T06:43:49Z</time>
      </trkpt>
      <trkpt lat="48.00658" lon="-0.75391">
        <ele>80.4</ele>
        <time>2010-10-10T06:43:50Z</time>
      </trkpt>
      <trkpt lat="48.00674" lon="-0.75387">
        <ele>79.8</ele>
        <time>2010-10-10T06:43:56Z</time>
      </trkpt>
      <trkpt lat="48.00685" lon="-0.75391">
        <ele>79.2</ele>
        <time>2010-10-10T06:44:02Z</time>
      </trkpt>
      <trkpt lat="48.00694" lon="-0.75389">
        <ele>78.8</ele>
        <time>2010-10-10T06:44:06Z</time>
      </trkpt>
      <trkpt lat="48.007" lon="-0.75385">
        <ele>78.6</ele>
        <time>2010-10-10T06:44:09Z</time>
      </trkpt>
      <trkpt lat="48.00694" lon="-0.75385">
        <ele>76</ele>
        <time>2010-10-10T06:46:39Z</time>
      </trkpt>
      <trkpt lat="48.00679" lon="-0.75391">
        <ele>76.2</ele>
        <time>2010-10-10T06:46:46Z</time>
      </trkpt>
      <trkpt lat="48.00676" lon="-0.75391">
        <ele>76.2</ele>
        <time>2010-10-10T06:46:47Z</time>
      </trkpt>
      <trkpt lat="48.00661" lon="-0.75392">
        <ele>76.2</ele>
        <time>2010-10-10T06:46:54Z</time>
      </trkpt>
      <trkpt lat="48.00658" lon="-0.75392">
        <ele>76.2</ele>
        <time>2010-10-10T06:46:55Z</time>
      </trkpt>
      <trkpt lat="48.0064" lon="-0.75397">
        <ele>76.4</ele>
        <time>2010-10-10T06:47:02Z</time>
      </trkpt>
      <trkpt lat="48.00628" lon="-0.75401">
        <ele>76.6</ele>
        <time>2010-10-10T06:47:07Z</time>
      </trkpt>
      <trkpt lat="48.00622" lon="-0.75403">
        <ele>76.6</ele>
        <time>2010-10-10T06:47:10Z</time>
      </trkpt>
      <trkpt lat="48.00615" lon="-0.75405">
        <ele>76.8</ele>
        <time>2010-10-10T06:47:13Z</time>
      </trkpt>
      <trkpt lat="48.00607" lon="-0.75409">
        <ele>76.8</ele>
        <time>2010-10-10T06:47:17Z</time>
      </trkpt>
      <trkpt lat="48.00604" lon="-0.75408">
        <ele>76.8</ele>
        <time>2010-10-10T06:47:18Z</time>
      </trkpt>
      <trkpt lat="48.00602" lon="-0.75407">
        <ele>76.8</ele>
        <time>2010-10-10T06:47:19Z</time>
      </trkpt>
      <trkpt lat="48.00592" lon="-0.75412">
        <ele>77</ele>
        <time>2010-10-10T06:47:23Z</time>
      </trkpt>
      <trkpt lat="48.00591" lon="-0.75414">
        <ele>77</ele>
        <time>2010-10-10T06:47:24Z</time>
      </trkpt>
      <trkpt lat="48.00587" lon="-0.75419">
        <ele>77</ele>
        <time>2010-10-10T06:47:26Z</time>
      </trkpt>
      <trkpt lat="48.00583" lon="-0.75423">
        <ele>77</ele>
        <time>2010-10-10T06:47:28Z</time>
      </trkpt>
      <trkpt lat="48.0058" lon="-0.75431">
        <ele>77</ele>
        <time>2010-10-10T06:47:31Z</time>
      </trkpt>
      <trkpt lat="48.0058" lon="-0.75439">
        <ele>77.2</ele>
        <time>2010-10-10T06:47:33Z</time>
      </trkpt>
      <trkpt lat="48.0058" lon="-0.75444">
        <ele>77.2</ele>
        <time>2010-10-10T06:47:34Z</time>
      </trkpt>
      <trkpt lat="48.00582" lon="-0.75472">
        <ele>77.4</ele>
        <time>2010-10-10T06:47:39Z</time>
      </trkpt>
      <trkpt lat="48.00584" lon="-0.75503">
        <ele>77.8</ele>
        <time>2010-10-10T06:47:45Z</time>
      </trkpt>
      <trkpt lat="48.00584" lon="-0.75518">
        <ele>78</ele>
        <time>2010-10-10T06:47:48Z</time>
      </trkpt>
      <trkpt lat="48.00584" lon="-0.75532">
        <ele>78.2</ele>
        <time>2010-10-10T06:47:51Z</time>
      </trkpt>
      <trkpt lat="48.00583" lon="-0.75562">
        <ele>78.8</ele>
        <time>2010-10-10T06:47:57Z</time>
      </trkpt>
      <trkpt lat="48.00583" lon="-0.75567">
        <ele>78.8</ele>
        <time>2010-10-10T06:47:58Z</time>
      </trkpt>
      <trkpt lat="48.0058" lon="-0.75592">
        <ele>79.2</ele>
        <time>2010-10-10T06:48:03Z</time>
      </trkpt>
      <trkpt lat="48.00577" lon="-0.75606">
        <ele>79.4</ele>
        <time>2010-10-10T06:48:06Z</time>
      </trkpt>
      <trkpt lat="48.00574" lon="-0.7562">
        <ele>79.6</ele>
        <time>2010-10-10T06:48:09Z</time>
      </trkpt>
      <trkpt lat="48.00569" lon="-0.75641">
        <ele>80</ele>
        <time>2010-10-10T06:48:14Z</time>
      </trkpt>
      <trkpt lat="48.00567" lon="-0.75649">
        <ele>80.2</ele>
        <time>2010-10-10T06:48:16Z</time>
      </trkpt>
      <trkpt lat="48.0056" lon="-0.75677">
        <ele>80.8</ele>
        <time>2010-10-10T06:48:23Z</time>
      </trkpt>
      <trkpt lat="48.00552" lon="-0.75699">
        <ele>81.2</ele>
        <time>2010-10-10T06:48:30Z</time>
      </trkpt>
      <trkpt lat="48.00551" lon="-0.75702">
        <ele>81.2</ele>
        <time>2010-10-10T06:48:31Z</time>
      </trkpt>
      <trkpt lat="48.00545" lon="-0.75719">
        <ele>81.6</ele>
        <time>2010-10-10T06:48:36Z</time>
      </trkpt>
      <trkpt lat="48.00543" lon="-0.75727">
        <ele>81.8</ele>
        <time>2010-10-10T06:48:38Z</time>
      </trkpt>
      <trkpt lat="48.00538" lon="-0.75749">
        <ele>82.2</ele>
        <time>2010-10-10T06:48:44Z</time>
      </trkpt>
      <trkpt lat="48.00538" lon="-0.75752">
        <ele>82.2</ele>
        <time>2010-10-10T06:48:45Z</time>
      </trkpt>
      <trkpt lat="48.00536" lon="-0.75772">
        <ele>82.6</ele>
        <time>2010-10-10T06:48:51Z</time>
      </trkpt>
      <trkpt lat="48.00535" lon="-0.75782">
        <ele>82.6</ele>
        <time>2010-10-10T06:48:54Z</time>
      </trkpt>
      <trkpt lat="48.00535" lon="-0.75801">
        <ele>83</ele>
        <time>2010-10-10T06:49:00Z</time>
      </trkpt>
      <trkpt lat="48.00535" lon="-0.75811">
        <ele>83.2</ele>
        <time>2010-10-10T06:49:03Z</time>
      </trkpt>
      <trkpt lat="48.00537" lon="-0.75827">
        <ele>83.4</ele>
        <time>2010-10-10T06:49:07Z</time>
      </trkpt>
      <trkpt lat="48.0054" lon="-0.75841">
        <ele>83.6</ele>
        <time>2010-10-10T06:49:10Z</time>
      </trkpt>
      <trkpt lat="48.00542" lon="-0.75854">
        <ele>83.6</ele>
        <time>2010-10-10T06:49:13Z</time>
      </trkpt>
      <trkpt lat="48.00544" lon="-0.75868">
        <ele>83.8</ele>
        <time>2010-10-10T06:49:17Z</time>
      </trkpt>
      <trkpt lat="48.00548" lon="-0.7589">
        <ele>84.2</ele>
        <time>2010-10-10T06:49:23Z</time>
      </trkpt>
      <trkpt lat="48.00549" lon="-0.75894">
        <ele>84.2</ele>
        <time>2010-10-10T06:49:24Z</time>
      </trkpt>
      <trkpt lat="48.00555" lon="-0.75924">
        <ele>84.6</ele>
        <time>2010-10-10T06:49:31Z</time>
      </trkpt>
      <trkpt lat="48.00556" lon="-0.75931">
        <ele>84.8</ele>
        <time>2010-10-10T06:49:33Z</time>
      </trkpt>
      <trkpt lat="48.00556" lon="-0.75936">
        <ele>84.8</ele>
        <time>2010-10-10T06:49:35Z</time>
      </trkpt>
      <trkpt lat="48.00556" lon="-0.75936">
        <ele>85</ele>
        <time>2010-10-10T06:49:37Z</time>
      </trkpt>
      <trkpt lat="48.00558" lon="-0.75934">
        <ele>89.6</ele>
        <time>2010-10-10T06:54:52Z</time>
      </trkpt>
      <trkpt lat="48.00555" lon="-0.75915">
        <ele>89.2</ele>
        <time>2010-10-10T06:55:07Z</time>
      </trkpt>
      <trkpt lat="48.00553" lon="-0.75904">
        <ele>89</ele>
        <time>2010-10-10T06:55:09Z</time>
      </trkpt>
      <trkpt lat="48.00549" lon="-0.75885">
        <ele>88.8</ele>
        <time>2010-10-10T06:55:12Z</time>
      </trkpt>
      <trkpt lat="48.00548" lon="-0.75878">
        <ele>88.8</ele>
        <time>2010-10-10T06:55:13Z</time>
      </trkpt>
      <trkpt lat="48.00542" lon="-0.75846">
        <ele>88.6</ele>
        <time>2010-10-10T06:55:17Z</time>
      </trkpt>
      <trkpt lat="48.00538" lon="-0.7583">
        <ele>88.6</ele>
        <time>2010-10-10T06:55:19Z</time>
      </trkpt>
      <trkpt lat="48.00536" lon="-0.75814">
        <ele>88.4</ele>
        <time>2010-10-10T06:55:21Z</time>
      </trkpt>
      <trkpt lat="48.00535" lon="-0.75806">
        <ele>88.4</ele>
        <time>2010-10-10T06:55:22Z</time>
      </trkpt>
      <trkpt lat="48.00535" lon="-0.75788">
        <ele>88.4</ele>
        <time>2010-10-10T06:55:24Z</time>
      </trkpt>
      <trkpt lat="48.00536" lon="-0.75779">
        <ele>88.2</ele>
        <time>2010-10-10T06:55:25Z</time>
      </trkpt>
      <trkpt lat="48.00539" lon="-0.75752">
        <ele>88</ele>
        <time>2010-10-10T06:55:28Z</time>
      </trkpt>
      <trkpt lat="48.00542" lon="-0.75734">
        <ele>88</ele>
        <time>2010-10-10T06:55:30Z</time>
      </trkpt>
      <trkpt lat="48.00544" lon="-0.75725">
        <ele>87.8</ele>
        <time>2010-10-10T06:55:31Z</time>
      </trkpt>
      <trkpt lat="48.00552" lon="-0.75698">
        <ele>87.6</ele>
        <time>2010-10-10T06:55:34Z</time>
      </trkpt>
      <trkpt lat="48.00558" lon="-0.7568">
        <ele>87.4</ele>
        <time>2010-10-10T06:55:36Z</time>
      </trkpt>
      <trkpt lat="48.00561" lon="-0.75671">
        <ele>87.4</ele>
        <time>2010-10-10T06:55:37Z</time>
      </trkpt>
      <trkpt lat="48.00569" lon="-0.75644">
        <ele>87.2</ele>
        <time>2010-10-10T06:55:40Z</time>
      </trkpt>
      <trkpt lat="48.00575" lon="-0.75617">
        <ele>87</ele>
        <time>2010-10-10T06:55:43Z</time>
      </trkpt>
      <trkpt lat="48.00577" lon="-0.75608">
        <ele>86.8</ele>
        <time>2010-10-10T06:55:44Z</time>
      </trkpt>
      <trkpt lat="48.00581" lon="-0.75589">
        <ele>86.6</ele>
        <time>2010-10-10T06:55:46Z</time>
      </trkpt>
      <trkpt lat="48.00584" lon="-0.7557">
        <ele>86.4</ele>
        <time>2010-10-10T06:55:48Z</time>
      </trkpt>
      <trkpt lat="48.00585" lon="-0.7556">
        <ele>86.4</ele>
        <time>2010-10-10T06:55:49Z</time>
      </trkpt>
      <trkpt lat="48.00585" lon="-0.7555">
        <ele>86.4</ele>
        <time>2010-10-10T06:55:50Z</time>
      </trkpt>
      <trkpt lat="48.00585" lon="-0.75531">
        <ele>86.2</ele>
        <time>2010-10-10T06:55:52Z</time>
      </trkpt>
      <trkpt lat="48.00585" lon="-0.75503">
        <ele>86</ele>
        <time>2010-10-10T06:55:55Z</time>
      </trkpt>
      <trkpt lat="48.00584" lon="-0.75474">
        <ele>85.6</ele>
        <time>2010-10-10T06:55:58Z</time>
      </trkpt>
      <trkpt lat="48.00583" lon="-0.75447">
        <ele>85.4</ele>
        <time>2010-10-10T06:56:01Z</time>
      </trkpt>
      <trkpt lat="48.00583" lon="-0.75438">
        <ele>85.2</ele>
        <time>2010-10-10T06:56:02Z</time>
      </trkpt>
      <trkpt lat="48.00587" lon="-0.75422">
        <ele>85</ele>
        <time>2010-10-10T06:56:04Z</time>
      </trkpt>
      <trkpt lat="48.00591" lon="-0.75416">
        <ele>85</ele>
        <time>2010-10-10T06:56:05Z</time>
      </trkpt>
      <trkpt lat="48.00602" lon="-0.75407">
        <ele>84.8</ele>
        <time>2010-10-10T06:56:07Z</time>
      </trkpt>
      <trkpt lat="48.00608" lon="-0.75404">
        <ele>84.6</ele>
        <time>2010-10-10T06:56:08Z</time>
      </trkpt>
      <trkpt lat="48.00614" lon="-0.75402">
        <ele>84.6</ele>
        <time>2010-10-10T06:56:09Z</time>
      </trkpt>
      <trkpt lat="48.00621" lon="-0.75402">
        <ele>84.4</ele>
        <time>2010-10-10T06:56:10Z</time>
      </trkpt>
      <trkpt lat="48.00628" lon="-0.754">
        <ele>84.4</ele>
        <time>2010-10-10T06:56:11Z</time>
      </trkpt>
      <trkpt lat="48.00634" lon="-0.75399">
        <ele>84.2</ele>
        <time>2010-10-10T06:56:12Z</time>
      </trkpt>
      <trkpt lat="48.00648" lon="-0.75396">
        <ele>84</ele>
        <time>2010-10-10T06:56:14Z</time>
      </trkpt>
      <trkpt lat="48.00671" lon="-0.75391">
        <ele>83.6</ele>
        <time>2010-10-10T06:56:18Z</time>
      </trkpt>
      <trkpt lat="48.00676" lon="-0.75391">
        <ele>83.4</ele>
        <time>2010-10-10T06:56:19Z</time>
      </trkpt>
      <trkpt lat="48.00686" lon="-0.75391">
        <ele>83.2</ele>
        <time>2010-10-10T06:56:21Z</time>
      </trkpt>
      <trkpt lat="48.00691" lon="-0.75389">
        <ele>83</ele>
        <time>2010-10-10T06:56:22Z</time>
      </trkpt>
      <trkpt lat="48.00695" lon="-0.75385">
        <ele>83</ele>
        <time>2010-10-10T06:56:23Z</time>
      </trkpt>
      <trkpt lat="48.00704" lon="-0.75368">
        <ele>82.6</ele>
        <time>2010-10-10T06:56:26Z</time>
      </trkpt>
      <trkpt lat="48.00706" lon="-0.75337">
        <ele>82.2</ele>
        <time>2010-10-10T06:56:30Z</time>
      </trkpt>
      <trkpt lat="48.00702" lon="-0.75311">
        <ele>81.8</ele>
        <time>2010-10-10T06:56:33Z</time>
      </trkpt>
      <trkpt lat="48.00701" lon="-0.75303">
        <ele>81.6</ele>
        <time>2010-10-10T06:56:34Z</time>
      </trkpt>
      <trkpt lat="48.00699" lon="-0.75294">
        <ele>81.6</ele>
        <time>2010-10-10T06:56:35Z</time>
      </trkpt>
      <trkpt lat="48.00694" lon="-0.75269">
        <ele>81.2</ele>
        <time>2010-10-10T06:56:38Z</time>
      </trkpt>
      <trkpt lat="48.00688" lon="-0.75235">
        <ele>80.6</ele>
        <time>2010-10-10T06:56:42Z</time>
      </trkpt>
      <trkpt lat="48.00686" lon="-0.75228">
        <ele>80.6</ele>
        <time>2010-10-10T06:56:43Z</time>
      </trkpt>
      <trkpt lat="48.00684" lon="-0.75208">
        <ele>80</ele>
        <time>2010-10-10T06:56:46Z</time>
      </trkpt>
      <trkpt lat="48.00685" lon="-0.75202">
        <ele>80</ele>
        <time>2010-10-10T06:56:47Z</time>
      </trkpt>
      <trkpt lat="48.00694" lon="-0.75189">
        <ele>79.6</ele>
        <time>2010-10-10T06:56:50Z</time>
      </trkpt>
      <trkpt lat="48.00696" lon="-0.75186">
        <ele>79.4</ele>
        <time>2010-10-10T06:56:51Z</time>
      </trkpt>
      <trkpt lat="48.00698" lon="-0.75172">
        <ele>79</ele>
        <time>2010-10-10T06:56:54Z</time>
      </trkpt>
      <trkpt lat="48.00695" lon="-0.75155">
        <ele>78.6</ele>
        <time>2010-10-10T06:56:57Z</time>
      </trkpt>
      <trkpt lat="48.00692" lon="-0.75137">
        <ele>78.4</ele>
        <time>2010-10-10T06:57:00Z</time>
      </trkpt>
      <trkpt lat="48.00689" lon="-0.75125">
        <ele>78.2</ele>
        <time>2010-10-10T06:57:02Z</time>
      </trkpt>
      <trkpt lat="48.00686" lon="-0.75098">
        <ele>77.6</ele>
        <time>2010-10-10T06:57:06Z</time>
      </trkpt>
      <trkpt lat="48.00686" lon="-0.75091">
        <ele>77.6</ele>
        <time>2010-10-10T06:57:07Z</time>
      </trkpt>
      <trkpt lat="48.00685" lon="-0.75065">
        <ele>77</ele>
        <time>2010-10-10T06:57:11Z</time>
      </trkpt>
      <trkpt lat="48.00686" lon="-0.75045">
        <ele>76.8</ele>
        <time>2010-10-10T06:57:14Z</time>
      </trkpt>
      <trkpt lat="48.00688" lon="-0.75033">
        <ele>76.6</ele>
        <time>2010-10-10T06:57:16Z</time>
      </trkpt>
      <trkpt lat="48.00695" lon="-0.75017">
        <ele>76.2</ele>
        <time>2010-10-10T06:57:19Z</time>
      </trkpt>
      <trkpt lat="48.007" lon="-0.75007">
        <ele>76</ele>
        <time>2010-10-10T06:57:21Z</time>
      </trkpt>
      <trkpt lat="48.00709" lon="-0.74987">
        <ele>75.6</ele>
        <time>2010-10-10T06:57:25Z</time>
      </trkpt>
      <trkpt lat="48.00711" lon="-0.74981">
        <ele>75.4</ele>
        <time>2010-10-10T06:57:26Z</time>
      </trkpt>
      <trkpt lat="48.0072" lon="-0.74955">
        <ele>75</ele>
        <time>2010-10-10T06:57:30Z</time>
      </trkpt>
      <trkpt lat="48.00725" lon="-0.74936">
        <ele>74.8</ele>
        <time>2010-10-10T06:57:33Z</time>
      </trkpt>
      <trkpt lat="48.00728" lon="-0.74923">
        <ele>74.6</ele>
        <time>2010-10-10T06:57:35Z</time>
      </trkpt>
      <trkpt lat="48.00734" lon="-0.74898">
        <ele>74</ele>
        <time>2010-10-10T06:57:39Z</time>
      </trkpt>
      <trkpt lat="48.00735" lon="-0.74892">
        <ele>74</ele>
        <time>2010-10-10T06:57:40Z</time>
      </trkpt>
      <trkpt lat="48.00737" lon="-0.74885">
        <ele>73.8</ele>
        <time>2010-10-10T06:57:41Z</time>
      </trkpt>
      <trkpt lat="48.00742" lon="-0.74867">
        <ele>73.6</ele>
        <time>2010-10-10T06:57:44Z</time>
      </trkpt>
      <trkpt lat="48.00748" lon="-0.7485">
        <ele>73.2</ele>
        <time>2010-10-10T06:57:47Z</time>
      </trkpt>
      <trkpt lat="48.00752" lon="-0.74841">
        <ele>73</ele>
        <time>2010-10-10T06:57:49Z</time>
      </trkpt>
      <trkpt lat="48.00754" lon="-0.74836">
        <ele>73</ele>
        <time>2010-10-10T06:57:50Z</time>
      </trkpt>
      <trkpt lat="48.00754" lon="-0.74825">
        <ele>72.8</ele>
        <time>2010-10-10T06:57:52Z</time>
      </trkpt>
      <trkpt lat="48.0075" lon="-0.74814">
        <ele>72.6</ele>
        <time>2010-10-10T06:57:54Z</time>
      </trkpt>
      <trkpt lat="48.00747" lon="-0.74809">
        <ele>72.4</ele>
        <time>2010-10-10T06:57:55Z</time>
      </trkpt>
      <trkpt lat="48.00737" lon="-0.74796">
        <ele>72.2</ele>
        <time>2010-10-10T06:57:58Z</time>
      </trkpt>
      <trkpt lat="48.00734" lon="-0.74792">
        <ele>72</ele>
        <time>2010-10-10T06:57:59Z</time>
      </trkpt>
      <trkpt lat="48.00727" lon="-0.74785">
        <ele>71.8</ele>
        <time>2010-10-10T06:58:01Z</time>
      </trkpt>
      <trkpt lat="48.00725" lon="-0.74782">
        <ele>71.8</ele>
        <time>2010-10-10T06:58:02Z</time>
      </trkpt>
      <trkpt lat="48.00723" lon="-0.74775">
        <ele>71.6</ele>
        <time>2010-10-10T06:58:04Z</time>
      </trkpt>
      <trkpt lat="48.00725" lon="-0.74772">
        <ele>71.6</ele>
        <time>2010-10-10T06:58:05Z</time>
      </trkpt>
      <trkpt lat="48.00726" lon="-0.74768">
        <ele>71.4</ele>
        <time>2010-10-10T06:58:06Z</time>
      </trkpt>
      <trkpt lat="48.0073" lon="-0.74759">
        <ele>71.2</ele>
        <time>2010-10-10T06:58:08Z</time>
      </trkpt>
      <trkpt lat="48.00738" lon="-0.74748">
        <ele>71</ele>
        <time>2010-10-10T06:58:11Z</time>
      </trkpt>
      <trkpt lat="48.00743" lon="-0.74739">
        <ele>70.8</ele>
        <time>2010-10-10T06:58:13Z</time>
      </trkpt>
      <trkpt lat="48.0075" lon="-0.74727">
        <ele>70.4</ele>
        <time>2010-10-10T06:58:16Z</time>
      </trkpt>
      <trkpt lat="48.00756" lon="-0.74718">
        <ele>70.2</ele>
        <time>2010-10-10T06:58:18Z</time>
      </trkpt>
      <trkpt lat="48.00766" lon="-0.74704">
        <ele>70</ele>
        <time>2010-10-10T06:58:21Z</time>
      </trkpt>
      <trkpt lat="48.00768" lon="-0.74699">
        <ele>69.8</ele>
        <time>2010-10-10T06:58:22Z</time>
      </trkpt>
      <trkpt lat="48.00779" lon="-0.74681">
        <ele>69.4</ele>
        <time>2010-10-10T06:58:26Z</time>
      </trkpt>
      <trkpt lat="48.00784" lon="-0.7467">
        <ele>69.2</ele>
        <time>2010-10-10T06:58:28Z</time>
      </trkpt>
      <trkpt lat="48.00789" lon="-0.74659">
        <ele>69</ele>
        <time>2010-10-10T06:58:30Z</time>
      </trkpt>
      <trkpt lat="48.00791" lon="-0.74654">
        <ele>68.8</ele>
        <time>2010-10-10T06:58:31Z</time>
      </trkpt>
      <trkpt lat="48.00794" lon="-0.74648">
        <ele>68.6</ele>
        <time>2010-10-10T06:58:32Z</time>
      </trkpt>
      <trkpt lat="48.00801" lon="-0.74638">
        <ele>68.4</ele>
        <time>2010-10-10T06:58:34Z</time>
      </trkpt>
      <trkpt lat="48.00804" lon="-0.74632">
        <ele>68.4</ele>
        <time>2010-10-10T06:58:35Z</time>
      </trkpt>
      <trkpt lat="48.00807" lon="-0.74626">
        <ele>68.2</ele>
        <time>2010-10-10T06:58:36Z</time>
      </trkpt>
      <trkpt lat="48.00809" lon="-0.74619">
        <ele>68</ele>
        <time>2010-10-10T06:58:37Z</time>
      </trkpt>
      <trkpt lat="48.00812" lon="-0.74607">
        <ele>67.8</ele>
        <time>2010-10-10T06:58:39Z</time>
      </trkpt>
      <trkpt lat="48.00814" lon="-0.74592">
        <ele>67.4</ele>
        <time>2010-10-10T06:58:41Z</time>
      </trkpt>
      <trkpt lat="48.00815" lon="-0.74576">
        <ele>67</ele>
        <time>2010-10-10T06:58:43Z</time>
      </trkpt>
      <trkpt lat="48.00815" lon="-0.74568">
        <ele>66.8</ele>
        <time>2010-10-10T06:58:44Z</time>
      </trkpt>
      <trkpt lat="48.00813" lon="-0.74559">
        <ele>66.6</ele>
        <time>2010-10-10T06:58:45Z</time>
      </trkpt>
      <trkpt lat="48.00811" lon="-0.74543">
        <ele>66.2</ele>
        <time>2010-10-10T06:58:47Z</time>
      </trkpt>
      <trkpt lat="48.00809" lon="-0.74537">
        <ele>65.8</ele>
        <time>2010-10-10T06:58:48Z</time>
      </trkpt>
      <trkpt lat="48.00806" lon="-0.74525">
        <ele>65.4</ele>
        <time>2010-10-10T06:58:50Z</time>
      </trkpt>
      <trkpt lat="48.00803" lon="-0.74512">
        <ele>65</ele>
        <time>2010-10-10T06:58:52Z</time>
      </trkpt>
      <trkpt lat="48.008" lon="-0.74495">
        <ele>64.2</ele>
        <time>2010-10-10T06:58:55Z</time>
      </trkpt>
      <trkpt lat="48.00798" lon="-0.7449">
        <ele>64</ele>
        <time>2010-10-10T06:58:56Z</time>
      </trkpt>
      <trkpt lat="48.00796" lon="-0.74484">
        <ele>63.8</ele>
        <time>2010-10-10T06:58:57Z</time>
      </trkpt>
      <trkpt lat="48.00796" lon="-0.74477">
        <ele>63.6</ele>
        <time>2010-10-10T06:58:58Z</time>
      </trkpt>
      <trkpt lat="48.00795" lon="-0.74455">
        <ele>63</ele>
        <time>2010-10-10T06:59:01Z</time>
      </trkpt>
      <trkpt lat="48.00798" lon="-0.74423">
        <ele>62.4</ele>
        <time>2010-10-10T06:59:05Z</time>
      </trkpt>
      <trkpt lat="48.00799" lon="-0.74416">
        <ele>62.4</ele>
        <time>2010-10-10T06:59:06Z</time>
      </trkpt>
      <trkpt lat="48.00803" lon="-0.74394">
        <ele>61.8</ele>
        <time>2010-10-10T06:59:09Z</time>
      </trkpt>
      <trkpt lat="48.00806" lon="-0.7438">
        <ele>61.4</ele>
        <time>2010-10-10T06:59:11Z</time>
      </trkpt>
      <trkpt lat="48.0081" lon="-0.74368">
        <ele>61.2</ele>
        <time>2010-10-10T06:59:13Z</time>
      </trkpt>
      <trkpt lat="48.00816" lon="-0.74359">
        <ele>60.8</ele>
        <time>2010-10-10T06:59:15Z</time>
      </trkpt>
      <trkpt lat="48.00821" lon="-0.74348">
        <ele>60.6</ele>
        <time>2010-10-10T06:59:17Z</time>
      </trkpt>
      <trkpt lat="48.00823" lon="-0.74343">
        <ele>60.4</ele>
        <time>2010-10-10T06:59:18Z</time>
      </trkpt>
      <trkpt lat="48.00832" lon="-0.74329">
        <ele>60</ele>
        <time>2010-10-10T06:59:21Z</time>
      </trkpt>
      <trkpt lat="48.00835" lon="-0.74323">
        <ele>59.8</ele>
        <time>2010-10-10T06:59:22Z</time>
      </trkpt>
      <trkpt lat="48.00842" lon="-0.74302">
        <ele>59.8</ele>
        <time>2010-10-10T06:59:25Z</time>
      </trkpt>
      <trkpt lat="48.00843" lon="-0.74297">
        <ele>59.6</ele>
        <time>2010-10-10T06:59:26Z</time>
      </trkpt>
      <trkpt lat="48.00845" lon="-0.74273">
        <ele>59</ele>
        <time>2010-10-10T06:59:30Z</time>
      </trkpt>
      <trkpt lat="48.00843" lon="-0.74267">
        <ele>58.8</ele>
        <time>2010-10-10T06:59:31Z</time>
      </trkpt>
      <trkpt lat="48.00836" lon="-0.74251">
        <ele>58.4</ele>
        <time>2010-10-10T06:59:33Z</time>
      </trkpt>
      <trkpt lat="48.00832" lon="-0.74244">
        <ele>58.4</ele>
        <time>2010-10-10T06:59:34Z</time>
      </trkpt>
      <trkpt lat="48.00815" lon="-0.74236">
        <ele>58.4</ele>
        <time>2010-10-10T06:59:37Z</time>
      </trkpt>
      <trkpt lat="48.0081" lon="-0.74238">
        <ele>58.2</ele>
        <time>2010-10-10T06:59:38Z</time>
      </trkpt>
      <trkpt lat="48.00802" lon="-0.74241">
        <ele>58.2</ele>
        <time>2010-10-10T06:59:40Z</time>
      </trkpt>
      <trkpt lat="48.00798" lon="-0.74243">
        <ele>58</ele>
        <time>2010-10-10T06:59:41Z</time>
      </trkpt>
      <trkpt lat="48.00795" lon="-0.74246">
        <ele>58</ele>
        <time>2010-10-10T06:59:42Z</time>
      </trkpt>
      <trkpt lat="48.00792" lon="-0.74249">
        <ele>58</ele>
        <time>2010-10-10T06:59:43Z</time>
      </trkpt>
      <trkpt lat="48.00786" lon="-0.74255">
        <ele>58</ele>
        <time>2010-10-10T06:59:45Z</time>
      </trkpt>
      <trkpt lat="48.00781" lon="-0.74261">
        <ele>58</ele>
        <time>2010-10-10T06:59:47Z</time>
      </trkpt>
      <trkpt lat="48.00778" lon="-0.74265">
        <ele>58</ele>
        <time>2010-10-10T06:59:48Z</time>
      </trkpt>
      <trkpt lat="48.00775" lon="-0.74268">
        <ele>58</ele>
        <time>2010-10-10T06:59:49Z</time>
      </trkpt>
      <trkpt lat="48.00766" lon="-0.74285">
        <ele>58.8</ele>
        <time>2010-10-10T06:59:54Z</time>
      </trkpt>
      <trkpt lat="48.00764" lon="-0.74292">
        <ele>59.4</ele>
        <time>2010-10-10T06:59:56Z</time>
      </trkpt>
      <trkpt lat="48.00759" lon="-0.743">
        <ele>60.8</ele>
        <time>2010-10-10T07:00:00Z</time>
      </trkpt>
      <trkpt lat="48.00754" lon="-0.74312">
        <ele>63.2</ele>
        <time>2010-10-10T07:00:06Z</time>
      </trkpt>
      <trkpt lat="48.00754" lon="-0.74315">
        <ele>63.8</ele>
        <time>2010-10-10T07:00:08Z</time>
      </trkpt>
      <trkpt lat="48.00755" lon="-0.74316">
        <ele>64.2</ele>
        <time>2010-10-10T07:00:10Z</time>
      </trkpt>
      <trkpt lat="48.00756" lon="-0.74316">
        <ele>64.6</ele>
        <time>2010-10-10T07:00:11Z</time>
      </trkpt>
      <trkpt lat="48.00756" lon="-0.74318">
        <ele>65.2</ele>
        <time>2010-10-10T07:00:14Z</time>
      </trkpt>
      <trkpt lat="48.00758" lon="-0.74317">
        <ele>65.6</ele>
        <time>2010-10-10T07:00:17Z</time>
      </trkpt>
      <trkpt lat="48.00758" lon="-0.74318">
        <ele>65.8</ele>
        <time>2010-10-10T07:00:18Z</time>
      </trkpt>
      <trkpt lat="48.00758" lon="-0.74322">
        <ele>66.4</ele>
        <time>2010-10-10T07:00:21Z</time>
      </trkpt>
      <trkpt lat="48.00758" lon="-0.74325">
        <ele>66.8</ele>
        <time>2010-10-10T07:00:24Z</time>
      </trkpt>
      <trkpt lat="48.00755" lon="-0.74332">
        <ele>67.4</ele>
        <time>2010-10-10T07:00:29Z</time>
      </trkpt>
      <trkpt lat="48.00753" lon="-0.74338">
        <ele>68.2</ele>
        <time>2010-10-10T07:00:33Z</time>
      </trkpt>
      <trkpt lat="48.00753" lon="-0.7434">
        <ele>68.4</ele>
        <time>2010-10-10T07:00:34Z</time>
      </trkpt>
      <trkpt lat="48.00751" lon="-0.74345">
        <ele>68.8</ele>
        <time>2010-10-10T07:00:36Z</time>
      </trkpt>
      <trkpt lat="48.0075" lon="-0.74352">
        <ele>69.2</ele>
        <time>2010-10-10T07:00:38Z</time>
      </trkpt>
      <trkpt lat="48.00747" lon="-0.74359">
        <ele>69.6</ele>
        <time>2010-10-10T07:00:41Z</time>
      </trkpt>
      <trkpt lat="48.00743" lon="-0.74359">
        <ele>70</ele>
        <time>2010-10-10T07:00:43Z</time>
      </trkpt>
      <trkpt lat="48.00739" lon="-0.74357">
        <ele>70.4</ele>
        <time>2010-10-10T07:00:45Z</time>
      </trkpt>
      <trkpt lat="48.00729" lon="-0.74351">
        <ele>70.8</ele>
        <time>2010-10-10T07:00:51Z</time>
      </trkpt>
      <trkpt lat="48.00724" lon="-0.74348">
        <ele>70.8</ele>
        <time>2010-10-10T07:00:53Z</time>
      </trkpt>
      <trkpt lat="48.00714" lon="-0.74343">
        <ele>71.2</ele>
        <time>2010-10-10T07:00:57Z</time>
      </trkpt>
      <trkpt lat="48.00707" lon="-0.74341">
        <ele>71.4</ele>
        <time>2010-10-10T07:01:00Z</time>
      </trkpt>
      <trkpt lat="48.00695" lon="-0.74337">
        <ele>71.6</ele>
        <time>2010-10-10T07:01:05Z</time>
      </trkpt>
      <trkpt lat="48.00687" lon="-0.74336">
        <ele>71.8</ele>
        <time>2010-10-10T07:01:08Z</time>
      </trkpt>
      <trkpt lat="48.00676" lon="-0.74333">
        <ele>72</ele>
        <time>2010-10-10T07:01:12Z</time>
      </trkpt>
      <trkpt lat="48.00669" lon="-0.7433">
        <ele>72.4</ele>
        <time>2010-10-10T07:01:15Z</time>
      </trkpt>
      <trkpt lat="48.00656" lon="-0.74328">
        <ele>72.8</ele>
        <time>2010-10-10T07:01:20Z</time>
      </trkpt>
      <trkpt lat="48.00648" lon="-0.74327">
        <ele>73</ele>
        <time>2010-10-10T07:01:23Z</time>
      </trkpt>
      <trkpt lat="48.00639" lon="-0.74325">
        <ele>73.6</ele>
        <time>2010-10-10T07:01:27Z</time>
      </trkpt>
      <trkpt lat="48.0063" lon="-0.74325">
        <ele>74</ele>
        <time>2010-10-10T07:01:31Z</time>
      </trkpt>
      <trkpt lat="48.00624" lon="-0.74326">
        <ele>74.2</ele>
        <time>2010-10-10T07:01:34Z</time>
      </trkpt>
      <trkpt lat="48.00622" lon="-0.74325">
        <ele>74.4</ele>
        <time>2010-10-10T07:01:35Z</time>
      </trkpt>
      <trkpt lat="48.00618" lon="-0.7432">
        <ele>74.6</ele>
        <time>2010-10-10T07:01:38Z</time>
      </trkpt>
      <trkpt lat="48.00613" lon="-0.74314">
        <ele>74.8</ele>
        <time>2010-10-10T07:01:40Z</time>
      </trkpt>
      <trkpt lat="48.00608" lon="-0.7431">
        <ele>74.8</ele>
        <time>2010-10-10T07:01:42Z</time>
      </trkpt>
      <trkpt lat="48.00597" lon="-0.743">
        <ele>75</ele>
        <time>2010-10-10T07:01:46Z</time>
      </trkpt>
      <trkpt lat="48.00591" lon="-0.74295">
        <ele>75</ele>
        <time>2010-10-10T07:01:48Z</time>
      </trkpt>
      <trkpt lat="48.00582" lon="-0.74283">
        <ele>75</ele>
        <time>2010-10-10T07:01:51Z</time>
      </trkpt>
      <trkpt lat="48.00575" lon="-0.74269">
        <ele>75.2</ele>
        <time>2010-10-10T07:01:53Z</time>
      </trkpt>
      <trkpt lat="48.00569" lon="-0.74257">
        <ele>75</ele>
        <time>2010-10-10T07:01:55Z</time>
      </trkpt>
      <trkpt lat="48.00558" lon="-0.74242">
        <ele>74.8</ele>
        <time>2010-10-10T07:01:58Z</time>
      </trkpt>
      <trkpt lat="48.00554" lon="-0.74236">
        <ele>74.6</ele>
        <time>2010-10-10T07:01:59Z</time>
      </trkpt>
      <trkpt lat="48.00541" lon="-0.74219">
        <ele>74.6</ele>
        <time>2010-10-10T07:02:02Z</time>
      </trkpt>
      <trkpt lat="48.00537" lon="-0.74215">
        <ele>74.4</ele>
        <time>2010-10-10T07:02:03Z</time>
      </trkpt>
      <trkpt lat="48.00523" lon="-0.74203">
        <ele>74</ele>
        <time>2010-10-10T07:02:06Z</time>
      </trkpt>
      <trkpt lat="48.00518" lon="-0.74198">
        <ele>74</ele>
        <time>2010-10-10T07:02:07Z</time>
      </trkpt>
      <trkpt lat="48.00513" lon="-0.74192">
        <ele>73.8</ele>
        <time>2010-10-10T07:02:08Z</time>
      </trkpt>
      <trkpt lat="48.00506" lon="-0.74177">
        <ele>73.4</ele>
        <time>2010-10-10T07:02:10Z</time>
      </trkpt>
      <trkpt lat="48.00503" lon="-0.74169">
        <ele>73.2</ele>
        <time>2010-10-10T07:02:11Z</time>
      </trkpt>
      <trkpt lat="48.00496" lon="-0.74146">
        <ele>72.4</ele>
        <time>2010-10-10T07:02:14Z</time>
      </trkpt>
      <trkpt lat="48.00494" lon="-0.7414">
        <ele>72.2</ele>
        <time>2010-10-10T07:02:15Z</time>
      </trkpt>
      <trkpt lat="48.00487" lon="-0.74125">
        <ele>71.4</ele>
        <time>2010-10-10T07:02:18Z</time>
      </trkpt>
      <trkpt lat="48.00485" lon="-0.74122">
        <ele>71.2</ele>
        <time>2010-10-10T07:02:19Z</time>
      </trkpt>
      <trkpt lat="48.00475" lon="-0.74118">
        <ele>70.4</ele>
        <time>2010-10-10T07:02:23Z</time>
      </trkpt>
      <trkpt lat="48.00468" lon="-0.74117">
        <ele>70.2</ele>
        <time>2010-10-10T07:02:25Z</time>
      </trkpt>
      <trkpt lat="48.00466" lon="-0.74117">
        <ele>70</ele>
        <time>2010-10-10T07:02:26Z</time>
      </trkpt>
      <trkpt lat="48.00461" lon="-0.74117">
        <ele>69.6</ele>
        <time>2010-10-10T07:02:28Z</time>
      </trkpt>
      <trkpt lat="48.00447" lon="-0.74116">
        <ele>68.8</ele>
        <time>2010-10-10T07:02:33Z</time>
      </trkpt>
      <trkpt lat="48.00445" lon="-0.74116">
        <ele>68.6</ele>
        <time>2010-10-10T07:02:34Z</time>
      </trkpt>
      <trkpt lat="48.00437" lon="-0.74117">
        <ele>68</ele>
        <time>2010-10-10T07:02:38Z</time>
      </trkpt>
      <trkpt lat="48.00436" lon="-0.7412">
        <ele>67.8</ele>
        <time>2010-10-10T07:02:40Z</time>
      </trkpt>
      <trkpt lat="48.00435" lon="-0.74122">
        <ele>67.6</ele>
        <time>2010-10-10T07:02:42Z</time>
      </trkpt>
      <trkpt lat="48.00434" lon="-0.7413">
        <ele>67.6</ele>
        <time>2010-10-10T07:02:48Z</time>
      </trkpt>
      <trkpt lat="48.00434" lon="-0.74131">
        <ele>67.6</ele>
        <time>2010-10-10T07:02:49Z</time>
      </trkpt>
      <trkpt lat="48.00436" lon="-0.7414">
        <ele>68.6</ele>
        <time>2010-10-10T07:02:54Z</time>
      </trkpt>
      <trkpt lat="48.00437" lon="-0.74149">
        <ele>70.8</ele>
        <time>2010-10-10T07:03:00Z</time>
      </trkpt>
      <trkpt lat="48.00438" lon="-0.74155">
        <ele>72</ele>
        <time>2010-10-10T07:03:03Z</time>
      </trkpt>
      <trkpt lat="48.00438" lon="-0.74157">
        <ele>72.8</ele>
        <time>2010-10-10T07:03:05Z</time>
      </trkpt>
      <trkpt lat="48.00438" lon="-0.7416">
        <ele>73.2</ele>
        <time>2010-10-10T07:03:06Z</time>
      </trkpt>
      <trkpt lat="48.00439" lon="-0.7417">
        <ele>75.4</ele>
        <time>2010-10-10T07:03:11Z</time>
      </trkpt>
      <trkpt lat="48.0044" lon="-0.74172">
        <ele>75.8</ele>
        <time>2010-10-10T07:03:12Z</time>
      </trkpt>
      <trkpt lat="48.00442" lon="-0.74184">
        <ele>77.6</ele>
        <time>2010-10-10T07:03:17Z</time>
      </trkpt>
      <trkpt lat="48.00442" lon="-0.74187">
        <ele>78</ele>
        <time>2010-10-10T07:03:18Z</time>
      </trkpt>
      <trkpt lat="48.00441" lon="-0.74189">
        <ele>78.4</ele>
        <time>2010-10-10T07:03:19Z</time>
      </trkpt>
      <trkpt lat="48.00439" lon="-0.74207">
        <ele>80.8</ele>
        <time>2010-10-10T07:03:27Z</time>
      </trkpt>
      <trkpt lat="48.0044" lon="-0.74211">
        <ele>81.4</ele>
        <time>2010-10-10T07:03:29Z</time>
      </trkpt>
      <trkpt lat="48.00441" lon="-0.74224">
        <ele>82</ele>
        <time>2010-10-10T07:03:34Z</time>
      </trkpt>
      <trkpt lat="48.00444" lon="-0.74238">
        <ele>82.6</ele>
        <time>2010-10-10T07:03:38Z</time>
      </trkpt>
      <trkpt lat="48.00445" lon="-0.7424">
        <ele>82.8</ele>
        <time>2010-10-10T07:03:39Z</time>
      </trkpt>
      <trkpt lat="48.00458" lon="-0.74249">
        <ele>83.8</ele>
        <time>2010-10-10T07:03:46Z</time>
      </trkpt>
      <trkpt lat="48.00462" lon="-0.74253">
        <ele>84.2</ele>
        <time>2010-10-10T07:03:48Z</time>
      </trkpt>
      <trkpt lat="48.00469" lon="-0.74261">
        <ele>85</ele>
        <time>2010-10-10T07:03:53Z</time>
      </trkpt>
      <trkpt lat="48.00472" lon="-0.74264">
        <ele>85.4</ele>
        <time>2010-10-10T07:03:55Z</time>
      </trkpt>
      <trkpt lat="48.00473" lon="-0.74268">
        <ele>86</ele>
        <time>2010-10-10T07:03:57Z</time>
      </trkpt>
      <trkpt lat="48.00472" lon="-0.74272">
        <ele>86.8</ele>
        <time>2010-10-10T07:03:59Z</time>
      </trkpt>
      <trkpt lat="48.00466" lon="-0.74282">
        <ele>88.2</ele>
        <time>2010-10-10T07:04:05Z</time>
      </trkpt>
      <trkpt lat="48.0046" lon="-0.74282">
        <ele>88.8</ele>
        <time>2010-10-10T07:04:08Z</time>
      </trkpt>
      <trkpt lat="48.00456" lon="-0.74284">
        <ele>89</ele>
        <time>2010-10-10T07:04:10Z</time>
      </trkpt>
      <trkpt lat="48.00455" lon="-0.74286">
        <ele>89</ele>
        <time>2010-10-10T07:04:11Z</time>
      </trkpt>
      <trkpt lat="48.00451" lon="-0.74297">
        <ele>89.2</ele>
        <time>2010-10-10T07:04:14Z</time>
      </trkpt>
      <trkpt lat="48.00447" lon="-0.74306">
        <ele>89.4</ele>
        <time>2010-10-10T07:04:16Z</time>
      </trkpt>
      <trkpt lat="48.0044" lon="-0.74333">
        <ele>89.8</ele>
        <time>2010-10-10T07:04:21Z</time>
      </trkpt>
      <trkpt lat="48.0044" lon="-0.74339">
        <ele>90</ele>
        <time>2010-10-10T07:04:22Z</time>
      </trkpt>
      <trkpt lat="48.00436" lon="-0.74366">
        <ele>90.4</ele>
        <time>2010-10-10T07:04:26Z</time>
      </trkpt>
      <trkpt lat="48.00435" lon="-0.74378">
        <ele>90.6</ele>
        <time>2010-10-10T07:04:28Z</time>
      </trkpt>
      <trkpt lat="48.00434" lon="-0.74396">
        <ele>91</ele>
        <time>2010-10-10T07:04:31Z</time>
      </trkpt>
      <trkpt lat="48.00432" lon="-0.74417">
        <ele>91.4</ele>
        <time>2010-10-10T07:04:34Z</time>
      </trkpt>
      <trkpt lat="48.00432" lon="-0.74424">
        <ele>91.6</ele>
        <time>2010-10-10T07:04:35Z</time>
      </trkpt>
      <trkpt lat="48.00434" lon="-0.74455">
        <ele>91.8</ele>
        <time>2010-10-10T07:04:39Z</time>
      </trkpt>
      <trkpt lat="48.00436" lon="-0.74462">
        <ele>91.8</ele>
        <time>2010-10-10T07:04:40Z</time>
      </trkpt>
      <trkpt lat="48.00443" lon="-0.74482">
        <ele>91.8</ele>
        <time>2010-10-10T07:04:43Z</time>
      </trkpt>
      <trkpt lat="48.00444" lon="-0.7449">
        <ele>91.6</ele>
        <time>2010-10-10T07:04:44Z</time>
      </trkpt>
      <trkpt lat="48.00442" lon="-0.74515">
        <ele>91.6</ele>
        <time>2010-10-10T07:04:47Z</time>
      </trkpt>
      <trkpt lat="48.0044" lon="-0.74533">
        <ele>91.6</ele>
        <time>2010-10-10T07:04:49Z</time>
      </trkpt>
      <trkpt lat="48.00438" lon="-0.74542">
        <ele>91.4</ele>
        <time>2010-10-10T07:04:50Z</time>
      </trkpt>
      <trkpt lat="48.00436" lon="-0.74552">
        <ele>91.4</ele>
        <time>2010-10-10T07:04:51Z</time>
      </trkpt>
      <trkpt lat="48.00427" lon="-0.74573">
        <ele>91.2</ele>
        <time>2010-10-10T07:04:53Z</time>
      </trkpt>
      <trkpt lat="48.00418" lon="-0.74598">
        <ele>91</ele>
        <time>2010-10-10T07:04:55Z</time>
      </trkpt>
      <trkpt lat="48.00408" lon="-0.74624">
        <ele>90.6</ele>
        <time>2010-10-10T07:04:57Z</time>
      </trkpt>
      <trkpt lat="48.00399" lon="-0.74651">
        <ele>90.4</ele>
        <time>2010-10-10T07:04:59Z</time>
      </trkpt>
      <trkpt lat="48.0039" lon="-0.74676">
        <ele>90.2</ele>
        <time>2010-10-10T07:05:01Z</time>
      </trkpt>
      <trkpt lat="48.00377" lon="-0.74712">
        <ele>89.8</ele>
        <time>2010-10-10T07:05:04Z</time>
      </trkpt>
      <trkpt lat="48.00374" lon="-0.74721">
        <ele>89.6</ele>
        <time>2010-10-10T07:05:05Z</time>
      </trkpt>
      <trkpt lat="48.00368" lon="-0.74737">
        <ele>89.4</ele>
        <time>2010-10-10T07:05:07Z</time>
      </trkpt>
      <trkpt lat="48.00365" lon="-0.74743">
        <ele>89.4</ele>
        <time>2010-10-10T07:05:08Z</time>
      </trkpt>
      <trkpt lat="48.00361" lon="-0.74747">
        <ele>89.2</ele>
        <time>2010-10-10T07:05:09Z</time>
      </trkpt>
      <trkpt lat="48.00352" lon="-0.74744">
        <ele>89</ele>
        <time>2010-10-10T07:05:11Z</time>
      </trkpt>
      <trkpt lat="48.00347" lon="-0.74741">
        <ele>88.8</ele>
        <time>2010-10-10T07:05:12Z</time>
      </trkpt>
      <trkpt lat="48.00331" lon="-0.74731">
        <ele>88.4</ele>
        <time>2010-10-10T07:05:15Z</time>
      </trkpt>
      <trkpt lat="48.00314" lon="-0.74718">
        <ele>87.8</ele>
        <time>2010-10-10T07:05:18Z</time>
      </trkpt>
      <trkpt lat="48.00294" lon="-0.74703">
        <ele>87.2</ele>
        <time>2010-10-10T07:05:21Z</time>
      </trkpt>
      <trkpt lat="48.00273" lon="-0.74687">
        <ele>86.8</ele>
        <time>2010-10-10T07:05:24Z</time>
      </trkpt>
      <trkpt lat="48.0025" lon="-0.74674">
        <ele>86.2</ele>
        <time>2010-10-10T07:05:27Z</time>
      </trkpt>
      <trkpt lat="48.00241" lon="-0.74673">
        <ele>86</ele>
        <time>2010-10-10T07:05:28Z</time>
      </trkpt>
      <trkpt lat="48.00227" lon="-0.74686">
        <ele>85.6</ele>
        <time>2010-10-10T07:05:30Z</time>
      </trkpt>
      <trkpt lat="48.00215" lon="-0.74703">
        <ele>85.2</ele>
        <time>2010-10-10T07:05:32Z</time>
      </trkpt>
      <trkpt lat="48.00209" lon="-0.74711">
        <ele>85</ele>
        <time>2010-10-10T07:05:33Z</time>
      </trkpt>
      <trkpt lat="48.00203" lon="-0.74718">
        <ele>84.8</ele>
        <time>2010-10-10T07:05:34Z</time>
      </trkpt>
      <trkpt lat="48.00195" lon="-0.74723">
        <ele>84.6</ele>
        <time>2010-10-10T07:05:35Z</time>
      </trkpt>
      <trkpt lat="48.00187" lon="-0.74728">
        <ele>84.2</ele>
        <time>2010-10-10T07:05:36Z</time>
      </trkpt>
      <trkpt lat="48.00169" lon="-0.7474">
        <ele>83.8</ele>
        <time>2010-10-10T07:05:38Z</time>
      </trkpt>
      <trkpt lat="48.00159" lon="-0.74746">
        <ele>83.6</ele>
        <time>2010-10-10T07:05:39Z</time>
      </trkpt>
      <trkpt lat="48.00149" lon="-0.74753">
        <ele>83.4</ele>
        <time>2010-10-10T07:05:40Z</time>
      </trkpt>
      <trkpt lat="48.00125" lon="-0.74766">
        <ele>82.8</ele>
        <time>2010-10-10T07:05:42Z</time>
      </trkpt>
      <trkpt lat="48.00113" lon="-0.74772">
        <ele>82.6</ele>
        <time>2010-10-10T07:05:43Z</time>
      </trkpt>
      <trkpt lat="48.001" lon="-0.74775">
        <ele>82.4</ele>
        <time>2010-10-10T07:05:44Z</time>
      </trkpt>
      <trkpt lat="48.00074" lon="-0.7478">
        <ele>81.8</ele>
        <time>2010-10-10T07:05:46Z</time>
      </trkpt>
      <trkpt lat="48.00061" lon="-0.74781">
        <ele>81.6</ele>
        <time>2010-10-10T07:05:47Z</time>
      </trkpt>
      <trkpt lat="48.00049" lon="-0.74783">
        <ele>81.4</ele>
        <time>2010-10-10T07:05:48Z</time>
      </trkpt>
      <trkpt lat="48.00028" lon="-0.74788">
        <ele>81.2</ele>
        <time>2010-10-10T07:05:50Z</time>
      </trkpt>
      <trkpt lat="48.00018" lon="-0.7479">
        <ele>81</ele>
        <time>2010-10-10T07:05:51Z</time>
      </trkpt>
      <trkpt lat="48.00001" lon="-0.74794">
        <ele>80.6</ele>
        <time>2010-10-10T07:05:53Z</time>
      </trkpt>
      <trkpt lat="47.99987" lon="-0.74799">
        <ele>80.2</ele>
        <time>2010-10-10T07:05:55Z</time>
      </trkpt>
      <trkpt lat="47.9998" lon="-0.74801">
        <ele>80.2</ele>
        <time>2010-10-10T07:05:56Z</time>
      </trkpt>
      <trkpt lat="47.9996" lon="-0.74805">
        <ele>79.8</ele>
        <time>2010-10-10T07:05:59Z</time>
      </trkpt>
      <trkpt lat="47.99949" lon="-0.74808">
        <ele>79.6</ele>
        <time>2010-10-10T07:06:01Z</time>
      </trkpt>
      <trkpt lat="47.99938" lon="-0.7481">
        <ele>79.4</ele>
        <time>2010-10-10T07:06:03Z</time>
      </trkpt>
      <trkpt lat="47.99926" lon="-0.74813">
        <ele>79</ele>
        <time>2010-10-10T07:06:06Z</time>
      </trkpt>
      <trkpt lat="47.9992" lon="-0.74814">
        <ele>79</ele>
        <time>2010-10-10T07:06:08Z</time>
      </trkpt>
      <trkpt lat="47.99902" lon="-0.74818">
        <ele>78.4</ele>
        <time>2010-10-10T07:06:14Z</time>
      </trkpt>
      <trkpt lat="47.999" lon="-0.74816">
        <ele>78.4</ele>
        <time>2010-10-10T07:06:15Z</time>
      </trkpt>
      <trkpt lat="47.99898" lon="-0.74804">
        <ele>78.2</ele>
        <time>2010-10-10T07:06:18Z</time>
      </trkpt>
      <trkpt lat="47.99896" lon="-0.74788">
        <ele>78</ele>
        <time>2010-10-10T07:06:21Z</time>
      </trkpt>
      <trkpt lat="47.99894" lon="-0.7477">
        <ele>77.6</ele>
        <time>2010-10-10T07:06:24Z</time>
      </trkpt>
      <trkpt lat="47.99892" lon="-0.74758">
        <ele>77.4</ele>
        <time>2010-10-10T07:06:26Z</time>
      </trkpt>
      <trkpt lat="47.99888" lon="-0.74733">
        <ele>76.8</ele>
        <time>2010-10-10T07:06:31Z</time>
      </trkpt>
      <trkpt lat="47.99887" lon="-0.74728">
        <ele>76.8</ele>
        <time>2010-10-10T07:06:32Z</time>
      </trkpt>
      <trkpt lat="47.99883" lon="-0.74699">
        <ele>76.2</ele>
        <time>2010-10-10T07:06:37Z</time>
      </trkpt>
      <trkpt lat="47.99883" lon="-0.74692">
        <ele>76</ele>
        <time>2010-10-10T07:06:38Z</time>
      </trkpt>
      <trkpt lat="47.9988" lon="-0.74667">
        <ele>75.4</ele>
        <time>2010-10-10T07:06:42Z</time>
      </trkpt>
      <trkpt lat="47.99879" lon="-0.74647">
        <ele>75</ele>
        <time>2010-10-10T07:06:45Z</time>
      </trkpt>
      <trkpt lat="47.99879" lon="-0.74639">
        <ele>74.8</ele>
        <time>2010-10-10T07:06:46Z</time>
      </trkpt>
      <trkpt lat="47.99878" lon="-0.74624">
        <ele>74.6</ele>
        <time>2010-10-10T07:06:48Z</time>
      </trkpt>
      <trkpt lat="47.99876" lon="-0.74608">
        <ele>74.2</ele>
        <time>2010-10-10T07:06:50Z</time>
      </trkpt>
      <trkpt lat="47.99876" lon="-0.74601">
        <ele>74.2</ele>
        <time>2010-10-10T07:06:51Z</time>
      </trkpt>
      <trkpt lat="47.99876" lon="-0.74586">
        <ele>73.8</ele>
        <time>2010-10-10T07:06:53Z</time>
      </trkpt>
      <trkpt lat="47.99876" lon="-0.74579">
        <ele>73.8</ele>
        <time>2010-10-10T07:06:54Z</time>
      </trkpt>
      <trkpt lat="47.99878" lon="-0.74566">
        <ele>73.4</ele>
        <time>2010-10-10T07:06:56Z</time>
      </trkpt>
      <trkpt lat="47.99879" lon="-0.74549">
        <ele>73</ele>
        <time>2010-10-10T07:06:58Z</time>
      </trkpt>
      <trkpt lat="47.9988" lon="-0.74529">
        <ele>72.6</ele>
        <time>2010-10-10T07:07:00Z</time>
      </trkpt>
      <trkpt lat="47.9988" lon="-0.7452">
        <ele>72.6</ele>
        <time>2010-10-10T07:07:01Z</time>
      </trkpt>
      <trkpt lat="47.99881" lon="-0.74498">
        <ele>72</ele>
        <time>2010-10-10T07:07:04Z</time>
      </trkpt>
      <trkpt lat="47.99881" lon="-0.7449">
        <ele>71.8</ele>
        <time>2010-10-10T07:07:05Z</time>
      </trkpt>
      <trkpt lat="47.99882" lon="-0.74458">
        <ele>71</ele>
        <time>2010-10-10T07:07:09Z</time>
      </trkpt>
      <trkpt lat="47.99882" lon="-0.74449">
        <ele>70.8</ele>
        <time>2010-10-10T07:07:10Z</time>
      </trkpt>
      <trkpt lat="47.99881" lon="-0.74424">
        <ele>70.2</ele>
        <time>2010-10-10T07:07:13Z</time>
      </trkpt>
      <trkpt lat="47.99881" lon="-0.744">
        <ele>69.6</ele>
        <time>2010-10-10T07:07:16Z</time>
      </trkpt>
      <trkpt lat="47.9988" lon="-0.74394">
        <ele>69.4</ele>
        <time>2010-10-10T07:07:17Z</time>
      </trkpt>
      <trkpt lat="47.99881" lon="-0.74364">
        <ele>68.2</ele>
        <time>2010-10-10T07:07:22Z</time>
      </trkpt>
      <trkpt lat="47.9988" lon="-0.74332">
        <ele>67.4</ele>
        <time>2010-10-10T07:07:26Z</time>
      </trkpt>
      <trkpt lat="47.99879" lon="-0.74323">
        <ele>67.2</ele>
        <time>2010-10-10T07:07:27Z</time>
      </trkpt>
      <trkpt lat="47.99877" lon="-0.74299">
        <ele>66.4</ele>
        <time>2010-10-10T07:07:30Z</time>
      </trkpt>
      <trkpt lat="47.99875" lon="-0.74286">
        <ele>66</ele>
        <time>2010-10-10T07:07:32Z</time>
      </trkpt>
      <trkpt lat="47.99872" lon="-0.74277">
        <ele>65.4</ele>
        <time>2010-10-10T07:07:34Z</time>
      </trkpt>
      <trkpt lat="47.9987" lon="-0.74275">
        <ele>65.2</ele>
        <time>2010-10-10T07:07:35Z</time>
      </trkpt>
      <trkpt lat="47.99866" lon="-0.74275">
        <ele>65</ele>
        <time>2010-10-10T07:07:36Z</time>
      </trkpt>
      <trkpt lat="47.99849" lon="-0.74279">
        <ele>64.4</ele>
        <time>2010-10-10T07:07:40Z</time>
      </trkpt>
      <trkpt lat="47.99844" lon="-0.74279">
        <ele>64.2</ele>
        <time>2010-10-10T07:07:41Z</time>
      </trkpt>
      <trkpt lat="47.99829" lon="-0.74283">
        <ele>63.6</ele>
        <time>2010-10-10T07:07:44Z</time>
      </trkpt>
      <trkpt lat="47.99808" lon="-0.74287">
        <ele>62.8</ele>
        <time>2010-10-10T07:07:48Z</time>
      </trkpt>
      <trkpt lat="47.99788" lon="-0.74291">
        <ele>62.2</ele>
        <time>2010-10-10T07:07:52Z</time>
      </trkpt>
      <trkpt lat="47.99773" lon="-0.74295">
        <ele>61.8</ele>
        <time>2010-10-10T07:07:55Z</time>
      </trkpt>
      <trkpt lat="47.99769" lon="-0.74296">
        <ele>61.6</ele>
        <time>2010-10-10T07:07:56Z</time>
      </trkpt>
      <trkpt lat="47.99751" lon="-0.74301">
        <ele>61</ele>
        <time>2010-10-10T07:08:00Z</time>
      </trkpt>
      <trkpt lat="47.99741" lon="-0.74304">
        <ele>60.6</ele>
        <time>2010-10-10T07:08:02Z</time>
      </trkpt>
      <trkpt lat="47.99732" lon="-0.74306">
        <ele>60.4</ele>
        <time>2010-10-10T07:08:04Z</time>
      </trkpt>
      <trkpt lat="47.99715" lon="-0.74309">
        <ele>59.8</ele>
        <time>2010-10-10T07:08:08Z</time>
      </trkpt>
      <trkpt lat="47.99711" lon="-0.7431">
        <ele>59.8</ele>
        <time>2010-10-10T07:08:09Z</time>
      </trkpt>
      <trkpt lat="47.99695" lon="-0.7431">
        <ele>59.2</ele>
        <time>2010-10-10T07:08:13Z</time>
      </trkpt>
      <trkpt lat="47.99691" lon="-0.7431">
        <ele>59.2</ele>
        <time>2010-10-10T07:08:14Z</time>
      </trkpt>
      <trkpt lat="47.99685" lon="-0.74302">
        <ele>58.8</ele>
        <time>2010-10-10T07:08:16Z</time>
      </trkpt>
      <trkpt lat="47.99685" lon="-0.74289">
        <ele>58.6</ele>
        <time>2010-10-10T07:08:18Z</time>
      </trkpt>
      <trkpt lat="47.99686" lon="-0.74281">
        <ele>58.4</ele>
        <time>2010-10-10T07:08:19Z</time>
      </trkpt>
      <trkpt lat="47.99686" lon="-0.74272">
        <ele>58.2</ele>
        <time>2010-10-10T07:08:20Z</time>
      </trkpt>
      <trkpt lat="47.99685" lon="-0.74246">
        <ele>57.8</ele>
        <time>2010-10-10T07:08:23Z</time>
      </trkpt>
      <trkpt lat="47.99684" lon="-0.74237">
        <ele>57.6</ele>
        <time>2010-10-10T07:08:24Z</time>
      </trkpt>
      <trkpt lat="47.99682" lon="-0.74218">
        <ele>57.2</ele>
        <time>2010-10-10T07:08:26Z</time>
      </trkpt>
      <trkpt lat="47.99678" lon="-0.74187">
        <ele>56.8</ele>
        <time>2010-10-10T07:08:29Z</time>
      </trkpt>
      <trkpt lat="47.99678" lon="-0.74176">
        <ele>56.6</ele>
        <time>2010-10-10T07:08:30Z</time>
      </trkpt>
      <trkpt lat="47.99675" lon="-0.74156">
        <ele>56.4</ele>
        <time>2010-10-10T07:08:32Z</time>
      </trkpt>
      <trkpt lat="47.99671" lon="-0.74127">
        <ele>55.8</ele>
        <time>2010-10-10T07:08:35Z</time>
      </trkpt>
      <trkpt lat="47.99668" lon="-0.74108">
        <ele>55.6</ele>
        <time>2010-10-10T07:08:37Z</time>
      </trkpt>
      <trkpt lat="47.99667" lon="-0.74098">
        <ele>55.4</ele>
        <time>2010-10-10T07:08:38Z</time>
      </trkpt>
      <trkpt lat="47.99662" lon="-0.7407">
        <ele>55</ele>
        <time>2010-10-10T07:08:41Z</time>
      </trkpt>
      <trkpt lat="47.99658" lon="-0.74042">
        <ele>54.6</ele>
        <time>2010-10-10T07:08:44Z</time>
      </trkpt>
      <trkpt lat="47.99655" lon="-0.74023">
        <ele>54.4</ele>
        <time>2010-10-10T07:08:46Z</time>
      </trkpt>
      <trkpt lat="47.99654" lon="-0.74014">
        <ele>54.2</ele>
        <time>2010-10-10T07:08:47Z</time>
      </trkpt>
      <trkpt lat="47.99648" lon="-0.7398">
        <ele>53.8</ele>
        <time>2010-10-10T07:08:51Z</time>
      </trkpt>
      <trkpt lat="47.99645" lon="-0.73953">
        <ele>53.4</ele>
        <time>2010-10-10T07:08:54Z</time>
      </trkpt>
      <trkpt lat="47.99642" lon="-0.73918">
        <ele>53</ele>
        <time>2010-10-10T07:08:58Z</time>
      </trkpt>
      <trkpt lat="47.99641" lon="-0.7391">
        <ele>53</ele>
        <time>2010-10-10T07:08:59Z</time>
      </trkpt>
      <trkpt lat="47.9964" lon="-0.73903">
        <ele>52.8</ele>
        <time>2010-10-10T07:09:00Z</time>
      </trkpt>
      <trkpt lat="47.99634" lon="-0.7389">
        <ele>52.6</ele>
        <time>2010-10-10T07:09:02Z</time>
      </trkpt>
      <trkpt lat="47.99631" lon="-0.73885">
        <ele>52.6</ele>
        <time>2010-10-10T07:09:03Z</time>
      </trkpt>
      <trkpt lat="47.99627" lon="-0.73864">
        <ele>52.2</ele>
        <time>2010-10-10T07:09:06Z</time>
      </trkpt>
      <trkpt lat="47.99638" lon="-0.73848">
        <ele>52</ele>
        <time>2010-10-10T07:09:09Z</time>
      </trkpt>
      <trkpt lat="47.99642" lon="-0.73842">
        <ele>52</ele>
        <time>2010-10-10T07:09:10Z</time>
      </trkpt>
      <trkpt lat="47.99645" lon="-0.73836">
        <ele>51.8</ele>
        <time>2010-10-10T07:09:11Z</time>
      </trkpt>
      <trkpt lat="47.9965" lon="-0.73822">
        <ele>51.8</ele>
        <time>2010-10-10T07:09:13Z</time>
      </trkpt>
      <trkpt lat="47.99652" lon="-0.73815">
        <ele>51.6</ele>
        <time>2010-10-10T07:09:14Z</time>
      </trkpt>
      <trkpt lat="47.99664" lon="-0.7379">
        <ele>51.6</ele>
        <time>2010-10-10T07:09:18Z</time>
      </trkpt>
      <trkpt lat="47.9967" lon="-0.73778">
        <ele>51.4</ele>
        <time>2010-10-10T07:09:20Z</time>
      </trkpt>
      <trkpt lat="47.99677" lon="-0.73766">
        <ele>51.4</ele>
        <time>2010-10-10T07:09:22Z</time>
      </trkpt>
      <trkpt lat="47.9969" lon="-0.73742">
        <ele>51.4</ele>
        <time>2010-10-10T07:09:26Z</time>
      </trkpt>
      <trkpt lat="47.99702" lon="-0.73719">
        <ele>51.2</ele>
        <time>2010-10-10T07:09:30Z</time>
      </trkpt>
      <trkpt lat="47.99715" lon="-0.73696">
        <ele>51.2</ele>
        <time>2010-10-10T07:09:34Z</time>
      </trkpt>
      <trkpt lat="47.99727" lon="-0.73675">
        <ele>51.4</ele>
        <time>2010-10-10T07:09:38Z</time>
      </trkpt>
      <trkpt lat="47.9973" lon="-0.73669">
        <ele>51.4</ele>
        <time>2010-10-10T07:09:39Z</time>
      </trkpt>
      <trkpt lat="47.99741" lon="-0.73649">
        <ele>51.6</ele>
        <time>2010-10-10T07:09:43Z</time>
      </trkpt>
      <trkpt lat="47.99752" lon="-0.7363">
        <ele>51.8</ele>
        <time>2010-10-10T07:09:47Z</time>
      </trkpt>
      <trkpt lat="47.99755" lon="-0.73625">
        <ele>51.8</ele>
        <time>2010-10-10T07:09:48Z</time>
      </trkpt>
      <trkpt lat="47.99771" lon="-0.73602">
        <ele>52.2</ele>
        <time>2010-10-10T07:09:53Z</time>
      </trkpt>
      <trkpt lat="47.9978" lon="-0.73588">
        <ele>52.4</ele>
        <time>2010-10-10T07:09:56Z</time>
      </trkpt>
      <trkpt lat="47.99784" lon="-0.73582">
        <ele>52.6</ele>
        <time>2010-10-10T07:09:57Z</time>
      </trkpt>
      <trkpt lat="47.9979" lon="-0.73572">
        <ele>52.8</ele>
        <time>2010-10-10T07:09:59Z</time>
      </trkpt>
      <trkpt lat="47.99796" lon="-0.73562">
        <ele>53</ele>
        <time>2010-10-10T07:10:01Z</time>
      </trkpt>
      <trkpt lat="47.99802" lon="-0.73553">
        <ele>53.4</ele>
        <time>2010-10-10T07:10:03Z</time>
      </trkpt>
      <trkpt lat="47.99809" lon="-0.73543">
        <ele>53.6</ele>
        <time>2010-10-10T07:10:05Z</time>
      </trkpt>
      <trkpt lat="47.9982" lon="-0.73522">
        <ele>54.2</ele>
        <time>2010-10-10T07:10:09Z</time>
      </trkpt>
      <trkpt lat="47.99825" lon="-0.73511">
        <ele>54.4</ele>
        <time>2010-10-10T07:10:11Z</time>
      </trkpt>
      <trkpt lat="47.99832" lon="-0.73497">
        <ele>54.8</ele>
        <time>2010-10-10T07:10:14Z</time>
      </trkpt>
      <trkpt lat="47.99844" lon="-0.73471">
        <ele>55.4</ele>
        <time>2010-10-10T07:10:19Z</time>
      </trkpt>
      <trkpt lat="47.99846" lon="-0.73466">
        <ele>55.6</ele>
        <time>2010-10-10T07:10:20Z</time>
      </trkpt>
      <trkpt lat="47.99854" lon="-0.73443">
        <ele>56</ele>
        <time>2010-10-10T07:10:24Z</time>
      </trkpt>
      <trkpt lat="47.99855" lon="-0.73437">
        <ele>56.2</ele>
        <time>2010-10-10T07:10:25Z</time>
      </trkpt>
      <trkpt lat="47.99858" lon="-0.73426">
        <ele>56.4</ele>
        <time>2010-10-10T07:10:27Z</time>
      </trkpt>
      <trkpt lat="47.99865" lon="-0.73421">
        <ele>56.6</ele>
        <time>2010-10-10T07:10:29Z</time>
      </trkpt>
      <trkpt lat="47.9987" lon="-0.73422">
        <ele>56.8</ele>
        <time>2010-10-10T07:10:30Z</time>
      </trkpt>
      <trkpt lat="47.99874" lon="-0.73422">
        <ele>57</ele>
        <time>2010-10-10T07:10:31Z</time>
      </trkpt>
      <trkpt lat="47.99884" lon="-0.73424">
        <ele>57.2</ele>
        <time>2010-10-10T07:10:33Z</time>
      </trkpt>
      <trkpt lat="47.99899" lon="-0.73426">
        <ele>57.4</ele>
        <time>2010-10-10T07:10:36Z</time>
      </trkpt>
      <trkpt lat="47.99905" lon="-0.73426">
        <ele>57.6</ele>
        <time>2010-10-10T07:10:37Z</time>
      </trkpt>
      <trkpt lat="47.99925" lon="-0.73426">
        <ele>58</ele>
        <time>2010-10-10T07:10:41Z</time>
      </trkpt>
      <trkpt lat="47.99939" lon="-0.73427">
        <ele>58.4</ele>
        <time>2010-10-10T07:10:44Z</time>
      </trkpt>
      <trkpt lat="47.99944" lon="-0.73427">
        <ele>58.6</ele>
        <time>2010-10-10T07:10:45Z</time>
      </trkpt>
      <trkpt lat="47.99964" lon="-0.73426">
        <ele>59.4</ele>
        <time>2010-10-10T07:10:49Z</time>
      </trkpt>
      <trkpt lat="47.99983" lon="-0.73426">
        <ele>59.8</ele>
        <time>2010-10-10T07:10:53Z</time>
      </trkpt>
      <trkpt lat="48.00002" lon="-0.73425">
        <ele>60.4</ele>
        <time>2010-10-10T07:10:57Z</time>
      </trkpt>
      <trkpt lat="48.0002" lon="-0.73424">
        <ele>61</ele>
        <time>2010-10-10T07:11:01Z</time>
      </trkpt>
      <trkpt lat="48.00025" lon="-0.73424">
        <ele>61.2</ele>
        <time>2010-10-10T07:11:02Z</time>
      </trkpt>
      <trkpt lat="48.00042" lon="-0.73421">
        <ele>61.6</ele>
        <time>2010-10-10T07:11:06Z</time>
      </trkpt>
      <trkpt lat="48.00062" lon="-0.73417">
        <ele>62.2</ele>
        <time>2010-10-10T07:11:10Z</time>
      </trkpt>
      <trkpt lat="48.00067" lon="-0.73416">
        <ele>62.4</ele>
        <time>2010-10-10T07:11:11Z</time>
      </trkpt>
      <trkpt lat="48.00081" lon="-0.73412">
        <ele>62.6</ele>
        <time>2010-10-10T07:11:14Z</time>
      </trkpt>
      <trkpt lat="48.00099" lon="-0.73407">
        <ele>63</ele>
        <time>2010-10-10T07:11:18Z</time>
      </trkpt>
      <trkpt lat="48.00103" lon="-0.73405">
        <ele>63</ele>
        <time>2010-10-10T07:11:19Z</time>
      </trkpt>
      <trkpt lat="48.00116" lon="-0.73397">
        <ele>63.4</ele>
        <time>2010-10-10T07:11:22Z</time>
      </trkpt>
      <trkpt lat="48.0012" lon="-0.73393">
        <ele>63.6</ele>
        <time>2010-10-10T07:11:23Z</time>
      </trkpt>
      <trkpt lat="48.00128" lon="-0.73385">
        <ele>64</ele>
        <time>2010-10-10T07:11:25Z</time>
      </trkpt>
      <trkpt lat="48.00131" lon="-0.7338">
        <ele>64.2</ele>
        <time>2010-10-10T07:11:26Z</time>
      </trkpt>
      <trkpt lat="48.00145" lon="-0.73364">
        <ele>64.8</ele>
        <time>2010-10-10T07:11:30Z</time>
      </trkpt>
      <trkpt lat="48.00149" lon="-0.7336">
        <ele>65</ele>
        <time>2010-10-10T07:11:31Z</time>
      </trkpt>
      <trkpt lat="48.00152" lon="-0.73357">
        <ele>65.2</ele>
        <time>2010-10-10T07:11:32Z</time>
      </trkpt>
      <trkpt lat="48.0016" lon="-0.73352">
        <ele>65.6</ele>
        <time>2010-10-10T07:11:34Z</time>
      </trkpt>
      <trkpt lat="48.00167" lon="-0.73346">
        <ele>66</ele>
        <time>2010-10-10T07:11:36Z</time>
      </trkpt>
      <trkpt lat="48.00175" lon="-0.73341">
        <ele>66.2</ele>
        <time>2010-10-10T07:11:38Z</time>
      </trkpt>
      <trkpt lat="48.00179" lon="-0.73339">
        <ele>66.4</ele>
        <time>2010-10-10T07:11:39Z</time>
      </trkpt>
      <trkpt lat="48.00186" lon="-0.73338">
        <ele>66.6</ele>
        <time>2010-10-10T07:11:41Z</time>
      </trkpt>
      <trkpt lat="48.0019" lon="-0.73338">
        <ele>66.8</ele>
        <time>2010-10-10T07:11:42Z</time>
      </trkpt>
      <trkpt lat="48.00194" lon="-0.73336">
        <ele>66.8</ele>
        <time>2010-10-10T07:11:43Z</time>
      </trkpt>
      <trkpt lat="48.00206" lon="-0.73328">
        <ele>67.4</ele>
        <time>2010-10-10T07:11:46Z</time>
      </trkpt>
      <trkpt lat="48.0021" lon="-0.73325">
        <ele>67.4</ele>
        <time>2010-10-10T07:11:47Z</time>
      </trkpt>
      <trkpt lat="48.00221" lon="-0.73312">
        <ele>67.8</ele>
        <time>2010-10-10T07:11:50Z</time>
      </trkpt>
      <trkpt lat="48.00229" lon="-0.73303">
        <ele>68</ele>
        <time>2010-10-10T07:11:52Z</time>
      </trkpt>
      <trkpt lat="48.00236" lon="-0.73294">
        <ele>68.2</ele>
        <time>2010-10-10T07:11:54Z</time>
      </trkpt>
      <trkpt lat="48.00252" lon="-0.73277">
        <ele>68.6</ele>
        <time>2010-10-10T07:11:58Z</time>
      </trkpt>
      <trkpt lat="48.00268" lon="-0.7326">
        <ele>69.2</ele>
        <time>2010-10-10T07:12:02Z</time>
      </trkpt>
      <trkpt lat="48.00272" lon="-0.73256">
        <ele>69.2</ele>
        <time>2010-10-10T07:12:03Z</time>
      </trkpt>
      <trkpt lat="48.00284" lon="-0.73244">
        <ele>69.6</ele>
        <time>2010-10-10T07:12:06Z</time>
      </trkpt>
      <trkpt lat="48.00299" lon="-0.73228">
        <ele>70.2</ele>
        <time>2010-10-10T07:12:10Z</time>
      </trkpt>
      <trkpt lat="48.00303" lon="-0.73224">
        <ele>70.2</ele>
        <time>2010-10-10T07:12:11Z</time>
      </trkpt>
      <trkpt lat="48.00314" lon="-0.73212">
        <ele>71</ele>
        <time>2010-10-10T07:12:15Z</time>
      </trkpt>
      <trkpt lat="48.0032" lon="-0.73207">
        <ele>71.2</ele>
        <time>2010-10-10T07:12:17Z</time>
      </trkpt>
      <trkpt lat="48.00331" lon="-0.73199">
        <ele>72</ele>
        <time>2010-10-10T07:12:21Z</time>
      </trkpt>
      <trkpt lat="48.00343" lon="-0.73192">
        <ele>72.8</ele>
        <time>2010-10-10T07:12:25Z</time>
      </trkpt>
      <trkpt lat="48.0035" lon="-0.73189">
        <ele>73.2</ele>
        <time>2010-10-10T07:12:27Z</time>
      </trkpt>
      <trkpt lat="48.00368" lon="-0.7318">
        <ele>74.2</ele>
        <time>2010-10-10T07:12:32Z</time>
      </trkpt>
      <trkpt lat="48.00372" lon="-0.73179">
        <ele>74.4</ele>
        <time>2010-10-10T07:12:33Z</time>
      </trkpt>
      <trkpt lat="48.00388" lon="-0.73172">
        <ele>75.2</ele>
        <time>2010-10-10T07:12:37Z</time>
      </trkpt>
      <trkpt lat="48.004" lon="-0.73167">
        <ele>75.8</ele>
        <time>2010-10-10T07:12:40Z</time>
      </trkpt>
      <trkpt lat="48.00408" lon="-0.73163">
        <ele>76.2</ele>
        <time>2010-10-10T07:12:42Z</time>
      </trkpt>
      <trkpt lat="48.00428" lon="-0.73154">
        <ele>77</ele>
        <time>2010-10-10T07:12:47Z</time>
      </trkpt>
      <trkpt lat="48.00441" lon="-0.73149">
        <ele>77.6</ele>
        <time>2010-10-10T07:12:50Z</time>
      </trkpt>
      <trkpt lat="48.00449" lon="-0.73145">
        <ele>78</ele>
        <time>2010-10-10T07:12:52Z</time>
      </trkpt>
      <trkpt lat="48.00469" lon="-0.73135">
        <ele>78.8</ele>
        <time>2010-10-10T07:12:57Z</time>
      </trkpt>
      <trkpt lat="48.00477" lon="-0.73131">
        <ele>79.2</ele>
        <time>2010-10-10T07:12:59Z</time>
      </trkpt>
      <trkpt lat="48.00488" lon="-0.73125">
        <ele>79.6</ele>
        <time>2010-10-10T07:13:02Z</time>
      </trkpt>
      <trkpt lat="48.00508" lon="-0.73113">
        <ele>80.4</ele>
        <time>2010-10-10T07:13:07Z</time>
      </trkpt>
      <trkpt lat="48.00512" lon="-0.7311">
        <ele>80.6</ele>
        <time>2010-10-10T07:13:08Z</time>
      </trkpt>
      <trkpt lat="48.00528" lon="-0.73099">
        <ele>81</ele>
        <time>2010-10-10T07:13:12Z</time>
      </trkpt>
      <trkpt lat="48.00544" lon="-0.73087">
        <ele>81.6</ele>
        <time>2010-10-10T07:13:16Z</time>
      </trkpt>
      <trkpt lat="48.00553" lon="-0.73081">
        <ele>81.8</ele>
        <time>2010-10-10T07:13:18Z</time>
      </trkpt>
      <trkpt lat="48.00561" lon="-0.73075">
        <ele>82</ele>
        <time>2010-10-10T07:13:20Z</time>
      </trkpt>
      <trkpt lat="48.00578" lon="-0.73063">
        <ele>82.4</ele>
        <time>2010-10-10T07:13:24Z</time>
      </trkpt>
      <trkpt lat="48.00587" lon="-0.73057">
        <ele>82.8</ele>
        <time>2010-10-10T07:13:26Z</time>
      </trkpt>
      <trkpt lat="48.00596" lon="-0.73054">
        <ele>83</ele>
        <time>2010-10-10T07:13:28Z</time>
      </trkpt>
      <trkpt lat="48.00613" lon="-0.7305">
        <ele>83.4</ele>
        <time>2010-10-10T07:13:32Z</time>
      </trkpt>
      <trkpt lat="48.00618" lon="-0.73049">
        <ele>83.6</ele>
        <time>2010-10-10T07:13:33Z</time>
      </trkpt>
      <trkpt lat="48.00639" lon="-0.73048">
        <ele>84</ele>
        <time>2010-10-10T07:13:37Z</time>
      </trkpt>
      <trkpt lat="48.0065" lon="-0.73048">
        <ele>84</ele>
        <time>2010-10-10T07:13:39Z</time>
      </trkpt>
      <trkpt lat="48.00661" lon="-0.73047">
        <ele>84.2</ele>
        <time>2010-10-10T07:13:41Z</time>
      </trkpt>
      <trkpt lat="48.00685" lon="-0.73047">
        <ele>84.4</ele>
        <time>2010-10-10T07:13:45Z</time>
      </trkpt>
      <trkpt lat="48.00703" lon="-0.73048">
        <ele>84.4</ele>
        <time>2010-10-10T07:13:48Z</time>
      </trkpt>
      <trkpt lat="48.00709" lon="-0.73049">
        <ele>84.4</ele>
        <time>2010-10-10T07:13:49Z</time>
      </trkpt>
      <trkpt lat="48.00723" lon="-0.7305">
        <ele>84.4</ele>
        <time>2010-10-10T07:13:51Z</time>
      </trkpt>
      <trkpt lat="48.00743" lon="-0.73051">
        <ele>84.4</ele>
        <time>2010-10-10T07:13:54Z</time>
      </trkpt>
      <trkpt lat="48.00763" lon="-0.73053">
        <ele>84.4</ele>
        <time>2010-10-10T07:13:57Z</time>
      </trkpt>
      <trkpt lat="48.00769" lon="-0.73054">
        <ele>84.4</ele>
        <time>2010-10-10T07:13:58Z</time>
      </trkpt>
      <trkpt lat="48.00783" lon="-0.73055">
        <ele>84.4</ele>
        <time>2010-10-10T07:14:00Z</time>
      </trkpt>
      <trkpt lat="48.00801" lon="-0.73057">
        <ele>84.2</ele>
        <time>2010-10-10T07:14:03Z</time>
      </trkpt>
      <trkpt lat="48.0082" lon="-0.73059">
        <ele>84.2</ele>
        <time>2010-10-10T07:14:06Z</time>
      </trkpt>
      <trkpt lat="48.00844" lon="-0.73061">
        <ele>84.2</ele>
        <time>2010-10-10T07:14:10Z</time>
      </trkpt>
      <trkpt lat="48.00861" lon="-0.73063">
        <ele>84.2</ele>
        <time>2010-10-10T07:14:13Z</time>
      </trkpt>
      <trkpt lat="48.00867" lon="-0.73063">
        <ele>84.2</ele>
        <time>2010-10-10T07:14:14Z</time>
      </trkpt>
      <trkpt lat="48.00888" lon="-0.73065">
        <ele>84.2</ele>
        <time>2010-10-10T07:14:18Z</time>
      </trkpt>
      <trkpt lat="48.00905" lon="-0.73067">
        <ele>84.2</ele>
        <time>2010-10-10T07:14:21Z</time>
      </trkpt>
      <trkpt lat="48.0091" lon="-0.73067">
        <ele>84.2</ele>
        <time>2010-10-10T07:14:22Z</time>
      </trkpt>
      <trkpt lat="48.00929" lon="-0.73071">
        <ele>84.4</ele>
        <time>2010-10-10T07:14:26Z</time>
      </trkpt>
      <trkpt lat="48.00932" lon="-0.73075">
        <ele>84.4</ele>
        <time>2010-10-10T07:14:27Z</time>
      </trkpt>
      <trkpt lat="48.00933" lon="-0.73095">
        <ele>84.4</ele>
        <time>2010-10-10T07:14:30Z</time>
      </trkpt>
      <trkpt lat="48.00933" lon="-0.73102">
        <ele>84.4</ele>
        <time>2010-10-10T07:14:31Z</time>
      </trkpt>
      <trkpt lat="48.00931" lon="-0.73134">
        <ele>84.4</ele>
        <time>2010-10-10T07:14:35Z</time>
      </trkpt>
      <trkpt lat="48.00931" lon="-0.7315">
        <ele>84.4</ele>
        <time>2010-10-10T07:14:37Z</time>
      </trkpt>
      <trkpt lat="48.0093" lon="-0.73167">
        <ele>84.4</ele>
        <time>2010-10-10T07:14:39Z</time>
      </trkpt>
      <trkpt lat="48.00927" lon="-0.73199">
        <ele>84.4</ele>
        <time>2010-10-10T07:14:43Z</time>
      </trkpt>
      <trkpt lat="48.00926" lon="-0.73207">
        <ele>84.4</ele>
        <time>2010-10-10T07:14:44Z</time>
      </trkpt>
      <trkpt lat="48.00921" lon="-0.73225">
        <ele>84.4</ele>
        <time>2010-10-10T07:14:46Z</time>
      </trkpt>
      <trkpt lat="48.00913" lon="-0.73242">
        <ele>84.2</ele>
        <time>2010-10-10T07:14:48Z</time>
      </trkpt>
      <trkpt lat="48.0091" lon="-0.73253">
        <ele>84.2</ele>
        <time>2010-10-10T07:14:49Z</time>
      </trkpt>
      <trkpt lat="48.00895" lon="-0.73287">
        <ele>84.2</ele>
        <time>2010-10-10T07:14:52Z</time>
      </trkpt>
      <trkpt lat="48.00887" lon="-0.73313">
        <ele>84.2</ele>
        <time>2010-10-10T07:14:54Z</time>
      </trkpt>
      <trkpt lat="48.00878" lon="-0.73341">
        <ele>84</ele>
        <time>2010-10-10T07:14:56Z</time>
      </trkpt>
      <trkpt lat="48.00874" lon="-0.73356">
        <ele>84</ele>
        <time>2010-10-10T07:14:57Z</time>
      </trkpt>
      <trkpt lat="48.00871" lon="-0.73371">
        <ele>84</ele>
        <time>2010-10-10T07:14:58Z</time>
      </trkpt>
      <trkpt lat="48.00865" lon="-0.73403">
        <ele>83.8</ele>
        <time>2010-10-10T07:15:00Z</time>
      </trkpt>
      <trkpt lat="48.00859" lon="-0.73436">
        <ele>83.6</ele>
        <time>2010-10-10T07:15:02Z</time>
      </trkpt>
      <trkpt lat="48.00856" lon="-0.73452">
        <ele>83.4</ele>
        <time>2010-10-10T07:15:03Z</time>
      </trkpt>
      <trkpt lat="48.00853" lon="-0.73469">
        <ele>83.4</ele>
        <time>2010-10-10T07:15:04Z</time>
      </trkpt>
      <trkpt lat="48.00848" lon="-0.73501">
        <ele>83</ele>
        <time>2010-10-10T07:15:06Z</time>
      </trkpt>
      <trkpt lat="48.00844" lon="-0.73531">
        <ele>82.6</ele>
        <time>2010-10-10T07:15:08Z</time>
      </trkpt>
      <trkpt lat="48.00839" lon="-0.73566">
        <ele>82</ele>
        <time>2010-10-10T07:15:11Z</time>
      </trkpt>
      <trkpt lat="48.00837" lon="-0.73588">
        <ele>81.6</ele>
        <time>2010-10-10T07:15:14Z</time>
      </trkpt>
      <trkpt lat="48.00832" lon="-0.73593">
        <ele>81.2</ele>
        <time>2010-10-10T07:15:16Z</time>
      </trkpt>
      <trkpt lat="48.00829" lon="-0.73594">
        <ele>81</ele>
        <time>2010-10-10T07:15:17Z</time>
      </trkpt>
      <trkpt lat="48.00822" lon="-0.73592">
        <ele>80.6</ele>
        <time>2010-10-10T07:15:19Z</time>
      </trkpt>
      <trkpt lat="48.00814" lon="-0.73591">
        <ele>80.2</ele>
        <time>2010-10-10T07:15:21Z</time>
      </trkpt>
      <trkpt lat="48.00795" lon="-0.73595">
        <ele>79.4</ele>
        <time>2010-10-10T07:15:26Z</time>
      </trkpt>
      <trkpt lat="48.0079" lon="-0.73597">
        <ele>79.2</ele>
        <time>2010-10-10T07:15:27Z</time>
      </trkpt>
      <trkpt lat="48.00774" lon="-0.736">
        <ele>78.6</ele>
        <time>2010-10-10T07:15:31Z</time>
      </trkpt>
      <trkpt lat="48.00771" lon="-0.73601">
        <ele>78.6</ele>
        <time>2010-10-10T07:15:32Z</time>
      </trkpt>
      <trkpt lat="48.00755" lon="-0.73606">
        <ele>77.8</ele>
        <time>2010-10-10T07:15:39Z</time>
      </trkpt>
      <trkpt lat="48.00742" lon="-0.73612">
        <ele>77.2</ele>
        <time>2010-10-10T07:15:45Z</time>
      </trkpt>
      <trkpt lat="48.00737" lon="-0.73614">
        <ele>77</ele>
        <time>2010-10-10T07:15:48Z</time>
      </trkpt>
      <trkpt lat="48.00729" lon="-0.73619">
        <ele>76.6</ele>
        <time>2010-10-10T07:15:53Z</time>
      </trkpt>
      <trkpt lat="48.00719" lon="-0.73625">
        <ele>76.2</ele>
        <time>2010-10-10T07:16:00Z</time>
      </trkpt>
      <trkpt lat="48.00715" lon="-0.73628">
        <ele>76.2</ele>
        <time>2010-10-10T07:16:03Z</time>
      </trkpt>
      <trkpt lat="48.00707" lon="-0.73638">
        <ele>76</ele>
        <time>2010-10-10T07:16:10Z</time>
      </trkpt>
      <trkpt lat="48.00706" lon="-0.73643">
        <ele>76</ele>
        <time>2010-10-10T07:16:12Z</time>
      </trkpt>
      <trkpt lat="48.00708" lon="-0.73651">
        <ele>76</ele>
        <time>2010-10-10T07:16:15Z</time>
      </trkpt>
      <trkpt lat="48.00718" lon="-0.73663">
        <ele>75.8</ele>
        <time>2010-10-10T07:16:21Z</time>
      </trkpt>
      <trkpt lat="48.0073" lon="-0.7367">
        <ele>75.6</ele>
        <time>2010-10-10T07:16:25Z</time>
      </trkpt>
      <trkpt lat="48.00734" lon="-0.73673">
        <ele>75.6</ele>
        <time>2010-10-10T07:16:26Z</time>
      </trkpt>
      <trkpt lat="48.0074" lon="-0.73683">
        <ele>75.6</ele>
        <time>2010-10-10T07:16:28Z</time>
      </trkpt>
      <trkpt lat="48.00742" lon="-0.73698">
        <ele>75.4</ele>
        <time>2010-10-10T07:16:30Z</time>
      </trkpt>
      <trkpt lat="48.00744" lon="-0.73713">
        <ele>75.2</ele>
        <time>2010-10-10T07:16:32Z</time>
      </trkpt>
      <trkpt lat="48.00748" lon="-0.73723">
        <ele>75</ele>
        <time>2010-10-10T07:16:34Z</time>
      </trkpt>
      <trkpt lat="48.00753" lon="-0.73734">
        <ele>74.6</ele>
        <time>2010-10-10T07:16:36Z</time>
      </trkpt>
      <trkpt lat="48.00761" lon="-0.73748">
        <ele>74.2</ele>
        <time>2010-10-10T07:16:39Z</time>
      </trkpt>
      <trkpt lat="48.00766" lon="-0.73757">
        <ele>73.8</ele>
        <time>2010-10-10T07:16:41Z</time>
      </trkpt>
      <trkpt lat="48.00774" lon="-0.73773">
        <ele>72.8</ele>
        <time>2010-10-10T07:16:45Z</time>
      </trkpt>
      <trkpt lat="48.00777" lon="-0.73779">
        <ele>72.4</ele>
        <time>2010-10-10T07:16:47Z</time>
      </trkpt>
      <trkpt lat="48.00777" lon="-0.73794">
        <ele>71.6</ele>
        <time>2010-10-10T07:16:51Z</time>
      </trkpt>
      <trkpt lat="48.00777" lon="-0.73796">
        <ele>71.4</ele>
        <time>2010-10-10T07:16:52Z</time>
      </trkpt>
      <trkpt lat="48.00779" lon="-0.73798">
        <ele>70.8</ele>
        <time>2010-10-10T07:16:54Z</time>
      </trkpt>
      <trkpt lat="48.00781" lon="-0.73798">
        <ele>70.6</ele>
        <time>2010-10-10T07:16:55Z</time>
      </trkpt>
      <trkpt lat="48.0079" lon="-0.73794">
        <ele>69.8</ele>
        <time>2010-10-10T07:16:59Z</time>
      </trkpt>
      <trkpt lat="48.00797" lon="-0.73786">
        <ele>69</ele>
        <time>2010-10-10T07:17:02Z</time>
      </trkpt>
      <trkpt lat="48.00799" lon="-0.73782">
        <ele>68.8</ele>
        <time>2010-10-10T07:17:03Z</time>
      </trkpt>
      <trkpt lat="48.00815" lon="-0.73777">
        <ele>67.8</ele>
        <time>2010-10-10T07:17:07Z</time>
      </trkpt>
      <trkpt lat="48.00834" lon="-0.7378">
        <ele>66.6</ele>
        <time>2010-10-10T07:17:11Z</time>
      </trkpt>
      <trkpt lat="48.00838" lon="-0.73777">
        <ele>66.4</ele>
        <time>2010-10-10T07:17:12Z</time>
      </trkpt>
      <trkpt lat="48.00844" lon="-0.73767">
        <ele>65.8</ele>
        <time>2010-10-10T07:17:15Z</time>
      </trkpt>
      <trkpt lat="48.00846" lon="-0.73763">
        <ele>65.6</ele>
        <time>2010-10-10T07:17:16Z</time>
      </trkpt>
      <trkpt lat="48.00848" lon="-0.7376">
        <ele>65.4</ele>
        <time>2010-10-10T07:17:17Z</time>
      </trkpt>
      <trkpt lat="48.00861" lon="-0.7374">
        <ele>64.2</ele>
        <time>2010-10-10T07:17:23Z</time>
      </trkpt>
      <trkpt lat="48.00864" lon="-0.73736">
        <ele>64</ele>
        <time>2010-10-10T07:17:24Z</time>
      </trkpt>
      <trkpt lat="48.00874" lon="-0.73726">
        <ele>63.4</ele>
        <time>2010-10-10T07:17:29Z</time>
      </trkpt>
      <trkpt lat="48.00876" lon="-0.73726">
        <ele>63.2</ele>
        <time>2010-10-10T07:17:30Z</time>
      </trkpt>
      <trkpt lat="48.00879" lon="-0.73728">
        <ele>63</ele>
        <time>2010-10-10T07:17:31Z</time>
      </trkpt>
      <trkpt lat="48.00883" lon="-0.73733">
        <ele>62.8</ele>
        <time>2010-10-10T07:17:33Z</time>
      </trkpt>
      <trkpt lat="48.00885" lon="-0.73736">
        <ele>62.6</ele>
        <time>2010-10-10T07:17:34Z</time>
      </trkpt>
      <trkpt lat="48.00893" lon="-0.73745">
        <ele>62.2</ele>
        <time>2010-10-10T07:17:37Z</time>
      </trkpt>
      <trkpt lat="48.00901" lon="-0.73754">
        <ele>62</ele>
        <time>2010-10-10T07:17:40Z</time>
      </trkpt>
      <trkpt lat="48.0091" lon="-0.73761">
        <ele>61.6</ele>
        <time>2010-10-10T07:17:43Z</time>
      </trkpt>
      <trkpt lat="48.00918" lon="-0.73765">
        <ele>61.2</ele>
        <time>2010-10-10T07:17:46Z</time>
      </trkpt>
      <trkpt lat="48.00929" lon="-0.73772">
        <ele>60.8</ele>
        <time>2010-10-10T07:17:50Z</time>
      </trkpt>
      <trkpt lat="48.00932" lon="-0.73774">
        <ele>60.6</ele>
        <time>2010-10-10T07:17:51Z</time>
      </trkpt>
      <trkpt lat="48.00949" lon="-0.73783">
        <ele>59.8</ele>
        <time>2010-10-10T07:17:56Z</time>
      </trkpt>
      <trkpt lat="48.0096" lon="-0.73788">
        <ele>59.4</ele>
        <time>2010-10-10T07:17:59Z</time>
      </trkpt>
      <trkpt lat="48.00967" lon="-0.73791">
        <ele>59.2</ele>
        <time>2010-10-10T07:18:01Z</time>
      </trkpt>
      <trkpt lat="48.00978" lon="-0.73786">
        <ele>58.8</ele>
        <time>2010-10-10T07:18:04Z</time>
      </trkpt>
      <trkpt lat="48.00981" lon="-0.73777">
        <ele>58.4</ele>
        <time>2010-10-10T07:18:06Z</time>
      </trkpt>
      <trkpt lat="48.00981" lon="-0.73772">
        <ele>58.4</ele>
        <time>2010-10-10T07:18:07Z</time>
      </trkpt>
      <trkpt lat="48.00973" lon="-0.73763">
        <ele>58</ele>
        <time>2010-10-10T07:18:10Z</time>
      </trkpt>
      <trkpt lat="48.00969" lon="-0.73761">
        <ele>58</ele>
        <time>2010-10-10T07:18:11Z</time>
      </trkpt>
      <trkpt lat="48.00966" lon="-0.73759">
        <ele>57.8</ele>
        <time>2010-10-10T07:18:12Z</time>
      </trkpt>
      <trkpt lat="48.00953" lon="-0.73749">
        <ele>57.6</ele>
        <time>2010-10-10T07:18:16Z</time>
      </trkpt>
      <trkpt lat="48.00946" lon="-0.73744">
        <ele>57.6</ele>
        <time>2010-10-10T07:18:18Z</time>
      </trkpt>
      <trkpt lat="48.00936" lon="-0.73732">
        <ele>57.4</ele>
        <time>2010-10-10T07:18:22Z</time>
      </trkpt>
      <trkpt lat="48.00931" lon="-0.73723">
        <ele>57.2</ele>
        <time>2010-10-10T07:18:24Z</time>
      </trkpt>
      <trkpt lat="48.00924" lon="-0.73706">
        <ele>57.2</ele>
        <time>2010-10-10T07:18:28Z</time>
      </trkpt>
      <trkpt lat="48.00921" lon="-0.73699">
        <ele>57.2</ele>
        <time>2010-10-10T07:18:30Z</time>
      </trkpt>
      <trkpt lat="48.00916" lon="-0.73682">
        <ele>57.6</ele>
        <time>2010-10-10T07:18:34Z</time>
      </trkpt>
      <trkpt lat="48.00914" lon="-0.73674">
        <ele>57.8</ele>
        <time>2010-10-10T07:18:36Z</time>
      </trkpt>
      <trkpt lat="48.00913" lon="-0.73654">
        <ele>58.6</ele>
        <time>2010-10-10T07:18:41Z</time>
      </trkpt>
      <trkpt lat="48.00914" lon="-0.73648">
        <ele>58.8</ele>
        <time>2010-10-10T07:18:43Z</time>
      </trkpt>
      <trkpt lat="48.00915" lon="-0.73643">
        <ele>59.2</ele>
        <time>2010-10-10T07:18:45Z</time>
      </trkpt>
      <trkpt lat="48.00918" lon="-0.73641">
        <ele>59.6</ele>
        <time>2010-10-10T07:18:47Z</time>
      </trkpt>
      <trkpt lat="48.00923" lon="-0.73645">
        <ele>60.2</ele>
        <time>2010-10-10T07:18:50Z</time>
      </trkpt>
      <trkpt lat="48.00925" lon="-0.73647">
        <ele>60.6</ele>
        <time>2010-10-10T07:18:51Z</time>
      </trkpt>
      <trkpt lat="48.00927" lon="-0.73648">
        <ele>60.6</ele>
        <time>2010-10-10T07:18:52Z</time>
      </trkpt>
      <trkpt lat="48.00939" lon="-0.73659">
        <ele>62.4</ele>
        <time>2010-10-10T07:21:54Z</time>
      </trkpt>
      <trkpt lat="48.00958" lon="-0.73671">
        <ele>62.4</ele>
        <time>2010-10-10T07:21:59Z</time>
      </trkpt>
      <trkpt lat="48.00962" lon="-0.73673">
        <ele>62.4</ele>
        <time>2010-10-10T07:22:00Z</time>
      </trkpt>
      <trkpt lat="48.00976" lon="-0.73675">
        <ele>62.2</ele>
        <time>2010-10-10T07:22:03Z</time>
      </trkpt>
      <trkpt lat="48.00985" lon="-0.73672">
        <ele>62.2</ele>
        <time>2010-10-10T07:22:05Z</time>
      </trkpt>
      <trkpt lat="48.0099" lon="-0.73672">
        <ele>62.2</ele>
        <time>2010-10-10T07:22:06Z</time>
      </trkpt>
      <trkpt lat="48.00994" lon="-0.73672">
        <ele>62.2</ele>
        <time>2010-10-10T07:22:07Z</time>
      </trkpt>
      <trkpt lat="48.01004" lon="-0.73676">
        <ele>62</ele>
        <time>2010-10-10T07:22:09Z</time>
      </trkpt>
      <trkpt lat="48.01015" lon="-0.73679">
        <ele>62</ele>
        <time>2010-10-10T07:22:11Z</time>
      </trkpt>
      <trkpt lat="48.01033" lon="-0.73686">
        <ele>61.8</ele>
        <time>2010-10-10T07:22:14Z</time>
      </trkpt>
      <trkpt lat="48.01039" lon="-0.73689">
        <ele>61.8</ele>
        <time>2010-10-10T07:22:15Z</time>
      </trkpt>
      <trkpt lat="48.01051" lon="-0.73694">
        <ele>61.6</ele>
        <time>2010-10-10T07:22:17Z</time>
      </trkpt>
      <trkpt lat="48.01063" lon="-0.73704">
        <ele>61.4</ele>
        <time>2010-10-10T07:22:19Z</time>
      </trkpt>
      <trkpt lat="48.01069" lon="-0.73709">
        <ele>61.4</ele>
        <time>2010-10-10T07:22:20Z</time>
      </trkpt>
      <trkpt lat="48.01081" lon="-0.73723">
        <ele>61.2</ele>
        <time>2010-10-10T07:22:23Z</time>
      </trkpt>
      <trkpt lat="48.01085" lon="-0.73727">
        <ele>61</ele>
        <time>2010-10-10T07:22:24Z</time>
      </trkpt>
      <trkpt lat="48.01092" lon="-0.73728">
        <ele>61</ele>
        <time>2010-10-10T07:22:26Z</time>
      </trkpt>
      <trkpt lat="48.01105" lon="-0.73724">
        <ele>60.8</ele>
        <time>2010-10-10T07:22:30Z</time>
      </trkpt>
      <trkpt lat="48.01111" lon="-0.73707">
        <ele>60.8</ele>
        <time>2010-10-10T07:22:33Z</time>
      </trkpt>
      <trkpt lat="48.01112" lon="-0.737">
        <ele>60.8</ele>
        <time>2010-10-10T07:22:34Z</time>
      </trkpt>
      <trkpt lat="48.01123" lon="-0.73673">
        <ele>60.6</ele>
        <time>2010-10-10T07:22:39Z</time>
      </trkpt>
      <trkpt lat="48.01125" lon="-0.73668">
        <ele>60.6</ele>
        <time>2010-10-10T07:22:40Z</time>
      </trkpt>
      <trkpt lat="48.01137" lon="-0.73651">
        <ele>60.6</ele>
        <time>2010-10-10T07:22:44Z</time>
      </trkpt>
      <trkpt lat="48.0114" lon="-0.73647">
        <ele>60.6</ele>
        <time>2010-10-10T07:22:45Z</time>
      </trkpt>
      <trkpt lat="48.01153" lon="-0.73631">
        <ele>61.2</ele>
        <time>2010-10-10T07:22:50Z</time>
      </trkpt>
      <trkpt lat="48.01158" lon="-0.73625">
        <ele>61.2</ele>
        <time>2010-10-10T07:22:52Z</time>
      </trkpt>
      <trkpt lat="48.0117" lon="-0.73612">
        <ele>61.8</ele>
        <time>2010-10-10T07:22:57Z</time>
      </trkpt>
      <trkpt lat="48.01179" lon="-0.73606">
        <ele>62.2</ele>
        <time>2010-10-10T07:23:00Z</time>
      </trkpt>
      <trkpt lat="48.01187" lon="-0.73601">
        <ele>62.8</ele>
        <time>2010-10-10T07:23:03Z</time>
      </trkpt>
      <trkpt lat="48.01195" lon="-0.73598">
        <ele>63.8</ele>
        <time>2010-10-10T07:23:06Z</time>
      </trkpt>
      <trkpt lat="48.01205" lon="-0.73592">
        <ele>65</ele>
        <time>2010-10-10T07:23:10Z</time>
      </trkpt>
      <trkpt lat="48.01213" lon="-0.73588">
        <ele>65.8</ele>
        <time>2010-10-10T07:23:13Z</time>
      </trkpt>
      <trkpt lat="48.01223" lon="-0.73583">
        <ele>67.2</ele>
        <time>2010-10-10T07:23:17Z</time>
      </trkpt>
      <trkpt lat="48.01233" lon="-0.73579">
        <ele>68.4</ele>
        <time>2010-10-10T07:23:21Z</time>
      </trkpt>
      <trkpt lat="48.01242" lon="-0.73575">
        <ele>69.4</ele>
        <time>2010-10-10T07:23:25Z</time>
      </trkpt>
      <trkpt lat="48.01251" lon="-0.73573">
        <ele>70.2</ele>
        <time>2010-10-10T07:23:29Z</time>
      </trkpt>
      <trkpt lat="48.01259" lon="-0.7358">
        <ele>71</ele>
        <time>2010-10-10T07:23:33Z</time>
      </trkpt>
      <trkpt lat="48.01259" lon="-0.73583">
        <ele>71.2</ele>
        <time>2010-10-10T07:23:34Z</time>
      </trkpt>
      <trkpt lat="48.01259" lon="-0.73593">
        <ele>71.6</ele>
        <time>2010-10-10T07:23:37Z</time>
      </trkpt>
      <trkpt lat="48.01258" lon="-0.73604">
        <ele>72</ele>
        <time>2010-10-10T07:23:40Z</time>
      </trkpt>
      <trkpt lat="48.01258" lon="-0.73607">
        <ele>72.2</ele>
        <time>2010-10-10T07:23:41Z</time>
      </trkpt>
      <trkpt lat="48.01259" lon="-0.7363">
        <ele>73.2</ele>
        <time>2010-10-10T07:23:48Z</time>
      </trkpt>
      <trkpt lat="48.01259" lon="-0.73637">
        <ele>73.6</ele>
        <time>2010-10-10T07:23:50Z</time>
      </trkpt>
      <trkpt lat="48.01262" lon="-0.73659">
        <ele>74.8</ele>
        <time>2010-10-10T07:23:57Z</time>
      </trkpt>
      <trkpt lat="48.01263" lon="-0.73665">
        <ele>75</ele>
        <time>2010-10-10T07:23:59Z</time>
      </trkpt>
      <trkpt lat="48.01265" lon="-0.73681">
        <ele>75.6</ele>
        <time>2010-10-10T07:24:04Z</time>
      </trkpt>
      <trkpt lat="48.01264" lon="-0.73694">
        <ele>76.2</ele>
        <time>2010-10-10T07:24:08Z</time>
      </trkpt>
      <trkpt lat="48.01264" lon="-0.73702">
        <ele>76.6</ele>
        <time>2010-10-10T07:24:10Z</time>
      </trkpt>
      <trkpt lat="48.01265" lon="-0.73722">
        <ele>77.6</ele>
        <time>2010-10-10T07:24:16Z</time>
      </trkpt>
      <trkpt lat="48.01272" lon="-0.73742">
        <ele>78.8</ele>
        <time>2010-10-10T07:24:22Z</time>
      </trkpt>
      <trkpt lat="48.01275" lon="-0.73747">
        <ele>79.2</ele>
        <time>2010-10-10T07:24:24Z</time>
      </trkpt>
      <trkpt lat="48.01283" lon="-0.73758">
        <ele>80</ele>
        <time>2010-10-10T07:24:28Z</time>
      </trkpt>
      <trkpt lat="48.01288" lon="-0.73762">
        <ele>80.2</ele>
        <time>2010-10-10T07:24:31Z</time>
      </trkpt>
      <trkpt lat="48.01289" lon="-0.73762">
        <ele>80.4</ele>
        <time>2010-10-10T07:24:32Z</time>
      </trkpt>
      <trkpt lat="48.01291" lon="-0.73762">
        <ele>80.6</ele>
        <time>2010-10-10T07:24:33Z</time>
      </trkpt>
      <trkpt lat="48.01297" lon="-0.73764">
        <ele>81</ele>
        <time>2010-10-10T07:24:38Z</time>
      </trkpt>
      <trkpt lat="48.01301" lon="-0.73766">
        <ele>81.2</ele>
        <time>2010-10-10T07:24:40Z</time>
      </trkpt>
      <trkpt lat="48.01308" lon="-0.73767">
        <ele>81</ele>
        <time>2010-10-10T07:24:43Z</time>
      </trkpt>
      <trkpt lat="48.01323" lon="-0.73771">
        <ele>81</ele>
        <time>2010-10-10T07:24:48Z</time>
      </trkpt>
      <trkpt lat="48.01326" lon="-0.73772">
        <ele>81</ele>
        <time>2010-10-10T07:24:49Z</time>
      </trkpt>
      <trkpt lat="48.01344" lon="-0.73778">
        <ele>80.8</ele>
        <time>2010-10-10T07:24:53Z</time>
      </trkpt>
      <trkpt lat="48.01364" lon="-0.73779">
        <ele>80.6</ele>
        <time>2010-10-10T07:24:57Z</time>
      </trkpt>
      <trkpt lat="48.01384" lon="-0.7378">
        <ele>80.6</ele>
        <time>2010-10-10T07:25:00Z</time>
      </trkpt>
      <trkpt lat="48.01399" lon="-0.73779">
        <ele>80.4</ele>
        <time>2010-10-10T07:25:02Z</time>
      </trkpt>
      <trkpt lat="48.01406" lon="-0.73779">
        <ele>80.2</ele>
        <time>2010-10-10T07:25:03Z</time>
      </trkpt>
      <trkpt lat="48.01423" lon="-0.73779">
        <ele>80</ele>
        <time>2010-10-10T07:25:06Z</time>
      </trkpt>
      <trkpt lat="48.01426" lon="-0.73778">
        <ele>80</ele>
        <time>2010-10-10T07:25:07Z</time>
      </trkpt>
      <trkpt lat="48.01429" lon="-0.73779">
        <ele>80</ele>
        <time>2010-10-10T07:25:08Z</time>
      </trkpt>
      <trkpt lat="48.0143" lon="-0.73793">
        <ele>79.8</ele>
        <time>2010-10-10T07:25:10Z</time>
      </trkpt>
      <trkpt lat="48.01429" lon="-0.73804">
        <ele>79.6</ele>
        <time>2010-10-10T07:25:11Z</time>
      </trkpt>
      <trkpt lat="48.01423" lon="-0.73827">
        <ele>79.4</ele>
        <time>2010-10-10T07:25:13Z</time>
      </trkpt>
      <trkpt lat="48.01421" lon="-0.73838">
        <ele>79.2</ele>
        <time>2010-10-10T07:25:14Z</time>
      </trkpt>
      <trkpt lat="48.01413" lon="-0.73871">
        <ele>79</ele>
        <time>2010-10-10T07:25:17Z</time>
      </trkpt>
      <trkpt lat="48.0141" lon="-0.73883">
        <ele>78.8</ele>
        <time>2010-10-10T07:25:18Z</time>
      </trkpt>
      <trkpt lat="48.01403" lon="-0.73902">
        <ele>78.6</ele>
        <time>2010-10-10T07:25:20Z</time>
      </trkpt>
      <trkpt lat="48.01397" lon="-0.73915">
        <ele>78.2</ele>
        <time>2010-10-10T07:25:22Z</time>
      </trkpt>
      <trkpt lat="48.01396" lon="-0.73921">
        <ele>78</ele>
        <time>2010-10-10T07:25:23Z</time>
      </trkpt>
      <trkpt lat="48.01395" lon="-0.73928">
        <ele>77.8</ele>
        <time>2010-10-10T07:25:24Z</time>
      </trkpt>
      <trkpt lat="48.0139" lon="-0.73943">
        <ele>77.4</ele>
        <time>2010-10-10T07:25:26Z</time>
      </trkpt>
      <trkpt lat="48.01388" lon="-0.73949">
        <ele>77.2</ele>
        <time>2010-10-10T07:25:27Z</time>
      </trkpt>
      <trkpt lat="48.01385" lon="-0.73956">
        <ele>77</ele>
        <time>2010-10-10T07:25:28Z</time>
      </trkpt>
      <trkpt lat="48.01377" lon="-0.73977">
        <ele>76.2</ele>
        <time>2010-10-10T07:25:31Z</time>
      </trkpt>
      <trkpt lat="48.01375" lon="-0.73983">
        <ele>76</ele>
        <time>2010-10-10T07:25:32Z</time>
      </trkpt>
      <trkpt lat="48.01374" lon="-0.73993">
        <ele>75.4</ele>
        <time>2010-10-10T07:25:34Z</time>
      </trkpt>
      <trkpt lat="48.01381" lon="-0.73998">
        <ele>74.4</ele>
        <time>2010-10-10T07:25:38Z</time>
      </trkpt>
      <trkpt lat="48.01384" lon="-0.73997">
        <ele>74</ele>
        <time>2010-10-10T07:25:39Z</time>
      </trkpt>
      <trkpt lat="48.01396" lon="-0.74">
        <ele>73</ele>
        <time>2010-10-10T07:25:43Z</time>
      </trkpt>
      <trkpt lat="48.01404" lon="-0.74002">
        <ele>72.4</ele>
        <time>2010-10-10T07:25:45Z</time>
      </trkpt>
      <trkpt lat="48.01414" lon="-0.74005">
        <ele>71.8</ele>
        <time>2010-10-10T07:25:47Z</time>
      </trkpt>
      <trkpt lat="48.01422" lon="-0.74009">
        <ele>71.4</ele>
        <time>2010-10-10T07:25:49Z</time>
      </trkpt>
      <trkpt lat="48.01439" lon="-0.74015">
        <ele>70</ele>
        <time>2010-10-10T07:25:54Z</time>
      </trkpt>
      <trkpt lat="48.01441" lon="-0.74017">
        <ele>69.8</ele>
        <time>2010-10-10T07:25:55Z</time>
      </trkpt>
      <trkpt lat="48.0145" lon="-0.74024">
        <ele>69</ele>
        <time>2010-10-10T07:25:59Z</time>
      </trkpt>
      <trkpt lat="48.0146" lon="-0.74031">
        <ele>68.4</ele>
        <time>2010-10-10T07:26:02Z</time>
      </trkpt>
      <trkpt lat="48.01472" lon="-0.74039">
        <ele>67.8</ele>
        <time>2010-10-10T07:26:06Z</time>
      </trkpt>
      <trkpt lat="48.01478" lon="-0.74042">
        <ele>67.4</ele>
        <time>2010-10-10T07:26:09Z</time>
      </trkpt>
      <trkpt lat="48.01483" lon="-0.74044">
        <ele>67.2</ele>
        <time>2010-10-10T07:26:11Z</time>
      </trkpt>
      <trkpt lat="48.01494" lon="-0.74048">
        <ele>66.2</ele>
        <time>2010-10-10T07:26:17Z</time>
      </trkpt>
      <trkpt lat="48.01496" lon="-0.74049">
        <ele>66.2</ele>
        <time>2010-10-10T07:26:18Z</time>
      </trkpt>
      <trkpt lat="48.01505" lon="-0.74057">
        <ele>65.8</ele>
        <time>2010-10-10T07:26:21Z</time>
      </trkpt>
      <trkpt lat="48.01514" lon="-0.74063">
        <ele>65.4</ele>
        <time>2010-10-10T07:26:23Z</time>
      </trkpt>
      <trkpt lat="48.01526" lon="-0.74072">
        <ele>64.8</ele>
        <time>2010-10-10T07:26:26Z</time>
      </trkpt>
      <trkpt lat="48.01531" lon="-0.74076">
        <ele>64.6</ele>
        <time>2010-10-10T07:26:28Z</time>
      </trkpt>
      <trkpt lat="48.01535" lon="-0.74079">
        <ele>64.2</ele>
        <time>2010-10-10T07:26:30Z</time>
      </trkpt>
      <trkpt lat="48.01549" lon="-0.74088">
        <ele>63.4</ele>
        <time>2010-10-10T07:26:34Z</time>
      </trkpt>
      <trkpt lat="48.01552" lon="-0.74091">
        <ele>63.2</ele>
        <time>2010-10-10T07:26:35Z</time>
      </trkpt>
      <trkpt lat="48.01566" lon="-0.74108">
        <ele>62.4</ele>
        <time>2010-10-10T07:26:40Z</time>
      </trkpt>
      <trkpt lat="48.01582" lon="-0.74124">
        <ele>61.8</ele>
        <time>2010-10-10T07:26:45Z</time>
      </trkpt>
      <trkpt lat="48.01594" lon="-0.74125">
        <ele>61.2</ele>
        <time>2010-10-10T07:26:49Z</time>
      </trkpt>
      <trkpt lat="48.01602" lon="-0.74127">
        <ele>60.8</ele>
        <time>2010-10-10T07:26:52Z</time>
      </trkpt>
      <trkpt lat="48.0161" lon="-0.74129">
        <ele>60.4</ele>
        <time>2010-10-10T07:26:55Z</time>
      </trkpt>
      <trkpt lat="48.0162" lon="-0.74134">
        <ele>60</ele>
        <time>2010-10-10T07:26:58Z</time>
      </trkpt>
      <trkpt lat="48.01624" lon="-0.74135">
        <ele>59.8</ele>
        <time>2010-10-10T07:27:00Z</time>
      </trkpt>
      <trkpt lat="48.01634" lon="-0.74138">
        <ele>59.2</ele>
        <time>2010-10-10T07:27:08Z</time>
      </trkpt>
      <trkpt lat="48.01637" lon="-0.7414">
        <ele>58.8</ele>
        <time>2010-10-10T07:27:13Z</time>
      </trkpt>
      <trkpt lat="48.01639" lon="-0.7414">
        <ele>58.8</ele>
        <time>2010-10-10T07:27:14Z</time>
      </trkpt>
      <trkpt lat="48.01644" lon="-0.74141">
        <ele>58.4</ele>
        <time>2010-10-10T07:27:20Z</time>
      </trkpt>
      <trkpt lat="48.01645" lon="-0.74141">
        <ele>58.4</ele>
        <time>2010-10-10T07:27:22Z</time>
      </trkpt>
      <trkpt lat="48.01647" lon="-0.74141">
        <ele>58.2</ele>
        <time>2010-10-10T07:27:26Z</time>
      </trkpt>
      <trkpt lat="48.01653" lon="-0.74142">
        <ele>57.8</ele>
        <time>2010-10-10T07:27:31Z</time>
      </trkpt>
      <trkpt lat="48.01654" lon="-0.74142">
        <ele>57.8</ele>
        <time>2010-10-10T07:27:33Z</time>
      </trkpt>
      <trkpt lat="48.01658" lon="-0.74142">
        <ele>57.6</ele>
        <time>2010-10-10T07:27:36Z</time>
      </trkpt>
      <trkpt lat="48.01659" lon="-0.74142">
        <ele>57.6</ele>
        <time>2010-10-10T07:27:38Z</time>
      </trkpt>
      <trkpt lat="48.01666" lon="-0.74142">
        <ele>57.4</ele>
        <time>2010-10-10T07:27:43Z</time>
      </trkpt>
      <trkpt lat="48.01671" lon="-0.74139">
        <ele>57.2</ele>
        <time>2010-10-10T07:27:48Z</time>
      </trkpt>
      <trkpt lat="48.01672" lon="-0.74139">
        <ele>57.2</ele>
        <time>2010-10-10T07:27:50Z</time>
      </trkpt>
      <trkpt lat="48.01675" lon="-0.74137">
        <ele>57</ele>
        <time>2010-10-10T07:27:53Z</time>
      </trkpt>
      <trkpt lat="48.01678" lon="-0.74135">
        <ele>56.8</ele>
        <time>2010-10-10T07:27:56Z</time>
      </trkpt>
      <trkpt lat="48.01679" lon="-0.74135">
        <ele>56.8</ele>
        <time>2010-10-10T07:27:57Z</time>
      </trkpt>
      <trkpt lat="48.0169" lon="-0.74131">
        <ele>56.4</ele>
        <time>2010-10-10T07:28:04Z</time>
      </trkpt>
      <trkpt lat="48.01691" lon="-0.7413">
        <ele>56.2</ele>
        <time>2010-10-10T07:28:06Z</time>
      </trkpt>
      <trkpt lat="48.01694" lon="-0.7413">
        <ele>56.2</ele>
        <time>2010-10-10T07:28:09Z</time>
      </trkpt>
      <trkpt lat="48.01695" lon="-0.7413">
        <ele>56</ele>
        <time>2010-10-10T07:28:10Z</time>
      </trkpt>
      <trkpt lat="48.01702" lon="-0.74128">
        <ele>55.8</ele>
        <time>2010-10-10T07:28:15Z</time>
      </trkpt>
      <trkpt lat="48.01706" lon="-0.74124">
        <ele>55.6</ele>
        <time>2010-10-10T07:28:19Z</time>
      </trkpt>
      <trkpt lat="48.0172" lon="-0.74123">
        <ele>55.6</ele>
        <time>2010-10-10T07:28:33Z</time>
      </trkpt>
      <trkpt lat="48.01722" lon="-0.74124">
        <ele>55.8</ele>
        <time>2010-10-10T07:28:37Z</time>
      </trkpt>
      <trkpt lat="48.01732" lon="-0.74122">
        <ele>56.4</ele>
        <time>2010-10-10T07:28:45Z</time>
      </trkpt>
      <trkpt lat="48.01737" lon="-0.74119">
        <ele>56.8</ele>
        <time>2010-10-10T07:28:48Z</time>
      </trkpt>
      <trkpt lat="48.01745" lon="-0.74111">
        <ele>57.2</ele>
        <time>2010-10-10T07:28:53Z</time>
      </trkpt>
      <trkpt lat="48.01753" lon="-0.74102">
        <ele>58</ele>
        <time>2010-10-10T07:28:59Z</time>
      </trkpt>
      <trkpt lat="48.01757" lon="-0.74098">
        <ele>58.6</ele>
        <time>2010-10-10T07:29:02Z</time>
      </trkpt>
      <trkpt lat="48.01767" lon="-0.7409">
        <ele>59.6</ele>
        <time>2010-10-10T07:29:09Z</time>
      </trkpt>
      <trkpt lat="48.01769" lon="-0.74089">
        <ele>60</ele>
        <time>2010-10-10T07:29:11Z</time>
      </trkpt>
      <trkpt lat="48.01775" lon="-0.74086">
        <ele>60.8</ele>
        <time>2010-10-10T07:29:15Z</time>
      </trkpt>
      <trkpt lat="48.01784" lon="-0.74087">
        <ele>62</ele>
        <time>2010-10-10T07:29:22Z</time>
      </trkpt>
      <trkpt lat="48.01788" lon="-0.74089">
        <ele>62.6</ele>
        <time>2010-10-10T07:29:25Z</time>
      </trkpt>
      <trkpt lat="48.01792" lon="-0.74094">
        <ele>63.4</ele>
        <time>2010-10-10T07:29:28Z</time>
      </trkpt>
      <trkpt lat="48.018" lon="-0.74101">
        <ele>65.4</ele>
        <time>2010-10-10T07:29:35Z</time>
      </trkpt>
      <trkpt lat="48.01804" lon="-0.74102">
        <ele>66.8</ele>
        <time>2010-10-10T07:29:39Z</time>
      </trkpt>
      <trkpt lat="48.01809" lon="-0.74101">
        <ele>68.4</ele>
        <time>2010-10-10T07:29:43Z</time>
      </trkpt>
      <trkpt lat="48.01816" lon="-0.74092">
        <ele>70.2</ele>
        <time>2010-10-10T07:29:49Z</time>
      </trkpt>
      <trkpt lat="48.01818" lon="-0.74089">
        <ele>70.8</ele>
        <time>2010-10-10T07:29:51Z</time>
      </trkpt>
      <trkpt lat="48.01824" lon="-0.74078">
        <ele>72</ele>
        <time>2010-10-10T07:29:56Z</time>
      </trkpt>
      <trkpt lat="48.01831" lon="-0.74068">
        <ele>72.6</ele>
        <time>2010-10-10T07:30:02Z</time>
      </trkpt>
      <trkpt lat="48.01834" lon="-0.74064">
        <ele>72.6</ele>
        <time>2010-10-10T07:30:04Z</time>
      </trkpt>
      <trkpt lat="48.01838" lon="-0.74057">
        <ele>72.6</ele>
        <time>2010-10-10T07:30:08Z</time>
      </trkpt>
      <trkpt lat="48.0184" lon="-0.74052">
        <ele>72.4</ele>
        <time>2010-10-10T07:30:10Z</time>
      </trkpt>
      <trkpt lat="48.01842" lon="-0.74047">
        <ele>72.4</ele>
        <time>2010-10-10T07:30:12Z</time>
      </trkpt>
      <trkpt lat="48.01846" lon="-0.74039">
        <ele>72.4</ele>
        <time>2010-10-10T07:30:16Z</time>
      </trkpt>
      <trkpt lat="48.0185" lon="-0.74027">
        <ele>72.4</ele>
        <time>2010-10-10T07:30:22Z</time>
      </trkpt>
      <trkpt lat="48.01852" lon="-0.74023">
        <ele>72.6</ele>
        <time>2010-10-10T07:30:24Z</time>
      </trkpt>
      <trkpt lat="48.01854" lon="-0.74017">
        <ele>72.8</ele>
        <time>2010-10-10T07:30:26Z</time>
      </trkpt>
      <trkpt lat="48.01861" lon="-0.73999">
        <ele>73.4</ele>
        <time>2010-10-10T07:30:32Z</time>
      </trkpt>
      <trkpt lat="48.01862" lon="-0.73996">
        <ele>73.6</ele>
        <time>2010-10-10T07:30:33Z</time>
      </trkpt>
      <trkpt lat="48.01868" lon="-0.73979">
        <ele>74.4</ele>
        <time>2010-10-10T07:30:39Z</time>
      </trkpt>
      <trkpt lat="48.01871" lon="-0.73972">
        <ele>74.6</ele>
        <time>2010-10-10T07:30:41Z</time>
      </trkpt>
      <trkpt lat="48.01879" lon="-0.73959">
        <ele>75</ele>
        <time>2010-10-10T07:30:46Z</time>
      </trkpt>
      <trkpt lat="48.01883" lon="-0.73951">
        <ele>75.4</ele>
        <time>2010-10-10T07:30:49Z</time>
      </trkpt>
      <trkpt lat="48.01887" lon="-0.73942">
        <ele>75.4</ele>
        <time>2010-10-10T07:30:52Z</time>
      </trkpt>
      <trkpt lat="48.01893" lon="-0.73927">
        <ele>75.8</ele>
        <time>2010-10-10T07:30:57Z</time>
      </trkpt>
      <trkpt lat="48.01894" lon="-0.73923">
        <ele>76</ele>
        <time>2010-10-10T07:30:58Z</time>
      </trkpt>
      <trkpt lat="48.01904" lon="-0.73904">
        <ele>76</ele>
        <time>2010-10-10T07:31:04Z</time>
      </trkpt>
      <trkpt lat="48.01906" lon="-0.73901">
        <ele>76.2</ele>
        <time>2010-10-10T07:31:05Z</time>
      </trkpt>
      <trkpt lat="48.01915" lon="-0.73879">
        <ele>77</ele>
        <time>2010-10-10T07:31:11Z</time>
      </trkpt>
      <trkpt lat="48.01925" lon="-0.73856">
        <ele>77.8</ele>
        <time>2010-10-10T07:31:16Z</time>
      </trkpt>
      <trkpt lat="48.01929" lon="-0.73848">
        <ele>78</ele>
        <time>2010-10-10T07:31:18Z</time>
      </trkpt>
      <trkpt lat="48.01936" lon="-0.73832">
        <ele>78.6</ele>
        <time>2010-10-10T07:31:22Z</time>
      </trkpt>
      <trkpt lat="48.01944" lon="-0.73818">
        <ele>79</ele>
        <time>2010-10-10T07:31:26Z</time>
      </trkpt>
      <trkpt lat="48.01948" lon="-0.7381">
        <ele>79.2</ele>
        <time>2010-10-10T07:31:28Z</time>
      </trkpt>
      <trkpt lat="48.01958" lon="-0.73795">
        <ele>79.8</ele>
        <time>2010-10-10T07:31:32Z</time>
      </trkpt>
      <trkpt lat="48.01962" lon="-0.73788">
        <ele>80.2</ele>
        <time>2010-10-10T07:31:34Z</time>
      </trkpt>
      <trkpt lat="48.01973" lon="-0.73772">
        <ele>80.8</ele>
        <time>2010-10-10T07:31:39Z</time>
      </trkpt>
      <trkpt lat="48.01977" lon="-0.73767">
        <ele>81.2</ele>
        <time>2010-10-10T07:31:41Z</time>
      </trkpt>
      <trkpt lat="48.01991" lon="-0.73746">
        <ele>82</ele>
        <time>2010-10-10T07:31:47Z</time>
      </trkpt>
      <trkpt lat="48.02004" lon="-0.73727">
        <ele>82.8</ele>
        <time>2010-10-10T07:31:53Z</time>
      </trkpt>
      <trkpt lat="48.02011" lon="-0.73718">
        <ele>83.2</ele>
        <time>2010-10-10T07:31:56Z</time>
      </trkpt>
      <trkpt lat="48.02018" lon="-0.73708">
        <ele>83.8</ele>
        <time>2010-10-10T07:31:59Z</time>
      </trkpt>
      <trkpt lat="48.02022" lon="-0.73701">
        <ele>84</ele>
        <time>2010-10-10T07:32:01Z</time>
      </trkpt>
      <trkpt lat="48.02032" lon="-0.73685">
        <ele>84.4</ele>
        <time>2010-10-10T07:32:06Z</time>
      </trkpt>
      <trkpt lat="48.02034" lon="-0.73683">
        <ele>84.6</ele>
        <time>2010-10-10T07:32:07Z</time>
      </trkpt>
      <trkpt lat="48.02049" lon="-0.73669">
        <ele>85.2</ele>
        <time>2010-10-10T07:32:13Z</time>
      </trkpt>
      <trkpt lat="48.02051" lon="-0.73668">
        <ele>85.2</ele>
        <time>2010-10-10T07:32:14Z</time>
      </trkpt>
      <trkpt lat="48.02067" lon="-0.73668">
        <ele>85.8</ele>
        <time>2010-10-10T07:32:20Z</time>
      </trkpt>
      <trkpt lat="48.02082" lon="-0.73671">
        <ele>86.2</ele>
        <time>2010-10-10T07:32:26Z</time>
      </trkpt>
      <trkpt lat="48.02085" lon="-0.73672">
        <ele>86.4</ele>
        <time>2010-10-10T07:32:27Z</time>
      </trkpt>
      <trkpt lat="48.02104" lon="-0.73679">
        <ele>86.8</ele>
        <time>2010-10-10T07:32:34Z</time>
      </trkpt>
      <trkpt lat="48.02121" lon="-0.73684">
        <ele>87.2</ele>
        <time>2010-10-10T07:32:40Z</time>
      </trkpt>
      <trkpt lat="48.02124" lon="-0.73684">
        <ele>87.4</ele>
        <time>2010-10-10T07:32:41Z</time>
      </trkpt>
      <trkpt lat="48.02138" lon="-0.73677">
        <ele>88</ele>
        <time>2010-10-10T07:32:46Z</time>
      </trkpt>
      <trkpt lat="48.02142" lon="-0.73673">
        <ele>88.4</ele>
        <time>2010-10-10T07:32:48Z</time>
      </trkpt>
      <trkpt lat="48.02152" lon="-0.73658">
        <ele>89.2</ele>
        <time>2010-10-10T07:32:54Z</time>
      </trkpt>
      <trkpt lat="48.02156" lon="-0.73653">
        <ele>89.6</ele>
        <time>2010-10-10T07:32:56Z</time>
      </trkpt>
      <trkpt lat="48.02162" lon="-0.73644">
        <ele>89.8</ele>
        <time>2010-10-10T07:32:59Z</time>
      </trkpt>
      <trkpt lat="48.02169" lon="-0.73632">
        <ele>90.4</ele>
        <time>2010-10-10T07:33:03Z</time>
      </trkpt>
      <trkpt lat="48.02176" lon="-0.73621">
        <ele>90.8</ele>
        <time>2010-10-10T07:33:07Z</time>
      </trkpt>
      <trkpt lat="48.02182" lon="-0.73612">
        <ele>90.8</ele>
        <time>2010-10-10T07:33:10Z</time>
      </trkpt>
      <trkpt lat="48.02188" lon="-0.73603">
        <ele>91</ele>
        <time>2010-10-10T07:33:13Z</time>
      </trkpt>
      <trkpt lat="48.02191" lon="-0.73601">
        <ele>91</ele>
        <time>2010-10-10T07:33:14Z</time>
      </trkpt>
      <trkpt lat="48.02199" lon="-0.736">
        <ele>91.2</ele>
        <time>2010-10-10T07:33:17Z</time>
      </trkpt>
      <trkpt lat="48.02201" lon="-0.736">
        <ele>91.2</ele>
        <time>2010-10-10T07:33:18Z</time>
      </trkpt>
      <trkpt lat="48.02213" lon="-0.73599">
        <ele>91.4</ele>
        <time>2010-10-10T07:33:23Z</time>
      </trkpt>
      <trkpt lat="48.02218" lon="-0.736">
        <ele>91.6</ele>
        <time>2010-10-10T07:33:25Z</time>
      </trkpt>
      <trkpt lat="48.02226" lon="-0.73604">
        <ele>91.6</ele>
        <time>2010-10-10T07:33:29Z</time>
      </trkpt>
      <trkpt lat="48.02236" lon="-0.7361">
        <ele>91.8</ele>
        <time>2010-10-10T07:33:34Z</time>
      </trkpt>
      <trkpt lat="48.02238" lon="-0.73611">
        <ele>91.8</ele>
        <time>2010-10-10T07:33:35Z</time>
      </trkpt>
      <trkpt lat="48.02248" lon="-0.73617">
        <ele>92</ele>
        <time>2010-10-10T07:33:41Z</time>
      </trkpt>
      <trkpt lat="48.02254" lon="-0.73622">
        <ele>92</ele>
        <time>2010-10-10T07:33:45Z</time>
      </trkpt>
      <trkpt lat="48.0226" lon="-0.73627">
        <ele>92.2</ele>
        <time>2010-10-10T07:33:48Z</time>
      </trkpt>
      <trkpt lat="48.02264" lon="-0.73631">
        <ele>92.4</ele>
        <time>2010-10-10T07:33:54Z</time>
      </trkpt>
      <trkpt lat="48.02275" lon="-0.7364">
        <ele>95.2</ele>
        <time>2010-10-10T07:34:34Z</time>
      </trkpt>
      <trkpt lat="48.0228" lon="-0.73642">
        <ele>95.2</ele>
        <time>2010-10-10T07:34:36Z</time>
      </trkpt>
      <trkpt lat="48.02294" lon="-0.7365">
        <ele>95.4</ele>
        <time>2010-10-10T07:34:41Z</time>
      </trkpt>
      <trkpt lat="48.02303" lon="-0.73653">
        <ele>95.4</ele>
        <time>2010-10-10T07:34:44Z</time>
      </trkpt>
      <trkpt lat="48.02312" lon="-0.73658">
        <ele>95.6</ele>
        <time>2010-10-10T07:34:48Z</time>
      </trkpt>
      <trkpt lat="48.02324" lon="-0.73665">
        <ele>95.6</ele>
        <time>2010-10-10T07:34:51Z</time>
      </trkpt>
      <trkpt lat="48.0233" lon="-0.7367">
        <ele>95.6</ele>
        <time>2010-10-10T07:34:53Z</time>
      </trkpt>
      <trkpt lat="48.02342" lon="-0.73676">
        <ele>95.8</ele>
        <time>2010-10-10T07:34:57Z</time>
      </trkpt>
      <trkpt lat="48.02349" lon="-0.73683">
        <ele>95.8</ele>
        <time>2010-10-10T07:35:00Z</time>
      </trkpt>
      <trkpt lat="48.02361" lon="-0.73689">
        <ele>95.8</ele>
        <time>2010-10-10T07:35:04Z</time>
      </trkpt>
      <trkpt lat="48.02367" lon="-0.73693">
        <ele>95.8</ele>
        <time>2010-10-10T07:35:06Z</time>
      </trkpt>
      <trkpt lat="48.02385" lon="-0.73703">
        <ele>95.8</ele>
        <time>2010-10-10T07:35:12Z</time>
      </trkpt>
      <trkpt lat="48.02404" lon="-0.73715">
        <ele>95.8</ele>
        <time>2010-10-10T07:35:18Z</time>
      </trkpt>
      <trkpt lat="48.02407" lon="-0.73717">
        <ele>95.8</ele>
        <time>2010-10-10T07:35:19Z</time>
      </trkpt>
      <trkpt lat="48.02424" lon="-0.73727">
        <ele>95.8</ele>
        <time>2010-10-10T07:35:24Z</time>
      </trkpt>
      <trkpt lat="48.02431" lon="-0.73731">
        <ele>95.8</ele>
        <time>2010-10-10T07:35:26Z</time>
      </trkpt>
      <trkpt lat="48.02441" lon="-0.73737">
        <ele>95.8</ele>
        <time>2010-10-10T07:35:29Z</time>
      </trkpt>
      <trkpt lat="48.02459" lon="-0.73748">
        <ele>95.8</ele>
        <time>2010-10-10T07:35:34Z</time>
      </trkpt>
      <trkpt lat="48.0247" lon="-0.7376">
        <ele>95.6</ele>
        <time>2010-10-10T07:35:38Z</time>
      </trkpt>
      <trkpt lat="48.02468" lon="-0.73769">
        <ele>95.6</ele>
        <time>2010-10-10T07:35:40Z</time>
      </trkpt>
      <trkpt lat="48.02466" lon="-0.73772">
        <ele>95.8</ele>
        <time>2010-10-10T07:35:42Z</time>
      </trkpt>
      <trkpt lat="48.02463" lon="-0.73775">
        <ele>95.8</ele>
        <time>2010-10-10T07:35:43Z</time>
      </trkpt>
      <trkpt lat="48.02454" lon="-0.73786">
        <ele>95.6</ele>
        <time>2010-10-10T07:35:46Z</time>
      </trkpt>
      <trkpt lat="48.02447" lon="-0.73796">
        <ele>95.6</ele>
        <time>2010-10-10T07:35:49Z</time>
      </trkpt>
      <trkpt lat="48.0244" lon="-0.73807">
        <ele>95.6</ele>
        <time>2010-10-10T07:35:52Z</time>
      </trkpt>
      <trkpt lat="48.02431" lon="-0.73818">
        <ele>95.6</ele>
        <time>2010-10-10T07:35:55Z</time>
      </trkpt>
      <trkpt lat="48.02426" lon="-0.73826">
        <ele>95.6</ele>
        <time>2010-10-10T07:35:57Z</time>
      </trkpt>
      <trkpt lat="48.02412" lon="-0.73848">
        <ele>95.4</ele>
        <time>2010-10-10T07:36:02Z</time>
      </trkpt>
      <trkpt lat="48.02409" lon="-0.73852">
        <ele>95.4</ele>
        <time>2010-10-10T07:36:03Z</time>
      </trkpt>
      <trkpt lat="48.024" lon="-0.73871">
        <ele>95.4</ele>
        <time>2010-10-10T07:36:07Z</time>
      </trkpt>
      <trkpt lat="48.02401" lon="-0.73877">
        <ele>95.4</ele>
        <time>2010-10-10T07:36:08Z</time>
      </trkpt>
      <trkpt lat="48.02411" lon="-0.73889">
        <ele>95.4</ele>
        <time>2010-10-10T07:36:11Z</time>
      </trkpt>
      <trkpt lat="48.02417" lon="-0.73895">
        <ele>95.4</ele>
        <time>2010-10-10T07:36:13Z</time>
      </trkpt>
      <trkpt lat="48.02431" lon="-0.73909">
        <ele>95.2</ele>
        <time>2010-10-10T07:36:17Z</time>
      </trkpt>
      <trkpt lat="48.02435" lon="-0.73912">
        <ele>95.2</ele>
        <time>2010-10-10T07:36:19Z</time>
      </trkpt>
      <trkpt lat="48.02447" lon="-0.73923">
        <ele>95.2</ele>
        <time>2010-10-10T07:36:21Z</time>
      </trkpt>
      <trkpt lat="48.02463" lon="-0.73938">
        <ele>95.2</ele>
        <time>2010-10-10T07:36:25Z</time>
      </trkpt>
      <trkpt lat="48.02479" lon="-0.73954">
        <ele>95.2</ele>
        <time>2010-10-10T07:36:29Z</time>
      </trkpt>
      <trkpt lat="48.02497" lon="-0.7397">
        <ele>95.2</ele>
        <time>2010-10-10T07:36:33Z</time>
      </trkpt>
      <trkpt lat="48.02516" lon="-0.73987">
        <ele>95.4</ele>
        <time>2010-10-10T07:36:37Z</time>
      </trkpt>
      <trkpt lat="48.0252" lon="-0.73991">
        <ele>95.2</ele>
        <time>2010-10-10T07:36:38Z</time>
      </trkpt>
      <trkpt lat="48.02535" lon="-0.74005">
        <ele>95.2</ele>
        <time>2010-10-10T07:36:41Z</time>
      </trkpt>
      <trkpt lat="48.02555" lon="-0.74023">
        <ele>95.2</ele>
        <time>2010-10-10T07:36:45Z</time>
      </trkpt>
      <trkpt lat="48.0256" lon="-0.74027">
        <ele>95.2</ele>
        <time>2010-10-10T07:36:47Z</time>
      </trkpt>
      <trkpt lat="48.0257" lon="-0.74037">
        <ele>95.2</ele>
        <time>2010-10-10T07:36:48Z</time>
      </trkpt>
      <trkpt lat="48.0259" lon="-0.74055">
        <ele>95.2</ele>
        <time>2010-10-10T07:36:52Z</time>
      </trkpt>
      <trkpt lat="48.02608" lon="-0.74073">
        <ele>95</ele>
        <time>2010-10-10T07:36:57Z</time>
      </trkpt>
      <trkpt lat="48.02626" lon="-0.74089">
        <ele>95</ele>
        <time>2010-10-10T07:37:00Z</time>
      </trkpt>
      <trkpt lat="48.02644" lon="-0.74102">
        <ele>95</ele>
        <time>2010-10-10T07:37:04Z</time>
      </trkpt>
      <trkpt lat="48.02663" lon="-0.74109">
        <ele>95</ele>
        <time>2010-10-10T07:37:08Z</time>
      </trkpt>
      <trkpt lat="48.02676" lon="-0.74122">
        <ele>95</ele>
        <time>2010-10-10T07:37:11Z</time>
      </trkpt>
      <trkpt lat="48.02684" lon="-0.74132">
        <ele>95.2</ele>
        <time>2010-10-10T07:37:13Z</time>
      </trkpt>
      <trkpt lat="48.02696" lon="-0.74148">
        <ele>95.4</ele>
        <time>2010-10-10T07:37:17Z</time>
      </trkpt>
      <trkpt lat="48.0271" lon="-0.74165">
        <ele>95.4</ele>
        <time>2010-10-10T07:37:20Z</time>
      </trkpt>
      <trkpt lat="48.02716" lon="-0.74171">
        <ele>95.4</ele>
        <time>2010-10-10T07:37:21Z</time>
      </trkpt>
      <trkpt lat="48.02729" lon="-0.74181">
        <ele>95.4</ele>
        <time>2010-10-10T07:37:22Z</time>
      </trkpt>
      <trkpt lat="48.02735" lon="-0.74186">
        <ele>95.6</ele>
        <time>2010-10-10T07:37:23Z</time>
      </trkpt>
      <trkpt lat="48.02747" lon="-0.74197">
        <ele>95.6</ele>
        <time>2010-10-10T07:37:25Z</time>
      </trkpt>
      <trkpt lat="48.02766" lon="-0.74213">
        <ele>95.6</ele>
        <time>2010-10-10T07:37:28Z</time>
      </trkpt>
      <trkpt lat="48.02784" lon="-0.74229">
        <ele>95.4</ele>
        <time>2010-10-10T07:37:31Z</time>
      </trkpt>
      <trkpt lat="48.0279" lon="-0.74235">
        <ele>95.4</ele>
        <time>2010-10-10T07:37:32Z</time>
      </trkpt>
      <trkpt lat="48.02802" lon="-0.74246">
        <ele>95.4</ele>
        <time>2010-10-10T07:37:34Z</time>
      </trkpt>
      <trkpt lat="48.02819" lon="-0.74262">
        <ele>95.6</ele>
        <time>2010-10-10T07:37:37Z</time>
      </trkpt>
      <trkpt lat="48.02824" lon="-0.74267">
        <ele>95.6</ele>
        <time>2010-10-10T07:37:39Z</time>
      </trkpt>
      <trkpt lat="48.02835" lon="-0.74277">
        <ele>95.6</ele>
        <time>2010-10-10T07:37:40Z</time>
      </trkpt>
      <trkpt lat="48.02851" lon="-0.74293">
        <ele>95.6</ele>
        <time>2010-10-10T07:37:43Z</time>
      </trkpt>
      <trkpt lat="48.02867" lon="-0.74308">
        <ele>95.6</ele>
        <time>2010-10-10T07:37:46Z</time>
      </trkpt>
      <trkpt lat="48.02883" lon="-0.74322">
        <ele>95.6</ele>
        <time>2010-10-10T07:37:49Z</time>
      </trkpt>
      <trkpt lat="48.02888" lon="-0.74327">
        <ele>95.6</ele>
        <time>2010-10-10T07:37:51Z</time>
      </trkpt>
      <trkpt lat="48.02897" lon="-0.7434">
        <ele>95.6</ele>
        <time>2010-10-10T07:37:52Z</time>
      </trkpt>
      <trkpt lat="48.02905" lon="-0.74355">
        <ele>95.4</ele>
        <time>2010-10-10T07:37:54Z</time>
      </trkpt>
      <trkpt lat="48.02908" lon="-0.74363">
        <ele>95.4</ele>
        <time>2010-10-10T07:37:56Z</time>
      </trkpt>
      <trkpt lat="48.02919" lon="-0.74387">
        <ele>95.4</ele>
        <time>2010-10-10T07:37:59Z</time>
      </trkpt>
      <trkpt lat="48.02931" lon="-0.74412">
        <ele>95.4</ele>
        <time>2010-10-10T07:38:01Z</time>
      </trkpt>
      <trkpt lat="48.02944" lon="-0.74438">
        <ele>95.4</ele>
        <time>2010-10-10T07:38:05Z</time>
      </trkpt>
      <trkpt lat="48.02956" lon="-0.74462">
        <ele>95.4</ele>
        <time>2010-10-10T07:38:07Z</time>
      </trkpt>
      <trkpt lat="48.02958" lon="-0.74466">
        <ele>95.4</ele>
        <time>2010-10-10T07:38:08Z</time>
      </trkpt>
      <trkpt lat="48.02961" lon="-0.74472">
        <ele>95.4</ele>
        <time>2010-10-10T07:38:10Z</time>
      </trkpt>
      <trkpt lat="48.02961" lon="-0.74474">
        <ele>95.6</ele>
        <time>2010-10-10T07:38:13Z</time>
      </trkpt>
      <trkpt lat="48.02966" lon="-0.74485">
        <ele>101</ele>
        <time>2010-10-10T07:45:53Z</time>
      </trkpt>
      <trkpt lat="48.02973" lon="-0.74502">
        <ele>97.8</ele>
        <time>2010-10-10T07:47:48Z</time>
      </trkpt>
      <trkpt lat="48.02976" lon="-0.74507">
        <ele>97.8</ele>
        <time>2010-10-10T07:47:50Z</time>
      </trkpt>
      <trkpt lat="48.02986" lon="-0.74524">
        <ele>97.8</ele>
        <time>2010-10-10T07:47:55Z</time>
      </trkpt>
      <trkpt lat="48.0299" lon="-0.74531">
        <ele>98</ele>
        <time>2010-10-10T07:47:57Z</time>
      </trkpt>
      <trkpt lat="48.02998" lon="-0.74544">
        <ele>98.2</ele>
        <time>2010-10-10T07:48:00Z</time>
      </trkpt>
      <trkpt lat="48.03009" lon="-0.74562">
        <ele>98.4</ele>
        <time>2010-10-10T07:48:04Z</time>
      </trkpt>
      <trkpt lat="48.03011" lon="-0.74566">
        <ele>98.4</ele>
        <time>2010-10-10T07:48:05Z</time>
      </trkpt>
      <trkpt lat="48.03026" lon="-0.74588">
        <ele>98.8</ele>
        <time>2010-10-10T07:48:10Z</time>
      </trkpt>
      <trkpt lat="48.03039" lon="-0.7461">
        <ele>99</ele>
        <time>2010-10-10T07:48:15Z</time>
      </trkpt>
      <trkpt lat="48.03041" lon="-0.74614">
        <ele>99</ele>
        <time>2010-10-10T07:48:16Z</time>
      </trkpt>
      <trkpt lat="48.03052" lon="-0.74634">
        <ele>99.4</ele>
        <time>2010-10-10T07:48:21Z</time>
      </trkpt>
      <trkpt lat="48.03065" lon="-0.74659">
        <ele>99.6</ele>
        <time>2010-10-10T07:48:26Z</time>
      </trkpt>
      <trkpt lat="48.03068" lon="-0.74663">
        <ele>99.6</ele>
        <time>2010-10-10T07:48:27Z</time>
      </trkpt>
      <trkpt lat="48.0308" lon="-0.74678">
        <ele>100</ele>
        <time>2010-10-10T07:48:31Z</time>
      </trkpt>
      <trkpt lat="48.03088" lon="-0.74688">
        <ele>100</ele>
        <time>2010-10-10T07:48:34Z</time>
      </trkpt>
      <trkpt lat="48.03095" lon="-0.74693">
        <ele>100.2</ele>
        <time>2010-10-10T07:48:36Z</time>
      </trkpt>
      <trkpt lat="48.03099" lon="-0.74692">
        <ele>100.2</ele>
        <time>2010-10-10T07:48:37Z</time>
      </trkpt>
      <trkpt lat="48.03102" lon="-0.74689">
        <ele>100.2</ele>
        <time>2010-10-10T07:48:38Z</time>
      </trkpt>
      <trkpt lat="48.03111" lon="-0.74675">
        <ele>100.2</ele>
        <time>2010-10-10T07:48:41Z</time>
      </trkpt>
      <trkpt lat="48.03116" lon="-0.74664">
        <ele>100.4</ele>
        <time>2010-10-10T07:48:43Z</time>
      </trkpt>
      <trkpt lat="48.03122" lon="-0.74652">
        <ele>100.4</ele>
        <time>2010-10-10T07:48:45Z</time>
      </trkpt>
      <trkpt lat="48.03129" lon="-0.7464">
        <ele>100.4</ele>
        <time>2010-10-10T07:48:47Z</time>
      </trkpt>
      <trkpt lat="48.03134" lon="-0.74627">
        <ele>100.6</ele>
        <time>2010-10-10T07:48:49Z</time>
      </trkpt>
      <trkpt lat="48.03136" lon="-0.74621">
        <ele>100.6</ele>
        <time>2010-10-10T07:48:50Z</time>
      </trkpt>
      <trkpt lat="48.03141" lon="-0.74609">
        <ele>100.6</ele>
        <time>2010-10-10T07:48:52Z</time>
      </trkpt>
      <trkpt lat="48.03145" lon="-0.74603">
        <ele>100.6</ele>
        <time>2010-10-10T07:48:53Z</time>
      </trkpt>
      <trkpt lat="48.0315" lon="-0.746">
        <ele>100.6</ele>
        <time>2010-10-10T07:48:54Z</time>
      </trkpt>
      <trkpt lat="48.03164" lon="-0.74606">
        <ele>100.8</ele>
        <time>2010-10-10T07:48:57Z</time>
      </trkpt>
      <trkpt lat="48.03173" lon="-0.74616">
        <ele>100.8</ele>
        <time>2010-10-10T07:48:59Z</time>
      </trkpt>
      <trkpt lat="48.03183" lon="-0.74627">
        <ele>100.8</ele>
        <time>2010-10-10T07:49:01Z</time>
      </trkpt>
      <trkpt lat="48.03192" lon="-0.74637">
        <ele>100.8</ele>
        <time>2010-10-10T07:49:03Z</time>
      </trkpt>
      <trkpt lat="48.03202" lon="-0.74647">
        <ele>101</ele>
        <time>2010-10-10T07:49:05Z</time>
      </trkpt>
      <trkpt lat="48.03217" lon="-0.74663">
        <ele>101</ele>
        <time>2010-10-10T07:49:08Z</time>
      </trkpt>
      <trkpt lat="48.03227" lon="-0.74673">
        <ele>101</ele>
        <time>2010-10-10T07:49:10Z</time>
      </trkpt>
      <trkpt lat="48.03232" lon="-0.74678">
        <ele>101</ele>
        <time>2010-10-10T07:49:11Z</time>
      </trkpt>
      <trkpt lat="48.0325" lon="-0.747">
        <ele>101</ele>
        <time>2010-10-10T07:49:15Z</time>
      </trkpt>
      <trkpt lat="48.03265" lon="-0.74717">
        <ele>101</ele>
        <time>2010-10-10T07:49:18Z</time>
      </trkpt>
      <trkpt lat="48.0328" lon="-0.74737">
        <ele>101</ele>
        <time>2010-10-10T07:49:21Z</time>
      </trkpt>
      <trkpt lat="48.03295" lon="-0.74754">
        <ele>101</ele>
        <time>2010-10-10T07:49:24Z</time>
      </trkpt>
      <trkpt lat="48.033" lon="-0.7476">
        <ele>101</ele>
        <time>2010-10-10T07:49:25Z</time>
      </trkpt>
      <trkpt lat="48.0331" lon="-0.74772">
        <ele>101</ele>
        <time>2010-10-10T07:49:27Z</time>
      </trkpt>
      <trkpt lat="48.03326" lon="-0.7479">
        <ele>101</ele>
        <time>2010-10-10T07:49:30Z</time>
      </trkpt>
      <trkpt lat="48.03337" lon="-0.74801">
        <ele>100.8</ele>
        <time>2010-10-10T07:49:32Z</time>
      </trkpt>
      <trkpt lat="48.03342" lon="-0.74807">
        <ele>100.8</ele>
        <time>2010-10-10T07:49:33Z</time>
      </trkpt>
      <trkpt lat="48.03355" lon="-0.74824">
        <ele>100.8</ele>
        <time>2010-10-10T07:49:36Z</time>
      </trkpt>
      <trkpt lat="48.03365" lon="-0.74837">
        <ele>100.8</ele>
        <time>2010-10-10T07:49:38Z</time>
      </trkpt>
      <trkpt lat="48.03368" lon="-0.74845">
        <ele>100.8</ele>
        <time>2010-10-10T07:49:39Z</time>
      </trkpt>
      <trkpt lat="48.0337" lon="-0.74864">
        <ele>100.8</ele>
        <time>2010-10-10T07:49:41Z</time>
      </trkpt>
      <trkpt lat="48.0337" lon="-0.74874">
        <ele>100.6</ele>
        <time>2010-10-10T07:49:42Z</time>
      </trkpt>
      <trkpt lat="48.03368" lon="-0.74908">
        <ele>100.6</ele>
        <time>2010-10-10T07:49:45Z</time>
      </trkpt>
      <trkpt lat="48.03367" lon="-0.74932">
        <ele>100.6</ele>
        <time>2010-10-10T07:49:47Z</time>
      </trkpt>
      <trkpt lat="48.03367" lon="-0.74944">
        <ele>100.6</ele>
        <time>2010-10-10T07:49:48Z</time>
      </trkpt>
      <trkpt lat="48.03364" lon="-0.74979">
        <ele>100.4</ele>
        <time>2010-10-10T07:49:51Z</time>
      </trkpt>
      <trkpt lat="48.03362" lon="-0.75014">
        <ele>100.4</ele>
        <time>2010-10-10T07:49:54Z</time>
      </trkpt>
      <trkpt lat="48.0336" lon="-0.75052">
        <ele>100.2</ele>
        <time>2010-10-10T07:49:57Z</time>
      </trkpt>
      <trkpt lat="48.03359" lon="-0.75079">
        <ele>100.2</ele>
        <time>2010-10-10T07:49:59Z</time>
      </trkpt>
      <trkpt lat="48.03358" lon="-0.75106">
        <ele>100.2</ele>
        <time>2010-10-10T07:50:01Z</time>
      </trkpt>
      <trkpt lat="48.03358" lon="-0.75133">
        <ele>100.2</ele>
        <time>2010-10-10T07:50:03Z</time>
      </trkpt>
      <trkpt lat="48.03357" lon="-0.7516">
        <ele>100</ele>
        <time>2010-10-10T07:50:05Z</time>
      </trkpt>
      <trkpt lat="48.03356" lon="-0.75173">
        <ele>100</ele>
        <time>2010-10-10T07:50:06Z</time>
      </trkpt>
      <trkpt lat="48.03353" lon="-0.75213">
        <ele>99.8</ele>
        <time>2010-10-10T07:50:09Z</time>
      </trkpt>
      <trkpt lat="48.03351" lon="-0.7525">
        <ele>99.6</ele>
        <time>2010-10-10T07:50:12Z</time>
      </trkpt>
      <trkpt lat="48.03351" lon="-0.75284">
        <ele>99.2</ele>
        <time>2010-10-10T07:50:15Z</time>
      </trkpt>
      <trkpt lat="48.03351" lon="-0.75295">
        <ele>99.2</ele>
        <time>2010-10-10T07:50:16Z</time>
      </trkpt>
      <trkpt lat="48.0335" lon="-0.75305">
        <ele>99</ele>
        <time>2010-10-10T07:50:17Z</time>
      </trkpt>
      <trkpt lat="48.03349" lon="-0.75316">
        <ele>99</ele>
        <time>2010-10-10T07:50:18Z</time>
      </trkpt>
      <trkpt lat="48.0335" lon="-0.75337">
        <ele>98.6</ele>
        <time>2010-10-10T07:50:20Z</time>
      </trkpt>
      <trkpt lat="48.03351" lon="-0.75347">
        <ele>98.6</ele>
        <time>2010-10-10T07:50:21Z</time>
      </trkpt>
      <trkpt lat="48.03353" lon="-0.75358">
        <ele>98.4</ele>
        <time>2010-10-10T07:50:22Z</time>
      </trkpt>
      <trkpt lat="48.03358" lon="-0.75379">
        <ele>98.2</ele>
        <time>2010-10-10T07:50:24Z</time>
      </trkpt>
      <trkpt lat="48.0336" lon="-0.75389">
        <ele>98</ele>
        <time>2010-10-10T07:50:25Z</time>
      </trkpt>
      <trkpt lat="48.03366" lon="-0.75408">
        <ele>97.8</ele>
        <time>2010-10-10T07:50:27Z</time>
      </trkpt>
      <trkpt lat="48.03372" lon="-0.75427">
        <ele>97.6</ele>
        <time>2010-10-10T07:50:29Z</time>
      </trkpt>
      <trkpt lat="48.03377" lon="-0.75433">
        <ele>97.4</ele>
        <time>2010-10-10T07:50:30Z</time>
      </trkpt>
      <trkpt lat="48.03394" lon="-0.75439">
        <ele>97.2</ele>
        <time>2010-10-10T07:50:33Z</time>
      </trkpt>
      <trkpt lat="48.03399" lon="-0.75439">
        <ele>97.2</ele>
        <time>2010-10-10T07:50:34Z</time>
      </trkpt>
      <trkpt lat="48.03406" lon="-0.75437">
        <ele>97</ele>
        <time>2010-10-10T07:50:36Z</time>
      </trkpt>
      <trkpt lat="48.03409" lon="-0.75434">
        <ele>97</ele>
        <time>2010-10-10T07:50:37Z</time>
      </trkpt>
      <trkpt lat="48.03414" lon="-0.75424">
        <ele>96.8</ele>
        <time>2010-10-10T07:50:39Z</time>
      </trkpt>
      <trkpt lat="48.03417" lon="-0.75417">
        <ele>96.6</ele>
        <time>2010-10-10T07:50:41Z</time>
      </trkpt>
      <trkpt lat="48.03418" lon="-0.75417">
        <ele>96.6</ele>
        <time>2010-10-10T07:50:42Z</time>
      </trkpt>
      <trkpt lat="48.03413" lon="-0.75423">
        <ele>96.2</ele>
        <time>2010-10-10T07:50:46Z</time>
      </trkpt>
      <trkpt lat="48.03414" lon="-0.75431">
        <ele>96</ele>
        <time>2010-10-10T07:50:50Z</time>
      </trkpt>
      <trkpt lat="48.03416" lon="-0.75436">
        <ele>95.8</ele>
        <time>2010-10-10T07:50:52Z</time>
      </trkpt>
      <trkpt lat="48.03418" lon="-0.75446">
        <ele>95.6</ele>
        <time>2010-10-10T07:50:54Z</time>
      </trkpt>
      <trkpt lat="48.0342" lon="-0.75457">
        <ele>95.4</ele>
        <time>2010-10-10T07:50:56Z</time>
      </trkpt>
      <trkpt lat="48.03426" lon="-0.75486">
        <ele>94.8</ele>
        <time>2010-10-10T07:51:01Z</time>
      </trkpt>
      <trkpt lat="48.03425" lon="-0.75496">
        <ele>94.4</ele>
        <time>2010-10-10T07:51:04Z</time>
      </trkpt>
      <trkpt lat="48.03434" lon="-0.75503">
        <ele>92.2</ele>
        <time>2010-10-10T07:51:32Z</time>
      </trkpt>
      <trkpt lat="48.03453" lon="-0.75509">
        <ele>91.6</ele>
        <time>2010-10-10T07:51:37Z</time>
      </trkpt>
      <trkpt lat="48.03472" lon="-0.75517">
        <ele>91.2</ele>
        <time>2010-10-10T07:51:41Z</time>
      </trkpt>
      <trkpt lat="48.03479" lon="-0.75522">
        <ele>91</ele>
        <time>2010-10-10T07:51:43Z</time>
      </trkpt>
      <trkpt lat="48.0349" lon="-0.75535">
        <ele>90.2</ele>
        <time>2010-10-10T07:51:47Z</time>
      </trkpt>
      <trkpt lat="48.03493" lon="-0.75539">
        <ele>90</ele>
        <time>2010-10-10T07:51:48Z</time>
      </trkpt>
      <trkpt lat="48.03496" lon="-0.75543">
        <ele>89.8</ele>
        <time>2010-10-10T07:51:49Z</time>
      </trkpt>
      <trkpt lat="48.03504" lon="-0.75551">
        <ele>89.2</ele>
        <time>2010-10-10T07:51:51Z</time>
      </trkpt>
      <trkpt lat="48.03512" lon="-0.75561">
        <ele>88.8</ele>
        <time>2010-10-10T07:51:53Z</time>
      </trkpt>
      <trkpt lat="48.03516" lon="-0.75564">
        <ele>88.6</ele>
        <time>2010-10-10T07:51:54Z</time>
      </trkpt>
      <trkpt lat="48.0352" lon="-0.75567">
        <ele>88.2</ele>
        <time>2010-10-10T07:51:55Z</time>
      </trkpt>
      <trkpt lat="48.0353" lon="-0.75576">
        <ele>87.2</ele>
        <time>2010-10-10T07:51:58Z</time>
      </trkpt>
      <trkpt lat="48.03536" lon="-0.7558">
        <ele>86.6</ele>
        <time>2010-10-10T07:52:00Z</time>
      </trkpt>
      <trkpt lat="48.03539" lon="-0.75581">
        <ele>86.2</ele>
        <time>2010-10-10T07:52:01Z</time>
      </trkpt>
      <trkpt lat="48.03544" lon="-0.75586">
        <ele>85.4</ele>
        <time>2010-10-10T07:52:03Z</time>
      </trkpt>
      <trkpt lat="48.03547" lon="-0.75593">
        <ele>84.4</ele>
        <time>2010-10-10T07:52:06Z</time>
      </trkpt>
      <trkpt lat="48.03546" lon="-0.75596">
        <ele>84</ele>
        <time>2010-10-10T07:52:07Z</time>
      </trkpt>
      <trkpt lat="48.03545" lon="-0.756">
        <ele>83.8</ele>
        <time>2010-10-10T07:52:08Z</time>
      </trkpt>
      <trkpt lat="48.03543" lon="-0.75611">
        <ele>82.4</ele>
        <time>2010-10-10T07:52:12Z</time>
      </trkpt>
      <trkpt lat="48.03545" lon="-0.75625">
        <ele>81.2</ele>
        <time>2010-10-10T07:52:16Z</time>
      </trkpt>
      <trkpt lat="48.03543" lon="-0.75643">
        <ele>80.2</ele>
        <time>2010-10-10T07:52:19Z</time>
      </trkpt>
      <trkpt lat="48.03541" lon="-0.75652">
        <ele>80</ele>
        <time>2010-10-10T07:52:20Z</time>
      </trkpt>
      <trkpt lat="48.03538" lon="-0.75679">
        <ele>79</ele>
        <time>2010-10-10T07:52:23Z</time>
      </trkpt>
      <trkpt lat="48.03538" lon="-0.75698">
        <ele>78.4</ele>
        <time>2010-10-10T07:52:25Z</time>
      </trkpt>
      <trkpt lat="48.03542" lon="-0.75712">
        <ele>77.8</ele>
        <time>2010-10-10T07:52:27Z</time>
      </trkpt>
      <trkpt lat="48.03545" lon="-0.75718">
        <ele>77.4</ele>
        <time>2010-10-10T07:52:28Z</time>
      </trkpt>
      <trkpt lat="48.03557" lon="-0.7573">
        <ele>76.4</ele>
        <time>2010-10-10T07:52:31Z</time>
      </trkpt>
      <trkpt lat="48.03562" lon="-0.75733">
        <ele>76.2</ele>
        <time>2010-10-10T07:52:32Z</time>
      </trkpt>
      <trkpt lat="48.03578" lon="-0.75744">
        <ele>75.2</ele>
        <time>2010-10-10T07:52:35Z</time>
      </trkpt>
      <trkpt lat="48.03588" lon="-0.75753">
        <ele>74.8</ele>
        <time>2010-10-10T07:52:37Z</time>
      </trkpt>
      <trkpt lat="48.03598" lon="-0.75761">
        <ele>74.2</ele>
        <time>2010-10-10T07:52:39Z</time>
      </trkpt>
      <trkpt lat="48.03612" lon="-0.75776">
        <ele>73.4</ele>
        <time>2010-10-10T07:52:42Z</time>
      </trkpt>
      <trkpt lat="48.03616" lon="-0.75781">
        <ele>73.2</ele>
        <time>2010-10-10T07:52:43Z</time>
      </trkpt>
      <trkpt lat="48.03635" lon="-0.75802">
        <ele>72</ele>
        <time>2010-10-10T07:52:47Z</time>
      </trkpt>
      <trkpt lat="48.0364" lon="-0.75807">
        <ele>71.8</ele>
        <time>2010-10-10T07:52:48Z</time>
      </trkpt>
      <trkpt lat="48.03654" lon="-0.75823">
        <ele>71.2</ele>
        <time>2010-10-10T07:52:51Z</time>
      </trkpt>
      <trkpt lat="48.03672" lon="-0.75844">
        <ele>70.2</ele>
        <time>2010-10-10T07:52:55Z</time>
      </trkpt>
      <trkpt lat="48.03676" lon="-0.7585">
        <ele>70</ele>
        <time>2010-10-10T07:52:56Z</time>
      </trkpt>
      <trkpt lat="48.03689" lon="-0.75866">
        <ele>69.4</ele>
        <time>2010-10-10T07:52:59Z</time>
      </trkpt>
      <trkpt lat="48.03703" lon="-0.75883">
        <ele>68.6</ele>
        <time>2010-10-10T07:53:02Z</time>
      </trkpt>
      <trkpt lat="48.03708" lon="-0.75889">
        <ele>68.6</ele>
        <time>2010-10-10T07:53:03Z</time>
      </trkpt>
      <trkpt lat="48.03721" lon="-0.75907">
        <ele>67.8</ele>
        <time>2010-10-10T07:53:06Z</time>
      </trkpt>
      <trkpt lat="48.03734" lon="-0.75926">
        <ele>67.2</ele>
        <time>2010-10-10T07:53:09Z</time>
      </trkpt>
      <trkpt lat="48.03742" lon="-0.7594">
        <ele>66.8</ele>
        <time>2010-10-10T07:53:11Z</time>
      </trkpt>
      <trkpt lat="48.03746" lon="-0.75947">
        <ele>66.6</ele>
        <time>2010-10-10T07:53:12Z</time>
      </trkpt>
      <trkpt lat="48.03759" lon="-0.75968">
        <ele>66</ele>
        <time>2010-10-10T07:53:15Z</time>
      </trkpt>
      <trkpt lat="48.03776" lon="-0.75992">
        <ele>65.4</ele>
        <time>2010-10-10T07:53:19Z</time>
      </trkpt>
      <trkpt lat="48.03794" lon="-0.76011">
        <ele>64.6</ele>
        <time>2010-10-10T07:53:23Z</time>
      </trkpt>
      <trkpt lat="48.03813" lon="-0.76032">
        <ele>63.8</ele>
        <time>2010-10-10T07:53:27Z</time>
      </trkpt>
      <trkpt lat="48.03831" lon="-0.76052">
        <ele>63.2</ele>
        <time>2010-10-10T07:53:31Z</time>
      </trkpt>
      <trkpt lat="48.03849" lon="-0.76071">
        <ele>62.4</ele>
        <time>2010-10-10T07:53:35Z</time>
      </trkpt>
      <trkpt lat="48.03857" lon="-0.76081">
        <ele>62.2</ele>
        <time>2010-10-10T07:53:37Z</time>
      </trkpt>
      <trkpt lat="48.03866" lon="-0.76091">
        <ele>62</ele>
        <time>2010-10-10T07:53:39Z</time>
      </trkpt>
      <trkpt lat="48.03884" lon="-0.76105">
        <ele>61.4</ele>
        <time>2010-10-10T07:53:43Z</time>
      </trkpt>
      <trkpt lat="48.03901" lon="-0.7612">
        <ele>60.8</ele>
        <time>2010-10-10T07:53:47Z</time>
      </trkpt>
      <trkpt lat="48.03909" lon="-0.76127">
        <ele>60.6</ele>
        <time>2010-10-10T07:53:49Z</time>
      </trkpt>
      <trkpt lat="48.03913" lon="-0.7613">
        <ele>60.6</ele>
        <time>2010-10-10T07:53:50Z</time>
      </trkpt>
      <trkpt lat="48.03917" lon="-0.76134">
        <ele>60.4</ele>
        <time>2010-10-10T07:53:51Z</time>
      </trkpt>
      <trkpt lat="48.03928" lon="-0.76144">
        <ele>60.2</ele>
        <time>2010-10-10T07:53:54Z</time>
      </trkpt>
      <trkpt lat="48.03935" lon="-0.76139">
        <ele>60</ele>
        <time>2010-10-10T07:53:56Z</time>
      </trkpt>
      <trkpt lat="48.03936" lon="-0.76135">
        <ele>60</ele>
        <time>2010-10-10T07:53:57Z</time>
      </trkpt>
      <trkpt lat="48.0394" lon="-0.76126">
        <ele>59.8</ele>
        <time>2010-10-10T07:53:59Z</time>
      </trkpt>
      <trkpt lat="48.03944" lon="-0.76112">
        <ele>59.6</ele>
        <time>2010-10-10T07:54:02Z</time>
      </trkpt>
      <trkpt lat="48.03949" lon="-0.76098">
        <ele>59.6</ele>
        <time>2010-10-10T07:54:05Z</time>
      </trkpt>
      <trkpt lat="48.03954" lon="-0.76085">
        <ele>59.4</ele>
        <time>2010-10-10T07:54:08Z</time>
      </trkpt>
      <trkpt lat="48.03964" lon="-0.76058">
        <ele>59.4</ele>
        <time>2010-10-10T07:54:14Z</time>
      </trkpt>
      <trkpt lat="48.03974" lon="-0.76032">
        <ele>60</ele>
        <time>2010-10-10T07:54:20Z</time>
      </trkpt>
      <trkpt lat="48.03984" lon="-0.76006">
        <ele>60.8</ele>
        <time>2010-10-10T07:54:26Z</time>
      </trkpt>
      <trkpt lat="48.03995" lon="-0.75983">
        <ele>61.6</ele>
        <time>2010-10-10T07:54:31Z</time>
      </trkpt>
      <trkpt lat="48.04006" lon="-0.75961">
        <ele>62.4</ele>
        <time>2010-10-10T07:54:36Z</time>
      </trkpt>
      <trkpt lat="48.0402" lon="-0.75936">
        <ele>63.6</ele>
        <time>2010-10-10T07:54:42Z</time>
      </trkpt>
      <trkpt lat="48.04034" lon="-0.75916">
        <ele>64.6</ele>
        <time>2010-10-10T07:54:48Z</time>
      </trkpt>
      <trkpt lat="48.04037" lon="-0.7591">
        <ele>64.8</ele>
        <time>2010-10-10T07:54:50Z</time>
      </trkpt>
      <trkpt lat="48.04039" lon="-0.75904">
        <ele>65.2</ele>
        <time>2010-10-10T07:54:52Z</time>
      </trkpt>
      <trkpt lat="48.04037" lon="-0.75898">
        <ele>65.6</ele>
        <time>2010-10-10T07:54:54Z</time>
      </trkpt>
      <trkpt lat="48.04033" lon="-0.75894">
        <ele>65.8</ele>
        <time>2010-10-10T07:54:56Z</time>
      </trkpt>
      <trkpt lat="48.04028" lon="-0.7589">
        <ele>65.8</ele>
        <time>2010-10-10T07:54:58Z</time>
      </trkpt>
      <trkpt lat="48.04018" lon="-0.75876">
        <ele>66</ele>
        <time>2010-10-10T07:55:04Z</time>
      </trkpt>
      <trkpt lat="48.04016" lon="-0.75873">
        <ele>65.8</ele>
        <time>2010-10-10T07:55:05Z</time>
      </trkpt>
      <trkpt lat="48.04006" lon="-0.75857">
        <ele>65.8</ele>
        <time>2010-10-10T07:55:10Z</time>
      </trkpt>
      <trkpt lat="48.03994" lon="-0.75839">
        <ele>65.6</ele>
        <time>2010-10-10T07:55:15Z</time>
      </trkpt>
      <trkpt lat="48.03992" lon="-0.75834">
        <ele>65.6</ele>
        <time>2010-10-10T07:55:16Z</time>
      </trkpt>
      <trkpt lat="48.03979" lon="-0.75818">
        <ele>65.6</ele>
        <time>2010-10-10T07:55:21Z</time>
      </trkpt>
      <trkpt lat="48.03977" lon="-0.75814">
        <ele>65.6</ele>
        <time>2010-10-10T07:55:22Z</time>
      </trkpt>
      <trkpt lat="48.03961" lon="-0.75797">
        <ele>65.6</ele>
        <time>2010-10-10T07:55:28Z</time>
      </trkpt>
      <trkpt lat="48.03942" lon="-0.75783">
        <ele>65.4</ele>
        <time>2010-10-10T07:55:34Z</time>
      </trkpt>
      <trkpt lat="48.03925" lon="-0.75768">
        <ele>65.2</ele>
        <time>2010-10-10T07:55:38Z</time>
      </trkpt>
      <trkpt lat="48.03922" lon="-0.75763">
        <ele>65</ele>
        <time>2010-10-10T07:55:39Z</time>
      </trkpt>
      <trkpt lat="48.03914" lon="-0.75753">
        <ele>64.8</ele>
        <time>2010-10-10T07:55:42Z</time>
      </trkpt>
      <trkpt lat="48.03913" lon="-0.7575">
        <ele>64.8</ele>
        <time>2010-10-10T07:55:43Z</time>
      </trkpt>
      <trkpt lat="48.03911" lon="-0.75747">
        <ele>64.6</ele>
        <time>2010-10-10T07:55:44Z</time>
      </trkpt>
      <trkpt lat="48.03905" lon="-0.75736">
        <ele>64.4</ele>
        <time>2010-10-10T07:55:48Z</time>
      </trkpt>
      <trkpt lat="48.03896" lon="-0.75728">
        <ele>64</ele>
        <time>2010-10-10T07:55:51Z</time>
      </trkpt>
      <trkpt lat="48.03889" lon="-0.75725">
        <ele>63.8</ele>
        <time>2010-10-10T07:55:53Z</time>
      </trkpt>
      <trkpt lat="48.03878" lon="-0.75714">
        <ele>63.4</ele>
        <time>2010-10-10T07:55:56Z</time>
      </trkpt>
      <trkpt lat="48.03874" lon="-0.75709">
        <ele>63.2</ele>
        <time>2010-10-10T07:55:57Z</time>
      </trkpt>
      <trkpt lat="48.03864" lon="-0.75696">
        <ele>62.8</ele>
        <time>2010-10-10T07:56:00Z</time>
      </trkpt>
      <trkpt lat="48.03861" lon="-0.75691">
        <ele>62.6</ele>
        <time>2010-10-10T07:56:01Z</time>
      </trkpt>
      <trkpt lat="48.03856" lon="-0.75683">
        <ele>62.4</ele>
        <time>2010-10-10T07:56:03Z</time>
      </trkpt>
      <trkpt lat="48.03851" lon="-0.75675">
        <ele>62.2</ele>
        <time>2010-10-10T07:56:05Z</time>
      </trkpt>
      <trkpt lat="48.03847" lon="-0.75668">
        <ele>61.8</ele>
        <time>2010-10-10T07:56:07Z</time>
      </trkpt>
      <trkpt lat="48.03844" lon="-0.75665">
        <ele>61.8</ele>
        <time>2010-10-10T07:56:08Z</time>
      </trkpt>
      <trkpt lat="48.03836" lon="-0.75659">
        <ele>61</ele>
        <time>2010-10-10T07:56:13Z</time>
      </trkpt>
      <trkpt lat="48.03834" lon="-0.75658">
        <ele>60.8</ele>
        <time>2010-10-10T07:56:15Z</time>
      </trkpt>
      <trkpt lat="48.03833" lon="-0.75656">
        <ele>60.4</ele>
        <time>2010-10-10T07:56:17Z</time>
      </trkpt>
      <trkpt lat="48.03832" lon="-0.75654">
        <ele>60.2</ele>
        <time>2010-10-10T07:56:19Z</time>
      </trkpt>
      <trkpt lat="48.0383" lon="-0.75652">
        <ele>59.8</ele>
        <time>2010-10-10T07:56:23Z</time>
      </trkpt>
      <trkpt lat="48.0383" lon="-0.75649">
        <ele>59.4</ele>
        <time>2010-10-10T07:56:26Z</time>
      </trkpt>
      <trkpt lat="48.03826" lon="-0.75645">
        <ele>58.6</ele>
        <time>2010-10-10T07:56:33Z</time>
      </trkpt>
      <trkpt lat="48.0382" lon="-0.75644">
        <ele>58.2</ele>
        <time>2010-10-10T07:56:38Z</time>
      </trkpt>
      <trkpt lat="48.03818" lon="-0.75643">
        <ele>58</ele>
        <time>2010-10-10T07:56:39Z</time>
      </trkpt>
      <trkpt lat="48.0381" lon="-0.75636">
        <ele>58</ele>
        <time>2010-10-10T07:56:42Z</time>
      </trkpt>
      <trkpt lat="48.03809" lon="-0.75625">
        <ele>57.8</ele>
        <time>2010-10-10T07:56:46Z</time>
      </trkpt>
      <trkpt lat="48.0381" lon="-0.75622">
        <ele>57.8</ele>
        <time>2010-10-10T07:56:47Z</time>
      </trkpt>
      <trkpt lat="48.03811" lon="-0.7562">
        <ele>57.8</ele>
        <time>2010-10-10T07:56:48Z</time>
      </trkpt>
      <trkpt lat="48.03809" lon="-0.75608">
        <ele>59.4</ele>
        <time>2010-10-10T07:56:53Z</time>
      </trkpt>
      <trkpt lat="48.03814" lon="-0.75594">
        <ele>61.2</ele>
        <time>2010-10-10T07:56:59Z</time>
      </trkpt>
      <trkpt lat="48.03815" lon="-0.75591">
        <ele>61.8</ele>
        <time>2010-10-10T07:57:01Z</time>
      </trkpt>
      <trkpt lat="48.0382" lon="-0.75588">
        <ele>62.8</ele>
        <time>2010-10-10T07:57:04Z</time>
      </trkpt>
      <trkpt lat="48.03832" lon="-0.75585">
        <ele>64.4</ele>
        <time>2010-10-10T07:57:09Z</time>
      </trkpt>
      <trkpt lat="48.03837" lon="-0.75584">
        <ele>65</ele>
        <time>2010-10-10T07:57:11Z</time>
      </trkpt>
      <trkpt lat="48.03851" lon="-0.75578">
        <ele>66.6</ele>
        <time>2010-10-10T07:57:17Z</time>
      </trkpt>
      <trkpt lat="48.03871" lon="-0.75572">
        <ele>68.4</ele>
        <time>2010-10-10T07:57:24Z</time>
      </trkpt>
      <trkpt lat="48.03886" lon="-0.75571">
        <ele>69.6</ele>
        <time>2010-10-10T07:57:29Z</time>
      </trkpt>
      <trkpt lat="48.03891" lon="-0.75569">
        <ele>70</ele>
        <time>2010-10-10T07:57:31Z</time>
      </trkpt>
      <trkpt lat="48.0391" lon="-0.75564">
        <ele>71.6</ele>
        <time>2010-10-10T07:57:38Z</time>
      </trkpt>
      <trkpt lat="48.03925" lon="-0.75559">
        <ele>72.8</ele>
        <time>2010-10-10T07:57:44Z</time>
      </trkpt>
      <trkpt lat="48.03927" lon="-0.75558">
        <ele>73</ele>
        <time>2010-10-10T07:57:45Z</time>
      </trkpt>
      <trkpt lat="48.03938" lon="-0.75552">
        <ele>73.8</ele>
        <time>2010-10-10T07:57:49Z</time>
      </trkpt>
      <trkpt lat="48.03945" lon="-0.75547">
        <ele>74.6</ele>
        <time>2010-10-10T07:57:52Z</time>
      </trkpt>
      <trkpt lat="48.03955" lon="-0.75538">
        <ele>75.4</ele>
        <time>2010-10-10T07:57:56Z</time>
      </trkpt>
      <trkpt lat="48.03962" lon="-0.7553">
        <ele>76.2</ele>
        <time>2010-10-10T07:57:59Z</time>
      </trkpt>
      <trkpt lat="48.03968" lon="-0.7552">
        <ele>77</ele>
        <time>2010-10-10T07:58:02Z</time>
      </trkpt>
      <trkpt lat="48.03974" lon="-0.75508">
        <ele>78.2</ele>
        <time>2010-10-10T07:58:06Z</time>
      </trkpt>
      <trkpt lat="48.03978" lon="-0.75501">
        <ele>78.8</ele>
        <time>2010-10-10T07:58:08Z</time>
      </trkpt>
      <trkpt lat="48.03988" lon="-0.75486">
        <ele>80</ele>
        <time>2010-10-10T07:58:12Z</time>
      </trkpt>
      <trkpt lat="48.03993" lon="-0.7548">
        <ele>80.4</ele>
        <time>2010-10-10T07:58:14Z</time>
      </trkpt>
      <trkpt lat="48.04002" lon="-0.75469">
        <ele>81.4</ele>
        <time>2010-10-10T07:58:18Z</time>
      </trkpt>
      <trkpt lat="48.04005" lon="-0.75465">
        <ele>81.6</ele>
        <time>2010-10-10T07:58:19Z</time>
      </trkpt>
      <trkpt lat="48.04019" lon="-0.75449">
        <ele>82.6</ele>
        <time>2010-10-10T07:58:24Z</time>
      </trkpt>
      <trkpt lat="48.04036" lon="-0.75434">
        <ele>83.6</ele>
        <time>2010-10-10T07:58:29Z</time>
      </trkpt>
      <trkpt lat="48.0404" lon="-0.75431">
        <ele>83.8</ele>
        <time>2010-10-10T07:58:30Z</time>
      </trkpt>
      <trkpt lat="48.04054" lon="-0.75418">
        <ele>84.6</ele>
        <time>2010-10-10T07:58:34Z</time>
      </trkpt>
      <trkpt lat="48.04069" lon="-0.75403">
        <ele>85.4</ele>
        <time>2010-10-10T07:58:38Z</time>
      </trkpt>
      <trkpt lat="48.04087" lon="-0.75387">
        <ele>86</ele>
        <time>2010-10-10T07:58:42Z</time>
      </trkpt>
      <trkpt lat="48.04096" lon="-0.75378">
        <ele>86.2</ele>
        <time>2010-10-10T07:58:44Z</time>
      </trkpt>
      <trkpt lat="48.04106" lon="-0.75368">
        <ele>86.4</ele>
        <time>2010-10-10T07:58:46Z</time>
      </trkpt>
      <trkpt lat="48.04122" lon="-0.75354">
        <ele>86.6</ele>
        <time>2010-10-10T07:58:49Z</time>
      </trkpt>
      <trkpt lat="48.04138" lon="-0.7534">
        <ele>86.8</ele>
        <time>2010-10-10T07:58:52Z</time>
      </trkpt>
      <trkpt lat="48.04143" lon="-0.75336">
        <ele>86.8</ele>
        <time>2010-10-10T07:58:53Z</time>
      </trkpt>
      <trkpt lat="48.04163" lon="-0.75319">
        <ele>86.8</ele>
        <time>2010-10-10T07:58:57Z</time>
      </trkpt>
      <trkpt lat="48.04173" lon="-0.75311">
        <ele>87</ele>
        <time>2010-10-10T07:58:59Z</time>
      </trkpt>
      <trkpt lat="48.04183" lon="-0.75304">
        <ele>87</ele>
        <time>2010-10-10T07:59:01Z</time>
      </trkpt>
      <trkpt lat="48.04205" lon="-0.75291">
        <ele>87</ele>
        <time>2010-10-10T07:59:05Z</time>
      </trkpt>
      <trkpt lat="48.04221" lon="-0.75285">
        <ele>87</ele>
        <time>2010-10-10T07:59:08Z</time>
      </trkpt>
      <trkpt lat="48.04227" lon="-0.75283">
        <ele>87</ele>
        <time>2010-10-10T07:59:09Z</time>
      </trkpt>
      <trkpt lat="48.04245" lon="-0.75276">
        <ele>86.8</ele>
        <time>2010-10-10T07:59:12Z</time>
      </trkpt>
      <trkpt lat="48.04265" lon="-0.7527">
        <ele>86.8</ele>
        <time>2010-10-10T07:59:15Z</time>
      </trkpt>
      <trkpt lat="48.04285" lon="-0.75264">
        <ele>86.6</ele>
        <time>2010-10-10T07:59:18Z</time>
      </trkpt>
      <trkpt lat="48.04306" lon="-0.75259">
        <ele>86.6</ele>
        <time>2010-10-10T07:59:21Z</time>
      </trkpt>
      <trkpt lat="48.04321" lon="-0.75257">
        <ele>86.4</ele>
        <time>2010-10-10T07:59:23Z</time>
      </trkpt>
      <trkpt lat="48.04328" lon="-0.75256">
        <ele>86.4</ele>
        <time>2010-10-10T07:59:24Z</time>
      </trkpt>
      <trkpt lat="48.04349" lon="-0.75253">
        <ele>86.2</ele>
        <time>2010-10-10T07:59:27Z</time>
      </trkpt>
      <trkpt lat="48.04369" lon="-0.75251">
        <ele>86</ele>
        <time>2010-10-10T07:59:30Z</time>
      </trkpt>
      <trkpt lat="48.04376" lon="-0.75251">
        <ele>86</ele>
        <time>2010-10-10T07:59:31Z</time>
      </trkpt>
      <trkpt lat="48.04391" lon="-0.75248">
        <ele>85.8</ele>
        <time>2010-10-10T07:59:33Z</time>
      </trkpt>
      <trkpt lat="48.04412" lon="-0.75244">
        <ele>85.6</ele>
        <time>2010-10-10T07:59:36Z</time>
      </trkpt>
      <trkpt lat="48.04426" lon="-0.75243">
        <ele>85.4</ele>
        <time>2010-10-10T07:59:38Z</time>
      </trkpt>
      <trkpt lat="48.04432" lon="-0.75243">
        <ele>85.2</ele>
        <time>2010-10-10T07:59:39Z</time>
      </trkpt>
      <trkpt lat="48.04452" lon="-0.75241">
        <ele>85</ele>
        <time>2010-10-10T07:59:42Z</time>
      </trkpt>
      <trkpt lat="48.04465" lon="-0.75239">
        <ele>85</ele>
        <time>2010-10-10T07:59:44Z</time>
      </trkpt>
      <trkpt lat="48.04472" lon="-0.75238">
        <ele>84.8</ele>
        <time>2010-10-10T07:59:45Z</time>
      </trkpt>
      <trkpt lat="48.0449" lon="-0.75235">
        <ele>84.6</ele>
        <time>2010-10-10T07:59:48Z</time>
      </trkpt>
      <trkpt lat="48.04507" lon="-0.7523">
        <ele>84.6</ele>
        <time>2010-10-10T07:59:51Z</time>
      </trkpt>
      <trkpt lat="48.04511" lon="-0.75229">
        <ele>84.6</ele>
        <time>2010-10-10T07:59:52Z</time>
      </trkpt>
      <trkpt lat="48.0452" lon="-0.75233">
        <ele>84.4</ele>
        <time>2010-10-10T07:59:55Z</time>
      </trkpt>
      <trkpt lat="48.0452" lon="-0.75247">
        <ele>84.4</ele>
        <time>2010-10-10T07:59:58Z</time>
      </trkpt>
      <trkpt lat="48.0452" lon="-0.75253">
        <ele>84.4</ele>
        <time>2010-10-10T07:59:59Z</time>
      </trkpt>
      <trkpt lat="48.0452" lon="-0.75259">
        <ele>84.2</ele>
        <time>2010-10-10T08:00:00Z</time>
      </trkpt>
      <trkpt lat="48.04522" lon="-0.75278">
        <ele>84.2</ele>
        <time>2010-10-10T08:00:03Z</time>
      </trkpt>
      <trkpt lat="48.04527" lon="-0.75304">
        <ele>84</ele>
        <time>2010-10-10T08:00:07Z</time>
      </trkpt>
      <trkpt lat="48.04528" lon="-0.75311">
        <ele>83.8</ele>
        <time>2010-10-10T08:00:08Z</time>
      </trkpt>
      <trkpt lat="48.04529" lon="-0.75318">
        <ele>83.8</ele>
        <time>2010-10-10T08:00:09Z</time>
      </trkpt>
      <trkpt lat="48.04533" lon="-0.75329">
        <ele>83.6</ele>
        <time>2010-10-10T08:00:11Z</time>
      </trkpt>
      <trkpt lat="48.04536" lon="-0.75335">
        <ele>83.6</ele>
        <time>2010-10-10T08:00:12Z</time>
      </trkpt>
      <trkpt lat="48.04537" lon="-0.75342">
        <ele>83.6</ele>
        <time>2010-10-10T08:00:13Z</time>
      </trkpt>
      <trkpt lat="48.04542" lon="-0.75362">
        <ele>83.4</ele>
        <time>2010-10-10T08:00:16Z</time>
      </trkpt>
      <trkpt lat="48.04544" lon="-0.75377">
        <ele>83.2</ele>
        <time>2010-10-10T08:00:18Z</time>
      </trkpt>
      <trkpt lat="48.04547" lon="-0.75393">
        <ele>83</ele>
        <time>2010-10-10T08:00:20Z</time>
      </trkpt>
      <trkpt lat="48.04552" lon="-0.75419">
        <ele>82.6</ele>
        <time>2010-10-10T08:00:23Z</time>
      </trkpt>
      <trkpt lat="48.04558" lon="-0.75447">
        <ele>82.2</ele>
        <time>2010-10-10T08:00:26Z</time>
      </trkpt>
      <trkpt lat="48.04562" lon="-0.75475">
        <ele>82</ele>
        <time>2010-10-10T08:00:29Z</time>
      </trkpt>
      <trkpt lat="48.04565" lon="-0.75493">
        <ele>81.6</ele>
        <time>2010-10-10T08:00:31Z</time>
      </trkpt>
      <trkpt lat="48.04566" lon="-0.75502">
        <ele>81.6</ele>
        <time>2010-10-10T08:00:32Z</time>
      </trkpt>
      <trkpt lat="48.04572" lon="-0.75534">
        <ele>81</ele>
        <time>2010-10-10T08:00:36Z</time>
      </trkpt>
      <trkpt lat="48.04573" lon="-0.75542">
        <ele>80.8</ele>
        <time>2010-10-10T08:00:37Z</time>
      </trkpt>
      <trkpt lat="48.04578" lon="-0.75567">
        <ele>80.4</ele>
        <time>2010-10-10T08:00:40Z</time>
      </trkpt>
      <trkpt lat="48.04581" lon="-0.75575">
        <ele>80.2</ele>
        <time>2010-10-10T08:00:41Z</time>
      </trkpt>
      <trkpt lat="48.04584" lon="-0.75581">
        <ele>80</ele>
        <time>2010-10-10T08:00:42Z</time>
      </trkpt>
      <trkpt lat="48.04591" lon="-0.75592">
        <ele>79.8</ele>
        <time>2010-10-10T08:00:44Z</time>
      </trkpt>
      <trkpt lat="48.04595" lon="-0.75597">
        <ele>79.6</ele>
        <time>2010-10-10T08:00:45Z</time>
      </trkpt>
      <trkpt lat="48.04607" lon="-0.75609">
        <ele>79.2</ele>
        <time>2010-10-10T08:00:48Z</time>
      </trkpt>
      <trkpt lat="48.04615" lon="-0.75617">
        <ele>79</ele>
        <time>2010-10-10T08:00:50Z</time>
      </trkpt>
      <trkpt lat="48.04625" lon="-0.75627">
        <ele>78.8</ele>
        <time>2010-10-10T08:00:52Z</time>
      </trkpt>
      <trkpt lat="48.04635" lon="-0.75639">
        <ele>78.6</ele>
        <time>2010-10-10T08:00:54Z</time>
      </trkpt>
      <trkpt lat="48.0464" lon="-0.75643">
        <ele>78.4</ele>
        <time>2010-10-10T08:00:55Z</time>
      </trkpt>
      <trkpt lat="48.04655" lon="-0.75658">
        <ele>78</ele>
        <time>2010-10-10T08:00:58Z</time>
      </trkpt>
      <trkpt lat="48.04665" lon="-0.75668">
        <ele>77.8</ele>
        <time>2010-10-10T08:01:00Z</time>
      </trkpt>
      <trkpt lat="48.0467" lon="-0.75674">
        <ele>77.6</ele>
        <time>2010-10-10T08:01:01Z</time>
      </trkpt>
      <trkpt lat="48.04675" lon="-0.75679">
        <ele>77.6</ele>
        <time>2010-10-10T08:01:02Z</time>
      </trkpt>
      <trkpt lat="48.04678" lon="-0.75685">
        <ele>77.4</ele>
        <time>2010-10-10T08:01:03Z</time>
      </trkpt>
      <trkpt lat="48.04683" lon="-0.75692">
        <ele>77.4</ele>
        <time>2010-10-10T08:01:04Z</time>
      </trkpt>
      <trkpt lat="48.04688" lon="-0.75699">
        <ele>77.2</ele>
        <time>2010-10-10T08:01:05Z</time>
      </trkpt>
      <trkpt lat="48.047" lon="-0.75712">
        <ele>77</ele>
        <time>2010-10-10T08:01:07Z</time>
      </trkpt>
      <trkpt lat="48.04712" lon="-0.75726">
        <ele>77</ele>
        <time>2010-10-10T08:01:09Z</time>
      </trkpt>
      <trkpt lat="48.04718" lon="-0.75733">
        <ele>77</ele>
        <time>2010-10-10T08:01:10Z</time>
      </trkpt>
      <trkpt lat="48.04731" lon="-0.75749">
        <ele>76.8</ele>
        <time>2010-10-10T08:01:12Z</time>
      </trkpt>
      <trkpt lat="48.04736" lon="-0.75756">
        <ele>76.8</ele>
        <time>2010-10-10T08:01:13Z</time>
      </trkpt>
      <trkpt lat="48.04742" lon="-0.75763">
        <ele>76.6</ele>
        <time>2010-10-10T08:01:14Z</time>
      </trkpt>
      <trkpt lat="48.04755" lon="-0.75778">
        <ele>76.6</ele>
        <time>2010-10-10T08:01:16Z</time>
      </trkpt>
      <trkpt lat="48.04771" lon="-0.75796">
        <ele>76.8</ele>
        <time>2010-10-10T08:01:19Z</time>
      </trkpt>
      <trkpt lat="48.04782" lon="-0.75809">
        <ele>76.8</ele>
        <time>2010-10-10T08:01:21Z</time>
      </trkpt>
      <trkpt lat="48.04787" lon="-0.75815">
        <ele>77</ele>
        <time>2010-10-10T08:01:22Z</time>
      </trkpt>
      <trkpt lat="48.04796" lon="-0.75823">
        <ele>77.2</ele>
        <time>2010-10-10T08:01:24Z</time>
      </trkpt>
      <trkpt lat="48.04798" lon="-0.75827">
        <ele>77.4</ele>
        <time>2010-10-10T08:01:25Z</time>
      </trkpt>
      <trkpt lat="48.0479" lon="-0.75829">
        <ele>77.6</ele>
        <time>2010-10-10T08:01:27Z</time>
      </trkpt>
      <trkpt lat="48.04786" lon="-0.75828">
        <ele>77.8</ele>
        <time>2010-10-10T08:01:28Z</time>
      </trkpt>
      <trkpt lat="48.04777" lon="-0.75828">
        <ele>78.2</ele>
        <time>2010-10-10T08:01:30Z</time>
      </trkpt>
      <trkpt lat="48.04773" lon="-0.75828">
        <ele>78.4</ele>
        <time>2010-10-10T08:01:31Z</time>
      </trkpt>
      <trkpt lat="48.04762" lon="-0.75826">
        <ele>78.6</ele>
        <time>2010-10-10T08:01:33Z</time>
      </trkpt>
      <trkpt lat="48.04751" lon="-0.75825">
        <ele>78.8</ele>
        <time>2010-10-10T08:01:35Z</time>
      </trkpt>
      <trkpt lat="48.04736" lon="-0.75823">
        <ele>79.2</ele>
        <time>2010-10-10T08:01:37Z</time>
      </trkpt>
      <trkpt lat="48.04729" lon="-0.75821">
        <ele>79.2</ele>
        <time>2010-10-10T08:01:38Z</time>
      </trkpt>
      <trkpt lat="48.04708" lon="-0.75817">
        <ele>79.8</ele>
        <time>2010-10-10T08:01:41Z</time>
      </trkpt>
      <trkpt lat="48.04701" lon="-0.75815">
        <ele>80</ele>
        <time>2010-10-10T08:01:42Z</time>
      </trkpt>
      <trkpt lat="48.04687" lon="-0.75813">
        <ele>80.4</ele>
        <time>2010-10-10T08:01:44Z</time>
      </trkpt>
      <trkpt lat="48.04668" lon="-0.75811">
        <ele>81.2</ele>
        <time>2010-10-10T08:01:47Z</time>
      </trkpt>
      <trkpt lat="48.04658" lon="-0.75809">
        <ele>81.4</ele>
        <time>2010-10-10T08:01:49Z</time>
      </trkpt>
      <trkpt lat="48.04648" lon="-0.75806">
        <ele>81.6</ele>
        <time>2010-10-10T08:01:51Z</time>
      </trkpt>
      <trkpt lat="48.04627" lon="-0.75802">
        <ele>82.2</ele>
        <time>2010-10-10T08:01:55Z</time>
      </trkpt>
      <trkpt lat="48.0462" lon="-0.75801">
        <ele>82.2</ele>
        <time>2010-10-10T08:01:56Z</time>
      </trkpt>
      <trkpt lat="48.04611" lon="-0.758">
        <ele>82.4</ele>
        <time>2010-10-10T08:01:58Z</time>
      </trkpt>
      <trkpt lat="48.04606" lon="-0.758">
        <ele>82.2</ele>
        <time>2010-10-10T08:01:59Z</time>
      </trkpt>
      <trkpt lat="48.046" lon="-0.75799">
        <ele>82.2</ele>
        <time>2010-10-10T08:02:01Z</time>
      </trkpt>
      <trkpt lat="48.04593" lon="-0.75797">
        <ele>82.2</ele>
        <time>2010-10-10T08:02:02Z</time>
      </trkpt>
      <trkpt lat="48.04585" lon="-0.75795">
        <ele>82.2</ele>
        <time>2010-10-10T08:02:03Z</time>
      </trkpt>
      <trkpt lat="48.04576" lon="-0.75793">
        <ele>82.2</ele>
        <time>2010-10-10T08:02:04Z</time>
      </trkpt>
      <trkpt lat="48.0456" lon="-0.75791">
        <ele>82.2</ele>
        <time>2010-10-10T08:02:06Z</time>
      </trkpt>
      <trkpt lat="48.04542" lon="-0.75788">
        <ele>82</ele>
        <time>2010-10-10T08:02:09Z</time>
      </trkpt>
      <trkpt lat="48.04518" lon="-0.75781">
        <ele>81.8</ele>
        <time>2010-10-10T08:02:13Z</time>
      </trkpt>
      <trkpt lat="48.04512" lon="-0.7578">
        <ele>81.8</ele>
        <time>2010-10-10T08:02:14Z</time>
      </trkpt>
      <trkpt lat="48.04499" lon="-0.75778">
        <ele>81.6</ele>
        <time>2010-10-10T08:02:16Z</time>
      </trkpt>
      <trkpt lat="48.04493" lon="-0.75777">
        <ele>81.6</ele>
        <time>2010-10-10T08:02:17Z</time>
      </trkpt>
      <trkpt lat="48.04486" lon="-0.75777">
        <ele>81.6</ele>
        <time>2010-10-10T08:02:18Z</time>
      </trkpt>
      <trkpt lat="48.04479" lon="-0.75777">
        <ele>81.4</ele>
        <time>2010-10-10T08:02:19Z</time>
      </trkpt>
      <trkpt lat="48.04464" lon="-0.75786">
        <ele>81.4</ele>
        <time>2010-10-10T08:02:22Z</time>
      </trkpt>
      <trkpt lat="48.04462" lon="-0.7579">
        <ele>81.2</ele>
        <time>2010-10-10T08:02:23Z</time>
      </trkpt>
      <trkpt lat="48.04466" lon="-0.75805">
        <ele>81.2</ele>
        <time>2010-10-10T08:02:25Z</time>
      </trkpt>
      <trkpt lat="48.04467" lon="-0.75812">
        <ele>81</ele>
        <time>2010-10-10T08:02:26Z</time>
      </trkpt>
      <trkpt lat="48.04469" lon="-0.7582">
        <ele>81</ele>
        <time>2010-10-10T08:02:27Z</time>
      </trkpt>
      <trkpt lat="48.04473" lon="-0.75836">
        <ele>80.8</ele>
        <time>2010-10-10T08:02:29Z</time>
      </trkpt>
      <trkpt lat="48.04474" lon="-0.75846">
        <ele>80.6</ele>
        <time>2010-10-10T08:02:30Z</time>
      </trkpt>
      <trkpt lat="48.04469" lon="-0.75868">
        <ele>80.4</ele>
        <time>2010-10-10T08:02:33Z</time>
      </trkpt>
      <trkpt lat="48.04466" lon="-0.75874">
        <ele>80.2</ele>
        <time>2010-10-10T08:02:34Z</time>
      </trkpt>
      <trkpt lat="48.04463" lon="-0.7588">
        <ele>80.2</ele>
        <time>2010-10-10T08:02:35Z</time>
      </trkpt>
      <trkpt lat="48.0446" lon="-0.75888">
        <ele>80.2</ele>
        <time>2010-10-10T08:02:36Z</time>
      </trkpt>
      <trkpt lat="48.04457" lon="-0.75896">
        <ele>80</ele>
        <time>2010-10-10T08:02:37Z</time>
      </trkpt>
      <trkpt lat="48.04455" lon="-0.75906">
        <ele>80</ele>
        <time>2010-10-10T08:02:38Z</time>
      </trkpt>
      <trkpt lat="48.04452" lon="-0.75922">
        <ele>79.8</ele>
        <time>2010-10-10T08:02:40Z</time>
      </trkpt>
      <trkpt lat="48.04451" lon="-0.75929">
        <ele>79.8</ele>
        <time>2010-10-10T08:02:41Z</time>
      </trkpt>
      <trkpt lat="48.04451" lon="-0.75941">
        <ele>79.6</ele>
        <time>2010-10-10T08:02:43Z</time>
      </trkpt>
      <trkpt lat="48.04454" lon="-0.75948">
        <ele>79.4</ele>
        <time>2010-10-10T08:02:45Z</time>
      </trkpt>
      <trkpt lat="48.04459" lon="-0.75952">
        <ele>79.2</ele>
        <time>2010-10-10T08:02:47Z</time>
      </trkpt>
      <trkpt lat="48.04461" lon="-0.75953">
        <ele>79</ele>
        <time>2010-10-10T08:02:48Z</time>
      </trkpt>
      <trkpt lat="48.04465" lon="-0.75956">
        <ele>78.8</ele>
        <time>2010-10-10T08:02:49Z</time>
      </trkpt>
      <trkpt lat="48.04472" lon="-0.75964">
        <ele>78.6</ele>
        <time>2010-10-10T08:02:51Z</time>
      </trkpt>
      <trkpt lat="48.04478" lon="-0.75966">
        <ele>78.4</ele>
        <time>2010-10-10T08:02:52Z</time>
      </trkpt>
      <trkpt lat="48.04484" lon="-0.75969">
        <ele>78</ele>
        <time>2010-10-10T08:02:53Z</time>
      </trkpt>
      <trkpt lat="48.04491" lon="-0.75973">
        <ele>77.8</ele>
        <time>2010-10-10T08:02:54Z</time>
      </trkpt>
      <trkpt lat="48.04499" lon="-0.75976">
        <ele>77.6</ele>
        <time>2010-10-10T08:02:55Z</time>
      </trkpt>
      <trkpt lat="48.04519" lon="-0.75984">
        <ele>77</ele>
        <time>2010-10-10T08:02:58Z</time>
      </trkpt>
      <trkpt lat="48.04526" lon="-0.75987">
        <ele>76.6</ele>
        <time>2010-10-10T08:02:59Z</time>
      </trkpt>
      <trkpt lat="48.04537" lon="-0.75996">
        <ele>76</ele>
        <time>2010-10-10T08:03:01Z</time>
      </trkpt>
      <trkpt lat="48.0455" lon="-0.76005">
        <ele>75.4</ele>
        <time>2010-10-10T08:03:03Z</time>
      </trkpt>
      <trkpt lat="48.04555" lon="-0.76009">
        <ele>75.2</ele>
        <time>2010-10-10T08:03:04Z</time>
      </trkpt>
      <trkpt lat="48.04561" lon="-0.76014">
        <ele>74.8</ele>
        <time>2010-10-10T08:03:05Z</time>
      </trkpt>
      <trkpt lat="48.04574" lon="-0.76021">
        <ele>74.4</ele>
        <time>2010-10-10T08:03:07Z</time>
      </trkpt>
      <trkpt lat="48.04581" lon="-0.76024">
        <ele>74</ele>
        <time>2010-10-10T08:03:08Z</time>
      </trkpt>
      <trkpt lat="48.04596" lon="-0.76031">
        <ele>73.4</ele>
        <time>2010-10-10T08:03:10Z</time>
      </trkpt>
      <trkpt lat="48.04602" lon="-0.76037">
        <ele>73.2</ele>
        <time>2010-10-10T08:03:11Z</time>
      </trkpt>
      <trkpt lat="48.04608" lon="-0.76041">
        <ele>72.8</ele>
        <time>2010-10-10T08:03:12Z</time>
      </trkpt>
      <trkpt lat="48.04614" lon="-0.76044">
        <ele>72.6</ele>
        <time>2010-10-10T08:03:13Z</time>
      </trkpt>
      <trkpt lat="48.04618" lon="-0.76055">
        <ele>71.4</ele>
        <time>2010-10-10T08:03:16Z</time>
      </trkpt>
      <trkpt lat="48.04619" lon="-0.76073">
        <ele>70.8</ele>
        <time>2010-10-10T08:03:18Z</time>
      </trkpt>
      <trkpt lat="48.04618" lon="-0.76085">
        <ele>70.4</ele>
        <time>2010-10-10T08:03:19Z</time>
      </trkpt>
      <trkpt lat="48.04618" lon="-0.761">
        <ele>70.2</ele>
        <time>2010-10-10T08:03:20Z</time>
      </trkpt>
      <trkpt lat="48.04616" lon="-0.76129">
        <ele>69.8</ele>
        <time>2010-10-10T08:03:22Z</time>
      </trkpt>
      <trkpt lat="48.04611" lon="-0.76152">
        <ele>69.2</ele>
        <time>2010-10-10T08:03:24Z</time>
      </trkpt>
      <trkpt lat="48.0461" lon="-0.76162">
        <ele>69</ele>
        <time>2010-10-10T08:03:25Z</time>
      </trkpt>
      <trkpt lat="48.04604" lon="-0.76193">
        <ele>68.2</ele>
        <time>2010-10-10T08:03:28Z</time>
      </trkpt>
      <trkpt lat="48.04602" lon="-0.76218">
        <ele>67.6</ele>
        <time>2010-10-10T08:03:31Z</time>
      </trkpt>
      <trkpt lat="48.04601" lon="-0.76224">
        <ele>67.4</ele>
        <time>2010-10-10T08:03:32Z</time>
      </trkpt>
      <trkpt lat="48.04605" lon="-0.76225">
        <ele>67.2</ele>
        <time>2010-10-10T08:03:34Z</time>
      </trkpt>
      <trkpt lat="48.04617" lon="-0.76218">
        <ele>66.8</ele>
        <time>2010-10-10T08:03:37Z</time>
      </trkpt>
      <trkpt lat="48.04621" lon="-0.76215">
        <ele>66.8</ele>
        <time>2010-10-10T08:03:38Z</time>
      </trkpt>
      <trkpt lat="48.04624" lon="-0.76213">
        <ele>66.8</ele>
        <time>2010-10-10T08:03:39Z</time>
      </trkpt>
      <trkpt lat="48.04629" lon="-0.76203">
        <ele>66.8</ele>
        <time>2010-10-10T08:03:41Z</time>
      </trkpt>
      <trkpt lat="48.04635" lon="-0.76193">
        <ele>66.8</ele>
        <time>2010-10-10T08:03:43Z</time>
      </trkpt>
      <trkpt lat="48.04636" lon="-0.76182">
        <ele>66.8</ele>
        <time>2010-10-10T08:03:45Z</time>
      </trkpt>
      <trkpt lat="48.04633" lon="-0.76166">
        <ele>67.6</ele>
        <time>2010-10-10T08:03:49Z</time>
      </trkpt>
      <trkpt lat="48.04632" lon="-0.76162">
        <ele>67.6</ele>
        <time>2010-10-10T08:03:50Z</time>
      </trkpt>
      <trkpt lat="48.04629" lon="-0.76136">
        <ele>70.2</ele>
        <time>2010-10-10T08:03:55Z</time>
      </trkpt>
      <trkpt lat="48.04624" lon="-0.76115">
        <ele>73.4</ele>
        <time>2010-10-10T08:04:00Z</time>
      </trkpt>
      <trkpt lat="48.04623" lon="-0.76111">
        <ele>74</ele>
        <time>2010-10-10T08:04:01Z</time>
      </trkpt>
      <trkpt lat="48.04623" lon="-0.76106">
        <ele>74.8</ele>
        <time>2010-10-10T08:04:02Z</time>
      </trkpt>
      <trkpt lat="48.04624" lon="-0.76089">
        <ele>77.2</ele>
        <time>2010-10-10T08:04:06Z</time>
      </trkpt>
      <trkpt lat="48.04622" lon="-0.76075">
        <ele>79.2</ele>
        <time>2010-10-10T08:04:09Z</time>
      </trkpt>
      <trkpt lat="48.04621" lon="-0.76066">
        <ele>80.4</ele>
        <time>2010-10-10T08:04:11Z</time>
      </trkpt>
      <trkpt lat="48.04623" lon="-0.76045">
        <ele>83.4</ele>
        <time>2010-10-10T08:04:16Z</time>
      </trkpt>
      <trkpt lat="48.04624" lon="-0.76041">
        <ele>83.8</ele>
        <time>2010-10-10T08:04:17Z</time>
      </trkpt>
      <trkpt lat="48.04626" lon="-0.76037">
        <ele>84.8</ele>
        <time>2010-10-10T08:04:19Z</time>
      </trkpt>
      <trkpt lat="48.04631" lon="-0.76038">
        <ele>85.6</ele>
        <time>2010-10-10T08:04:21Z</time>
      </trkpt>
      <trkpt lat="48.0464" lon="-0.76042">
        <ele>86.2</ele>
        <time>2010-10-10T08:04:24Z</time>
      </trkpt>
      <trkpt lat="48.04653" lon="-0.76047">
        <ele>86.8</ele>
        <time>2010-10-10T08:04:27Z</time>
      </trkpt>
      <trkpt lat="48.04661" lon="-0.7605">
        <ele>87.4</ele>
        <time>2010-10-10T08:04:29Z</time>
      </trkpt>
      <trkpt lat="48.04676" lon="-0.76058">
        <ele>87.4</ele>
        <time>2010-10-10T08:04:33Z</time>
      </trkpt>
      <trkpt lat="48.0468" lon="-0.76059">
        <ele>87.4</ele>
        <time>2010-10-10T08:04:34Z</time>
      </trkpt>
      <trkpt lat="48.04684" lon="-0.76059">
        <ele>87.6</ele>
        <time>2010-10-10T08:04:35Z</time>
      </trkpt>
      <trkpt lat="48.04696" lon="-0.7606">
        <ele>87.6</ele>
        <time>2010-10-10T08:04:37Z</time>
      </trkpt>
      <trkpt lat="48.04702" lon="-0.7606">
        <ele>87.4</ele>
        <time>2010-10-10T08:04:38Z</time>
      </trkpt>
      <trkpt lat="48.04716" lon="-0.76062">
        <ele>87.4</ele>
        <time>2010-10-10T08:04:40Z</time>
      </trkpt>
      <trkpt lat="48.04722" lon="-0.76065">
        <ele>87.4</ele>
        <time>2010-10-10T08:04:41Z</time>
      </trkpt>
      <trkpt lat="48.0474" lon="-0.76077">
        <ele>87.2</ele>
        <time>2010-10-10T08:04:44Z</time>
      </trkpt>
      <trkpt lat="48.04747" lon="-0.76083">
        <ele>87</ele>
        <time>2010-10-10T08:04:45Z</time>
      </trkpt>
      <trkpt lat="48.04754" lon="-0.76087">
        <ele>87</ele>
        <time>2010-10-10T08:04:46Z</time>
      </trkpt>
      <trkpt lat="48.04761" lon="-0.7609">
        <ele>87</ele>
        <time>2010-10-10T08:04:47Z</time>
      </trkpt>
      <trkpt lat="48.04773" lon="-0.76092">
        <ele>86.8</ele>
        <time>2010-10-10T08:04:49Z</time>
      </trkpt>
      <trkpt lat="48.04782" lon="-0.76082">
        <ele>86.6</ele>
        <time>2010-10-10T08:04:52Z</time>
      </trkpt>
      <trkpt lat="48.04789" lon="-0.76061">
        <ele>86.6</ele>
        <time>2010-10-10T08:04:56Z</time>
      </trkpt>
      <trkpt lat="48.04791" lon="-0.76057">
        <ele>86.4</ele>
        <time>2010-10-10T08:04:57Z</time>
      </trkpt>
      <trkpt lat="48.04793" lon="-0.76051">
        <ele>86.4</ele>
        <time>2010-10-10T08:04:58Z</time>
      </trkpt>
      <trkpt lat="48.04802" lon="-0.76029">
        <ele>86.2</ele>
        <time>2010-10-10T08:05:02Z</time>
      </trkpt>
      <trkpt lat="48.04808" lon="-0.76009">
        <ele>86.2</ele>
        <time>2010-10-10T08:05:06Z</time>
      </trkpt>
      <trkpt lat="48.0481" lon="-0.76004">
        <ele>86.2</ele>
        <time>2010-10-10T08:05:07Z</time>
      </trkpt>
      <trkpt lat="48.04813" lon="-0.75998">
        <ele>86.2</ele>
        <time>2010-10-10T08:05:08Z</time>
      </trkpt>
      <trkpt lat="48.04822" lon="-0.75981">
        <ele>86</ele>
        <time>2010-10-10T08:05:11Z</time>
      </trkpt>
      <trkpt lat="48.04823" lon="-0.75973">
        <ele>86.2</ele>
        <time>2010-10-10T08:05:12Z</time>
      </trkpt>
      <trkpt lat="48.04824" lon="-0.75949">
        <ele>86.2</ele>
        <time>2010-10-10T08:05:15Z</time>
      </trkpt>
      <trkpt lat="48.04823" lon="-0.75942">
        <ele>86.4</ele>
        <time>2010-10-10T08:05:16Z</time>
      </trkpt>
      <trkpt lat="48.04822" lon="-0.75936">
        <ele>86.6</ele>
        <time>2010-10-10T08:05:17Z</time>
      </trkpt>
      <trkpt lat="48.0482" lon="-0.75924">
        <ele>86.8</ele>
        <time>2010-10-10T08:05:19Z</time>
      </trkpt>
      <trkpt lat="48.04819" lon="-0.75919">
        <ele>87</ele>
        <time>2010-10-10T08:05:20Z</time>
      </trkpt>
      <trkpt lat="48.04814" lon="-0.75909">
        <ele>87.2</ele>
        <time>2010-10-10T08:05:22Z</time>
      </trkpt>
      <trkpt lat="48.04811" lon="-0.75895">
        <ele>88</ele>
        <time>2010-10-10T08:05:24Z</time>
      </trkpt>
      <trkpt lat="48.0481" lon="-0.75888">
        <ele>88.4</ele>
        <time>2010-10-10T08:05:25Z</time>
      </trkpt>
      <trkpt lat="48.0481" lon="-0.75882">
        <ele>88.6</ele>
        <time>2010-10-10T08:05:26Z</time>
      </trkpt>
      <trkpt lat="48.04807" lon="-0.75863">
        <ele>89.4</ele>
        <time>2010-10-10T08:05:29Z</time>
      </trkpt>
      <trkpt lat="48.04806" lon="-0.75844">
        <ele>90</ele>
        <time>2010-10-10T08:05:32Z</time>
      </trkpt>
      <trkpt lat="48.0481" lon="-0.75835">
        <ele>90.2</ele>
        <time>2010-10-10T08:05:34Z</time>
      </trkpt>
      <trkpt lat="48.04813" lon="-0.75833">
        <ele>90.2</ele>
        <time>2010-10-10T08:05:35Z</time>
      </trkpt>
      <trkpt lat="48.04827" lon="-0.7583">
        <ele>90.2</ele>
        <time>2010-10-10T08:05:38Z</time>
      </trkpt>
      <trkpt lat="48.04832" lon="-0.75829">
        <ele>90.2</ele>
        <time>2010-10-10T08:05:39Z</time>
      </trkpt>
      <trkpt lat="48.04849" lon="-0.75827">
        <ele>90</ele>
        <time>2010-10-10T08:05:42Z</time>
      </trkpt>
      <trkpt lat="48.04856" lon="-0.75825">
        <ele>90</ele>
        <time>2010-10-10T08:05:43Z</time>
      </trkpt>
      <trkpt lat="48.0487" lon="-0.75823">
        <ele>90</ele>
        <time>2010-10-10T08:05:45Z</time>
      </trkpt>
      <trkpt lat="48.04893" lon="-0.75818">
        <ele>89.8</ele>
        <time>2010-10-10T08:05:48Z</time>
      </trkpt>
      <trkpt lat="48.0491" lon="-0.75814">
        <ele>89.4</ele>
        <time>2010-10-10T08:05:50Z</time>
      </trkpt>
      <trkpt lat="48.0492" lon="-0.75811">
        <ele>89.4</ele>
        <time>2010-10-10T08:05:51Z</time>
      </trkpt>
      <trkpt lat="48.0493" lon="-0.75806">
        <ele>89.2</ele>
        <time>2010-10-10T08:05:52Z</time>
      </trkpt>
      <trkpt lat="48.04942" lon="-0.75801">
        <ele>89</ele>
        <time>2010-10-10T08:05:53Z</time>
      </trkpt>
      <trkpt lat="48.04967" lon="-0.75788">
        <ele>88.6</ele>
        <time>2010-10-10T08:05:55Z</time>
      </trkpt>
      <trkpt lat="48.04989" lon="-0.75776">
        <ele>88.2</ele>
        <time>2010-10-10T08:05:57Z</time>
      </trkpt>
      <trkpt lat="48.0501" lon="-0.75764">
        <ele>88</ele>
        <time>2010-10-10T08:05:59Z</time>
      </trkpt>
      <trkpt lat="48.0503" lon="-0.75754">
        <ele>87.4</ele>
        <time>2010-10-10T08:06:01Z</time>
      </trkpt>
      <trkpt lat="48.05041" lon="-0.7575">
        <ele>87.2</ele>
        <time>2010-10-10T08:06:02Z</time>
      </trkpt>
      <trkpt lat="48.05051" lon="-0.75745">
        <ele>87</ele>
        <time>2010-10-10T08:06:03Z</time>
      </trkpt>
      <trkpt lat="48.05073" lon="-0.75734">
        <ele>86.4</ele>
        <time>2010-10-10T08:06:06Z</time>
      </trkpt>
      <trkpt lat="48.0508" lon="-0.75744">
        <ele>85.6</ele>
        <time>2010-10-10T08:06:09Z</time>
      </trkpt>
      <trkpt lat="48.05077" lon="-0.75759">
        <ele>85.2</ele>
        <time>2010-10-10T08:06:11Z</time>
      </trkpt>
      <trkpt lat="48.05078" lon="-0.75767">
        <ele>85</ele>
        <time>2010-10-10T08:06:12Z</time>
      </trkpt>
      <trkpt lat="48.05082" lon="-0.75782">
        <ele>84.4</ele>
        <time>2010-10-10T08:06:14Z</time>
      </trkpt>
      <trkpt lat="48.05084" lon="-0.7579">
        <ele>84.2</ele>
        <time>2010-10-10T08:06:15Z</time>
      </trkpt>
      <trkpt lat="48.05086" lon="-0.75801">
        <ele>84</ele>
        <time>2010-10-10T08:06:16Z</time>
      </trkpt>
      <trkpt lat="48.05088" lon="-0.7581">
        <ele>83.8</ele>
        <time>2010-10-10T08:06:17Z</time>
      </trkpt>
      <trkpt lat="48.05093" lon="-0.75818">
        <ele>83.6</ele>
        <time>2010-10-10T08:06:18Z</time>
      </trkpt>
      <trkpt lat="48.05102" lon="-0.75835">
        <ele>83</ele>
        <time>2010-10-10T08:06:20Z</time>
      </trkpt>
      <trkpt lat="48.05104" lon="-0.75844">
        <ele>82.8</ele>
        <time>2010-10-10T08:06:21Z</time>
      </trkpt>
      <trkpt lat="48.05112" lon="-0.75875">
        <ele>81.6</ele>
        <time>2010-10-10T08:06:25Z</time>
      </trkpt>
      <trkpt lat="48.05111" lon="-0.75907">
        <ele>80.8</ele>
        <time>2010-10-10T08:06:28Z</time>
      </trkpt>
      <trkpt lat="48.05101" lon="-0.75942">
        <ele>79.8</ele>
        <time>2010-10-10T08:06:31Z</time>
      </trkpt>
      <trkpt lat="48.05096" lon="-0.75954">
        <ele>79.4</ele>
        <time>2010-10-10T08:06:32Z</time>
      </trkpt>
      <trkpt lat="48.0509" lon="-0.75964">
        <ele>79.2</ele>
        <time>2010-10-10T08:06:33Z</time>
      </trkpt>
      <trkpt lat="48.05076" lon="-0.75996">
        <ele>78.2</ele>
        <time>2010-10-10T08:06:36Z</time>
      </trkpt>
      <trkpt lat="48.05073" lon="-0.76008">
        <ele>77.8</ele>
        <time>2010-10-10T08:06:37Z</time>
      </trkpt>
      <trkpt lat="48.05071" lon="-0.76028">
        <ele>77.2</ele>
        <time>2010-10-10T08:06:39Z</time>
      </trkpt>
      <trkpt lat="48.05069" lon="-0.76037">
        <ele>77</ele>
        <time>2010-10-10T08:06:40Z</time>
      </trkpt>
      <trkpt lat="48.05069" lon="-0.76051">
        <ele>76.2</ele>
        <time>2010-10-10T08:06:42Z</time>
      </trkpt>
      <trkpt lat="48.05069" lon="-0.76055">
        <ele>76</ele>
        <time>2010-10-10T08:06:43Z</time>
      </trkpt>
      <trkpt lat="48.05073" lon="-0.76055">
        <ele>75.2</ele>
        <time>2010-10-10T08:06:45Z</time>
      </trkpt>
      <trkpt lat="48.05076" lon="-0.76053">
        <ele>75</ele>
        <time>2010-10-10T08:06:46Z</time>
      </trkpt>
      <trkpt lat="48.05087" lon="-0.76047">
        <ele>73.8</ele>
        <time>2010-10-10T08:06:50Z</time>
      </trkpt>
      <trkpt lat="48.05091" lon="-0.76045">
        <ele>73.4</ele>
        <time>2010-10-10T08:06:52Z</time>
      </trkpt>
      <trkpt lat="48.05092" lon="-0.76045">
        <ele>73</ele>
        <time>2010-10-10T08:06:53Z</time>
      </trkpt>
      <trkpt lat="48.05095" lon="-0.76046">
        <ele>72.2</ele>
        <time>2010-10-10T08:06:56Z</time>
      </trkpt>
      <trkpt lat="48.05102" lon="-0.76043">
        <ele>70.8</ele>
        <time>2010-10-10T08:07:02Z</time>
      </trkpt>
      <trkpt lat="48.05108" lon="-0.7604">
        <ele>70.2</ele>
        <time>2010-10-10T08:07:04Z</time>
      </trkpt>
      <trkpt lat="48.0512" lon="-0.76037">
        <ele>69.6</ele>
        <time>2010-10-10T08:07:07Z</time>
      </trkpt>
      <trkpt lat="48.0513" lon="-0.76035">
        <ele>69</ele>
        <time>2010-10-10T08:07:09Z</time>
      </trkpt>
      <trkpt lat="48.05151" lon="-0.76031">
        <ele>68.2</ele>
        <time>2010-10-10T08:07:13Z</time>
      </trkpt>
      <trkpt lat="48.05172" lon="-0.76026">
        <ele>67.4</ele>
        <time>2010-10-10T08:07:17Z</time>
      </trkpt>
      <trkpt lat="48.05193" lon="-0.7602">
        <ele>66.6</ele>
        <time>2010-10-10T08:07:21Z</time>
      </trkpt>
      <trkpt lat="48.05198" lon="-0.76019">
        <ele>66.4</ele>
        <time>2010-10-10T08:07:22Z</time>
      </trkpt>
      <trkpt lat="48.05213" lon="-0.76017">
        <ele>65.8</ele>
        <time>2010-10-10T08:07:25Z</time>
      </trkpt>
      <trkpt lat="48.05218" lon="-0.76016">
        <ele>65.6</ele>
        <time>2010-10-10T08:07:26Z</time>
      </trkpt>
      <trkpt lat="48.05232" lon="-0.76013">
        <ele>65</ele>
        <time>2010-10-10T08:07:29Z</time>
      </trkpt>
      <trkpt lat="48.05248" lon="-0.76008">
        <ele>64.4</ele>
        <time>2010-10-10T08:07:33Z</time>
      </trkpt>
      <trkpt lat="48.05252" lon="-0.76007">
        <ele>64.2</ele>
        <time>2010-10-10T08:07:34Z</time>
      </trkpt>
      <trkpt lat="48.0527" lon="-0.76002">
        <ele>63.6</ele>
        <time>2010-10-10T08:07:38Z</time>
      </trkpt>
      <trkpt lat="48.05275" lon="-0.76001">
        <ele>63.4</ele>
        <time>2010-10-10T08:07:39Z</time>
      </trkpt>
      <trkpt lat="48.05289" lon="-0.75997">
        <ele>63</ele>
        <time>2010-10-10T08:07:42Z</time>
      </trkpt>
      <trkpt lat="48.05294" lon="-0.75996">
        <ele>62.8</ele>
        <time>2010-10-10T08:07:43Z</time>
      </trkpt>
      <trkpt lat="48.05308" lon="-0.75993">
        <ele>62.2</ele>
        <time>2010-10-10T08:07:46Z</time>
      </trkpt>
      <trkpt lat="48.05327" lon="-0.7599">
        <ele>61.6</ele>
        <time>2010-10-10T08:07:50Z</time>
      </trkpt>
      <trkpt lat="48.05332" lon="-0.75989">
        <ele>61.4</ele>
        <time>2010-10-10T08:07:51Z</time>
      </trkpt>
      <trkpt lat="48.05345" lon="-0.75985">
        <ele>61</ele>
        <time>2010-10-10T08:07:54Z</time>
      </trkpt>
      <trkpt lat="48.05354" lon="-0.75982">
        <ele>60.6</ele>
        <time>2010-10-10T08:07:56Z</time>
      </trkpt>
      <trkpt lat="48.05359" lon="-0.75979">
        <ele>60.6</ele>
        <time>2010-10-10T08:07:57Z</time>
      </trkpt>
      <trkpt lat="48.05364" lon="-0.75978">
        <ele>60.4</ele>
        <time>2010-10-10T08:07:58Z</time>
      </trkpt>
      <trkpt lat="48.05376" lon="-0.75976">
        <ele>60</ele>
        <time>2010-10-10T08:08:01Z</time>
      </trkpt>
      <trkpt lat="48.05381" lon="-0.75976">
        <ele>59.2</ele>
        <time>2010-10-10T08:08:05Z</time>
      </trkpt>
      <trkpt lat="48.05384" lon="-0.75974">
        <ele>59</ele>
        <time>2010-10-10T08:08:07Z</time>
      </trkpt>
      <trkpt lat="48.05392" lon="-0.7597">
        <ele>58.6</ele>
        <time>2010-10-10T08:08:10Z</time>
      </trkpt>
      <trkpt lat="48.05402" lon="-0.75966">
        <ele>58.2</ele>
        <time>2010-10-10T08:08:13Z</time>
      </trkpt>
      <trkpt lat="48.05412" lon="-0.75963">
        <ele>58</ele>
        <time>2010-10-10T08:08:16Z</time>
      </trkpt>
      <trkpt lat="48.05423" lon="-0.75959">
        <ele>57.6</ele>
        <time>2010-10-10T08:08:19Z</time>
      </trkpt>
      <trkpt lat="48.05436" lon="-0.75955">
        <ele>57.2</ele>
        <time>2010-10-10T08:08:22Z</time>
      </trkpt>
      <trkpt lat="48.05444" lon="-0.7595">
        <ele>57</ele>
        <time>2010-10-10T08:08:24Z</time>
      </trkpt>
      <trkpt lat="48.05463" lon="-0.75941">
        <ele>56.6</ele>
        <time>2010-10-10T08:08:29Z</time>
      </trkpt>
      <trkpt lat="48.05484" lon="-0.75932">
        <ele>56.2</ele>
        <time>2010-10-10T08:08:34Z</time>
      </trkpt>
      <trkpt lat="48.05491" lon="-0.75929">
        <ele>56</ele>
        <time>2010-10-10T08:08:36Z</time>
      </trkpt>
      <trkpt lat="48.055" lon="-0.75925">
        <ele>55.8</ele>
        <time>2010-10-10T08:08:38Z</time>
      </trkpt>
      <trkpt lat="48.05505" lon="-0.75923">
        <ele>55.8</ele>
        <time>2010-10-10T08:08:39Z</time>
      </trkpt>
      <trkpt lat="48.05514" lon="-0.75918">
        <ele>55.6</ele>
        <time>2010-10-10T08:08:41Z</time>
      </trkpt>
      <trkpt lat="48.05523" lon="-0.75914">
        <ele>55.4</ele>
        <time>2010-10-10T08:08:43Z</time>
      </trkpt>
      <trkpt lat="48.05536" lon="-0.75906">
        <ele>55.2</ele>
        <time>2010-10-10T08:08:46Z</time>
      </trkpt>
      <trkpt lat="48.05539" lon="-0.75904">
        <ele>55.2</ele>
        <time>2010-10-10T08:08:47Z</time>
      </trkpt>
      <trkpt lat="48.05543" lon="-0.75903">
        <ele>55</ele>
        <time>2010-10-10T08:08:48Z</time>
      </trkpt>
      <trkpt lat="48.0555" lon="-0.75901">
        <ele>55</ele>
        <time>2010-10-10T08:08:50Z</time>
      </trkpt>
      <trkpt lat="48.05559" lon="-0.75896">
        <ele>54.8</ele>
        <time>2010-10-10T08:08:52Z</time>
      </trkpt>
      <trkpt lat="48.05564" lon="-0.75894">
        <ele>54.8</ele>
        <time>2010-10-10T08:08:53Z</time>
      </trkpt>
      <trkpt lat="48.05573" lon="-0.75887">
        <ele>54.6</ele>
        <time>2010-10-10T08:08:55Z</time>
      </trkpt>
      <trkpt lat="48.05581" lon="-0.7588">
        <ele>54.6</ele>
        <time>2010-10-10T08:08:57Z</time>
      </trkpt>
      <trkpt lat="48.05585" lon="-0.75878">
        <ele>54.6</ele>
        <time>2010-10-10T08:08:58Z</time>
      </trkpt>
      <trkpt lat="48.05588" lon="-0.75875">
        <ele>54.6</ele>
        <time>2010-10-10T08:08:59Z</time>
      </trkpt>
      <trkpt lat="48.056" lon="-0.75867">
        <ele>54.4</ele>
        <time>2010-10-10T08:09:02Z</time>
      </trkpt>
      <trkpt lat="48.05605" lon="-0.75863">
        <ele>54.4</ele>
        <time>2010-10-10T08:09:03Z</time>
      </trkpt>
      <trkpt lat="48.05616" lon="-0.75854">
        <ele>54.2</ele>
        <time>2010-10-10T08:09:06Z</time>
      </trkpt>
      <trkpt lat="48.0562" lon="-0.75851">
        <ele>54.2</ele>
        <time>2010-10-10T08:09:07Z</time>
      </trkpt>
      <trkpt lat="48.05636" lon="-0.7584">
        <ele>54</ele>
        <time>2010-10-10T08:09:11Z</time>
      </trkpt>
      <trkpt lat="48.05641" lon="-0.75838">
        <ele>53.8</ele>
        <time>2010-10-10T08:09:12Z</time>
      </trkpt>
      <trkpt lat="48.05654" lon="-0.75832">
        <ele>53.8</ele>
        <time>2010-10-10T08:09:15Z</time>
      </trkpt>
      <trkpt lat="48.05658" lon="-0.7583">
        <ele>53.8</ele>
        <time>2010-10-10T08:09:16Z</time>
      </trkpt>
      <trkpt lat="48.05672" lon="-0.75824">
        <ele>53.6</ele>
        <time>2010-10-10T08:09:19Z</time>
      </trkpt>
      <trkpt lat="48.05679" lon="-0.7582">
        <ele>53.6</ele>
        <time>2010-10-10T08:09:21Z</time>
      </trkpt>
      <trkpt lat="48.05692" lon="-0.75815">
        <ele>53.6</ele>
        <time>2010-10-10T08:09:24Z</time>
      </trkpt>
      <trkpt lat="48.05702" lon="-0.75809">
        <ele>53.4</ele>
        <time>2010-10-10T08:09:27Z</time>
      </trkpt>
      <trkpt lat="48.05711" lon="-0.75809">
        <ele>53.4</ele>
        <time>2010-10-10T08:09:29Z</time>
      </trkpt>
      <trkpt lat="48.05721" lon="-0.75808">
        <ele>53.4</ele>
        <time>2010-10-10T08:09:31Z</time>
      </trkpt>
      <trkpt lat="48.05731" lon="-0.75806">
        <ele>53.2</ele>
        <time>2010-10-10T08:09:35Z</time>
      </trkpt>
      <trkpt lat="48.05731" lon="-0.75806">
        <ele>53.2</ele>
        <time>2010-10-10T08:09:36Z</time>
      </trkpt>
      <trkpt lat="48.05736" lon="-0.75808">
        <ele>53</ele>
        <time>2010-10-10T08:09:39Z</time>
      </trkpt>
      <trkpt lat="48.0574" lon="-0.7581">
        <ele>52.8</ele>
        <time>2010-10-10T08:09:45Z</time>
      </trkpt>
      <trkpt lat="48.05744" lon="-0.75814">
        <ele>52.4</ele>
        <time>2010-10-10T08:09:51Z</time>
      </trkpt>
      <trkpt lat="48.05746" lon="-0.75814">
        <ele>52.4</ele>
        <time>2010-10-10T08:09:52Z</time>
      </trkpt>
      <trkpt lat="48.05748" lon="-0.75816">
        <ele>52.2</ele>
        <time>2010-10-10T08:09:53Z</time>
      </trkpt>
      <trkpt lat="48.05756" lon="-0.75818">
        <ele>52.2</ele>
        <time>2010-10-10T08:09:56Z</time>
      </trkpt>
      <trkpt lat="48.05766" lon="-0.75817">
        <ele>52</ele>
        <time>2010-10-10T08:09:59Z</time>
      </trkpt>
      <trkpt lat="48.05773" lon="-0.75814">
        <ele>51.8</ele>
        <time>2010-10-10T08:10:01Z</time>
      </trkpt>
      <trkpt lat="48.05782" lon="-0.75802">
        <ele>51.6</ele>
        <time>2010-10-10T08:10:04Z</time>
      </trkpt>
      <trkpt lat="48.05788" lon="-0.75793">
        <ele>51.4</ele>
        <time>2010-10-10T08:10:06Z</time>
      </trkpt>
      <trkpt lat="48.05797" lon="-0.75779">
        <ele>51.4</ele>
        <time>2010-10-10T08:10:09Z</time>
      </trkpt>
      <trkpt lat="48.05811" lon="-0.75759">
        <ele>51</ele>
        <time>2010-10-10T08:10:13Z</time>
      </trkpt>
      <trkpt lat="48.05827" lon="-0.75735">
        <ele>50.8</ele>
        <time>2010-10-10T08:10:18Z</time>
      </trkpt>
      <trkpt lat="48.0583" lon="-0.7573">
        <ele>50.8</ele>
        <time>2010-10-10T08:10:19Z</time>
      </trkpt>
      <trkpt lat="48.05843" lon="-0.75722">
        <ele>50.6</ele>
        <time>2010-10-10T08:10:22Z</time>
      </trkpt>
      <trkpt lat="48.05848" lon="-0.75722">
        <ele>50.6</ele>
        <time>2010-10-10T08:10:23Z</time>
      </trkpt>
      <trkpt lat="48.05853" lon="-0.75722">
        <ele>50.6</ele>
        <time>2010-10-10T08:10:24Z</time>
      </trkpt>
      <trkpt lat="48.05864" lon="-0.75727">
        <ele>50.6</ele>
        <time>2010-10-10T08:10:26Z</time>
      </trkpt>
      <trkpt lat="48.0587" lon="-0.75729">
        <ele>50.6</ele>
        <time>2010-10-10T08:10:27Z</time>
      </trkpt>
      <trkpt lat="48.05886" lon="-0.75736">
        <ele>50.4</ele>
        <time>2010-10-10T08:10:30Z</time>
      </trkpt>
      <trkpt lat="48.05896" lon="-0.75734">
        <ele>50.4</ele>
        <time>2010-10-10T08:10:32Z</time>
      </trkpt>
      <trkpt lat="48.05905" lon="-0.75731">
        <ele>50.4</ele>
        <time>2010-10-10T08:10:34Z</time>
      </trkpt>
      <trkpt lat="48.05913" lon="-0.75729">
        <ele>50.4</ele>
        <time>2010-10-10T08:10:36Z</time>
      </trkpt>
      <trkpt lat="48.05918" lon="-0.75728">
        <ele>50.2</ele>
        <time>2010-10-10T08:10:38Z</time>
      </trkpt>
      <trkpt lat="48.0592" lon="-0.75725">
        <ele>50.2</ele>
        <time>2010-10-10T08:10:39Z</time>
      </trkpt>
      <trkpt lat="48.05922" lon="-0.75721">
        <ele>50.2</ele>
        <time>2010-10-10T08:10:40Z</time>
      </trkpt>
      <trkpt lat="48.05931" lon="-0.75714">
        <ele>50.2</ele>
        <time>2010-10-10T08:10:43Z</time>
      </trkpt>
      <trkpt lat="48.05936" lon="-0.75725">
        <ele>50</ele>
        <time>2010-10-10T08:10:46Z</time>
      </trkpt>
      <trkpt lat="48.05936" lon="-0.75742">
        <ele>50</ele>
        <time>2010-10-10T08:10:48Z</time>
      </trkpt>
      <trkpt lat="48.05936" lon="-0.75753">
        <ele>50</ele>
        <time>2010-10-10T08:10:49Z</time>
      </trkpt>
      <trkpt lat="48.05936" lon="-0.75763">
        <ele>49.8</ele>
        <time>2010-10-10T08:10:50Z</time>
      </trkpt>
      <trkpt lat="48.05937" lon="-0.75771">
        <ele>49.8</ele>
        <time>2010-10-10T08:10:51Z</time>
      </trkpt>
      <trkpt lat="48.0594" lon="-0.75782">
        <ele>49.8</ele>
        <time>2010-10-10T08:10:53Z</time>
      </trkpt>
      <trkpt lat="48.05943" lon="-0.75784">
        <ele>49.8</ele>
        <time>2010-10-10T08:10:54Z</time>
      </trkpt>
      <trkpt lat="48.05943" lon="-0.75794">
        <ele>49.8</ele>
        <time>2010-10-10T08:10:57Z</time>
      </trkpt>
      <trkpt lat="48.05942" lon="-0.75805">
        <ele>49.6</ele>
        <time>2010-10-10T08:11:00Z</time>
      </trkpt>
      <trkpt lat="48.05941" lon="-0.75807">
        <ele>49.6</ele>
        <time>2010-10-10T08:11:02Z</time>
      </trkpt>
      <trkpt lat="48.05941" lon="-0.75807">
        <ele>49.6</ele>
        <time>2010-10-10T08:11:03Z</time>
      </trkpt>
      <trkpt lat="48.05938" lon="-0.75805">
        <ele>49.6</ele>
        <time>2010-10-10T08:11:07Z</time>
      </trkpt>
      <trkpt lat="48.05948" lon="-0.75813">
        <ele>51.6</ele>
        <time>2010-10-10T08:12:14Z</time>
      </trkpt>
      <trkpt lat="48.05949" lon="-0.75818">
        <ele>51.6</ele>
        <time>2010-10-10T08:12:15Z</time>
      </trkpt>
      <trkpt lat="48.05958" lon="-0.75836">
        <ele>51.4</ele>
        <time>2010-10-10T08:12:19Z</time>
      </trkpt>
      <trkpt lat="48.0596" lon="-0.7584">
        <ele>51.4</ele>
        <time>2010-10-10T08:12:20Z</time>
      </trkpt>
      <trkpt lat="48.05973" lon="-0.75854">
        <ele>51.2</ele>
        <time>2010-10-10T08:12:24Z</time>
      </trkpt>
      <trkpt lat="48.05981" lon="-0.75859">
        <ele>51.2</ele>
        <time>2010-10-10T08:12:26Z</time>
      </trkpt>
      <trkpt lat="48.0599" lon="-0.75864">
        <ele>51</ele>
        <time>2010-10-10T08:12:28Z</time>
      </trkpt>
      <trkpt lat="48.06012" lon="-0.75871">
        <ele>50.8</ele>
        <time>2010-10-10T08:12:33Z</time>
      </trkpt>
      <trkpt lat="48.0602" lon="-0.75874">
        <ele>50.8</ele>
        <time>2010-10-10T08:12:35Z</time>
      </trkpt>
      <trkpt lat="48.06029" lon="-0.75878">
        <ele>50.8</ele>
        <time>2010-10-10T08:12:37Z</time>
      </trkpt>
      <trkpt lat="48.06037" lon="-0.75882">
        <ele>50.6</ele>
        <time>2010-10-10T08:12:39Z</time>
      </trkpt>
      <trkpt lat="48.06051" lon="-0.75888">
        <ele>50.8</ele>
        <time>2010-10-10T08:12:42Z</time>
      </trkpt>
      <trkpt lat="48.06071" lon="-0.75897">
        <ele>50.6</ele>
        <time>2010-10-10T08:12:46Z</time>
      </trkpt>
      <trkpt lat="48.0609" lon="-0.75906">
        <ele>50.6</ele>
        <time>2010-10-10T08:12:50Z</time>
      </trkpt>
      <trkpt lat="48.06111" lon="-0.75914">
        <ele>50.6</ele>
        <time>2010-10-10T08:12:54Z</time>
      </trkpt>
      <trkpt lat="48.06128" lon="-0.75926">
        <ele>50.8</ele>
        <time>2010-10-10T08:12:58Z</time>
      </trkpt>
      <trkpt lat="48.06128" lon="-0.75932">
        <ele>50.8</ele>
        <time>2010-10-10T08:12:59Z</time>
      </trkpt>
      <trkpt lat="48.0612" lon="-0.75946">
        <ele>51</ele>
        <time>2010-10-10T08:13:02Z</time>
      </trkpt>
      <trkpt lat="48.06116" lon="-0.7595">
        <ele>51</ele>
        <time>2010-10-10T08:13:03Z</time>
      </trkpt>
      <trkpt lat="48.06099" lon="-0.75969">
        <ele>51.2</ele>
        <time>2010-10-10T08:13:07Z</time>
      </trkpt>
      <trkpt lat="48.06081" lon="-0.75991">
        <ele>51.4</ele>
        <time>2010-10-10T08:13:11Z</time>
      </trkpt>
      <trkpt lat="48.06077" lon="-0.75998">
        <ele>51.4</ele>
        <time>2010-10-10T08:13:12Z</time>
      </trkpt>
      <trkpt lat="48.06068" lon="-0.76013">
        <ele>51.4</ele>
        <time>2010-10-10T08:13:14Z</time>
      </trkpt>
      <trkpt lat="48.06055" lon="-0.76036">
        <ele>51.4</ele>
        <time>2010-10-10T08:13:17Z</time>
      </trkpt>
      <trkpt lat="48.06045" lon="-0.76051">
        <ele>51.6</ele>
        <time>2010-10-10T08:13:19Z</time>
      </trkpt>
      <trkpt lat="48.0604" lon="-0.76058">
        <ele>51.6</ele>
        <time>2010-10-10T08:13:20Z</time>
      </trkpt>
      <trkpt lat="48.06027" lon="-0.76081">
        <ele>51.6</ele>
        <time>2010-10-10T08:13:23Z</time>
      </trkpt>
      <trkpt lat="48.06017" lon="-0.76097">
        <ele>51.6</ele>
        <time>2010-10-10T08:13:25Z</time>
      </trkpt>
      <trkpt lat="48.06012" lon="-0.76105">
        <ele>51.6</ele>
        <time>2010-10-10T08:13:26Z</time>
      </trkpt>
      <trkpt lat="48.05998" lon="-0.76129">
        <ele>51.6</ele>
        <time>2010-10-10T08:13:29Z</time>
      </trkpt>
      <trkpt lat="48.05983" lon="-0.76152">
        <ele>51.6</ele>
        <time>2010-10-10T08:13:32Z</time>
      </trkpt>
      <trkpt lat="48.0597" lon="-0.76176">
        <ele>51.6</ele>
        <time>2010-10-10T08:13:35Z</time>
      </trkpt>
      <trkpt lat="48.05957" lon="-0.76198">
        <ele>51.6</ele>
        <time>2010-10-10T08:13:38Z</time>
      </trkpt>
      <trkpt lat="48.05946" lon="-0.76215">
        <ele>51.6</ele>
        <time>2010-10-10T08:13:41Z</time>
      </trkpt>
      <trkpt lat="48.05942" lon="-0.76217">
        <ele>51.6</ele>
        <time>2010-10-10T08:13:42Z</time>
      </trkpt>
      <trkpt lat="48.05936" lon="-0.76212">
        <ele>51.6</ele>
        <time>2010-10-10T08:13:44Z</time>
      </trkpt>
      <trkpt lat="48.05931" lon="-0.76199">
        <ele>51.6</ele>
        <time>2010-10-10T08:13:46Z</time>
      </trkpt>
      <trkpt lat="48.05928" lon="-0.76191">
        <ele>51.6</ele>
        <time>2010-10-10T08:13:47Z</time>
      </trkpt>
      <trkpt lat="48.05926" lon="-0.76184">
        <ele>51.6</ele>
        <time>2010-10-10T08:13:48Z</time>
      </trkpt>
      <trkpt lat="48.05923" lon="-0.76175">
        <ele>51.4</ele>
        <time>2010-10-10T08:13:49Z</time>
      </trkpt>
      <trkpt lat="48.05916" lon="-0.76159">
        <ele>51.4</ele>
        <time>2010-10-10T08:13:51Z</time>
      </trkpt>
      <trkpt lat="48.05912" lon="-0.76152">
        <ele>51.4</ele>
        <time>2010-10-10T08:13:52Z</time>
      </trkpt>
      <trkpt lat="48.05909" lon="-0.76145">
        <ele>51.4</ele>
        <time>2010-10-10T08:13:53Z</time>
      </trkpt>
      <trkpt lat="48.05898" lon="-0.76125">
        <ele>51.4</ele>
        <time>2010-10-10T08:13:56Z</time>
      </trkpt>
      <trkpt lat="48.0589" lon="-0.76112">
        <ele>51.2</ele>
        <time>2010-10-10T08:13:58Z</time>
      </trkpt>
      <trkpt lat="48.05884" lon="-0.76106">
        <ele>51.2</ele>
        <time>2010-10-10T08:13:59Z</time>
      </trkpt>
      <trkpt lat="48.05867" lon="-0.76092">
        <ele>51.2</ele>
        <time>2010-10-10T08:14:02Z</time>
      </trkpt>
      <trkpt lat="48.05861" lon="-0.76089">
        <ele>51.2</ele>
        <time>2010-10-10T08:14:03Z</time>
      </trkpt>
      <trkpt lat="48.05853" lon="-0.76082">
        <ele>51.2</ele>
        <time>2010-10-10T08:14:05Z</time>
      </trkpt>
      <trkpt lat="48.05852" lon="-0.76079">
        <ele>51.2</ele>
        <time>2010-10-10T08:14:06Z</time>
      </trkpt>
      <trkpt lat="48.05853" lon="-0.76074">
        <ele>51.2</ele>
        <time>2010-10-10T08:14:08Z</time>
      </trkpt>
      <trkpt lat="48.05855" lon="-0.76071">
        <ele>51.4</ele>
        <time>2010-10-10T08:14:09Z</time>
      </trkpt>
      <trkpt lat="48.05866" lon="-0.7605">
        <ele>51.4</ele>
        <time>2010-10-10T08:14:13Z</time>
      </trkpt>
      <trkpt lat="48.05873" lon="-0.76035">
        <ele>51.6</ele>
        <time>2010-10-10T08:14:16Z</time>
      </trkpt>
      <trkpt lat="48.05873" lon="-0.7603">
        <ele>51.6</ele>
        <time>2010-10-10T08:14:17Z</time>
      </trkpt>
      <trkpt lat="48.05871" lon="-0.76027">
        <ele>51.6</ele>
        <time>2010-10-10T08:14:18Z</time>
      </trkpt>
      <trkpt lat="48.05864" lon="-0.76017">
        <ele>51.4</ele>
        <time>2010-10-10T08:14:20Z</time>
      </trkpt>
      <trkpt lat="48.05855" lon="-0.76006">
        <ele>51.4</ele>
        <time>2010-10-10T08:14:22Z</time>
      </trkpt>
      <trkpt lat="48.05851" lon="-0.76">
        <ele>51.4</ele>
        <time>2010-10-10T08:14:23Z</time>
      </trkpt>
      <trkpt lat="48.05846" lon="-0.75993">
        <ele>51.4</ele>
        <time>2010-10-10T08:14:24Z</time>
      </trkpt>
      <trkpt lat="48.0584" lon="-0.75986">
        <ele>51.4</ele>
        <time>2010-10-10T08:14:25Z</time>
      </trkpt>
      <trkpt lat="48.05823" lon="-0.75966">
        <ele>51.4</ele>
        <time>2010-10-10T08:14:28Z</time>
      </trkpt>
      <trkpt lat="48.05818" lon="-0.75959">
        <ele>51.4</ele>
        <time>2010-10-10T08:14:29Z</time>
      </trkpt>
      <trkpt lat="48.05806" lon="-0.7594">
        <ele>51.4</ele>
        <time>2010-10-10T08:14:31Z</time>
      </trkpt>
      <trkpt lat="48.05794" lon="-0.75929">
        <ele>51.4</ele>
        <time>2010-10-10T08:14:33Z</time>
      </trkpt>
      <trkpt lat="48.05788" lon="-0.75922">
        <ele>51.4</ele>
        <time>2010-10-10T08:14:34Z</time>
      </trkpt>
      <trkpt lat="48.05768" lon="-0.75906">
        <ele>51.8</ele>
        <time>2010-10-10T08:14:37Z</time>
      </trkpt>
      <trkpt lat="48.05761" lon="-0.75905">
        <ele>51.8</ele>
        <time>2010-10-10T08:14:38Z</time>
      </trkpt>
      <trkpt lat="48.05748" lon="-0.75898">
        <ele>52</ele>
        <time>2010-10-10T08:14:40Z</time>
      </trkpt>
      <trkpt lat="48.05723" lon="-0.75899">
        <ele>51.6</ele>
        <time>2010-10-10T08:14:43Z</time>
      </trkpt>
      <trkpt lat="48.057" lon="-0.75899">
        <ele>51.8</ele>
        <time>2010-10-10T08:14:46Z</time>
      </trkpt>
      <trkpt lat="48.05694" lon="-0.75901">
        <ele>51.8</ele>
        <time>2010-10-10T08:14:47Z</time>
      </trkpt>
      <trkpt lat="48.05681" lon="-0.75908">
        <ele>51.6</ele>
        <time>2010-10-10T08:14:49Z</time>
      </trkpt>
      <trkpt lat="48.05662" lon="-0.75918">
        <ele>51.6</ele>
        <time>2010-10-10T08:14:52Z</time>
      </trkpt>
      <trkpt lat="48.05656" lon="-0.75923">
        <ele>51.6</ele>
        <time>2010-10-10T08:14:53Z</time>
      </trkpt>
      <trkpt lat="48.05643" lon="-0.75933">
        <ele>51.4</ele>
        <time>2010-10-10T08:14:55Z</time>
      </trkpt>
      <trkpt lat="48.05622" lon="-0.75947">
        <ele>51.2</ele>
        <time>2010-10-10T08:14:58Z</time>
      </trkpt>
      <trkpt lat="48.05616" lon="-0.75952">
        <ele>51.2</ele>
        <time>2010-10-10T08:14:59Z</time>
      </trkpt>
      <trkpt lat="48.05602" lon="-0.75962">
        <ele>51</ele>
        <time>2010-10-10T08:15:01Z</time>
      </trkpt>
      <trkpt lat="48.05583" lon="-0.75974">
        <ele>50.8</ele>
        <time>2010-10-10T08:15:04Z</time>
      </trkpt>
      <trkpt lat="48.05569" lon="-0.75981">
        <ele>50.8</ele>
        <time>2010-10-10T08:15:06Z</time>
      </trkpt>
      <trkpt lat="48.05563" lon="-0.75984">
        <ele>50.6</ele>
        <time>2010-10-10T08:15:07Z</time>
      </trkpt>
      <trkpt lat="48.05544" lon="-0.75995">
        <ele>50.6</ele>
        <time>2010-10-10T08:15:10Z</time>
      </trkpt>
      <trkpt lat="48.05524" lon="-0.76004">
        <ele>50.4</ele>
        <time>2010-10-10T08:15:13Z</time>
      </trkpt>
      <trkpt lat="48.05505" lon="-0.76013">
        <ele>50.2</ele>
        <time>2010-10-10T08:15:16Z</time>
      </trkpt>
      <trkpt lat="48.05486" lon="-0.76021">
        <ele>50</ele>
        <time>2010-10-10T08:15:19Z</time>
      </trkpt>
      <trkpt lat="48.05466" lon="-0.76029">
        <ele>49.8</ele>
        <time>2010-10-10T08:15:22Z</time>
      </trkpt>
      <trkpt lat="48.05447" lon="-0.76037">
        <ele>49.8</ele>
        <time>2010-10-10T08:15:25Z</time>
      </trkpt>
      <trkpt lat="48.05434" lon="-0.76042">
        <ele>49.6</ele>
        <time>2010-10-10T08:15:27Z</time>
      </trkpt>
      <trkpt lat="48.05427" lon="-0.76044">
        <ele>49.6</ele>
        <time>2010-10-10T08:15:28Z</time>
      </trkpt>
      <trkpt lat="48.05406" lon="-0.7605">
        <ele>49.4</ele>
        <time>2010-10-10T08:15:31Z</time>
      </trkpt>
      <trkpt lat="48.05386" lon="-0.76055">
        <ele>49.4</ele>
        <time>2010-10-10T08:15:34Z</time>
      </trkpt>
      <trkpt lat="48.05367" lon="-0.7606">
        <ele>49.2</ele>
        <time>2010-10-10T08:15:37Z</time>
      </trkpt>
      <trkpt lat="48.05348" lon="-0.76065">
        <ele>49.2</ele>
        <time>2010-10-10T08:15:40Z</time>
      </trkpt>
      <trkpt lat="48.0533" lon="-0.7607">
        <ele>49</ele>
        <time>2010-10-10T08:15:43Z</time>
      </trkpt>
      <trkpt lat="48.05311" lon="-0.76075">
        <ele>49</ele>
        <time>2010-10-10T08:15:46Z</time>
      </trkpt>
      <trkpt lat="48.05294" lon="-0.7608">
        <ele>48.8</ele>
        <time>2010-10-10T08:15:49Z</time>
      </trkpt>
      <trkpt lat="48.05281" lon="-0.76083">
        <ele>48.8</ele>
        <time>2010-10-10T08:15:51Z</time>
      </trkpt>
      <trkpt lat="48.05275" lon="-0.76085">
        <ele>48.8</ele>
        <time>2010-10-10T08:15:52Z</time>
      </trkpt>
      <trkpt lat="48.05256" lon="-0.7609">
        <ele>48.6</ele>
        <time>2010-10-10T08:15:55Z</time>
      </trkpt>
      <trkpt lat="48.05237" lon="-0.76095">
        <ele>48.6</ele>
        <time>2010-10-10T08:15:58Z</time>
      </trkpt>
      <trkpt lat="48.05219" lon="-0.76101">
        <ele>48.4</ele>
        <time>2010-10-10T08:16:01Z</time>
      </trkpt>
      <trkpt lat="48.052" lon="-0.76106">
        <ele>48.4</ele>
        <time>2010-10-10T08:16:04Z</time>
      </trkpt>
      <trkpt lat="48.05194" lon="-0.76108">
        <ele>48.4</ele>
        <time>2010-10-10T08:16:05Z</time>
      </trkpt>
      <trkpt lat="48.05183" lon="-0.76113">
        <ele>48.4</ele>
        <time>2010-10-10T08:16:07Z</time>
      </trkpt>
      <trkpt lat="48.05165" lon="-0.7612">
        <ele>48.2</ele>
        <time>2010-10-10T08:16:10Z</time>
      </trkpt>
      <trkpt lat="48.05153" lon="-0.76125">
        <ele>48.2</ele>
        <time>2010-10-10T08:16:12Z</time>
      </trkpt>
      <trkpt lat="48.05147" lon="-0.76128">
        <ele>48.2</ele>
        <time>2010-10-10T08:16:13Z</time>
      </trkpt>
      <trkpt lat="48.05129" lon="-0.76139">
        <ele>48.2</ele>
        <time>2010-10-10T08:16:16Z</time>
      </trkpt>
      <trkpt lat="48.05123" lon="-0.76144">
        <ele>48</ele>
        <time>2010-10-10T08:16:17Z</time>
      </trkpt>
      <trkpt lat="48.05118" lon="-0.7615">
        <ele>48</ele>
        <time>2010-10-10T08:16:18Z</time>
      </trkpt>
      <trkpt lat="48.05114" lon="-0.76158">
        <ele>48</ele>
        <time>2010-10-10T08:16:19Z</time>
      </trkpt>
      <trkpt lat="48.05104" lon="-0.76183">
        <ele>48</ele>
        <time>2010-10-10T08:16:22Z</time>
      </trkpt>
      <trkpt lat="48.05101" lon="-0.76192">
        <ele>48</ele>
        <time>2010-10-10T08:16:23Z</time>
      </trkpt>
      <trkpt lat="48.05096" lon="-0.76209">
        <ele>48</ele>
        <time>2010-10-10T08:16:25Z</time>
      </trkpt>
      <trkpt lat="48.05086" lon="-0.76235">
        <ele>48</ele>
        <time>2010-10-10T08:16:28Z</time>
      </trkpt>
      <trkpt lat="48.05082" lon="-0.76244">
        <ele>48</ele>
        <time>2010-10-10T08:16:29Z</time>
      </trkpt>
      <trkpt lat="48.05076" lon="-0.76262">
        <ele>48</ele>
        <time>2010-10-10T08:16:31Z</time>
      </trkpt>
      <trkpt lat="48.05065" lon="-0.76286">
        <ele>48</ele>
        <time>2010-10-10T08:16:34Z</time>
      </trkpt>
      <trkpt lat="48.05061" lon="-0.76295">
        <ele>48.2</ele>
        <time>2010-10-10T08:16:35Z</time>
      </trkpt>
      <trkpt lat="48.05053" lon="-0.7631">
        <ele>48.2</ele>
        <time>2010-10-10T08:16:37Z</time>
      </trkpt>
      <trkpt lat="48.05041" lon="-0.76332">
        <ele>48.4</ele>
        <time>2010-10-10T08:16:40Z</time>
      </trkpt>
      <trkpt lat="48.05031" lon="-0.76344">
        <ele>48.4</ele>
        <time>2010-10-10T08:16:42Z</time>
      </trkpt>
      <trkpt lat="48.05027" lon="-0.76351">
        <ele>48.4</ele>
        <time>2010-10-10T08:16:43Z</time>
      </trkpt>
      <trkpt lat="48.05013" lon="-0.76369">
        <ele>48.4</ele>
        <time>2010-10-10T08:16:46Z</time>
      </trkpt>
      <trkpt lat="48.04998" lon="-0.76389">
        <ele>48.6</ele>
        <time>2010-10-10T08:16:49Z</time>
      </trkpt>
      <trkpt lat="48.04988" lon="-0.76402">
        <ele>48.6</ele>
        <time>2010-10-10T08:16:51Z</time>
      </trkpt>
      <trkpt lat="48.04983" lon="-0.7641">
        <ele>48.6</ele>
        <time>2010-10-10T08:16:52Z</time>
      </trkpt>
      <trkpt lat="48.04967" lon="-0.7643">
        <ele>48.6</ele>
        <time>2010-10-10T08:16:55Z</time>
      </trkpt>
      <trkpt lat="48.0495" lon="-0.76448">
        <ele>48.6</ele>
        <time>2010-10-10T08:16:58Z</time>
      </trkpt>
      <trkpt lat="48.04934" lon="-0.76466">
        <ele>48.8</ele>
        <time>2010-10-10T08:17:01Z</time>
      </trkpt>
      <trkpt lat="48.04918" lon="-0.76483">
        <ele>49</ele>
        <time>2010-10-10T08:17:04Z</time>
      </trkpt>
      <trkpt lat="48.04907" lon="-0.76495">
        <ele>49.2</ele>
        <time>2010-10-10T08:17:06Z</time>
      </trkpt>
      <trkpt lat="48.04901" lon="-0.765">
        <ele>49.2</ele>
        <time>2010-10-10T08:17:07Z</time>
      </trkpt>
      <trkpt lat="48.04883" lon="-0.76516">
        <ele>49.2</ele>
        <time>2010-10-10T08:17:10Z</time>
      </trkpt>
      <trkpt lat="48.04866" lon="-0.76533">
        <ele>49.2</ele>
        <time>2010-10-10T08:17:13Z</time>
      </trkpt>
      <trkpt lat="48.04854" lon="-0.76543">
        <ele>49.2</ele>
        <time>2010-10-10T08:17:15Z</time>
      </trkpt>
      <trkpt lat="48.04847" lon="-0.76547">
        <ele>49.2</ele>
        <time>2010-10-10T08:17:16Z</time>
      </trkpt>
      <trkpt lat="48.04827" lon="-0.76557">
        <ele>49.2</ele>
        <time>2010-10-10T08:17:19Z</time>
      </trkpt>
      <trkpt lat="48.0482" lon="-0.76558">
        <ele>49.2</ele>
        <time>2010-10-10T08:17:20Z</time>
      </trkpt>
      <trkpt lat="48.04806" lon="-0.7656">
        <ele>49.2</ele>
        <time>2010-10-10T08:17:22Z</time>
      </trkpt>
      <trkpt lat="48.04791" lon="-0.76561">
        <ele>49.2</ele>
        <time>2010-10-10T08:17:24Z</time>
      </trkpt>
      <trkpt lat="48.04784" lon="-0.76563">
        <ele>49.2</ele>
        <time>2010-10-10T08:17:25Z</time>
      </trkpt>
      <trkpt lat="48.04777" lon="-0.76565">
        <ele>49.2</ele>
        <time>2010-10-10T08:17:26Z</time>
      </trkpt>
      <trkpt lat="48.04771" lon="-0.76568">
        <ele>49.2</ele>
        <time>2010-10-10T08:17:27Z</time>
      </trkpt>
      <trkpt lat="48.04764" lon="-0.76571">
        <ele>49.2</ele>
        <time>2010-10-10T08:17:28Z</time>
      </trkpt>
      <trkpt lat="48.04745" lon="-0.76583">
        <ele>49</ele>
        <time>2010-10-10T08:17:31Z</time>
      </trkpt>
      <trkpt lat="48.04725" lon="-0.76594">
        <ele>49</ele>
        <time>2010-10-10T08:17:34Z</time>
      </trkpt>
      <trkpt lat="48.04706" lon="-0.76602">
        <ele>49</ele>
        <time>2010-10-10T08:17:37Z</time>
      </trkpt>
      <trkpt lat="48.047" lon="-0.76606">
        <ele>49</ele>
        <time>2010-10-10T08:17:38Z</time>
      </trkpt>
      <trkpt lat="48.04688" lon="-0.76611">
        <ele>49</ele>
        <time>2010-10-10T08:17:40Z</time>
      </trkpt>
      <trkpt lat="48.04666" lon="-0.76621">
        <ele>49</ele>
        <time>2010-10-10T08:17:44Z</time>
      </trkpt>
      <trkpt lat="48.04652" lon="-0.76625">
        <ele>49.2</ele>
        <time>2010-10-10T08:17:47Z</time>
      </trkpt>
      <trkpt lat="48.04644" lon="-0.76626">
        <ele>49.2</ele>
        <time>2010-10-10T08:17:49Z</time>
      </trkpt>
      <trkpt lat="48.04636" lon="-0.76626">
        <ele>49.4</ele>
        <time>2010-10-10T08:17:51Z</time>
      </trkpt>
      <trkpt lat="48.04624" lon="-0.76625">
        <ele>49.6</ele>
        <time>2010-10-10T08:17:54Z</time>
      </trkpt>
      <trkpt lat="48.0462" lon="-0.76626">
        <ele>49.8</ele>
        <time>2010-10-10T08:17:55Z</time>
      </trkpt>
      <trkpt lat="48.04617" lon="-0.76627">
        <ele>49.8</ele>
        <time>2010-10-10T08:17:56Z</time>
      </trkpt>
      <trkpt lat="48.04604" lon="-0.76626">
        <ele>50.2</ele>
        <time>2010-10-10T08:17:59Z</time>
      </trkpt>
      <trkpt lat="48.046" lon="-0.76625">
        <ele>50.2</ele>
        <time>2010-10-10T08:18:00Z</time>
      </trkpt>
      <trkpt lat="48.04586" lon="-0.76623">
        <ele>50.4</ele>
        <time>2010-10-10T08:18:03Z</time>
      </trkpt>
      <trkpt lat="48.04565" lon="-0.76621">
        <ele>50.6</ele>
        <time>2010-10-10T08:18:07Z</time>
      </trkpt>
      <trkpt lat="48.04546" lon="-0.7662">
        <ele>50.6</ele>
        <time>2010-10-10T08:18:10Z</time>
      </trkpt>
      <trkpt lat="48.04527" lon="-0.76619">
        <ele>50.8</ele>
        <time>2010-10-10T08:18:13Z</time>
      </trkpt>
      <trkpt lat="48.04507" lon="-0.76618">
        <ele>51</ele>
        <time>2010-10-10T08:18:16Z</time>
      </trkpt>
      <trkpt lat="48.04487" lon="-0.76618">
        <ele>51</ele>
        <time>2010-10-10T08:18:19Z</time>
      </trkpt>
      <trkpt lat="48.04468" lon="-0.76618">
        <ele>51.2</ele>
        <time>2010-10-10T08:18:22Z</time>
      </trkpt>
      <trkpt lat="48.0445" lon="-0.76617">
        <ele>51.2</ele>
        <time>2010-10-10T08:18:25Z</time>
      </trkpt>
      <trkpt lat="48.04431" lon="-0.76616">
        <ele>51.2</ele>
        <time>2010-10-10T08:18:28Z</time>
      </trkpt>
      <trkpt lat="48.04413" lon="-0.76615">
        <ele>51</ele>
        <time>2010-10-10T08:18:31Z</time>
      </trkpt>
      <trkpt lat="48.04394" lon="-0.76614">
        <ele>51</ele>
        <time>2010-10-10T08:18:34Z</time>
      </trkpt>
      <trkpt lat="48.04376" lon="-0.76613">
        <ele>51</ele>
        <time>2010-10-10T08:18:37Z</time>
      </trkpt>
      <trkpt lat="48.0437" lon="-0.76613">
        <ele>51</ele>
        <time>2010-10-10T08:18:38Z</time>
      </trkpt>
      <trkpt lat="48.04356" lon="-0.76612">
        <ele>51</ele>
        <time>2010-10-10T08:18:40Z</time>
      </trkpt>
      <trkpt lat="48.04338" lon="-0.7661">
        <ele>51</ele>
        <time>2010-10-10T08:18:43Z</time>
      </trkpt>
      <trkpt lat="48.04314" lon="-0.76608">
        <ele>51</ele>
        <time>2010-10-10T08:18:47Z</time>
      </trkpt>
      <trkpt lat="48.04291" lon="-0.76603">
        <ele>51</ele>
        <time>2010-10-10T08:18:51Z</time>
      </trkpt>
      <trkpt lat="48.04274" lon="-0.76595">
        <ele>51.2</ele>
        <time>2010-10-10T08:18:54Z</time>
      </trkpt>
      <trkpt lat="48.04269" lon="-0.76592">
        <ele>51.2</ele>
        <time>2010-10-10T08:18:55Z</time>
      </trkpt>
      <trkpt lat="48.04247" lon="-0.76579">
        <ele>51.2</ele>
        <time>2010-10-10T08:18:59Z</time>
      </trkpt>
      <trkpt lat="48.04241" lon="-0.76575">
        <ele>51.4</ele>
        <time>2010-10-10T08:19:00Z</time>
      </trkpt>
      <trkpt lat="48.0423" lon="-0.76568">
        <ele>51.6</ele>
        <time>2010-10-10T08:19:02Z</time>
      </trkpt>
      <trkpt lat="48.04213" lon="-0.76557">
        <ele>51.8</ele>
        <time>2010-10-10T08:19:05Z</time>
      </trkpt>
      <trkpt lat="48.04208" lon="-0.76553">
        <ele>51.8</ele>
        <time>2010-10-10T08:19:06Z</time>
      </trkpt>
      <trkpt lat="48.04196" lon="-0.76546">
        <ele>52</ele>
        <time>2010-10-10T08:19:08Z</time>
      </trkpt>
      <trkpt lat="48.0418" lon="-0.76535">
        <ele>52.2</ele>
        <time>2010-10-10T08:19:11Z</time>
      </trkpt>
      <trkpt lat="48.04168" lon="-0.76527">
        <ele>52.4</ele>
        <time>2010-10-10T08:19:13Z</time>
      </trkpt>
      <trkpt lat="48.04162" lon="-0.76524">
        <ele>52.4</ele>
        <time>2010-10-10T08:19:14Z</time>
      </trkpt>
      <trkpt lat="48.04145" lon="-0.76513">
        <ele>52.8</ele>
        <time>2010-10-10T08:19:17Z</time>
      </trkpt>
      <trkpt lat="48.04129" lon="-0.76501">
        <ele>53</ele>
        <time>2010-10-10T08:19:20Z</time>
      </trkpt>
      <trkpt lat="48.04123" lon="-0.76498">
        <ele>53</ele>
        <time>2010-10-10T08:19:21Z</time>
      </trkpt>
      <trkpt lat="48.04112" lon="-0.7649">
        <ele>53.2</ele>
        <time>2010-10-10T08:19:23Z</time>
      </trkpt>
      <trkpt lat="48.0409" lon="-0.76476">
        <ele>53.4</ele>
        <time>2010-10-10T08:19:27Z</time>
      </trkpt>
      <trkpt lat="48.04079" lon="-0.76469">
        <ele>53.4</ele>
        <time>2010-10-10T08:19:29Z</time>
      </trkpt>
      <trkpt lat="48.04068" lon="-0.76462">
        <ele>53.6</ele>
        <time>2010-10-10T08:19:31Z</time>
      </trkpt>
      <trkpt lat="48.04048" lon="-0.76449">
        <ele>53.8</ele>
        <time>2010-10-10T08:19:35Z</time>
      </trkpt>
      <trkpt lat="48.04027" lon="-0.76435">
        <ele>54.2</ele>
        <time>2010-10-10T08:19:39Z</time>
      </trkpt>
      <trkpt lat="48.04011" lon="-0.76425">
        <ele>54.4</ele>
        <time>2010-10-10T08:19:42Z</time>
      </trkpt>
      <trkpt lat="48.04006" lon="-0.76422">
        <ele>54.4</ele>
        <time>2010-10-10T08:19:43Z</time>
      </trkpt>
      <trkpt lat="48.03986" lon="-0.76409">
        <ele>54.8</ele>
        <time>2010-10-10T08:19:47Z</time>
      </trkpt>
      <trkpt lat="48.03966" lon="-0.76397">
        <ele>55</ele>
        <time>2010-10-10T08:19:51Z</time>
      </trkpt>
      <trkpt lat="48.03947" lon="-0.76384">
        <ele>55.4</ele>
        <time>2010-10-10T08:19:55Z</time>
      </trkpt>
      <trkpt lat="48.03932" lon="-0.76374">
        <ele>55.6</ele>
        <time>2010-10-10T08:19:58Z</time>
      </trkpt>
      <trkpt lat="48.03927" lon="-0.76371">
        <ele>55.6</ele>
        <time>2010-10-10T08:19:59Z</time>
      </trkpt>
      <trkpt lat="48.03917" lon="-0.76367">
        <ele>55.6</ele>
        <time>2010-10-10T08:20:01Z</time>
      </trkpt>
      <trkpt lat="48.03912" lon="-0.76363">
        <ele>55.6</ele>
        <time>2010-10-10T08:20:02Z</time>
      </trkpt>
      <trkpt lat="48.03908" lon="-0.76359">
        <ele>55.6</ele>
        <time>2010-10-10T08:20:03Z</time>
      </trkpt>
      <trkpt lat="48.03892" lon="-0.76342">
        <ele>55.4</ele>
        <time>2010-10-10T08:20:07Z</time>
      </trkpt>
      <trkpt lat="48.03889" lon="-0.76341">
        <ele>55.4</ele>
        <time>2010-10-10T08:20:08Z</time>
      </trkpt>
      <trkpt lat="48.03879" lon="-0.7635">
        <ele>55.4</ele>
        <time>2010-10-10T08:20:11Z</time>
      </trkpt>
      <trkpt lat="48.03875" lon="-0.76356">
        <ele>55.4</ele>
        <time>2010-10-10T08:20:13Z</time>
      </trkpt>
      <trkpt lat="48.03874" lon="-0.76358">
        <ele>55.4</ele>
        <time>2010-10-10T08:20:14Z</time>
      </trkpt>
      <trkpt lat="48.03874" lon="-0.76359">
        <ele>55.2</ele>
        <time>2010-10-10T08:20:15Z</time>
      </trkpt>
      <trkpt lat="48.03874" lon="-0.7636">
        <ele>55.4</ele>
        <time>2010-10-10T08:20:19Z</time>
      </trkpt>
      <trkpt lat="48.03876" lon="-0.7636">
        <ele>55.4</ele>
        <time>2010-10-10T08:20:24Z</time>
      </trkpt>
      <trkpt lat="48.03869" lon="-0.76372">
        <ele>54.6</ele>
        <time>2010-10-10T08:20:51Z</time>
      </trkpt>
      <trkpt lat="48.03868" lon="-0.76375">
        <ele>54.6</ele>
        <time>2010-10-10T08:20:52Z</time>
      </trkpt>
      <trkpt lat="48.03868" lon="-0.76376">
        <ele>54.6</ele>
        <time>2010-10-10T08:20:53Z</time>
      </trkpt>
      <trkpt lat="48.03866" lon="-0.76382">
        <ele>55.2</ele>
        <time>2010-10-10T08:20:59Z</time>
      </trkpt>
      <trkpt lat="48.03862" lon="-0.76387">
        <ele>56</ele>
        <time>2010-10-10T08:21:05Z</time>
      </trkpt>
      <trkpt lat="48.03859" lon="-0.76395">
        <ele>56.8</ele>
        <time>2010-10-10T08:21:10Z</time>
      </trkpt>
      <trkpt lat="48.03856" lon="-0.764">
        <ele>57.8</ele>
        <time>2010-10-10T08:21:13Z</time>
      </trkpt>
      <trkpt lat="48.03852" lon="-0.76408">
        <ele>59.4</ele>
        <time>2010-10-10T08:21:18Z</time>
      </trkpt>
      <trkpt lat="48.03852" lon="-0.76411">
        <ele>60.2</ele>
        <time>2010-10-10T08:21:20Z</time>
      </trkpt>
      <trkpt lat="48.03848" lon="-0.76416">
        <ele>61.4</ele>
        <time>2010-10-10T08:21:23Z</time>
      </trkpt>
      <trkpt lat="48.03848" lon="-0.76419">
        <ele>62</ele>
        <time>2010-10-10T08:21:25Z</time>
      </trkpt>
      <trkpt lat="48.03845" lon="-0.76424">
        <ele>62.6</ele>
        <time>2010-10-10T08:21:27Z</time>
      </trkpt>
      <trkpt lat="48.0384" lon="-0.76435">
        <ele>64.2</ele>
        <time>2010-10-10T08:21:33Z</time>
      </trkpt>
      <trkpt lat="48.03839" lon="-0.76437">
        <ele>64.4</ele>
        <time>2010-10-10T08:21:34Z</time>
      </trkpt>
      <trkpt lat="48.03837" lon="-0.7644">
        <ele>64.8</ele>
        <time>2010-10-10T08:21:36Z</time>
      </trkpt>
      <trkpt lat="48.03833" lon="-0.76447">
        <ele>65.2</ele>
        <time>2010-10-10T08:21:39Z</time>
      </trkpt>
      <trkpt lat="48.03828" lon="-0.76454">
        <ele>66.2</ele>
        <time>2010-10-10T08:21:43Z</time>
      </trkpt>
      <trkpt lat="48.03826" lon="-0.76457">
        <ele>66.2</ele>
        <time>2010-10-10T08:21:44Z</time>
      </trkpt>
      <trkpt lat="48.03825" lon="-0.76461">
        <ele>66.2</ele>
        <time>2010-10-10T08:21:45Z</time>
      </trkpt>
      <trkpt lat="48.03823" lon="-0.76466">
        <ele>66.6</ele>
        <time>2010-10-10T08:21:47Z</time>
      </trkpt>
      <trkpt lat="48.03821" lon="-0.7647">
        <ele>66.8</ele>
        <time>2010-10-10T08:21:49Z</time>
      </trkpt>
      <trkpt lat="48.03818" lon="-0.76473">
        <ele>67</ele>
        <time>2010-10-10T08:21:51Z</time>
      </trkpt>
      <trkpt lat="48.03814" lon="-0.76478">
        <ele>67.2</ele>
        <time>2010-10-10T08:21:53Z</time>
      </trkpt>
      <trkpt lat="48.03809" lon="-0.76484">
        <ele>67.8</ele>
        <time>2010-10-10T08:21:56Z</time>
      </trkpt>
      <trkpt lat="48.038" lon="-0.76497">
        <ele>68.8</ele>
        <time>2010-10-10T08:22:03Z</time>
      </trkpt>
      <trkpt lat="48.03799" lon="-0.76499">
        <ele>69</ele>
        <time>2010-10-10T08:22:04Z</time>
      </trkpt>
      <trkpt lat="48.03788" lon="-0.76509">
        <ele>70</ele>
        <time>2010-10-10T08:22:10Z</time>
      </trkpt>
      <trkpt lat="48.03786" lon="-0.76512">
        <ele>70.6</ele>
        <time>2010-10-10T08:22:12Z</time>
      </trkpt>
      <trkpt lat="48.0378" lon="-0.76521">
        <ele>71.4</ele>
        <time>2010-10-10T08:22:17Z</time>
      </trkpt>
      <trkpt lat="48.03771" lon="-0.7653">
        <ele>72.8</ele>
        <time>2010-10-10T08:22:23Z</time>
      </trkpt>
      <trkpt lat="48.0376" lon="-0.7654">
        <ele>74.2</ele>
        <time>2010-10-10T08:22:30Z</time>
      </trkpt>
      <trkpt lat="48.03755" lon="-0.76545">
        <ele>74.6</ele>
        <time>2010-10-10T08:22:33Z</time>
      </trkpt>
      <trkpt lat="48.03749" lon="-0.76549">
        <ele>75.2</ele>
        <time>2010-10-10T08:22:36Z</time>
      </trkpt>
      <trkpt lat="48.03738" lon="-0.76556">
        <ele>75.8</ele>
        <time>2010-10-10T08:22:42Z</time>
      </trkpt>
      <trkpt lat="48.03724" lon="-0.76569">
        <ele>76.8</ele>
        <time>2010-10-10T08:22:49Z</time>
      </trkpt>
      <trkpt lat="48.03722" lon="-0.76571">
        <ele>76.8</ele>
        <time>2010-10-10T08:22:50Z</time>
      </trkpt>
      <trkpt lat="48.03713" lon="-0.76579">
        <ele>77.2</ele>
        <time>2010-10-10T08:22:54Z</time>
      </trkpt>
      <trkpt lat="48.03706" lon="-0.76585">
        <ele>77.8</ele>
        <time>2010-10-10T08:22:57Z</time>
      </trkpt>
      <trkpt lat="48.03699" lon="-0.76592">
        <ele>78.4</ele>
        <time>2010-10-10T08:23:01Z</time>
      </trkpt>
      <trkpt lat="48.03689" lon="-0.76602">
        <ele>79.2</ele>
        <time>2010-10-10T08:23:05Z</time>
      </trkpt>
      <trkpt lat="48.03686" lon="-0.76605">
        <ele>79.4</ele>
        <time>2010-10-10T08:23:06Z</time>
      </trkpt>
      <trkpt lat="48.03672" lon="-0.76618">
        <ele>80.2</ele>
        <time>2010-10-10T08:23:11Z</time>
      </trkpt>
      <trkpt lat="48.0367" lon="-0.7662">
        <ele>80.4</ele>
        <time>2010-10-10T08:23:12Z</time>
      </trkpt>
      <trkpt lat="48.03656" lon="-0.76636">
        <ele>82.2</ele>
        <time>2010-10-10T08:23:19Z</time>
      </trkpt>
      <trkpt lat="48.03649" lon="-0.76649">
        <ele>83.2</ele>
        <time>2010-10-10T08:23:24Z</time>
      </trkpt>
      <trkpt lat="48.03646" lon="-0.76655">
        <ele>83.6</ele>
        <time>2010-10-10T08:23:27Z</time>
      </trkpt>
      <trkpt lat="48.03645" lon="-0.76656">
        <ele>83.8</ele>
        <time>2010-10-10T08:23:28Z</time>
      </trkpt>
      <trkpt lat="48.03643" lon="-0.76658">
        <ele>84</ele>
        <time>2010-10-10T08:23:29Z</time>
      </trkpt>
      <trkpt lat="48.03642" lon="-0.76661">
        <ele>84</ele>
        <time>2010-10-10T08:23:30Z</time>
      </trkpt>
      <trkpt lat="48.03638" lon="-0.76669">
        <ele>84</ele>
        <time>2010-10-10T08:23:34Z</time>
      </trkpt>
      <trkpt lat="48.03637" lon="-0.76674">
        <ele>84</ele>
        <time>2010-10-10T08:23:37Z</time>
      </trkpt>
      <trkpt lat="48.03634" lon="-0.76677">
        <ele>84</ele>
        <time>2010-10-10T08:23:40Z</time>
      </trkpt>
      <trkpt lat="48.03633" lon="-0.76679">
        <ele>84</ele>
        <time>2010-10-10T08:23:41Z</time>
      </trkpt>
      <trkpt lat="48.03627" lon="-0.76694">
        <ele>84.2</ele>
        <time>2010-10-10T08:23:49Z</time>
      </trkpt>
      <trkpt lat="48.03624" lon="-0.76699">
        <ele>84</ele>
        <time>2010-10-10T08:23:52Z</time>
      </trkpt>
      <trkpt lat="48.03624" lon="-0.76704">
        <ele>84</ele>
        <time>2010-10-10T08:23:54Z</time>
      </trkpt>
      <trkpt lat="48.03624" lon="-0.76706">
        <ele>84</ele>
        <time>2010-10-10T08:23:55Z</time>
      </trkpt>
      <trkpt lat="48.0362" lon="-0.76721">
        <ele>84</ele>
        <time>2010-10-10T08:24:01Z</time>
      </trkpt>
      <trkpt lat="48.0362" lon="-0.76723">
        <ele>83.8</ele>
        <time>2010-10-10T08:24:02Z</time>
      </trkpt>
      <trkpt lat="48.0362" lon="-0.76728">
        <ele>83.8</ele>
        <time>2010-10-10T08:24:04Z</time>
      </trkpt>
      <trkpt lat="48.0362" lon="-0.76731">
        <ele>83.8</ele>
        <time>2010-10-10T08:24:05Z</time>
      </trkpt>
      <trkpt lat="48.03618" lon="-0.76735">
        <ele>83.8</ele>
        <time>2010-10-10T08:24:07Z</time>
      </trkpt>
      <trkpt lat="48.03616" lon="-0.76749">
        <ele>84</ele>
        <time>2010-10-10T08:24:13Z</time>
      </trkpt>
      <trkpt lat="48.03616" lon="-0.76757">
        <ele>83.8</ele>
        <time>2010-10-10T08:24:16Z</time>
      </trkpt>
      <trkpt lat="48.03617" lon="-0.76765">
        <ele>83.8</ele>
        <time>2010-10-10T08:24:19Z</time>
      </trkpt>
      <trkpt lat="48.03618" lon="-0.7677">
        <ele>83.8</ele>
        <time>2010-10-10T08:24:21Z</time>
      </trkpt>
      <trkpt lat="48.03618" lon="-0.76785">
        <ele>83.6</ele>
        <time>2010-10-10T08:24:26Z</time>
      </trkpt>
      <trkpt lat="48.03619" lon="-0.76803">
        <ele>83.6</ele>
        <time>2010-10-10T08:24:32Z</time>
      </trkpt>
      <trkpt lat="48.03618" lon="-0.76814">
        <ele>83.8</ele>
        <time>2010-10-10T08:24:35Z</time>
      </trkpt>
      <trkpt lat="48.03617" lon="-0.76823">
        <ele>83.8</ele>
        <time>2010-10-10T08:24:38Z</time>
      </trkpt>
      <trkpt lat="48.03615" lon="-0.7684">
        <ele>84.2</ele>
        <time>2010-10-10T08:24:42Z</time>
      </trkpt>
      <trkpt lat="48.03615" lon="-0.76865">
        <ele>85</ele>
        <time>2010-10-10T08:24:48Z</time>
      </trkpt>
      <trkpt lat="48.03615" lon="-0.76869">
        <ele>85.2</ele>
        <time>2010-10-10T08:24:49Z</time>
      </trkpt>
      <trkpt lat="48.03613" lon="-0.76889">
        <ele>86</ele>
        <time>2010-10-10T08:24:54Z</time>
      </trkpt>
      <trkpt lat="48.03613" lon="-0.76898">
        <ele>86.2</ele>
        <time>2010-10-10T08:24:56Z</time>
      </trkpt>
      <trkpt lat="48.03612" lon="-0.7691">
        <ele>86.6</ele>
        <time>2010-10-10T08:24:59Z</time>
      </trkpt>
      <trkpt lat="48.03613" lon="-0.76927">
        <ele>87.2</ele>
        <time>2010-10-10T08:25:03Z</time>
      </trkpt>
      <trkpt lat="48.03615" lon="-0.76931">
        <ele>87.4</ele>
        <time>2010-10-10T08:25:04Z</time>
      </trkpt>
      <trkpt lat="48.03617" lon="-0.76933">
        <ele>87.6</ele>
        <time>2010-10-10T08:25:05Z</time>
      </trkpt>
      <trkpt lat="48.03625" lon="-0.76935">
        <ele>88.8</ele>
        <time>2010-10-10T08:25:09Z</time>
      </trkpt>
      <trkpt lat="48.0363" lon="-0.76936">
        <ele>89</ele>
        <time>2010-10-10T08:25:11Z</time>
      </trkpt>
      <trkpt lat="48.03639" lon="-0.76939">
        <ele>89.6</ele>
        <time>2010-10-10T08:25:14Z</time>
      </trkpt>
      <trkpt lat="48.03652" lon="-0.7694">
        <ele>90.8</ele>
        <time>2010-10-10T08:25:18Z</time>
      </trkpt>
      <trkpt lat="48.03656" lon="-0.76941">
        <ele>91</ele>
        <time>2010-10-10T08:25:19Z</time>
      </trkpt>
      <trkpt lat="48.03671" lon="-0.76938">
        <ele>92</ele>
        <time>2010-10-10T08:25:24Z</time>
      </trkpt>
      <trkpt lat="48.03674" lon="-0.76937">
        <ele>92.2</ele>
        <time>2010-10-10T08:25:25Z</time>
      </trkpt>
      <trkpt lat="48.03683" lon="-0.76942">
        <ele>92.8</ele>
        <time>2010-10-10T08:25:28Z</time>
      </trkpt>
      <trkpt lat="48.0369" lon="-0.76946">
        <ele>93.8</ele>
        <time>2010-10-10T08:25:31Z</time>
      </trkpt>
      <trkpt lat="48.03693" lon="-0.76946">
        <ele>94</ele>
        <time>2010-10-10T08:25:32Z</time>
      </trkpt>
      <trkpt lat="48.03696" lon="-0.76945">
        <ele>94.4</ele>
        <time>2010-10-10T08:25:33Z</time>
      </trkpt>
      <trkpt lat="48.0371" lon="-0.76943">
        <ele>95.4</ele>
        <time>2010-10-10T08:25:37Z</time>
      </trkpt>
      <trkpt lat="48.03714" lon="-0.76944">
        <ele>95.4</ele>
        <time>2010-10-10T08:25:38Z</time>
      </trkpt>
      <trkpt lat="48.03726" lon="-0.76948">
        <ele>96.2</ele>
        <time>2010-10-10T08:25:41Z</time>
      </trkpt>
      <trkpt lat="48.0373" lon="-0.76948">
        <ele>96.6</ele>
        <time>2010-10-10T08:25:42Z</time>
      </trkpt>
      <trkpt lat="48.03746" lon="-0.76947">
        <ele>97.6</ele>
        <time>2010-10-10T08:25:46Z</time>
      </trkpt>
      <trkpt lat="48.0375" lon="-0.76948">
        <ele>97.6</ele>
        <time>2010-10-10T08:25:47Z</time>
      </trkpt>
      <trkpt lat="48.03765" lon="-0.76953">
        <ele>98.6</ele>
        <time>2010-10-10T08:25:51Z</time>
      </trkpt>
      <trkpt lat="48.03768" lon="-0.76954">
        <ele>98.8</ele>
        <time>2010-10-10T08:25:52Z</time>
      </trkpt>
      <trkpt lat="48.0378" lon="-0.76954">
        <ele>99.2</ele>
        <time>2010-10-10T08:25:56Z</time>
      </trkpt>
      <trkpt lat="48.03787" lon="-0.76953">
        <ele>99.6</ele>
        <time>2010-10-10T08:25:58Z</time>
      </trkpt>
      <trkpt lat="48.03797" lon="-0.76956">
        <ele>100</ele>
        <time>2010-10-10T08:26:00Z</time>
      </trkpt>
      <trkpt lat="48.03806" lon="-0.76958">
        <ele>100.4</ele>
        <time>2010-10-10T08:26:02Z</time>
      </trkpt>
      <trkpt lat="48.03821" lon="-0.7696">
        <ele>101.2</ele>
        <time>2010-10-10T08:26:06Z</time>
      </trkpt>
      <trkpt lat="48.03827" lon="-0.76959">
        <ele>101.4</ele>
        <time>2010-10-10T08:26:08Z</time>
      </trkpt>
      <trkpt lat="48.03832" lon="-0.76954">
        <ele>102</ele>
        <time>2010-10-10T08:26:11Z</time>
      </trkpt>
      <trkpt lat="48.03833" lon="-0.76951">
        <ele>102.2</ele>
        <time>2010-10-10T08:26:12Z</time>
      </trkpt>
      <trkpt lat="48.03836" lon="-0.76943">
        <ele>102.6</ele>
        <time>2010-10-10T08:26:15Z</time>
      </trkpt>
      <trkpt lat="48.03838" lon="-0.76934">
        <ele>103</ele>
        <time>2010-10-10T08:26:18Z</time>
      </trkpt>
      <trkpt lat="48.03838" lon="-0.7693">
        <ele>103.2</ele>
        <time>2010-10-10T08:26:19Z</time>
      </trkpt>
      <trkpt lat="48.03839" lon="-0.76926">
        <ele>103.2</ele>
        <time>2010-10-10T08:26:20Z</time>
      </trkpt>
      <trkpt lat="48.03841" lon="-0.76907">
        <ele>103.6</ele>
        <time>2010-10-10T08:26:24Z</time>
      </trkpt>
      <trkpt lat="48.03842" lon="-0.76902">
        <ele>103.8</ele>
        <time>2010-10-10T08:26:25Z</time>
      </trkpt>
      <trkpt lat="48.03843" lon="-0.7688">
        <ele>104.4</ele>
        <time>2010-10-10T08:26:29Z</time>
      </trkpt>
      <trkpt lat="48.03844" lon="-0.76874">
        <ele>104.6</ele>
        <time>2010-10-10T08:26:30Z</time>
      </trkpt>
      <trkpt lat="48.03846" lon="-0.76849">
        <ele>105</ele>
        <time>2010-10-10T08:26:34Z</time>
      </trkpt>
      <trkpt lat="48.03846" lon="-0.76837">
        <ele>105.2</ele>
        <time>2010-10-10T08:26:36Z</time>
      </trkpt>
      <trkpt lat="48.03848" lon="-0.76817">
        <ele>105.4</ele>
        <time>2010-10-10T08:26:39Z</time>
      </trkpt>
      <trkpt lat="48.03848" lon="-0.76794">
        <ele>105.4</ele>
        <time>2010-10-10T08:26:42Z</time>
      </trkpt>
      <trkpt lat="48.03848" lon="-0.76784">
        <ele>105.4</ele>
        <time>2010-10-10T08:26:43Z</time>
      </trkpt>
      <trkpt lat="48.03848" lon="-0.76766">
        <ele>105.4</ele>
        <time>2010-10-10T08:26:45Z</time>
      </trkpt>
      <trkpt lat="48.03849" lon="-0.76757">
        <ele>105.6</ele>
        <time>2010-10-10T08:26:46Z</time>
      </trkpt>
      <trkpt lat="48.03848" lon="-0.76739">
        <ele>105.6</ele>
        <time>2010-10-10T08:26:48Z</time>
      </trkpt>
      <trkpt lat="48.03848" lon="-0.7672">
        <ele>105.6</ele>
        <time>2010-10-10T08:26:50Z</time>
      </trkpt>
      <trkpt lat="48.03847" lon="-0.76709">
        <ele>105.8</ele>
        <time>2010-10-10T08:26:51Z</time>
      </trkpt>
      <trkpt lat="48.03845" lon="-0.76689">
        <ele>106</ele>
        <time>2010-10-10T08:26:53Z</time>
      </trkpt>
      <trkpt lat="48.03842" lon="-0.76651">
        <ele>106.2</ele>
        <time>2010-10-10T08:26:56Z</time>
      </trkpt>
      <trkpt lat="48.03843" lon="-0.76623">
        <ele>106</ele>
        <time>2010-10-10T08:26:58Z</time>
      </trkpt>
      <trkpt lat="48.03843" lon="-0.76588">
        <ele>106</ele>
        <time>2010-10-10T08:27:01Z</time>
      </trkpt>
      <trkpt lat="48.03844" lon="-0.76577">
        <ele>106</ele>
        <time>2010-10-10T08:27:02Z</time>
      </trkpt>
      <trkpt lat="48.03845" lon="-0.76566">
        <ele>106</ele>
        <time>2010-10-10T08:27:03Z</time>
      </trkpt>
      <trkpt lat="48.03846" lon="-0.76555">
        <ele>106</ele>
        <time>2010-10-10T08:27:04Z</time>
      </trkpt>
      <trkpt lat="48.03851" lon="-0.76523">
        <ele>105.8</ele>
        <time>2010-10-10T08:27:07Z</time>
      </trkpt>
      <trkpt lat="48.03852" lon="-0.76514">
        <ele>105.6</ele>
        <time>2010-10-10T08:27:08Z</time>
      </trkpt>
      <trkpt lat="48.03857" lon="-0.765">
        <ele>105.6</ele>
        <time>2010-10-10T08:27:10Z</time>
      </trkpt>
      <trkpt lat="48.03861" lon="-0.76497">
        <ele>105.6</ele>
        <time>2010-10-10T08:27:11Z</time>
      </trkpt>
      <trkpt lat="48.03876" lon="-0.76476">
        <ele>105.4</ele>
        <time>2010-10-10T08:27:15Z</time>
      </trkpt>
      <trkpt lat="48.03889" lon="-0.76464">
        <ele>104.8</ele>
        <time>2010-10-10T08:27:18Z</time>
      </trkpt>
      <trkpt lat="48.03897" lon="-0.76463">
        <ele>104.4</ele>
        <time>2010-10-10T08:27:21Z</time>
      </trkpt>
      <trkpt lat="48.03906" lon="-0.76468">
        <ele>103.8</ele>
        <time>2010-10-10T08:27:25Z</time>
      </trkpt>
      <trkpt lat="48.03914" lon="-0.76472">
        <ele>103.2</ele>
        <time>2010-10-10T08:27:28Z</time>
      </trkpt>
      <trkpt lat="48.03919" lon="-0.76476">
        <ele>103</ele>
        <time>2010-10-10T08:27:30Z</time>
      </trkpt>
      <trkpt lat="48.0392" lon="-0.76477">
        <ele>102.8</ele>
        <time>2010-10-10T08:27:31Z</time>
      </trkpt>
      <trkpt lat="48.03928" lon="-0.76482">
        <ele>102.2</ele>
        <time>2010-10-10T08:27:34Z</time>
      </trkpt>
      <trkpt lat="48.03931" lon="-0.76486">
        <ele>102</ele>
        <time>2010-10-10T08:27:35Z</time>
      </trkpt>
      <trkpt lat="48.0394" lon="-0.76498">
        <ele>101.4</ele>
        <time>2010-10-10T08:27:39Z</time>
      </trkpt>
      <trkpt lat="48.03947" lon="-0.76505">
        <ele>100.8</ele>
        <time>2010-10-10T08:27:42Z</time>
      </trkpt>
      <trkpt lat="48.03948" lon="-0.76507">
        <ele>100.8</ele>
        <time>2010-10-10T08:27:43Z</time>
      </trkpt>
      <trkpt lat="48.03951" lon="-0.76509">
        <ele>100.6</ele>
        <time>2010-10-10T08:27:44Z</time>
      </trkpt>
      <trkpt lat="48.03956" lon="-0.76514">
        <ele>100</ele>
        <time>2010-10-10T08:27:47Z</time>
      </trkpt>
      <trkpt lat="48.03959" lon="-0.76517">
        <ele>99.8</ele>
        <time>2010-10-10T08:27:49Z</time>
      </trkpt>
      <trkpt lat="48.03963" lon="-0.7652">
        <ele>99.2</ele>
        <time>2010-10-10T08:27:53Z</time>
      </trkpt>
      <trkpt lat="48.03964" lon="-0.76521">
        <ele>99</ele>
        <time>2010-10-10T08:27:54Z</time>
      </trkpt>
      <trkpt lat="48.03967" lon="-0.76524">
        <ele>98.6</ele>
        <time>2010-10-10T08:27:56Z</time>
      </trkpt>
      <trkpt lat="48.03967" lon="-0.76525">
        <ele>98.6</ele>
        <time>2010-10-10T08:27:57Z</time>
      </trkpt>
      <trkpt lat="48.0397" lon="-0.76531">
        <ele>98</ele>
        <time>2010-10-10T08:28:01Z</time>
      </trkpt>
      <trkpt lat="48.03978" lon="-0.76538">
        <ele>97.6</ele>
        <time>2010-10-10T08:28:05Z</time>
      </trkpt>
      <trkpt lat="48.03981" lon="-0.7654">
        <ele>97.2</ele>
        <time>2010-10-10T08:28:07Z</time>
      </trkpt>
      <trkpt lat="48.0399" lon="-0.7655">
        <ele>96.6</ele>
        <time>2010-10-10T08:28:12Z</time>
      </trkpt>
      <trkpt lat="48.03992" lon="-0.76557">
        <ele>96.4</ele>
        <time>2010-10-10T08:28:14Z</time>
      </trkpt>
      <trkpt lat="48.03992" lon="-0.76567">
        <ele>96</ele>
        <time>2010-10-10T08:28:17Z</time>
      </trkpt>
      <trkpt lat="48.03989" lon="-0.76585">
        <ele>95.4</ele>
        <time>2010-10-10T08:28:22Z</time>
      </trkpt>
      <trkpt lat="48.03989" lon="-0.76588">
        <ele>95.2</ele>
        <time>2010-10-10T08:28:23Z</time>
      </trkpt>
      <trkpt lat="48.03987" lon="-0.766">
        <ele>94.8</ele>
        <time>2010-10-10T08:28:26Z</time>
      </trkpt>
      <trkpt lat="48.03988" lon="-0.76611">
        <ele>94.6</ele>
        <time>2010-10-10T08:28:28Z</time>
      </trkpt>
      <trkpt lat="48.03983" lon="-0.76636">
        <ele>93.8</ele>
        <time>2010-10-10T08:28:33Z</time>
      </trkpt>
      <trkpt lat="48.03982" lon="-0.76639">
        <ele>93.6</ele>
        <time>2010-10-10T08:28:34Z</time>
      </trkpt>
      <trkpt lat="48.0398" lon="-0.76642">
        <ele>93.6</ele>
        <time>2010-10-10T08:28:35Z</time>
      </trkpt>
      <trkpt lat="48.03973" lon="-0.76656">
        <ele>93</ele>
        <time>2010-10-10T08:28:39Z</time>
      </trkpt>
      <trkpt lat="48.0397" lon="-0.76662">
        <ele>92.8</ele>
        <time>2010-10-10T08:28:41Z</time>
      </trkpt>
      <trkpt lat="48.03966" lon="-0.76672">
        <ele>92.4</ele>
        <time>2010-10-10T08:28:44Z</time>
      </trkpt>
      <trkpt lat="48.03964" lon="-0.7668">
        <ele>92.2</ele>
        <time>2010-10-10T08:28:46Z</time>
      </trkpt>
      <trkpt lat="48.03966" lon="-0.76687">
        <ele>92</ele>
        <time>2010-10-10T08:28:48Z</time>
      </trkpt>
      <trkpt lat="48.03972" lon="-0.76689">
        <ele>91.4</ele>
        <time>2010-10-10T08:28:52Z</time>
      </trkpt>
      <trkpt lat="48.03978" lon="-0.76684">
        <ele>91.2</ele>
        <time>2010-10-10T08:28:55Z</time>
      </trkpt>
      <trkpt lat="48.03981" lon="-0.76679">
        <ele>91</ele>
        <time>2010-10-10T08:28:57Z</time>
      </trkpt>
      <trkpt lat="48.03982" lon="-0.76677">
        <ele>91</ele>
        <time>2010-10-10T08:28:58Z</time>
      </trkpt>
      <trkpt lat="48.03988" lon="-0.76673">
        <ele>90.6</ele>
        <time>2010-10-10T08:29:00Z</time>
      </trkpt>
      <trkpt lat="48.03996" lon="-0.76666">
        <ele>90.4</ele>
        <time>2010-10-10T08:29:03Z</time>
      </trkpt>
      <trkpt lat="48.0401" lon="-0.76648">
        <ele>90</ele>
        <time>2010-10-10T08:29:07Z</time>
      </trkpt>
      <trkpt lat="48.04026" lon="-0.76628">
        <ele>89.6</ele>
        <time>2010-10-10T08:29:11Z</time>
      </trkpt>
      <trkpt lat="48.04041" lon="-0.76618">
        <ele>88.8</ele>
        <time>2010-10-10T08:29:15Z</time>
      </trkpt>
      <trkpt lat="48.04042" lon="-0.76614">
        <ele>88.8</ele>
        <time>2010-10-10T08:29:16Z</time>
      </trkpt>
      <trkpt lat="48.04046" lon="-0.76608">
        <ele>88.4</ele>
        <time>2010-10-10T08:29:18Z</time>
      </trkpt>
      <trkpt lat="48.0405" lon="-0.766">
        <ele>88</ele>
        <time>2010-10-10T08:29:20Z</time>
      </trkpt>
      <trkpt lat="48.04054" lon="-0.76592">
        <ele>87.6</ele>
        <time>2010-10-10T08:29:22Z</time>
      </trkpt>
      <trkpt lat="48.04058" lon="-0.76578">
        <ele>87</ele>
        <time>2010-10-10T08:29:25Z</time>
      </trkpt>
      <trkpt lat="48.0406" lon="-0.76564">
        <ele>86.4</ele>
        <time>2010-10-10T08:29:28Z</time>
      </trkpt>
      <trkpt lat="48.04064" lon="-0.76548">
        <ele>86</ele>
        <time>2010-10-10T08:29:31Z</time>
      </trkpt>
      <trkpt lat="48.04069" lon="-0.76539">
        <ele>85.6</ele>
        <time>2010-10-10T08:29:33Z</time>
      </trkpt>
      <trkpt lat="48.04078" lon="-0.76522">
        <ele>84.4</ele>
        <time>2010-10-10T08:29:37Z</time>
      </trkpt>
      <trkpt lat="48.04081" lon="-0.76522">
        <ele>84</ele>
        <time>2010-10-10T08:29:38Z</time>
      </trkpt>
      <trkpt lat="48.04083" lon="-0.76524">
        <ele>83.8</ele>
        <time>2010-10-10T08:29:39Z</time>
      </trkpt>
      <trkpt lat="48.04084" lon="-0.76527">
        <ele>83.4</ele>
        <time>2010-10-10T08:29:40Z</time>
      </trkpt>
      <trkpt lat="48.04086" lon="-0.76534">
        <ele>82.6</ele>
        <time>2010-10-10T08:29:43Z</time>
      </trkpt>
      <trkpt lat="48.04085" lon="-0.76537">
        <ele>82</ele>
        <time>2010-10-10T08:29:45Z</time>
      </trkpt>
      <trkpt lat="48.04081" lon="-0.76548">
        <ele>81</ele>
        <time>2010-10-10T08:29:49Z</time>
      </trkpt>
      <trkpt lat="48.04081" lon="-0.76553">
        <ele>80.6</ele>
        <time>2010-10-10T08:29:51Z</time>
      </trkpt>
      <trkpt lat="48.04078" lon="-0.76564">
        <ele>79.4</ele>
        <time>2010-10-10T08:29:57Z</time>
      </trkpt>
      <trkpt lat="48.04077" lon="-0.76565">
        <ele>79.2</ele>
        <time>2010-10-10T08:29:58Z</time>
      </trkpt>
      <trkpt lat="48.04076" lon="-0.76575">
        <ele>78.4</ele>
        <time>2010-10-10T08:30:03Z</time>
      </trkpt>
      <trkpt lat="48.04075" lon="-0.76579">
        <ele>78.2</ele>
        <time>2010-10-10T08:30:05Z</time>
      </trkpt>
      <trkpt lat="48.04076" lon="-0.76582">
        <ele>78</ele>
        <time>2010-10-10T08:30:06Z</time>
      </trkpt>
      <trkpt lat="48.04075" lon="-0.76591">
        <ele>77.4</ele>
        <time>2010-10-10T08:30:11Z</time>
      </trkpt>
      <trkpt lat="48.04076" lon="-0.76597">
        <ele>77.2</ele>
        <time>2010-10-10T08:30:14Z</time>
      </trkpt>
      <trkpt lat="48.04076" lon="-0.76604">
        <ele>76.8</ele>
        <time>2010-10-10T08:30:17Z</time>
      </trkpt>
      <trkpt lat="48.04074" lon="-0.76622">
        <ele>75.6</ele>
        <time>2010-10-10T08:30:24Z</time>
      </trkpt>
      <trkpt lat="48.04074" lon="-0.76624">
        <ele>75.6</ele>
        <time>2010-10-10T08:30:25Z</time>
      </trkpt>
      <trkpt lat="48.04073" lon="-0.76628">
        <ele>75.2</ele>
        <time>2010-10-10T08:30:27Z</time>
      </trkpt>
      <trkpt lat="48.04072" lon="-0.76631">
        <ele>75</ele>
        <time>2010-10-10T08:30:28Z</time>
      </trkpt>
      <trkpt lat="48.04069" lon="-0.76635">
        <ele>74.8</ele>
        <time>2010-10-10T08:30:30Z</time>
      </trkpt>
      <trkpt lat="48.04066" lon="-0.76642">
        <ele>74.4</ele>
        <time>2010-10-10T08:30:33Z</time>
      </trkpt>
      <trkpt lat="48.04063" lon="-0.76647">
        <ele>74</ele>
        <time>2010-10-10T08:30:35Z</time>
      </trkpt>
      <trkpt lat="48.04062" lon="-0.76653">
        <ele>73.6</ele>
        <time>2010-10-10T08:30:37Z</time>
      </trkpt>
      <trkpt lat="48.04059" lon="-0.76663">
        <ele>73</ele>
        <time>2010-10-10T08:30:41Z</time>
      </trkpt>
      <trkpt lat="48.04058" lon="-0.76667">
        <ele>72.8</ele>
        <time>2010-10-10T08:30:43Z</time>
      </trkpt>
      <trkpt lat="48.04055" lon="-0.76674">
        <ele>72.6</ele>
        <time>2010-10-10T08:30:46Z</time>
      </trkpt>
      <trkpt lat="48.04052" lon="-0.76679">
        <ele>72.2</ele>
        <time>2010-10-10T08:30:48Z</time>
      </trkpt>
      <trkpt lat="48.0405" lon="-0.76688">
        <ele>72</ele>
        <time>2010-10-10T08:30:52Z</time>
      </trkpt>
      <trkpt lat="48.04049" lon="-0.76691">
        <ele>71.8</ele>
        <time>2010-10-10T08:30:53Z</time>
      </trkpt>
      <trkpt lat="48.04048" lon="-0.767">
        <ele>71.6</ele>
        <time>2010-10-10T08:30:57Z</time>
      </trkpt>
      <trkpt lat="48.04048" lon="-0.76705">
        <ele>71.4</ele>
        <time>2010-10-10T08:30:59Z</time>
      </trkpt>
      <trkpt lat="48.04041" lon="-0.76723">
        <ele>71</ele>
        <time>2010-10-10T08:31:06Z</time>
      </trkpt>
      <trkpt lat="48.04039" lon="-0.76728">
        <ele>71</ele>
        <time>2010-10-10T08:31:08Z</time>
      </trkpt>
      <trkpt lat="48.04038" lon="-0.7673">
        <ele>71</ele>
        <time>2010-10-10T08:31:09Z</time>
      </trkpt>
      <trkpt lat="48.04036" lon="-0.76736">
        <ele>70.8</ele>
        <time>2010-10-10T08:31:11Z</time>
      </trkpt>
      <trkpt lat="48.04031" lon="-0.76743">
        <ele>70.8</ele>
        <time>2010-10-10T08:31:14Z</time>
      </trkpt>
      <trkpt lat="48.04031" lon="-0.76748">
        <ele>70.8</ele>
        <time>2010-10-10T08:31:16Z</time>
      </trkpt>
      <trkpt lat="48.04031" lon="-0.76755">
        <ele>70.6</ele>
        <time>2010-10-10T08:31:19Z</time>
      </trkpt>
      <trkpt lat="48.04031" lon="-0.7676">
        <ele>70.4</ele>
        <time>2010-10-10T08:31:21Z</time>
      </trkpt>
      <trkpt lat="48.04032" lon="-0.76766">
        <ele>70.2</ele>
        <time>2010-10-10T08:31:23Z</time>
      </trkpt>
      <trkpt lat="48.04032" lon="-0.76783">
        <ele>69.8</ele>
        <time>2010-10-10T08:31:29Z</time>
      </trkpt>
      <trkpt lat="48.04032" lon="-0.76786">
        <ele>69.6</ele>
        <time>2010-10-10T08:31:30Z</time>
      </trkpt>
      <trkpt lat="48.04032" lon="-0.76789">
        <ele>69.6</ele>
        <time>2010-10-10T08:31:31Z</time>
      </trkpt>
      <trkpt lat="48.04032" lon="-0.76801">
        <ele>69.4</ele>
        <time>2010-10-10T08:31:35Z</time>
      </trkpt>
      <trkpt lat="48.04032" lon="-0.76813">
        <ele>69.2</ele>
        <time>2010-10-10T08:31:39Z</time>
      </trkpt>
      <trkpt lat="48.04032" lon="-0.76821">
        <ele>69</ele>
        <time>2010-10-10T08:31:42Z</time>
      </trkpt>
      <trkpt lat="48.04033" lon="-0.76839">
        <ele>68.6</ele>
        <time>2010-10-10T08:31:48Z</time>
      </trkpt>
      <trkpt lat="48.04034" lon="-0.76841">
        <ele>68.4</ele>
        <time>2010-10-10T08:31:49Z</time>
      </trkpt>
      <trkpt lat="48.04037" lon="-0.76846">
        <ele>68.4</ele>
        <time>2010-10-10T08:31:51Z</time>
      </trkpt>
      <trkpt lat="48.04037" lon="-0.76848">
        <ele>68.2</ele>
        <time>2010-10-10T08:31:52Z</time>
      </trkpt>
      <trkpt lat="48.04038" lon="-0.76855">
        <ele>68.2</ele>
        <time>2010-10-10T08:31:55Z</time>
      </trkpt>
      <trkpt lat="48.0404" lon="-0.76866">
        <ele>68.2</ele>
        <time>2010-10-10T08:32:00Z</time>
      </trkpt>
      <trkpt lat="48.04041" lon="-0.76871">
        <ele>68.2</ele>
        <time>2010-10-10T08:32:02Z</time>
      </trkpt>
      <trkpt lat="48.04044" lon="-0.76884">
        <ele>68</ele>
        <time>2010-10-10T08:32:06Z</time>
      </trkpt>
      <trkpt lat="48.04048" lon="-0.76895">
        <ele>67.8</ele>
        <time>2010-10-10T08:32:08Z</time>
      </trkpt>
      <trkpt lat="48.0405" lon="-0.76904">
        <ele>67.8</ele>
        <time>2010-10-10T08:32:10Z</time>
      </trkpt>
      <trkpt lat="48.0405" lon="-0.7691">
        <ele>67.8</ele>
        <time>2010-10-10T08:32:12Z</time>
      </trkpt>
      <trkpt lat="48.04054" lon="-0.76918">
        <ele>67.6</ele>
        <time>2010-10-10T08:32:15Z</time>
      </trkpt>
      <trkpt lat="48.04056" lon="-0.76921">
        <ele>67.6</ele>
        <time>2010-10-10T08:32:16Z</time>
      </trkpt>
      <trkpt lat="48.04065" lon="-0.76938">
        <ele>67.6</ele>
        <time>2010-10-10T08:32:22Z</time>
      </trkpt>
      <trkpt lat="48.04068" lon="-0.76942">
        <ele>67.8</ele>
        <time>2010-10-10T08:32:24Z</time>
      </trkpt>
      <trkpt lat="48.04073" lon="-0.7695">
        <ele>68.8</ele>
        <time>2010-10-10T08:32:28Z</time>
      </trkpt>
      <trkpt lat="48.04083" lon="-0.76962">
        <ele>70</ele>
        <time>2010-10-10T08:32:33Z</time>
      </trkpt>
      <trkpt lat="48.04087" lon="-0.76967">
        <ele>70.2</ele>
        <time>2010-10-10T08:32:35Z</time>
      </trkpt>
      <trkpt lat="48.04088" lon="-0.7697">
        <ele>70.4</ele>
        <time>2010-10-10T08:32:36Z</time>
      </trkpt>
      <trkpt lat="48.04089" lon="-0.76978">
        <ele>71.2</ele>
        <time>2010-10-10T08:32:39Z</time>
      </trkpt>
      <trkpt lat="48.04091" lon="-0.76987">
        <ele>71.8</ele>
        <time>2010-10-10T08:32:42Z</time>
      </trkpt>
      <trkpt lat="48.04091" lon="-0.76989">
        <ele>72.2</ele>
        <time>2010-10-10T08:32:43Z</time>
      </trkpt>
      <trkpt lat="48.0409" lon="-0.7699">
        <ele>72.4</ele>
        <time>2010-10-10T08:32:44Z</time>
      </trkpt>
      <trkpt lat="48.04086" lon="-0.76992">
        <ele>73.2</ele>
        <time>2010-10-10T08:32:47Z</time>
      </trkpt>
      <trkpt lat="48.04081" lon="-0.76991">
        <ele>73.8</ele>
        <time>2010-10-10T08:32:49Z</time>
      </trkpt>
      <trkpt lat="48.04074" lon="-0.76991">
        <ele>75</ele>
        <time>2010-10-10T08:32:53Z</time>
      </trkpt>
      <trkpt lat="48.04069" lon="-0.7699">
        <ele>76</ele>
        <time>2010-10-10T08:32:56Z</time>
      </trkpt>
      <trkpt lat="48.04055" lon="-0.76988">
        <ele>78.4</ele>
        <time>2010-10-10T08:33:03Z</time>
      </trkpt>
      <trkpt lat="48.04041" lon="-0.76988">
        <ele>80.2</ele>
        <time>2010-10-10T08:33:09Z</time>
      </trkpt>
      <trkpt lat="48.04038" lon="-0.76988">
        <ele>80.4</ele>
        <time>2010-10-10T08:33:10Z</time>
      </trkpt>
      <trkpt lat="48.04026" lon="-0.76987">
        <ele>82.2</ele>
        <time>2010-10-10T08:33:15Z</time>
      </trkpt>
      <trkpt lat="48.04019" lon="-0.76986">
        <ele>83</ele>
        <time>2010-10-10T08:33:19Z</time>
      </trkpt>
      <trkpt lat="48.04014" lon="-0.76985">
        <ele>83.8</ele>
        <time>2010-10-10T08:33:21Z</time>
      </trkpt>
      <trkpt lat="48.03999" lon="-0.76986">
        <ele>85.4</ele>
        <time>2010-10-10T08:33:26Z</time>
      </trkpt>
      <trkpt lat="48.03995" lon="-0.76986">
        <ele>85.8</ele>
        <time>2010-10-10T08:33:27Z</time>
      </trkpt>
      <trkpt lat="48.0398" lon="-0.76987">
        <ele>87.6</ele>
        <time>2010-10-10T08:33:33Z</time>
      </trkpt>
      <trkpt lat="48.0396" lon="-0.76984">
        <ele>90</ele>
        <time>2010-10-10T08:33:40Z</time>
      </trkpt>
      <trkpt lat="48.03957" lon="-0.76983">
        <ele>90.4</ele>
        <time>2010-10-10T08:33:41Z</time>
      </trkpt>
      <trkpt lat="48.0394" lon="-0.76982">
        <ele>91.4</ele>
        <time>2010-10-10T08:33:47Z</time>
      </trkpt>
      <trkpt lat="48.03938" lon="-0.76981">
        <ele>91.6</ele>
        <time>2010-10-10T08:33:48Z</time>
      </trkpt>
      <trkpt lat="48.03934" lon="-0.76989">
        <ele>92</ele>
        <time>2010-10-10T08:33:51Z</time>
      </trkpt>
      <trkpt lat="48.03936" lon="-0.77004">
        <ele>92.6</ele>
        <time>2010-10-10T08:33:56Z</time>
      </trkpt>
      <trkpt lat="48.03936" lon="-0.77018">
        <ele>93</ele>
        <time>2010-10-10T08:34:00Z</time>
      </trkpt>
      <trkpt lat="48.03936" lon="-0.77021">
        <ele>93.2</ele>
        <time>2010-10-10T08:34:01Z</time>
      </trkpt>
      <trkpt lat="48.03932" lon="-0.77032">
        <ele>93</ele>
        <time>2010-10-10T08:34:04Z</time>
      </trkpt>
      <trkpt lat="48.0393" lon="-0.77039">
        <ele>93</ele>
        <time>2010-10-10T08:34:06Z</time>
      </trkpt>
      <trkpt lat="48.03925" lon="-0.77049">
        <ele>93</ele>
        <time>2010-10-10T08:34:09Z</time>
      </trkpt>
      <trkpt lat="48.03924" lon="-0.77056">
        <ele>92.8</ele>
        <time>2010-10-10T08:34:11Z</time>
      </trkpt>
      <trkpt lat="48.03922" lon="-0.77078">
        <ele>92.8</ele>
        <time>2010-10-10T08:34:17Z</time>
      </trkpt>
      <trkpt lat="48.03921" lon="-0.77086">
        <ele>93</ele>
        <time>2010-10-10T08:34:19Z</time>
      </trkpt>
      <trkpt lat="48.03918" lon="-0.77106">
        <ele>93.4</ele>
        <time>2010-10-10T08:34:24Z</time>
      </trkpt>
      <trkpt lat="48.03917" lon="-0.77114">
        <ele>93.6</ele>
        <time>2010-10-10T08:34:26Z</time>
      </trkpt>
      <trkpt lat="48.03915" lon="-0.77139">
        <ele>94.4</ele>
        <time>2010-10-10T08:34:32Z</time>
      </trkpt>
      <trkpt lat="48.03914" lon="-0.77143">
        <ele>94.6</ele>
        <time>2010-10-10T08:34:33Z</time>
      </trkpt>
      <trkpt lat="48.03906" lon="-0.7716">
        <ele>95.2</ele>
        <time>2010-10-10T08:34:38Z</time>
      </trkpt>
      <trkpt lat="48.03902" lon="-0.77165">
        <ele>95.6</ele>
        <time>2010-10-10T08:34:40Z</time>
      </trkpt>
      <trkpt lat="48.03894" lon="-0.77177">
        <ele>96</ele>
        <time>2010-10-10T08:34:44Z</time>
      </trkpt>
      <trkpt lat="48.0389" lon="-0.77188">
        <ele>96.4</ele>
        <time>2010-10-10T08:34:47Z</time>
      </trkpt>
      <trkpt lat="48.03885" lon="-0.77199">
        <ele>96.8</ele>
        <time>2010-10-10T08:34:50Z</time>
      </trkpt>
      <trkpt lat="48.03876" lon="-0.77211">
        <ele>97.4</ele>
        <time>2010-10-10T08:34:54Z</time>
      </trkpt>
      <trkpt lat="48.03872" lon="-0.77214">
        <ele>97.4</ele>
        <time>2010-10-10T08:34:56Z</time>
      </trkpt>
      <trkpt lat="48.03858" lon="-0.77215">
        <ele>98.8</ele>
        <time>2010-10-10T08:35:01Z</time>
      </trkpt>
      <trkpt lat="48.03853" lon="-0.77215">
        <ele>99.4</ele>
        <time>2010-10-10T08:35:03Z</time>
      </trkpt>
      <trkpt lat="48.03838" lon="-0.77218">
        <ele>101</ele>
        <time>2010-10-10T08:35:10Z</time>
      </trkpt>
      <trkpt lat="48.03833" lon="-0.77224">
        <ele>102</ele>
        <time>2010-10-10T08:35:14Z</time>
      </trkpt>
      <trkpt lat="48.03832" lon="-0.77244">
        <ele>115</ele>
        <time>2010-10-10T08:37:19Z</time>
      </trkpt>
      <trkpt lat="48.03831" lon="-0.77254">
        <ele>114.8</ele>
        <time>2010-10-10T08:37:21Z</time>
      </trkpt>
      <trkpt lat="48.03831" lon="-0.77272">
        <ele>114.4</ele>
        <time>2010-10-10T08:37:25Z</time>
      </trkpt>
      <trkpt lat="48.03831" lon="-0.77276">
        <ele>114.2</ele>
        <time>2010-10-10T08:37:26Z</time>
      </trkpt>
      <trkpt lat="48.03832" lon="-0.77302">
        <ele>113.4</ele>
        <time>2010-10-10T08:37:31Z</time>
      </trkpt>
      <trkpt lat="48.03832" lon="-0.77323">
        <ele>112.6</ele>
        <time>2010-10-10T08:37:36Z</time>
      </trkpt>
      <trkpt lat="48.03833" lon="-0.77332">
        <ele>112.4</ele>
        <time>2010-10-10T08:37:38Z</time>
      </trkpt>
      <trkpt lat="48.03835" lon="-0.77342">
        <ele>111.6</ele>
        <time>2010-10-10T08:37:41Z</time>
      </trkpt>
      <trkpt lat="48.03841" lon="-0.77354">
        <ele>110.6</ele>
        <time>2010-10-10T08:37:45Z</time>
      </trkpt>
      <trkpt lat="48.03841" lon="-0.77359">
        <ele>110.6</ele>
        <time>2010-10-10T08:37:46Z</time>
      </trkpt>
      <trkpt lat="48.0385" lon="-0.77379">
        <ele>110</ele>
        <time>2010-10-10T08:37:50Z</time>
      </trkpt>
      <trkpt lat="48.0386" lon="-0.77391">
        <ele>109.8</ele>
        <time>2010-10-10T08:37:54Z</time>
      </trkpt>
      <trkpt lat="48.03865" lon="-0.77397">
        <ele>109.6</ele>
        <time>2010-10-10T08:37:55Z</time>
      </trkpt>
      <trkpt lat="48.0387" lon="-0.77402">
        <ele>109.6</ele>
        <time>2010-10-10T08:37:56Z</time>
      </trkpt>
      <trkpt lat="48.03878" lon="-0.77413">
        <ele>109.4</ele>
        <time>2010-10-10T08:37:58Z</time>
      </trkpt>
      <trkpt lat="48.03882" lon="-0.77418">
        <ele>109.2</ele>
        <time>2010-10-10T08:37:59Z</time>
      </trkpt>
      <trkpt lat="48.03891" lon="-0.77426">
        <ele>109.2</ele>
        <time>2010-10-10T08:38:01Z</time>
      </trkpt>
      <trkpt lat="48.03897" lon="-0.77425">
        <ele>109</ele>
        <time>2010-10-10T08:38:02Z</time>
      </trkpt>
      <trkpt lat="48.03904" lon="-0.77422">
        <ele>109.2</ele>
        <time>2010-10-10T08:38:03Z</time>
      </trkpt>
      <trkpt lat="48.03917" lon="-0.77415">
        <ele>109</ele>
        <time>2010-10-10T08:38:05Z</time>
      </trkpt>
      <trkpt lat="48.03923" lon="-0.77411">
        <ele>109</ele>
        <time>2010-10-10T08:38:06Z</time>
      </trkpt>
      <trkpt lat="48.03935" lon="-0.77395">
        <ele>109.2</ele>
        <time>2010-10-10T08:38:09Z</time>
      </trkpt>
      <trkpt lat="48.03938" lon="-0.77387">
        <ele>109.4</ele>
        <time>2010-10-10T08:38:10Z</time>
      </trkpt>
      <trkpt lat="48.03946" lon="-0.77363">
        <ele>109.6</ele>
        <time>2010-10-10T08:38:13Z</time>
      </trkpt>
      <trkpt lat="48.03948" lon="-0.77354">
        <ele>110</ele>
        <time>2010-10-10T08:38:14Z</time>
      </trkpt>
      <trkpt lat="48.03949" lon="-0.77345">
        <ele>110</ele>
        <time>2010-10-10T08:38:15Z</time>
      </trkpt>
      <trkpt lat="48.03953" lon="-0.77338">
        <ele>109.8</ele>
        <time>2010-10-10T08:38:16Z</time>
      </trkpt>
      <trkpt lat="48.03956" lon="-0.77331">
        <ele>109.8</ele>
        <time>2010-10-10T08:38:17Z</time>
      </trkpt>
      <trkpt lat="48.03959" lon="-0.77324">
        <ele>110</ele>
        <time>2010-10-10T08:38:18Z</time>
      </trkpt>
      <trkpt lat="48.03965" lon="-0.7731">
        <ele>110.2</ele>
        <time>2010-10-10T08:38:20Z</time>
      </trkpt>
      <trkpt lat="48.03969" lon="-0.77305">
        <ele>110.4</ele>
        <time>2010-10-10T08:38:21Z</time>
      </trkpt>
      <trkpt lat="48.03974" lon="-0.77298">
        <ele>110.6</ele>
        <time>2010-10-10T08:38:22Z</time>
      </trkpt>
      <trkpt lat="48.03981" lon="-0.77284">
        <ele>110.8</ele>
        <time>2010-10-10T08:38:24Z</time>
      </trkpt>
      <trkpt lat="48.03984" lon="-0.77277">
        <ele>110.8</ele>
        <time>2010-10-10T08:38:25Z</time>
      </trkpt>
      <trkpt lat="48.03987" lon="-0.7727">
        <ele>110.8</ele>
        <time>2010-10-10T08:38:26Z</time>
      </trkpt>
      <trkpt lat="48.03989" lon="-0.77252">
        <ele>111</ele>
        <time>2010-10-10T08:38:28Z</time>
      </trkpt>
      <trkpt lat="48.0399" lon="-0.77243">
        <ele>111</ele>
        <time>2010-10-10T08:38:29Z</time>
      </trkpt>
      <trkpt lat="48.0399" lon="-0.77234">
        <ele>111.2</ele>
        <time>2010-10-10T08:38:30Z</time>
      </trkpt>
      <trkpt lat="48.03993" lon="-0.77217">
        <ele>111.6</ele>
        <time>2010-10-10T08:38:32Z</time>
      </trkpt>
      <trkpt lat="48.03996" lon="-0.77207">
        <ele>111.8</ele>
        <time>2010-10-10T08:38:33Z</time>
      </trkpt>
      <trkpt lat="48.04003" lon="-0.77191">
        <ele>112</ele>
        <time>2010-10-10T08:38:35Z</time>
      </trkpt>
      <trkpt lat="48.04011" lon="-0.77176">
        <ele>112.2</ele>
        <time>2010-10-10T08:38:37Z</time>
      </trkpt>
      <trkpt lat="48.04015" lon="-0.77166">
        <ele>112.4</ele>
        <time>2010-10-10T08:38:38Z</time>
      </trkpt>
      <trkpt lat="48.0402" lon="-0.77146">
        <ele>112.6</ele>
        <time>2010-10-10T08:38:40Z</time>
      </trkpt>
      <trkpt lat="48.04021" lon="-0.77137">
        <ele>112.6</ele>
        <time>2010-10-10T08:38:41Z</time>
      </trkpt>
      <trkpt lat="48.04021" lon="-0.77119">
        <ele>113</ele>
        <time>2010-10-10T08:38:43Z</time>
      </trkpt>
      <trkpt lat="48.04021" lon="-0.7711">
        <ele>113</ele>
        <time>2010-10-10T08:38:44Z</time>
      </trkpt>
      <trkpt lat="48.04022" lon="-0.77101">
        <ele>113.2</ele>
        <time>2010-10-10T08:38:45Z</time>
      </trkpt>
      <trkpt lat="48.04024" lon="-0.77086">
        <ele>113.2</ele>
        <time>2010-10-10T08:38:47Z</time>
      </trkpt>
      <trkpt lat="48.04026" lon="-0.77079">
        <ele>113.2</ele>
        <time>2010-10-10T08:38:48Z</time>
      </trkpt>
      <trkpt lat="48.04028" lon="-0.77073">
        <ele>113.4</ele>
        <time>2010-10-10T08:38:49Z</time>
      </trkpt>
      <trkpt lat="48.04034" lon="-0.77056">
        <ele>113.2</ele>
        <time>2010-10-10T08:38:52Z</time>
      </trkpt>
      <trkpt lat="48.04036" lon="-0.77049">
        <ele>113.2</ele>
        <time>2010-10-10T08:38:53Z</time>
      </trkpt>
      <trkpt lat="48.04038" lon="-0.77042">
        <ele>113</ele>
        <time>2010-10-10T08:38:54Z</time>
      </trkpt>
      <trkpt lat="48.04046" lon="-0.77029">
        <ele>112.8</ele>
        <time>2010-10-10T08:38:57Z</time>
      </trkpt>
      <trkpt lat="48.0405" lon="-0.77023">
        <ele>112.8</ele>
        <time>2010-10-10T08:38:59Z</time>
      </trkpt>
      <trkpt lat="48.04052" lon="-0.77021">
        <ele>112.6</ele>
        <time>2010-10-10T08:39:00Z</time>
      </trkpt>
      <trkpt lat="48.04055" lon="-0.77019">
        <ele>112.4</ele>
        <time>2010-10-10T08:39:01Z</time>
      </trkpt>
      <trkpt lat="48.04066" lon="-0.77006">
        <ele>112</ele>
        <time>2010-10-10T08:39:05Z</time>
      </trkpt>
      <trkpt lat="48.04069" lon="-0.77002">
        <ele>112</ele>
        <time>2010-10-10T08:39:06Z</time>
      </trkpt>
      <trkpt lat="48.04078" lon="-0.77">
        <ele>112</ele>
        <time>2010-10-10T08:39:08Z</time>
      </trkpt>
      <trkpt lat="48.04085" lon="-0.76999">
        <ele>111.8</ele>
        <time>2010-10-10T08:39:10Z</time>
      </trkpt>
      <trkpt lat="48.04099" lon="-0.76999">
        <ele>111.8</ele>
        <time>2010-10-10T08:39:13Z</time>
      </trkpt>
      <trkpt lat="48.04103" lon="-0.76999">
        <ele>111.8</ele>
        <time>2010-10-10T08:39:14Z</time>
      </trkpt>
      <trkpt lat="48.04107" lon="-0.77">
        <ele>111.8</ele>
        <time>2010-10-10T08:39:15Z</time>
      </trkpt>
      <trkpt lat="48.04123" lon="-0.77">
        <ele>111.4</ele>
        <time>2010-10-10T08:39:19Z</time>
      </trkpt>
      <trkpt lat="48.04128" lon="-0.77001">
        <ele>111.4</ele>
        <time>2010-10-10T08:39:20Z</time>
      </trkpt>
      <trkpt lat="48.04139" lon="-0.77002">
        <ele>111.4</ele>
        <time>2010-10-10T08:39:23Z</time>
      </trkpt>
      <trkpt lat="48.04148" lon="-0.77002">
        <ele>111.2</ele>
        <time>2010-10-10T08:39:26Z</time>
      </trkpt>
      <trkpt lat="48.04164" lon="-0.77003">
        <ele>111</ele>
        <time>2010-10-10T08:39:31Z</time>
      </trkpt>
      <trkpt lat="48.04168" lon="-0.77004">
        <ele>111</ele>
        <time>2010-10-10T08:39:32Z</time>
      </trkpt>
      <trkpt lat="48.04184" lon="-0.77006">
        <ele>110.8</ele>
        <time>2010-10-10T08:39:37Z</time>
      </trkpt>
      <trkpt lat="48.04187" lon="-0.77006">
        <ele>110.8</ele>
        <time>2010-10-10T08:39:38Z</time>
      </trkpt>
      <trkpt lat="48.04197" lon="-0.77008">
        <ele>110.6</ele>
        <time>2010-10-10T08:39:42Z</time>
      </trkpt>
      <trkpt lat="48.04205" lon="-0.77008">
        <ele>110.4</ele>
        <time>2010-10-10T08:39:46Z</time>
      </trkpt>
      <trkpt lat="48.04209" lon="-0.77008">
        <ele>110.4</ele>
        <time>2010-10-10T08:39:47Z</time>
      </trkpt>
      <trkpt lat="48.04211" lon="-0.77007">
        <ele>110.2</ele>
        <time>2010-10-10T08:39:48Z</time>
      </trkpt>
      <trkpt lat="48.04226" lon="-0.76998">
        <ele>110.2</ele>
        <time>2010-10-10T08:39:54Z</time>
      </trkpt>
      <trkpt lat="48.04227" lon="-0.76995">
        <ele>110.2</ele>
        <time>2010-10-10T08:39:55Z</time>
      </trkpt>
      <trkpt lat="48.04226" lon="-0.76985">
        <ele>110.2</ele>
        <time>2010-10-10T08:39:58Z</time>
      </trkpt>
      <trkpt lat="48.04226" lon="-0.7697">
        <ele>110.8</ele>
        <time>2010-10-10T08:40:03Z</time>
      </trkpt>
      <trkpt lat="48.0422" lon="-0.76949">
        <ele>112.2</ele>
        <time>2010-10-10T08:40:09Z</time>
      </trkpt>
      <trkpt lat="48.04219" lon="-0.76946">
        <ele>112.4</ele>
        <time>2010-10-10T08:40:10Z</time>
      </trkpt>
      <trkpt lat="48.04215" lon="-0.76936">
        <ele>113.6</ele>
        <time>2010-10-10T08:40:14Z</time>
      </trkpt>
      <trkpt lat="48.04206" lon="-0.76924">
        <ele>114</ele>
        <time>2010-10-10T08:40:19Z</time>
      </trkpt>
      <trkpt lat="48.04204" lon="-0.76922">
        <ele>114</ele>
        <time>2010-10-10T08:40:20Z</time>
      </trkpt>
      <trkpt lat="48.04189" lon="-0.7692">
        <ele>113.8</ele>
        <time>2010-10-10T08:40:24Z</time>
      </trkpt>
      <trkpt lat="48.04167" lon="-0.76921">
        <ele>113.6</ele>
        <time>2010-10-10T08:40:28Z</time>
      </trkpt>
      <trkpt lat="48.0416" lon="-0.76922">
        <ele>113.6</ele>
        <time>2010-10-10T08:40:29Z</time>
      </trkpt>
      <trkpt lat="48.04147" lon="-0.7692">
        <ele>113.4</ele>
        <time>2010-10-10T08:40:31Z</time>
      </trkpt>
      <trkpt lat="48.04135" lon="-0.76914">
        <ele>113.4</ele>
        <time>2010-10-10T08:40:33Z</time>
      </trkpt>
      <trkpt lat="48.0413" lon="-0.7691">
        <ele>113.2</ele>
        <time>2010-10-10T08:40:34Z</time>
      </trkpt>
      <trkpt lat="48.04124" lon="-0.76905">
        <ele>113</ele>
        <time>2010-10-10T08:40:35Z</time>
      </trkpt>
      <trkpt lat="48.04113" lon="-0.76895">
        <ele>112.8</ele>
        <time>2010-10-10T08:40:37Z</time>
      </trkpt>
      <trkpt lat="48.04108" lon="-0.76889">
        <ele>112.6</ele>
        <time>2010-10-10T08:40:38Z</time>
      </trkpt>
      <trkpt lat="48.04093" lon="-0.76875">
        <ele>112.2</ele>
        <time>2010-10-10T08:40:41Z</time>
      </trkpt>
      <trkpt lat="48.04087" lon="-0.76871">
        <ele>112.2</ele>
        <time>2010-10-10T08:40:42Z</time>
      </trkpt>
      <trkpt lat="48.04073" lon="-0.76861">
        <ele>111.8</ele>
        <time>2010-10-10T08:40:45Z</time>
      </trkpt>
      <trkpt lat="48.04068" lon="-0.7686">
        <ele>111.6</ele>
        <time>2010-10-10T08:40:46Z</time>
      </trkpt>
      <trkpt lat="48.04054" lon="-0.76856">
        <ele>111</ele>
        <time>2010-10-10T08:40:49Z</time>
      </trkpt>
      <trkpt lat="48.04052" lon="-0.76852">
        <ele>110.8</ele>
        <time>2010-10-10T08:40:50Z</time>
      </trkpt>
      <trkpt lat="48.04043" lon="-0.76833">
        <ele>109.6</ele>
        <time>2010-10-10T08:40:55Z</time>
      </trkpt>
      <trkpt lat="48.04043" lon="-0.76828">
        <ele>109.4</ele>
        <time>2010-10-10T08:40:56Z</time>
      </trkpt>
      <trkpt lat="48.04046" lon="-0.76813">
        <ele>108.8</ele>
        <time>2010-10-10T08:40:59Z</time>
      </trkpt>
      <trkpt lat="48.0405" lon="-0.76808">
        <ele>108.6</ele>
        <time>2010-10-10T08:41:00Z</time>
      </trkpt>
      <trkpt lat="48.0406" lon="-0.76786">
        <ele>108</ele>
        <time>2010-10-10T08:41:03Z</time>
      </trkpt>
      <trkpt lat="48.04065" lon="-0.76757">
        <ele>107.2</ele>
        <time>2010-10-10T08:41:07Z</time>
      </trkpt>
      <trkpt lat="48.04067" lon="-0.76733">
        <ele>106.4</ele>
        <time>2010-10-10T08:41:10Z</time>
      </trkpt>
      <trkpt lat="48.04068" lon="-0.76727">
        <ele>106.2</ele>
        <time>2010-10-10T08:41:11Z</time>
      </trkpt>
      <trkpt lat="48.04076" lon="-0.76716">
        <ele>105.6</ele>
        <time>2010-10-10T08:41:15Z</time>
      </trkpt>
      <trkpt lat="48.04085" lon="-0.76712">
        <ele>105</ele>
        <time>2010-10-10T08:41:19Z</time>
      </trkpt>
      <trkpt lat="48.04096" lon="-0.76699">
        <ele>104.4</ele>
        <time>2010-10-10T08:41:23Z</time>
      </trkpt>
      <trkpt lat="48.04099" lon="-0.76695">
        <ele>104.2</ele>
        <time>2010-10-10T08:41:24Z</time>
      </trkpt>
      <trkpt lat="48.04111" lon="-0.76676">
        <ele>103.6</ele>
        <time>2010-10-10T08:41:28Z</time>
      </trkpt>
      <trkpt lat="48.04113" lon="-0.76671">
        <ele>103.4</ele>
        <time>2010-10-10T08:41:29Z</time>
      </trkpt>
      <trkpt lat="48.04117" lon="-0.76658">
        <ele>103.2</ele>
        <time>2010-10-10T08:41:31Z</time>
      </trkpt>
      <trkpt lat="48.04119" lon="-0.76653">
        <ele>103</ele>
        <time>2010-10-10T08:41:32Z</time>
      </trkpt>
      <trkpt lat="48.04123" lon="-0.76643">
        <ele>103</ele>
        <time>2010-10-10T08:41:34Z</time>
      </trkpt>
      <trkpt lat="48.04124" lon="-0.76637">
        <ele>103</ele>
        <time>2010-10-10T08:41:36Z</time>
      </trkpt>
      <trkpt lat="48.04131" lon="-0.76636">
        <ele>102.8</ele>
        <time>2010-10-10T08:41:39Z</time>
      </trkpt>
      <trkpt lat="48.0414" lon="-0.76638">
        <ele>102.6</ele>
        <time>2010-10-10T08:41:42Z</time>
      </trkpt>
      <trkpt lat="48.04142" lon="-0.7664">
        <ele>102.6</ele>
        <time>2010-10-10T08:41:43Z</time>
      </trkpt>
      <trkpt lat="48.04143" lon="-0.76641">
        <ele>102.4</ele>
        <time>2010-10-10T08:41:44Z</time>
      </trkpt>
      <trkpt lat="48.04146" lon="-0.76644">
        <ele>102</ele>
        <time>2010-10-10T08:41:47Z</time>
      </trkpt>
      <trkpt lat="48.04148" lon="-0.76646">
        <ele>101.4</ele>
        <time>2010-10-10T08:41:53Z</time>
      </trkpt>
      <trkpt lat="48.04158" lon="-0.76643">
        <ele>100.8</ele>
        <time>2010-10-10T08:42:09Z</time>
      </trkpt>
      <trkpt lat="48.0417" lon="-0.76653">
        <ele>100.6</ele>
        <time>2010-10-10T08:42:14Z</time>
      </trkpt>
      <trkpt lat="48.04174" lon="-0.76655">
        <ele>100.4</ele>
        <time>2010-10-10T08:42:15Z</time>
      </trkpt>
      <trkpt lat="48.04188" lon="-0.76663">
        <ele>100.4</ele>
        <time>2010-10-10T08:42:19Z</time>
      </trkpt>
      <trkpt lat="48.04192" lon="-0.76666">
        <ele>100.4</ele>
        <time>2010-10-10T08:42:20Z</time>
      </trkpt>
      <trkpt lat="48.04206" lon="-0.7668">
        <ele>100</ele>
        <time>2010-10-10T08:42:24Z</time>
      </trkpt>
      <trkpt lat="48.04209" lon="-0.76684">
        <ele>100</ele>
        <time>2010-10-10T08:42:25Z</time>
      </trkpt>
      <trkpt lat="48.04212" lon="-0.76687">
        <ele>100</ele>
        <time>2010-10-10T08:42:26Z</time>
      </trkpt>
      <trkpt lat="48.04219" lon="-0.76689">
        <ele>100</ele>
        <time>2010-10-10T08:42:28Z</time>
      </trkpt>
      <trkpt lat="48.04228" lon="-0.76693">
        <ele>99.8</ele>
        <time>2010-10-10T08:42:31Z</time>
      </trkpt>
      <trkpt lat="48.04232" lon="-0.76694">
        <ele>99.8</ele>
        <time>2010-10-10T08:42:32Z</time>
      </trkpt>
      <trkpt lat="48.04237" lon="-0.76694">
        <ele>99.6</ele>
        <time>2010-10-10T08:42:33Z</time>
      </trkpt>
      <trkpt lat="48.0425" lon="-0.76697">
        <ele>99.6</ele>
        <time>2010-10-10T08:42:36Z</time>
      </trkpt>
      <trkpt lat="48.04264" lon="-0.76702">
        <ele>99.2</ele>
        <time>2010-10-10T08:42:40Z</time>
      </trkpt>
      <trkpt lat="48.04267" lon="-0.76704">
        <ele>99.2</ele>
        <time>2010-10-10T08:42:41Z</time>
      </trkpt>
      <trkpt lat="48.04273" lon="-0.76716">
        <ele>99</ele>
        <time>2010-10-10T08:42:44Z</time>
      </trkpt>
      <trkpt lat="48.04276" lon="-0.76731">
        <ele>98.8</ele>
        <time>2010-10-10T08:42:47Z</time>
      </trkpt>
      <trkpt lat="48.04277" lon="-0.76743">
        <ele>98.6</ele>
        <time>2010-10-10T08:42:49Z</time>
      </trkpt>
      <trkpt lat="48.04276" lon="-0.7676">
        <ele>98.4</ele>
        <time>2010-10-10T08:42:52Z</time>
      </trkpt>
      <trkpt lat="48.04275" lon="-0.76782">
        <ele>98</ele>
        <time>2010-10-10T08:42:56Z</time>
      </trkpt>
      <trkpt lat="48.04274" lon="-0.76787">
        <ele>97.8</ele>
        <time>2010-10-10T08:42:57Z</time>
      </trkpt>
      <trkpt lat="48.04275" lon="-0.76792">
        <ele>97.6</ele>
        <time>2010-10-10T08:42:58Z</time>
      </trkpt>
      <trkpt lat="48.04276" lon="-0.76804">
        <ele>97.4</ele>
        <time>2010-10-10T08:43:00Z</time>
      </trkpt>
      <trkpt lat="48.04278" lon="-0.76814">
        <ele>97</ele>
        <time>2010-10-10T08:43:02Z</time>
      </trkpt>
      <trkpt lat="48.04277" lon="-0.76828">
        <ele>96.6</ele>
        <time>2010-10-10T08:43:05Z</time>
      </trkpt>
      <trkpt lat="48.0428" lon="-0.76842">
        <ele>95.8</ele>
        <time>2010-10-10T08:43:08Z</time>
      </trkpt>
      <trkpt lat="48.04282" lon="-0.76847">
        <ele>95.6</ele>
        <time>2010-10-10T08:43:09Z</time>
      </trkpt>
      <trkpt lat="48.04292" lon="-0.76865">
        <ele>95</ele>
        <time>2010-10-10T08:43:13Z</time>
      </trkpt>
      <trkpt lat="48.04299" lon="-0.76891">
        <ele>94</ele>
        <time>2010-10-10T08:43:18Z</time>
      </trkpt>
      <trkpt lat="48.04299" lon="-0.76896">
        <ele>94</ele>
        <time>2010-10-10T08:43:19Z</time>
      </trkpt>
      <trkpt lat="48.04298" lon="-0.76919">
        <ele>93.4</ele>
        <time>2010-10-10T08:43:24Z</time>
      </trkpt>
      <trkpt lat="48.04298" lon="-0.76924">
        <ele>93.4</ele>
        <time>2010-10-10T08:43:25Z</time>
      </trkpt>
      <trkpt lat="48.04301" lon="-0.76943">
        <ele>92.8</ele>
        <time>2010-10-10T08:43:29Z</time>
      </trkpt>
      <trkpt lat="48.04304" lon="-0.76956">
        <ele>92.2</ele>
        <time>2010-10-10T08:43:32Z</time>
      </trkpt>
      <trkpt lat="48.04305" lon="-0.76959">
        <ele>92</ele>
        <time>2010-10-10T08:43:33Z</time>
      </trkpt>
      <trkpt lat="48.04315" lon="-0.76979">
        <ele>90.2</ele>
        <time>2010-10-10T08:43:40Z</time>
      </trkpt>
      <trkpt lat="48.04317" lon="-0.76981">
        <ele>90</ele>
        <time>2010-10-10T08:43:41Z</time>
      </trkpt>
      <trkpt lat="48.04323" lon="-0.7698">
        <ele>89.2</ele>
        <time>2010-10-10T08:43:44Z</time>
      </trkpt>
      <trkpt lat="48.04325" lon="-0.76977">
        <ele>89</ele>
        <time>2010-10-10T08:43:45Z</time>
      </trkpt>
      <trkpt lat="48.04329" lon="-0.76969">
        <ele>88.6</ele>
        <time>2010-10-10T08:43:48Z</time>
      </trkpt>
      <trkpt lat="48.0433" lon="-0.76966">
        <ele>88.6</ele>
        <time>2010-10-10T08:43:49Z</time>
      </trkpt>
      <trkpt lat="48.0434" lon="-0.76957">
        <ele>88.6</ele>
        <time>2010-10-10T08:43:53Z</time>
      </trkpt>
      <trkpt lat="48.04346" lon="-0.76967">
        <ele>88.6</ele>
        <time>2010-10-10T08:43:56Z</time>
      </trkpt>
      <trkpt lat="48.0435" lon="-0.7697">
        <ele>88.8</ele>
        <time>2010-10-10T08:43:57Z</time>
      </trkpt>
      <trkpt lat="48.04352" lon="-0.76981">
        <ele>88.8</ele>
        <time>2010-10-10T08:44:00Z</time>
      </trkpt>
      <trkpt lat="48.04358" lon="-0.76993">
        <ele>88.6</ele>
        <time>2010-10-10T08:44:03Z</time>
      </trkpt>
      <trkpt lat="48.04358" lon="-0.76999">
        <ele>88.6</ele>
        <time>2010-10-10T08:44:05Z</time>
      </trkpt>
      <trkpt lat="48.04358" lon="-0.77005">
        <ele>88.6</ele>
        <time>2010-10-10T08:44:08Z</time>
      </trkpt>
      <trkpt lat="48.0436" lon="-0.77008">
        <ele>88.8</ele>
        <time>2010-10-10T08:44:13Z</time>
      </trkpt>
      <trkpt lat="48.0436" lon="-0.77004">
        <ele>89.6</ele>
        <time>2010-10-10T08:44:16Z</time>
      </trkpt>
      <trkpt lat="48.04359" lon="-0.77001">
        <ele>89.8</ele>
        <time>2010-10-10T08:44:17Z</time>
      </trkpt>
      <trkpt lat="48.04358" lon="-0.76992">
        <ele>91.4</ele>
        <time>2010-10-10T08:44:23Z</time>
      </trkpt>
      <trkpt lat="48.04359" lon="-0.76992">
        <ele>91.6</ele>
        <time>2010-10-10T08:44:24Z</time>
      </trkpt>
      <trkpt lat="48.04365" lon="-0.76995">
        <ele>92.2</ele>
        <time>2010-10-10T08:44:27Z</time>
      </trkpt>
      <trkpt lat="48.04369" lon="-0.77001">
        <ele>92.2</ele>
        <time>2010-10-10T08:44:29Z</time>
      </trkpt>
      <trkpt lat="48.04377" lon="-0.77006">
        <ele>92.4</ele>
        <time>2010-10-10T08:44:32Z</time>
      </trkpt>
      <trkpt lat="48.0438" lon="-0.77008">
        <ele>92.4</ele>
        <time>2010-10-10T08:44:33Z</time>
      </trkpt>
      <trkpt lat="48.04389" lon="-0.7701">
        <ele>92.4</ele>
        <time>2010-10-10T08:44:37Z</time>
      </trkpt>
      <trkpt lat="48.04394" lon="-0.7701">
        <ele>92.6</ele>
        <time>2010-10-10T08:44:39Z</time>
      </trkpt>
      <trkpt lat="48.04399" lon="-0.7701">
        <ele>92.6</ele>
        <time>2010-10-10T08:44:41Z</time>
      </trkpt>
      <trkpt lat="48.04403" lon="-0.77006">
        <ele>93</ele>
        <time>2010-10-10T08:44:43Z</time>
      </trkpt>
      <trkpt lat="48.04413" lon="-0.77">
        <ele>93.8</ele>
        <time>2010-10-10T08:44:47Z</time>
      </trkpt>
      <trkpt lat="48.04415" lon="-0.76998">
        <ele>94</ele>
        <time>2010-10-10T08:44:48Z</time>
      </trkpt>
      <trkpt lat="48.04423" lon="-0.76994">
        <ele>94.8</ele>
        <time>2010-10-10T08:44:52Z</time>
      </trkpt>
      <trkpt lat="48.04426" lon="-0.76991">
        <ele>95.4</ele>
        <time>2010-10-10T08:44:54Z</time>
      </trkpt>
      <trkpt lat="48.04427" lon="-0.76986">
        <ele>96</ele>
        <time>2010-10-10T08:44:56Z</time>
      </trkpt>
      <trkpt lat="48.0443" lon="-0.76977">
        <ele>96.4</ele>
        <time>2010-10-10T08:44:59Z</time>
      </trkpt>
      <trkpt lat="48.04431" lon="-0.76965">
        <ele>97.2</ele>
        <time>2010-10-10T08:45:04Z</time>
      </trkpt>
      <trkpt lat="48.04433" lon="-0.76959">
        <ele>97.2</ele>
        <time>2010-10-10T08:45:06Z</time>
      </trkpt>
      <trkpt lat="48.04435" lon="-0.76955">
        <ele>97.6</ele>
        <time>2010-10-10T08:45:08Z</time>
      </trkpt>
      <trkpt lat="48.04439" lon="-0.76952">
        <ele>98</ele>
        <time>2010-10-10T08:45:11Z</time>
      </trkpt>
      <trkpt lat="48.04441" lon="-0.76952">
        <ele>98.2</ele>
        <time>2010-10-10T08:45:13Z</time>
      </trkpt>
      <trkpt lat="48.04442" lon="-0.76951">
        <ele>98.4</ele>
        <time>2010-10-10T08:45:15Z</time>
      </trkpt>
      <trkpt lat="48.04444" lon="-0.76949">
        <ele>98.6</ele>
        <time>2010-10-10T08:45:17Z</time>
      </trkpt>
      <trkpt lat="48.04447" lon="-0.76944">
        <ele>98.8</ele>
        <time>2010-10-10T08:45:20Z</time>
      </trkpt>
      <trkpt lat="48.04448" lon="-0.76942">
        <ele>98.8</ele>
        <time>2010-10-10T08:45:21Z</time>
      </trkpt>
      <trkpt lat="48.0445" lon="-0.76939">
        <ele>99</ele>
        <time>2010-10-10T08:45:23Z</time>
      </trkpt>
      <trkpt lat="48.04451" lon="-0.76933">
        <ele>99.4</ele>
        <time>2010-10-10T08:45:27Z</time>
      </trkpt>
      <trkpt lat="48.04453" lon="-0.76929">
        <ele>99.6</ele>
        <time>2010-10-10T08:45:29Z</time>
      </trkpt>
      <trkpt lat="48.04456" lon="-0.76918">
        <ele>99.8</ele>
        <time>2010-10-10T08:45:33Z</time>
      </trkpt>
      <trkpt lat="48.04455" lon="-0.7691">
        <ele>100</ele>
        <time>2010-10-10T08:45:35Z</time>
      </trkpt>
      <trkpt lat="48.04455" lon="-0.7689">
        <ele>100.2</ele>
        <time>2010-10-10T08:45:39Z</time>
      </trkpt>
      <trkpt lat="48.04455" lon="-0.76879">
        <ele>100.2</ele>
        <time>2010-10-10T08:45:41Z</time>
      </trkpt>
      <trkpt lat="48.04459" lon="-0.76861">
        <ele>100.4</ele>
        <time>2010-10-10T08:45:45Z</time>
      </trkpt>
      <trkpt lat="48.0446" lon="-0.76856">
        <ele>100.4</ele>
        <time>2010-10-10T08:45:46Z</time>
      </trkpt>
      <trkpt lat="48.04459" lon="-0.76845">
        <ele>100.4</ele>
        <time>2010-10-10T08:45:48Z</time>
      </trkpt>
      <trkpt lat="48.04455" lon="-0.76835">
        <ele>100.4</ele>
        <time>2010-10-10T08:45:50Z</time>
      </trkpt>
      <trkpt lat="48.04445" lon="-0.76827">
        <ele>100.2</ele>
        <time>2010-10-10T08:45:53Z</time>
      </trkpt>
      <trkpt lat="48.04436" lon="-0.7683">
        <ele>100.2</ele>
        <time>2010-10-10T08:45:55Z</time>
      </trkpt>
      <trkpt lat="48.04426" lon="-0.76833">
        <ele>100</ele>
        <time>2010-10-10T08:45:57Z</time>
      </trkpt>
      <trkpt lat="48.04417" lon="-0.76831">
        <ele>99.8</ele>
        <time>2010-10-10T08:45:59Z</time>
      </trkpt>
      <trkpt lat="48.04409" lon="-0.76825">
        <ele>99.8</ele>
        <time>2010-10-10T08:46:01Z</time>
      </trkpt>
      <trkpt lat="48.04406" lon="-0.76811">
        <ele>99.6</ele>
        <time>2010-10-10T08:46:04Z</time>
      </trkpt>
      <trkpt lat="48.04413" lon="-0.76792">
        <ele>99.8</ele>
        <time>2010-10-10T08:46:08Z</time>
      </trkpt>
      <trkpt lat="48.04418" lon="-0.76789">
        <ele>99.8</ele>
        <time>2010-10-10T08:46:09Z</time>
      </trkpt>
      <trkpt lat="48.04428" lon="-0.76781">
        <ele>100.2</ele>
        <time>2010-10-10T08:46:12Z</time>
      </trkpt>
      <trkpt lat="48.04432" lon="-0.76778">
        <ele>100.2</ele>
        <time>2010-10-10T08:46:13Z</time>
      </trkpt>
      <trkpt lat="48.04436" lon="-0.76775">
        <ele>100.6</ele>
        <time>2010-10-10T08:46:14Z</time>
      </trkpt>
      <trkpt lat="48.04444" lon="-0.76771">
        <ele>100.2</ele>
        <time>2010-10-10T08:46:16Z</time>
      </trkpt>
      <trkpt lat="48.04454" lon="-0.76771">
        <ele>100</ele>
        <time>2010-10-10T08:46:18Z</time>
      </trkpt>
      <trkpt lat="48.04459" lon="-0.76773">
        <ele>100</ele>
        <time>2010-10-10T08:46:19Z</time>
      </trkpt>
      <trkpt lat="48.04472" lon="-0.76779">
        <ele>100</ele>
        <time>2010-10-10T08:46:22Z</time>
      </trkpt>
      <trkpt lat="48.04479" lon="-0.76782">
        <ele>100</ele>
        <time>2010-10-10T08:46:24Z</time>
      </trkpt>
      <trkpt lat="48.04481" lon="-0.76784">
        <ele>100</ele>
        <time>2010-10-10T08:46:25Z</time>
      </trkpt>
      <trkpt lat="48.0449" lon="-0.76787">
        <ele>100.2</ele>
        <time>2010-10-10T08:46:28Z</time>
      </trkpt>
      <trkpt lat="48.04492" lon="-0.76789">
        <ele>100.2</ele>
        <time>2010-10-10T08:46:29Z</time>
      </trkpt>
      <trkpt lat="48.04494" lon="-0.76791">
        <ele>100.2</ele>
        <time>2010-10-10T08:46:30Z</time>
      </trkpt>
      <trkpt lat="48.04496" lon="-0.76798">
        <ele>100.2</ele>
        <time>2010-10-10T08:46:32Z</time>
      </trkpt>
      <trkpt lat="48.04498" lon="-0.76815">
        <ele>100</ele>
        <time>2010-10-10T08:46:37Z</time>
      </trkpt>
      <trkpt lat="48.04498" lon="-0.76819">
        <ele>100</ele>
        <time>2010-10-10T08:46:39Z</time>
      </trkpt>
      <trkpt lat="48.04498" lon="-0.76818">
        <ele>100</ele>
        <time>2010-10-10T08:46:41Z</time>
      </trkpt>
      <trkpt lat="48.04503" lon="-0.76808">
        <ele>99.8</ele>
        <time>2010-10-10T08:46:45Z</time>
      </trkpt>
      <trkpt lat="48.04507" lon="-0.76806">
        <ele>99.8</ele>
        <time>2010-10-10T08:46:47Z</time>
      </trkpt>
      <trkpt lat="48.04511" lon="-0.76806">
        <ele>99.8</ele>
        <time>2010-10-10T08:46:49Z</time>
      </trkpt>
      <trkpt lat="48.04515" lon="-0.76806">
        <ele>99.8</ele>
        <time>2010-10-10T08:46:50Z</time>
      </trkpt>
      <trkpt lat="48.04526" lon="-0.76806">
        <ele>99.6</ele>
        <time>2010-10-10T08:46:54Z</time>
      </trkpt>
      <trkpt lat="48.04528" lon="-0.76805">
        <ele>99.6</ele>
        <time>2010-10-10T08:46:55Z</time>
      </trkpt>
      <trkpt lat="48.04532" lon="-0.76798">
        <ele>99.6</ele>
        <time>2010-10-10T08:46:57Z</time>
      </trkpt>
      <trkpt lat="48.04536" lon="-0.76784">
        <ele>99.6</ele>
        <time>2010-10-10T08:47:00Z</time>
      </trkpt>
      <trkpt lat="48.0454" lon="-0.76777">
        <ele>99.4</ele>
        <time>2010-10-10T08:47:02Z</time>
      </trkpt>
      <trkpt lat="48.04546" lon="-0.76772">
        <ele>99.4</ele>
        <time>2010-10-10T08:47:04Z</time>
      </trkpt>
      <trkpt lat="48.0455" lon="-0.7677">
        <ele>99.4</ele>
        <time>2010-10-10T08:47:05Z</time>
      </trkpt>
      <trkpt lat="48.04568" lon="-0.76755">
        <ele>99</ele>
        <time>2010-10-10T08:47:09Z</time>
      </trkpt>
      <trkpt lat="48.04585" lon="-0.76746">
        <ele>98.8</ele>
        <time>2010-10-10T08:47:12Z</time>
      </trkpt>
      <trkpt lat="48.04597" lon="-0.76739">
        <ele>98.6</ele>
        <time>2010-10-10T08:47:14Z</time>
      </trkpt>
      <trkpt lat="48.04603" lon="-0.76736">
        <ele>98.6</ele>
        <time>2010-10-10T08:47:15Z</time>
      </trkpt>
      <trkpt lat="48.04608" lon="-0.76734">
        <ele>98.4</ele>
        <time>2010-10-10T08:47:16Z</time>
      </trkpt>
      <trkpt lat="48.04621" lon="-0.76738">
        <ele>98.2</ele>
        <time>2010-10-10T08:47:19Z</time>
      </trkpt>
      <trkpt lat="48.04622" lon="-0.7674">
        <ele>98.2</ele>
        <time>2010-10-10T08:47:20Z</time>
      </trkpt>
      <trkpt lat="48.04626" lon="-0.7675">
        <ele>98</ele>
        <time>2010-10-10T08:47:23Z</time>
      </trkpt>
      <trkpt lat="48.04635" lon="-0.76764">
        <ele>97.4</ele>
        <time>2010-10-10T08:47:27Z</time>
      </trkpt>
      <trkpt lat="48.04635" lon="-0.76767">
        <ele>97.2</ele>
        <time>2010-10-10T08:47:28Z</time>
      </trkpt>
      <trkpt lat="48.04635" lon="-0.76772">
        <ele>97.2</ele>
        <time>2010-10-10T08:47:29Z</time>
      </trkpt>
      <trkpt lat="48.04635" lon="-0.76786">
        <ele>96.4</ele>
        <time>2010-10-10T08:47:34Z</time>
      </trkpt>
      <trkpt lat="48.04631" lon="-0.76802">
        <ele>89.6</ele>
        <time>2010-10-10T08:55:29Z</time>
      </trkpt>
      <trkpt lat="48.04628" lon="-0.76821">
        <ele>88.2</ele>
        <time>2010-10-10T08:57:49Z</time>
      </trkpt>
      <trkpt lat="48.0463" lon="-0.76827">
        <ele>88</ele>
        <time>2010-10-10T08:57:52Z</time>
      </trkpt>
      <trkpt lat="48.0464" lon="-0.76834">
        <ele>87.8</ele>
        <time>2010-10-10T08:57:57Z</time>
      </trkpt>
      <trkpt lat="48.04643" lon="-0.76837">
        <ele>87.8</ele>
        <time>2010-10-10T08:57:58Z</time>
      </trkpt>
      <trkpt lat="48.04645" lon="-0.7684">
        <ele>87.8</ele>
        <time>2010-10-10T08:57:59Z</time>
      </trkpt>
      <trkpt lat="48.04648" lon="-0.76842">
        <ele>87.6</ele>
        <time>2010-10-10T08:58:02Z</time>
      </trkpt>
      <trkpt lat="48.0465" lon="-0.76842">
        <ele>87.6</ele>
        <time>2010-10-10T08:58:03Z</time>
      </trkpt>
      <trkpt lat="48.04658" lon="-0.76832">
        <ele>87.8</ele>
        <time>2010-10-10T08:58:06Z</time>
      </trkpt>
      <trkpt lat="48.04659" lon="-0.76828">
        <ele>87.8</ele>
        <time>2010-10-10T08:58:07Z</time>
      </trkpt>
      <trkpt lat="48.04665" lon="-0.76815">
        <ele>88</ele>
        <time>2010-10-10T08:58:10Z</time>
      </trkpt>
      <trkpt lat="48.04671" lon="-0.76803">
        <ele>87.8</ele>
        <time>2010-10-10T08:58:14Z</time>
      </trkpt>
      <trkpt lat="48.04675" lon="-0.76801">
        <ele>88</ele>
        <time>2010-10-10T08:58:15Z</time>
      </trkpt>
      <trkpt lat="48.04679" lon="-0.768">
        <ele>87.8</ele>
        <time>2010-10-10T08:58:16Z</time>
      </trkpt>
      <trkpt lat="48.04686" lon="-0.76798">
        <ele>87.8</ele>
        <time>2010-10-10T08:58:18Z</time>
      </trkpt>
      <trkpt lat="48.04688" lon="-0.76796">
        <ele>87.8</ele>
        <time>2010-10-10T08:58:19Z</time>
      </trkpt>
      <trkpt lat="48.04695" lon="-0.76789">
        <ele>87.8</ele>
        <time>2010-10-10T08:58:22Z</time>
      </trkpt>
      <trkpt lat="48.04699" lon="-0.76786">
        <ele>87.6</ele>
        <time>2010-10-10T08:58:24Z</time>
      </trkpt>
      <trkpt lat="48.047" lon="-0.76784">
        <ele>87.6</ele>
        <time>2010-10-10T08:58:25Z</time>
      </trkpt>
      <trkpt lat="48.04702" lon="-0.76779">
        <ele>87.6</ele>
        <time>2010-10-10T08:58:27Z</time>
      </trkpt>
      <trkpt lat="48.04704" lon="-0.76775">
        <ele>87.6</ele>
        <time>2010-10-10T08:58:28Z</time>
      </trkpt>
      <trkpt lat="48.04705" lon="-0.76767">
        <ele>87.6</ele>
        <time>2010-10-10T08:58:30Z</time>
      </trkpt>
      <trkpt lat="48.04707" lon="-0.76765">
        <ele>87.6</ele>
        <time>2010-10-10T08:58:31Z</time>
      </trkpt>
      <trkpt lat="48.04709" lon="-0.76764">
        <ele>87.4</ele>
        <time>2010-10-10T08:58:32Z</time>
      </trkpt>
      <trkpt lat="48.04718" lon="-0.76758">
        <ele>87.2</ele>
        <time>2010-10-10T08:58:36Z</time>
      </trkpt>
      <trkpt lat="48.04721" lon="-0.76755">
        <ele>87</ele>
        <time>2010-10-10T08:58:37Z</time>
      </trkpt>
      <trkpt lat="48.04733" lon="-0.76746">
        <ele>86.2</ele>
        <time>2010-10-10T08:58:41Z</time>
      </trkpt>
      <trkpt lat="48.04735" lon="-0.76745">
        <ele>86</ele>
        <time>2010-10-10T08:58:42Z</time>
      </trkpt>
      <trkpt lat="48.04738" lon="-0.76743">
        <ele>85.8</ele>
        <time>2010-10-10T08:58:43Z</time>
      </trkpt>
      <trkpt lat="48.04746" lon="-0.76734">
        <ele>85.2</ele>
        <time>2010-10-10T08:58:46Z</time>
      </trkpt>
      <trkpt lat="48.04749" lon="-0.76728">
        <ele>84.8</ele>
        <time>2010-10-10T08:58:48Z</time>
      </trkpt>
      <trkpt lat="48.04752" lon="-0.76724">
        <ele>84.2</ele>
        <time>2010-10-10T08:58:50Z</time>
      </trkpt>
      <trkpt lat="48.04755" lon="-0.76725">
        <ele>83.8</ele>
        <time>2010-10-10T08:58:52Z</time>
      </trkpt>
      <trkpt lat="48.04755" lon="-0.76726">
        <ele>83.4</ele>
        <time>2010-10-10T08:58:53Z</time>
      </trkpt>
      <trkpt lat="48.04757" lon="-0.7673">
        <ele>82.8</ele>
        <time>2010-10-10T08:58:55Z</time>
      </trkpt>
      <trkpt lat="48.04759" lon="-0.76742">
        <ele>81.8</ele>
        <time>2010-10-10T08:58:59Z</time>
      </trkpt>
      <trkpt lat="48.04765" lon="-0.7676">
        <ele>80</ele>
        <time>2010-10-10T08:59:05Z</time>
      </trkpt>
      <trkpt lat="48.04766" lon="-0.76768">
        <ele>79</ele>
        <time>2010-10-10T08:59:08Z</time>
      </trkpt>
      <trkpt lat="48.04767" lon="-0.76776">
        <ele>78.2</ele>
        <time>2010-10-10T08:59:11Z</time>
      </trkpt>
      <trkpt lat="48.04766" lon="-0.76794">
        <ele>76.4</ele>
        <time>2010-10-10T08:59:18Z</time>
      </trkpt>
      <trkpt lat="48.04766" lon="-0.76797">
        <ele>76.2</ele>
        <time>2010-10-10T08:59:19Z</time>
      </trkpt>
      <trkpt lat="48.04764" lon="-0.76807">
        <ele>75.2</ele>
        <time>2010-10-10T08:59:23Z</time>
      </trkpt>
      <trkpt lat="48.0476" lon="-0.76818">
        <ele>74.2</ele>
        <time>2010-10-10T08:59:28Z</time>
      </trkpt>
      <trkpt lat="48.0476" lon="-0.76825">
        <ele>73.6</ele>
        <time>2010-10-10T08:59:31Z</time>
      </trkpt>
      <trkpt lat="48.04759" lon="-0.76827">
        <ele>73.4</ele>
        <time>2010-10-10T08:59:32Z</time>
      </trkpt>
      <trkpt lat="48.04759" lon="-0.76831">
        <ele>73</ele>
        <time>2010-10-10T08:59:34Z</time>
      </trkpt>
      <trkpt lat="48.04759" lon="-0.76846">
        <ele>72</ele>
        <time>2010-10-10T08:59:39Z</time>
      </trkpt>
      <trkpt lat="48.04758" lon="-0.76849">
        <ele>71.8</ele>
        <time>2010-10-10T08:59:40Z</time>
      </trkpt>
      <trkpt lat="48.04758" lon="-0.76851">
        <ele>71.6</ele>
        <time>2010-10-10T08:59:41Z</time>
      </trkpt>
      <trkpt lat="48.04754" lon="-0.76867">
        <ele>70.6</ele>
        <time>2010-10-10T08:59:47Z</time>
      </trkpt>
      <trkpt lat="48.04753" lon="-0.76879">
        <ele>69.8</ele>
        <time>2010-10-10T08:59:52Z</time>
      </trkpt>
      <trkpt lat="48.04752" lon="-0.76886">
        <ele>69.4</ele>
        <time>2010-10-10T08:59:55Z</time>
      </trkpt>
      <trkpt lat="48.04751" lon="-0.76892">
        <ele>69.2</ele>
        <time>2010-10-10T08:59:58Z</time>
      </trkpt>
      <trkpt lat="48.04746" lon="-0.76906">
        <ele>68.6</ele>
        <time>2010-10-10T09:00:04Z</time>
      </trkpt>
      <trkpt lat="48.04746" lon="-0.76909">
        <ele>68.4</ele>
        <time>2010-10-10T09:00:05Z</time>
      </trkpt>
      <trkpt lat="48.04745" lon="-0.7692">
        <ele>68</ele>
        <time>2010-10-10T09:00:10Z</time>
      </trkpt>
      <trkpt lat="48.04744" lon="-0.76922">
        <ele>68</ele>
        <time>2010-10-10T09:00:11Z</time>
      </trkpt>
      <trkpt lat="48.04744" lon="-0.76933">
        <ele>67.4</ele>
        <time>2010-10-10T09:00:16Z</time>
      </trkpt>
      <trkpt lat="48.04744" lon="-0.76935">
        <ele>67.2</ele>
        <time>2010-10-10T09:00:17Z</time>
      </trkpt>
      <trkpt lat="48.04744" lon="-0.76937">
        <ele>67.2</ele>
        <time>2010-10-10T09:00:18Z</time>
      </trkpt>
      <trkpt lat="48.04745" lon="-0.76949">
        <ele>66.6</ele>
        <time>2010-10-10T09:00:24Z</time>
      </trkpt>
      <trkpt lat="48.04744" lon="-0.76953">
        <ele>66.4</ele>
        <time>2010-10-10T09:00:26Z</time>
      </trkpt>
      <trkpt lat="48.04739" lon="-0.7696">
        <ele>66.2</ele>
        <time>2010-10-10T09:00:30Z</time>
      </trkpt>
      <trkpt lat="48.04738" lon="-0.76962">
        <ele>66.2</ele>
        <time>2010-10-10T09:00:31Z</time>
      </trkpt>
      <trkpt lat="48.04732" lon="-0.76972">
        <ele>66</ele>
        <time>2010-10-10T09:00:37Z</time>
      </trkpt>
      <trkpt lat="48.04729" lon="-0.76983">
        <ele>66</ele>
        <time>2010-10-10T09:00:43Z</time>
      </trkpt>
      <trkpt lat="48.04727" lon="-0.76984">
        <ele>66</ele>
        <time>2010-10-10T09:00:44Z</time>
      </trkpt>
      <trkpt lat="48.04725" lon="-0.76993">
        <ele>65.8</ele>
        <time>2010-10-10T09:00:50Z</time>
      </trkpt>
      <trkpt lat="48.04722" lon="-0.77004">
        <ele>66.2</ele>
        <time>2010-10-10T09:00:56Z</time>
      </trkpt>
      <trkpt lat="48.04721" lon="-0.7701">
        <ele>66.2</ele>
        <time>2010-10-10T09:00:59Z</time>
      </trkpt>
      <trkpt lat="48.0472" lon="-0.77016">
        <ele>66.4</ele>
        <time>2010-10-10T09:01:02Z</time>
      </trkpt>
      <trkpt lat="48.04718" lon="-0.77023">
        <ele>66.6</ele>
        <time>2010-10-10T09:01:07Z</time>
      </trkpt>
      <trkpt lat="48.04715" lon="-0.77028">
        <ele>67.4</ele>
        <time>2010-10-10T09:01:10Z</time>
      </trkpt>
      <trkpt lat="48.04712" lon="-0.77032">
        <ele>68</ele>
        <time>2010-10-10T09:01:12Z</time>
      </trkpt>
      <trkpt lat="48.04711" lon="-0.77034">
        <ele>68.2</ele>
        <time>2010-10-10T09:01:13Z</time>
      </trkpt>
      <trkpt lat="48.04707" lon="-0.77042">
        <ele>69.2</ele>
        <time>2010-10-10T09:01:19Z</time>
      </trkpt>
      <trkpt lat="48.04697" lon="-0.77049">
        <ele>71</ele>
        <time>2010-10-10T09:01:27Z</time>
      </trkpt>
      <trkpt lat="48.04687" lon="-0.77051">
        <ele>73.2</ele>
        <time>2010-10-10T09:01:34Z</time>
      </trkpt>
      <trkpt lat="48.04685" lon="-0.77051">
        <ele>73.4</ele>
        <time>2010-10-10T09:01:35Z</time>
      </trkpt>
      <trkpt lat="48.04681" lon="-0.77051">
        <ele>74.6</ele>
        <time>2010-10-10T09:01:39Z</time>
      </trkpt>
      <trkpt lat="48.04679" lon="-0.77051">
        <ele>75</ele>
        <time>2010-10-10T09:01:40Z</time>
      </trkpt>
      <trkpt lat="48.04674" lon="-0.77054">
        <ele>76.6</ele>
        <time>2010-10-10T09:01:45Z</time>
      </trkpt>
      <trkpt lat="48.04669" lon="-0.77054">
        <ele>77.4</ele>
        <time>2010-10-10T09:01:49Z</time>
      </trkpt>
      <trkpt lat="48.04667" lon="-0.77055">
        <ele>77.8</ele>
        <time>2010-10-10T09:01:51Z</time>
      </trkpt>
      <trkpt lat="48.04667" lon="-0.77062">
        <ele>78.4</ele>
        <time>2010-10-10T09:01:55Z</time>
      </trkpt>
      <trkpt lat="48.04667" lon="-0.77062">
        <ele>78.6</ele>
        <time>2010-10-10T09:01:56Z</time>
      </trkpt>
      <trkpt lat="48.0466" lon="-0.77092">
        <ele>83</ele>
        <time>2010-10-10T09:02:27Z</time>
      </trkpt>
      <trkpt lat="48.04659" lon="-0.77094">
        <ele>83</ele>
        <time>2010-10-10T09:02:28Z</time>
      </trkpt>
      <trkpt lat="48.04654" lon="-0.77109">
        <ele>84</ele>
        <time>2010-10-10T09:02:36Z</time>
      </trkpt>
      <trkpt lat="48.04652" lon="-0.77118">
        <ele>84.2</ele>
        <time>2010-10-10T09:02:40Z</time>
      </trkpt>
      <trkpt lat="48.0465" lon="-0.77121">
        <ele>84.6</ele>
        <time>2010-10-10T09:02:42Z</time>
      </trkpt>
      <trkpt lat="48.04651" lon="-0.77138">
        <ele>85.2</ele>
        <time>2010-10-10T09:02:47Z</time>
      </trkpt>
      <trkpt lat="48.04651" lon="-0.77145">
        <ele>85.2</ele>
        <time>2010-10-10T09:02:49Z</time>
      </trkpt>
      <trkpt lat="48.04648" lon="-0.77152">
        <ele>86</ele>
        <time>2010-10-10T09:02:52Z</time>
      </trkpt>
      <trkpt lat="48.04649" lon="-0.77155">
        <ele>86.2</ele>
        <time>2010-10-10T09:02:53Z</time>
      </trkpt>
      <trkpt lat="48.04652" lon="-0.77164">
        <ele>86.6</ele>
        <time>2010-10-10T09:02:57Z</time>
      </trkpt>
      <trkpt lat="48.04655" lon="-0.7717">
        <ele>87</ele>
        <time>2010-10-10T09:02:59Z</time>
      </trkpt>
      <trkpt lat="48.04658" lon="-0.77179">
        <ele>87</ele>
        <time>2010-10-10T09:03:01Z</time>
      </trkpt>
      <trkpt lat="48.04659" lon="-0.77196">
        <ele>87.4</ele>
        <time>2010-10-10T09:03:06Z</time>
      </trkpt>
      <trkpt lat="48.04661" lon="-0.77201">
        <ele>87.4</ele>
        <time>2010-10-10T09:03:07Z</time>
      </trkpt>
      <trkpt lat="48.04661" lon="-0.77217">
        <ele>87.6</ele>
        <time>2010-10-10T09:03:11Z</time>
      </trkpt>
      <trkpt lat="48.04661" lon="-0.77225">
        <ele>87.8</ele>
        <time>2010-10-10T09:03:13Z</time>
      </trkpt>
      <trkpt lat="48.04662" lon="-0.7723">
        <ele>87.8</ele>
        <time>2010-10-10T09:03:14Z</time>
      </trkpt>
      <trkpt lat="48.04662" lon="-0.7724">
        <ele>88</ele>
        <time>2010-10-10T09:03:16Z</time>
      </trkpt>
      <trkpt lat="48.04665" lon="-0.77245">
        <ele>88.4</ele>
        <time>2010-10-10T09:03:18Z</time>
      </trkpt>
      <trkpt lat="48.04668" lon="-0.77251">
        <ele>88.8</ele>
        <time>2010-10-10T09:03:20Z</time>
      </trkpt>
      <trkpt lat="48.0467" lon="-0.77255">
        <ele>89</ele>
        <time>2010-10-10T09:03:21Z</time>
      </trkpt>
      <trkpt lat="48.04673" lon="-0.77268">
        <ele>89.4</ele>
        <time>2010-10-10T09:03:24Z</time>
      </trkpt>
      <trkpt lat="48.04677" lon="-0.7728">
        <ele>89.8</ele>
        <time>2010-10-10T09:03:27Z</time>
      </trkpt>
      <trkpt lat="48.04681" lon="-0.77288">
        <ele>90.4</ele>
        <time>2010-10-10T09:03:29Z</time>
      </trkpt>
      <trkpt lat="48.04683" lon="-0.7731">
        <ele>90.8</ele>
        <time>2010-10-10T09:03:33Z</time>
      </trkpt>
      <trkpt lat="48.04686" lon="-0.77318">
        <ele>91.4</ele>
        <time>2010-10-10T09:03:35Z</time>
      </trkpt>
      <trkpt lat="48.0469" lon="-0.77325">
        <ele>91.8</ele>
        <time>2010-10-10T09:03:37Z</time>
      </trkpt>
      <trkpt lat="48.04693" lon="-0.77331">
        <ele>92</ele>
        <time>2010-10-10T09:03:38Z</time>
      </trkpt>
      <trkpt lat="48.04704" lon="-0.7735">
        <ele>93</ele>
        <time>2010-10-10T09:03:42Z</time>
      </trkpt>
      <trkpt lat="48.04706" lon="-0.77357">
        <ele>93.4</ele>
        <time>2010-10-10T09:03:43Z</time>
      </trkpt>
      <trkpt lat="48.04709" lon="-0.7738">
        <ele>93.8</ele>
        <time>2010-10-10T09:03:46Z</time>
      </trkpt>
      <trkpt lat="48.04711" lon="-0.77387">
        <ele>93.8</ele>
        <time>2010-10-10T09:03:47Z</time>
      </trkpt>
      <trkpt lat="48.04713" lon="-0.774">
        <ele>94.2</ele>
        <time>2010-10-10T09:03:49Z</time>
      </trkpt>
      <trkpt lat="48.04715" lon="-0.77413">
        <ele>94.4</ele>
        <time>2010-10-10T09:03:51Z</time>
      </trkpt>
      <trkpt lat="48.04715" lon="-0.77419">
        <ele>94.4</ele>
        <time>2010-10-10T09:03:52Z</time>
      </trkpt>
      <trkpt lat="48.04718" lon="-0.77449">
        <ele>94.4</ele>
        <time>2010-10-10T09:03:56Z</time>
      </trkpt>
      <trkpt lat="48.04715" lon="-0.77473">
        <ele>94.4</ele>
        <time>2010-10-10T09:04:00Z</time>
      </trkpt>
      <trkpt lat="48.04714" lon="-0.77479">
        <ele>94.4</ele>
        <time>2010-10-10T09:04:01Z</time>
      </trkpt>
      <trkpt lat="48.04714" lon="-0.77484">
        <ele>94.4</ele>
        <time>2010-10-10T09:04:02Z</time>
      </trkpt>
      <trkpt lat="48.04712" lon="-0.77495">
        <ele>94.4</ele>
        <time>2010-10-10T09:04:04Z</time>
      </trkpt>
      <trkpt lat="48.04711" lon="-0.77501">
        <ele>94.4</ele>
        <time>2010-10-10T09:04:05Z</time>
      </trkpt>
      <trkpt lat="48.04709" lon="-0.77507">
        <ele>94.4</ele>
        <time>2010-10-10T09:04:06Z</time>
      </trkpt>
      <trkpt lat="48.04702" lon="-0.77514">
        <ele>94.6</ele>
        <time>2010-10-10T09:04:08Z</time>
      </trkpt>
      <trkpt lat="48.04695" lon="-0.77521">
        <ele>94.8</ele>
        <time>2010-10-10T09:04:10Z</time>
      </trkpt>
      <trkpt lat="48.04688" lon="-0.77532">
        <ele>95.4</ele>
        <time>2010-10-10T09:04:13Z</time>
      </trkpt>
      <trkpt lat="48.04678" lon="-0.77537">
        <ele>95.6</ele>
        <time>2010-10-10T09:04:16Z</time>
      </trkpt>
      <trkpt lat="48.04675" lon="-0.77537">
        <ele>95.8</ele>
        <time>2010-10-10T09:04:17Z</time>
      </trkpt>
      <trkpt lat="48.04672" lon="-0.77537">
        <ele>95.8</ele>
        <time>2010-10-10T09:04:18Z</time>
      </trkpt>
      <trkpt lat="48.04658" lon="-0.77544">
        <ele>97</ele>
        <time>2010-10-10T09:04:22Z</time>
      </trkpt>
      <trkpt lat="48.04646" lon="-0.77565">
        <ele>98.6</ele>
        <time>2010-10-10T09:04:27Z</time>
      </trkpt>
      <trkpt lat="48.04647" lon="-0.77591">
        <ele>99.8</ele>
        <time>2010-10-10T09:04:32Z</time>
      </trkpt>
      <trkpt lat="48.04648" lon="-0.77597">
        <ele>100</ele>
        <time>2010-10-10T09:04:33Z</time>
      </trkpt>
      <trkpt lat="48.0465" lon="-0.77628">
        <ele>100.2</ele>
        <time>2010-10-10T09:04:38Z</time>
      </trkpt>
      <trkpt lat="48.04659" lon="-0.77659">
        <ele>100.6</ele>
        <time>2010-10-10T09:04:44Z</time>
      </trkpt>
      <trkpt lat="48.04662" lon="-0.77672">
        <ele>100.4</ele>
        <time>2010-10-10T09:04:46Z</time>
      </trkpt>
      <trkpt lat="48.04664" lon="-0.77684">
        <ele>100.2</ele>
        <time>2010-10-10T09:04:48Z</time>
      </trkpt>
      <trkpt lat="48.04671" lon="-0.77701">
        <ele>100</ele>
        <time>2010-10-10T09:04:51Z</time>
      </trkpt>
      <trkpt lat="48.04672" lon="-0.77707">
        <ele>99.8</ele>
        <time>2010-10-10T09:04:52Z</time>
      </trkpt>
      <trkpt lat="48.04671" lon="-0.77713">
        <ele>99.8</ele>
        <time>2010-10-10T09:04:53Z</time>
      </trkpt>
      <trkpt lat="48.04667" lon="-0.77731">
        <ele>99.4</ele>
        <time>2010-10-10T09:04:56Z</time>
      </trkpt>
      <trkpt lat="48.04664" lon="-0.77736">
        <ele>99.6</ele>
        <time>2010-10-10T09:04:57Z</time>
      </trkpt>
      <trkpt lat="48.04662" lon="-0.77741">
        <ele>99.4</ele>
        <time>2010-10-10T09:04:58Z</time>
      </trkpt>
      <trkpt lat="48.04653" lon="-0.7776">
        <ele>99.4</ele>
        <time>2010-10-10T09:05:02Z</time>
      </trkpt>
      <trkpt lat="48.0465" lon="-0.77769">
        <ele>99.2</ele>
        <time>2010-10-10T09:05:04Z</time>
      </trkpt>
      <trkpt lat="48.04646" lon="-0.77779">
        <ele>99.2</ele>
        <time>2010-10-10T09:05:07Z</time>
      </trkpt>
      <trkpt lat="48.04643" lon="-0.77789">
        <ele>99</ele>
        <time>2010-10-10T09:05:11Z</time>
      </trkpt>
      <trkpt lat="48.04641" lon="-0.77791">
        <ele>99</ele>
        <time>2010-10-10T09:05:12Z</time>
      </trkpt>
      <trkpt lat="48.0464" lon="-0.77789">
        <ele>98.8</ele>
        <time>2010-10-10T09:05:14Z</time>
      </trkpt>
      <trkpt lat="48.04639" lon="-0.77785">
        <ele>98.8</ele>
        <time>2010-10-10T09:05:16Z</time>
      </trkpt>
      <trkpt lat="48.04638" lon="-0.77782">
        <ele>99.2</ele>
        <time>2010-10-10T09:05:18Z</time>
      </trkpt>
      <trkpt lat="48.04637" lon="-0.77782">
        <ele>99.6</ele>
        <time>2010-10-10T09:05:19Z</time>
      </trkpt>
      <trkpt lat="48.04637" lon="-0.7778">
        <ele>100.2</ele>
        <time>2010-10-10T09:05:21Z</time>
      </trkpt>
      <trkpt lat="48.04636" lon="-0.77772">
        <ele>102.6</ele>
        <time>2010-10-10T09:05:26Z</time>
      </trkpt>
      <trkpt lat="48.04634" lon="-0.77768">
        <ele>105.8</ele>
        <time>2010-10-10T09:05:31Z</time>
      </trkpt>
      <trkpt lat="48.04638" lon="-0.77761">
        <ele>116.8</ele>
        <time>2010-10-10T09:06:07Z</time>
      </trkpt>
      <trkpt lat="48.04636" lon="-0.77754">
        <ele>117</ele>
        <time>2010-10-10T09:06:09Z</time>
      </trkpt>
      <trkpt lat="48.04633" lon="-0.77734">
        <ele>117.4</ele>
        <time>2010-10-10T09:06:15Z</time>
      </trkpt>
      <trkpt lat="48.04633" lon="-0.7773">
        <ele>117.6</ele>
        <time>2010-10-10T09:06:16Z</time>
      </trkpt>
      <trkpt lat="48.04631" lon="-0.77716">
        <ele>118</ele>
        <time>2010-10-10T09:06:20Z</time>
      </trkpt>
      <trkpt lat="48.04631" lon="-0.77707">
        <ele>118.2</ele>
        <time>2010-10-10T09:06:22Z</time>
      </trkpt>
      <trkpt lat="48.04628" lon="-0.77689">
        <ele>118.8</ele>
        <time>2010-10-10T09:06:25Z</time>
      </trkpt>
      <trkpt lat="48.04626" lon="-0.77681">
        <ele>119</ele>
        <time>2010-10-10T09:06:27Z</time>
      </trkpt>
      <trkpt lat="48.04624" lon="-0.77668">
        <ele>119</ele>
        <time>2010-10-10T09:06:30Z</time>
      </trkpt>
      <trkpt lat="48.0462" lon="-0.77651">
        <ele>119.6</ele>
        <time>2010-10-10T09:06:34Z</time>
      </trkpt>
      <trkpt lat="48.04616" lon="-0.77637">
        <ele>120.2</ele>
        <time>2010-10-10T09:06:37Z</time>
      </trkpt>
      <trkpt lat="48.04611" lon="-0.77624">
        <ele>120.4</ele>
        <time>2010-10-10T09:06:40Z</time>
      </trkpt>
      <trkpt lat="48.04609" lon="-0.77613">
        <ele>120.4</ele>
        <time>2010-10-10T09:06:42Z</time>
      </trkpt>
      <trkpt lat="48.04604" lon="-0.77596">
        <ele>120.4</ele>
        <time>2010-10-10T09:06:45Z</time>
      </trkpt>
      <trkpt lat="48.04602" lon="-0.77589">
        <ele>120.4</ele>
        <time>2010-10-10T09:06:46Z</time>
      </trkpt>
      <trkpt lat="48.04595" lon="-0.77569">
        <ele>120.4</ele>
        <time>2010-10-10T09:06:49Z</time>
      </trkpt>
      <trkpt lat="48.04595" lon="-0.77561">
        <ele>120.2</ele>
        <time>2010-10-10T09:06:50Z</time>
      </trkpt>
      <trkpt lat="48.04593" lon="-0.77553">
        <ele>120.2</ele>
        <time>2010-10-10T09:06:51Z</time>
      </trkpt>
      <trkpt lat="48.0459" lon="-0.77537">
        <ele>120.2</ele>
        <time>2010-10-10T09:06:53Z</time>
      </trkpt>
      <trkpt lat="48.04588" lon="-0.77528">
        <ele>120</ele>
        <time>2010-10-10T09:06:54Z</time>
      </trkpt>
      <trkpt lat="48.04586" lon="-0.77511">
        <ele>120</ele>
        <time>2010-10-10T09:06:56Z</time>
      </trkpt>
      <trkpt lat="48.04585" lon="-0.77504">
        <ele>120</ele>
        <time>2010-10-10T09:06:57Z</time>
      </trkpt>
      <trkpt lat="48.04583" lon="-0.77474">
        <ele>120</ele>
        <time>2010-10-10T09:07:01Z</time>
      </trkpt>
      <trkpt lat="48.04582" lon="-0.77447">
        <ele>120</ele>
        <time>2010-10-10T09:07:04Z</time>
      </trkpt>
      <trkpt lat="48.04581" lon="-0.77437">
        <ele>120</ele>
        <time>2010-10-10T09:07:05Z</time>
      </trkpt>
      <trkpt lat="48.04582" lon="-0.77417">
        <ele>120</ele>
        <time>2010-10-10T09:07:07Z</time>
      </trkpt>
      <trkpt lat="48.04581" lon="-0.77406">
        <ele>120</ele>
        <time>2010-10-10T09:07:08Z</time>
      </trkpt>
      <trkpt lat="48.0458" lon="-0.77385">
        <ele>120</ele>
        <time>2010-10-10T09:07:10Z</time>
      </trkpt>
      <trkpt lat="48.04581" lon="-0.77353">
        <ele>120.2</ele>
        <time>2010-10-10T09:07:13Z</time>
      </trkpt>
      <trkpt lat="48.04582" lon="-0.77343">
        <ele>120.2</ele>
        <time>2010-10-10T09:07:14Z</time>
      </trkpt>
      <trkpt lat="48.04581" lon="-0.77333">
        <ele>120.6</ele>
        <time>2010-10-10T09:07:15Z</time>
      </trkpt>
      <trkpt lat="48.04581" lon="-0.77325">
        <ele>120.6</ele>
        <time>2010-10-10T09:07:16Z</time>
      </trkpt>
      <trkpt lat="48.04579" lon="-0.77319">
        <ele>120.8</ele>
        <time>2010-10-10T09:07:17Z</time>
      </trkpt>
      <trkpt lat="48.04577" lon="-0.77313">
        <ele>121</ele>
        <time>2010-10-10T09:07:18Z</time>
      </trkpt>
      <trkpt lat="48.04577" lon="-0.77286">
        <ele>121</ele>
        <time>2010-10-10T09:07:22Z</time>
      </trkpt>
      <trkpt lat="48.04587" lon="-0.77257">
        <ele>120.8</ele>
        <time>2010-10-10T09:07:26Z</time>
      </trkpt>
      <trkpt lat="48.04592" lon="-0.77243">
        <ele>120.8</ele>
        <time>2010-10-10T09:07:28Z</time>
      </trkpt>
      <trkpt lat="48.046" lon="-0.77231">
        <ele>120.6</ele>
        <time>2010-10-10T09:07:30Z</time>
      </trkpt>
      <trkpt lat="48.04609" lon="-0.77211">
        <ele>120.4</ele>
        <time>2010-10-10T09:07:33Z</time>
      </trkpt>
      <trkpt lat="48.04611" lon="-0.77205">
        <ele>120.2</ele>
        <time>2010-10-10T09:07:34Z</time>
      </trkpt>
      <trkpt lat="48.04612" lon="-0.77199">
        <ele>120.2</ele>
        <time>2010-10-10T09:07:35Z</time>
      </trkpt>
      <trkpt lat="48.04612" lon="-0.77194">
        <ele>120.2</ele>
        <time>2010-10-10T09:07:36Z</time>
      </trkpt>
      <trkpt lat="48.04611" lon="-0.77179">
        <ele>119.8</ele>
        <time>2010-10-10T09:07:39Z</time>
      </trkpt>
      <trkpt lat="48.04612" lon="-0.77173">
        <ele>119.8</ele>
        <time>2010-10-10T09:07:40Z</time>
      </trkpt>
      <trkpt lat="48.04614" lon="-0.77153">
        <ele>119.6</ele>
        <time>2010-10-10T09:07:43Z</time>
      </trkpt>
      <trkpt lat="48.04613" lon="-0.77148">
        <ele>119.4</ele>
        <time>2010-10-10T09:07:44Z</time>
      </trkpt>
      <trkpt lat="48.04614" lon="-0.77143">
        <ele>119.2</ele>
        <time>2010-10-10T09:07:45Z</time>
      </trkpt>
      <trkpt lat="48.04614" lon="-0.77128">
        <ele>119</ele>
        <time>2010-10-10T09:07:48Z</time>
      </trkpt>
      <trkpt lat="48.04616" lon="-0.77111">
        <ele>118.8</ele>
        <time>2010-10-10T09:07:51Z</time>
      </trkpt>
      <trkpt lat="48.04615" lon="-0.77107">
        <ele>118.6</ele>
        <time>2010-10-10T09:07:52Z</time>
      </trkpt>
      <trkpt lat="48.04614" lon="-0.77105">
        <ele>118.6</ele>
        <time>2010-10-10T09:07:53Z</time>
      </trkpt>
      <trkpt lat="48.04607" lon="-0.77098">
        <ele>118.6</ele>
        <time>2010-10-10T09:07:56Z</time>
      </trkpt>
      <trkpt lat="48.04601" lon="-0.77098">
        <ele>118.4</ele>
        <time>2010-10-10T09:07:58Z</time>
      </trkpt>
      <trkpt lat="48.04594" lon="-0.77094">
        <ele>118.2</ele>
        <time>2010-10-10T09:08:00Z</time>
      </trkpt>
      <trkpt lat="48.04584" lon="-0.77084">
        <ele>118</ele>
        <time>2010-10-10T09:08:04Z</time>
      </trkpt>
      <trkpt lat="48.04582" lon="-0.77082">
        <ele>117.8</ele>
        <time>2010-10-10T09:08:05Z</time>
      </trkpt>
      <trkpt lat="48.04582" lon="-0.7708">
        <ele>117.8</ele>
        <time>2010-10-10T09:08:06Z</time>
      </trkpt>
      <trkpt lat="48.04581" lon="-0.7708">
        <ele>117.6</ele>
        <time>2010-10-10T09:08:09Z</time>
      </trkpt>
      <trkpt lat="48.04574" lon="-0.77065">
        <ele>117.6</ele>
        <time>2010-10-10T09:09:49Z</time>
      </trkpt>
      <trkpt lat="48.04572" lon="-0.77067">
        <ele>118</ele>
        <time>2010-10-10T09:09:52Z</time>
      </trkpt>
    </trkseg>
    </trkseg>
      <trkpt lat="48.04562" lon="-0.77074">
        <ele>108.4</ele>
        <time>2010-10-10T09:15:09Z</time>
      </trkpt>
      <trkpt lat="48.04556" lon="-0.77078">
        <ele>108</ele>
        <time>2010-10-10T09:15:12Z</time>
      </trkpt>
      <trkpt lat="48.04544" lon="-0.77083">
        <ele>107.8</ele>
        <time>2010-10-10T09:15:16Z</time>
      </trkpt>
      <trkpt lat="48.0453" lon="-0.77094">
        <ele>107.4</ele>
        <time>2010-10-10T09:15:20Z</time>
      </trkpt>
      <trkpt lat="48.04526" lon="-0.77095">
        <ele>107.2</ele>
        <time>2010-10-10T09:15:21Z</time>
      </trkpt>
      <trkpt lat="48.04513" lon="-0.77094">
        <ele>107</ele>
        <time>2010-10-10T09:15:24Z</time>
      </trkpt>
      <trkpt lat="48.04504" lon="-0.77093">
        <ele>106.8</ele>
        <time>2010-10-10T09:15:26Z</time>
      </trkpt>
      <trkpt lat="48.04494" lon="-0.77093">
        <ele>106.6</ele>
        <time>2010-10-10T09:15:28Z</time>
      </trkpt>
      <trkpt lat="48.04485" lon="-0.77091">
        <ele>106.4</ele>
        <time>2010-10-10T09:15:30Z</time>
      </trkpt>
      <trkpt lat="48.04481" lon="-0.7709">
        <ele>106.4</ele>
        <time>2010-10-10T09:15:31Z</time>
      </trkpt>
      <trkpt lat="48.04472" lon="-0.77094">
        <ele>106</ele>
        <time>2010-10-10T09:15:33Z</time>
      </trkpt>
      <trkpt lat="48.04468" lon="-0.77095">
        <ele>106</ele>
        <time>2010-10-10T09:15:34Z</time>
      </trkpt>
      <trkpt lat="48.04464" lon="-0.77095">
        <ele>105.8</ele>
        <time>2010-10-10T09:15:35Z</time>
      </trkpt>
      <trkpt lat="48.04455" lon="-0.77095">
        <ele>105.4</ele>
        <time>2010-10-10T09:15:37Z</time>
      </trkpt>
      <trkpt lat="48.04451" lon="-0.77095">
        <ele>105.2</ele>
        <time>2010-10-10T09:15:38Z</time>
      </trkpt>
      <trkpt lat="48.04447" lon="-0.77095">
        <ele>105.2</ele>
        <time>2010-10-10T09:15:39Z</time>
      </trkpt>
      <trkpt lat="48.04443" lon="-0.77095">
        <ele>105</ele>
        <time>2010-10-10T09:15:40Z</time>
      </trkpt>
      <trkpt lat="48.04436" lon="-0.77098">
        <ele>104.6</ele>
        <time>2010-10-10T09:15:42Z</time>
      </trkpt>
      <trkpt lat="48.04423" lon="-0.77101">
        <ele>104</ele>
        <time>2010-10-10T09:15:46Z</time>
      </trkpt>
      <trkpt lat="48.04416" lon="-0.771">
        <ele>103.8</ele>
        <time>2010-10-10T09:15:48Z</time>
      </trkpt>
      <trkpt lat="48.04408" lon="-0.771">
        <ele>103.4</ele>
        <time>2010-10-10T09:15:51Z</time>
      </trkpt>
      <trkpt lat="48.04402" lon="-0.77099">
        <ele>103</ele>
        <time>2010-10-10T09:15:53Z</time>
      </trkpt>
      <trkpt lat="48.04394" lon="-0.77094">
        <ele>102.6</ele>
        <time>2010-10-10T09:15:56Z</time>
      </trkpt>
      <trkpt lat="48.04386" lon="-0.7709">
        <ele>102</ele>
        <time>2010-10-10T09:16:00Z</time>
      </trkpt>
      <trkpt lat="48.04382" lon="-0.7709">
        <ele>101.8</ele>
        <time>2010-10-10T09:16:02Z</time>
      </trkpt>
      <trkpt lat="48.0437" lon="-0.77093">
        <ele>101</ele>
        <time>2010-10-10T09:16:08Z</time>
      </trkpt>
      <trkpt lat="48.04363" lon="-0.7709">
        <ele>100.8</ele>
        <time>2010-10-10T09:16:11Z</time>
      </trkpt>
      <trkpt lat="48.04362" lon="-0.77088">
        <ele>100.6</ele>
        <time>2010-10-10T09:16:12Z</time>
      </trkpt>
      <trkpt lat="48.04358" lon="-0.77081">
        <ele>100.4</ele>
        <time>2010-10-10T09:16:14Z</time>
      </trkpt>
      <trkpt lat="48.04356" lon="-0.77079">
        <ele>100.2</ele>
        <time>2010-10-10T09:16:15Z</time>
      </trkpt>
      <trkpt lat="48.0435" lon="-0.77074">
        <ele>100</ele>
        <time>2010-10-10T09:16:17Z</time>
      </trkpt>
      <trkpt lat="48.04348" lon="-0.77072">
        <ele>100</ele>
        <time>2010-10-10T09:16:18Z</time>
      </trkpt>
      <trkpt lat="48.04346" lon="-0.77071">
        <ele>99.8</ele>
        <time>2010-10-10T09:16:19Z</time>
      </trkpt>
      <trkpt lat="48.04344" lon="-0.77069">
        <ele>99.8</ele>
        <time>2010-10-10T09:16:20Z</time>
      </trkpt>
      <trkpt lat="48.04338" lon="-0.77061">
        <ele>99.6</ele>
        <time>2010-10-10T09:16:23Z</time>
      </trkpt>
      <trkpt lat="48.04333" lon="-0.77057">
        <ele>99.2</ele>
        <time>2010-10-10T09:16:26Z</time>
      </trkpt>
      <trkpt lat="48.04328" lon="-0.77056">
        <ele>99</ele>
        <time>2010-10-10T09:16:28Z</time>
      </trkpt>
      <trkpt lat="48.04314" lon="-0.77054">
        <ele>98.6</ele>
        <time>2010-10-10T09:16:33Z</time>
      </trkpt>
      <trkpt lat="48.043" lon="-0.77042">
        <ele>98</ele>
        <time>2010-10-10T09:16:38Z</time>
      </trkpt>
      <trkpt lat="48.04297" lon="-0.77041">
        <ele>98</ele>
        <time>2010-10-10T09:16:39Z</time>
      </trkpt>
      <trkpt lat="48.04286" lon="-0.77034">
        <ele>97.6</ele>
        <time>2010-10-10T09:16:43Z</time>
      </trkpt>
      <trkpt lat="48.04281" lon="-0.77028">
        <ele>97.4</ele>
        <time>2010-10-10T09:16:45Z</time>
      </trkpt>
      <trkpt lat="48.04269" lon="-0.77017">
        <ele>97</ele>
        <time>2010-10-10T09:16:49Z</time>
      </trkpt>
      <trkpt lat="48.04264" lon="-0.77015">
        <ele>97</ele>
        <time>2010-10-10T09:16:51Z</time>
      </trkpt>
      <trkpt lat="48.04257" lon="-0.77013">
        <ele>96.8</ele>
        <time>2010-10-10T09:16:54Z</time>
      </trkpt>
      <trkpt lat="48.04246" lon="-0.77013">
        <ele>96.4</ele>
        <time>2010-10-10T09:16:58Z</time>
      </trkpt>
      <trkpt lat="48.04242" lon="-0.77013">
        <ele>96.4</ele>
        <time>2010-10-10T09:16:59Z</time>
      </trkpt>
      <trkpt lat="48.04229" lon="-0.77018">
        <ele>96.2</ele>
        <time>2010-10-10T09:17:02Z</time>
      </trkpt>
      <trkpt lat="48.04226" lon="-0.77022">
        <ele>96.2</ele>
        <time>2010-10-10T09:17:03Z</time>
      </trkpt>
      <trkpt lat="48.04212" lon="-0.77031">
        <ele>96.2</ele>
        <time>2010-10-10T09:17:06Z</time>
      </trkpt>
      <trkpt lat="48.04201" lon="-0.77035">
        <ele>96.2</ele>
        <time>2010-10-10T09:17:08Z</time>
      </trkpt>
      <trkpt lat="48.04195" lon="-0.77037">
        <ele>96.6</ele>
        <time>2010-10-10T09:17:09Z</time>
      </trkpt>
      <trkpt lat="48.04189" lon="-0.77038">
        <ele>96.8</ele>
        <time>2010-10-10T09:17:10Z</time>
      </trkpt>
      <trkpt lat="48.04173" lon="-0.77041">
        <ele>97</ele>
        <time>2010-10-10T09:17:13Z</time>
      </trkpt>
      <trkpt lat="48.04155" lon="-0.77046">
        <ele>97.6</ele>
        <time>2010-10-10T09:17:17Z</time>
      </trkpt>
      <trkpt lat="48.04152" lon="-0.77044">
        <ele>97.6</ele>
        <time>2010-10-10T09:17:18Z</time>
      </trkpt>
      <trkpt lat="48.04136" lon="-0.77036">
        <ele>98</ele>
        <time>2010-10-10T09:17:22Z</time>
      </trkpt>
      <trkpt lat="48.04133" lon="-0.77033">
        <ele>98</ele>
        <time>2010-10-10T09:17:23Z</time>
      </trkpt>
      <trkpt lat="48.04128" lon="-0.77028">
        <ele>97.8</ele>
        <time>2010-10-10T09:17:25Z</time>
      </trkpt>
      <trkpt lat="48.04125" lon="-0.77027">
        <ele>97.8</ele>
        <time>2010-10-10T09:17:26Z</time>
      </trkpt>
      <trkpt lat="48.04112" lon="-0.77027">
        <ele>97.8</ele>
        <time>2010-10-10T09:17:29Z</time>
      </trkpt>
      <trkpt lat="48.04108" lon="-0.77029">
        <ele>97.8</ele>
        <time>2010-10-10T09:17:30Z</time>
      </trkpt>
      <trkpt lat="48.04097" lon="-0.77037">
        <ele>97.4</ele>
        <time>2010-10-10T09:17:34Z</time>
      </trkpt>
      <trkpt lat="48.04095" lon="-0.77042">
        <ele>97.2</ele>
        <time>2010-10-10T09:17:37Z</time>
      </trkpt>
      <trkpt lat="48.04093" lon="-0.77048">
        <ele>96.8</ele>
        <time>2010-10-10T09:17:39Z</time>
      </trkpt>
      <trkpt lat="48.04089" lon="-0.77066">
        <ele>96.4</ele>
        <time>2010-10-10T09:17:44Z</time>
      </trkpt>
      <trkpt lat="48.04087" lon="-0.77071">
        <ele>96.2</ele>
        <time>2010-10-10T09:17:45Z</time>
      </trkpt>
      <trkpt lat="48.04085" lon="-0.77093">
        <ele>95.8</ele>
        <time>2010-10-10T09:17:49Z</time>
      </trkpt>
      <trkpt lat="48.04084" lon="-0.77105">
        <ele>95.4</ele>
        <time>2010-10-10T09:17:52Z</time>
      </trkpt>
      <trkpt lat="48.04085" lon="-0.77109">
        <ele>95.2</ele>
        <time>2010-10-10T09:17:53Z</time>
      </trkpt>
      <trkpt lat="48.04089" lon="-0.77121">
        <ele>94.4</ele>
        <time>2010-10-10T09:17:58Z</time>
      </trkpt>
      <trkpt lat="48.04091" lon="-0.77123">
        <ele>94.4</ele>
        <time>2010-10-10T09:17:59Z</time>
      </trkpt>
      <trkpt lat="48.04094" lon="-0.77132">
        <ele>93.8</ele>
        <time>2010-10-10T09:18:03Z</time>
      </trkpt>
      <trkpt lat="48.04099" lon="-0.77136">
        <ele>93.6</ele>
        <time>2010-10-10T09:18:06Z</time>
      </trkpt>
      <trkpt lat="48.041" lon="-0.77136">
        <ele>93.4</ele>
        <time>2010-10-10T09:18:07Z</time>
      </trkpt>
      <trkpt lat="48.04102" lon="-0.77139">
        <ele>93.2</ele>
        <time>2010-10-10T09:18:11Z</time>
      </trkpt>
      <trkpt lat="48.04103" lon="-0.77141">
        <ele>93</ele>
        <time>2010-10-10T09:18:13Z</time>
      </trkpt>
      <trkpt lat="48.0411" lon="-0.77145">
        <ele>93</ele>
        <time>2010-10-10T09:18:18Z</time>
      </trkpt>
      <trkpt lat="48.04115" lon="-0.77144">
        <ele>93</ele>
        <time>2010-10-10T09:18:21Z</time>
      </trkpt>
      <trkpt lat="48.04119" lon="-0.77145">
        <ele>93.2</ele>
        <time>2010-10-10T09:18:23Z</time>
      </trkpt>
      <trkpt lat="48.04128" lon="-0.77147">
        <ele>94</ele>
        <time>2010-10-10T09:18:28Z</time>
      </trkpt>
      <trkpt lat="48.04134" lon="-0.77144">
        <ele>94.8</ele>
        <time>2010-10-10T09:18:32Z</time>
      </trkpt>
      <trkpt lat="48.04135" lon="-0.77144">
        <ele>94.8</ele>
        <time>2010-10-10T09:18:33Z</time>
      </trkpt>
      <trkpt lat="48.04137" lon="-0.77144">
        <ele>95</ele>
        <time>2010-10-10T09:18:34Z</time>
      </trkpt>
      <trkpt lat="48.04142" lon="-0.77145">
        <ele>95.6</ele>
        <time>2010-10-10T09:18:37Z</time>
      </trkpt>
      <trkpt lat="48.04153" lon="-0.7714">
        <ele>96.8</ele>
        <time>2010-10-10T09:18:43Z</time>
      </trkpt>
      <trkpt lat="48.04155" lon="-0.77138">
        <ele>97.2</ele>
        <time>2010-10-10T09:18:44Z</time>
      </trkpt>
      <trkpt lat="48.04161" lon="-0.77129">
        <ele>98</ele>
        <time>2010-10-10T09:18:47Z</time>
      </trkpt>
      <trkpt lat="48.04171" lon="-0.77121">
        <ele>98.6</ele>
        <time>2010-10-10T09:18:51Z</time>
      </trkpt>
      <trkpt lat="48.04174" lon="-0.77118">
        <ele>98.8</ele>
        <time>2010-10-10T09:18:52Z</time>
      </trkpt>
      <trkpt lat="48.04176" lon="-0.77116">
        <ele>99.2</ele>
        <time>2010-10-10T09:18:53Z</time>
      </trkpt>
      <trkpt lat="48.04184" lon="-0.77106">
        <ele>100.2</ele>
        <time>2010-10-10T09:18:57Z</time>
      </trkpt>
      <trkpt lat="48.04187" lon="-0.77103">
        <ele>100.6</ele>
        <time>2010-10-10T09:18:58Z</time>
      </trkpt>
      <trkpt lat="48.04195" lon="-0.771">
        <ele>101.4</ele>
        <time>2010-10-10T09:19:01Z</time>
      </trkpt>
      <trkpt lat="48.04198" lon="-0.77101">
        <ele>101.6</ele>
        <time>2010-10-10T09:19:02Z</time>
      </trkpt>
      <trkpt lat="48.04206" lon="-0.771">
        <ele>102</ele>
        <time>2010-10-10T09:19:04Z</time>
      </trkpt>
      <trkpt lat="48.04213" lon="-0.77097">
        <ele>102.4</ele>
        <time>2010-10-10T09:19:06Z</time>
      </trkpt>
      <trkpt lat="48.04226" lon="-0.77098">
        <ele>103.2</ele>
        <time>2010-10-10T09:19:10Z</time>
      </trkpt>
      <trkpt lat="48.04229" lon="-0.771">
        <ele>103</ele>
        <time>2010-10-10T09:19:11Z</time>
      </trkpt>
      <trkpt lat="48.04244" lon="-0.77107">
        <ele>102.6</ele>
        <time>2010-10-10T09:19:15Z</time>
      </trkpt>
      <trkpt lat="48.04246" lon="-0.77108">
        <ele>102.6</ele>
        <time>2010-10-10T09:19:16Z</time>
      </trkpt>
      <trkpt lat="48.0426" lon="-0.7711">
        <ele>102.6</ele>
        <time>2010-10-10T09:19:20Z</time>
      </trkpt>
      <trkpt lat="48.04263" lon="-0.7711">
        <ele>102.6</ele>
        <time>2010-10-10T09:19:21Z</time>
      </trkpt>
      <trkpt lat="48.04271" lon="-0.77109">
        <ele>102.4</ele>
        <time>2010-10-10T09:19:23Z</time>
      </trkpt>
      <trkpt lat="48.04281" lon="-0.77113">
        <ele>102.4</ele>
        <time>2010-10-10T09:19:25Z</time>
      </trkpt>
      <trkpt lat="48.04296" lon="-0.77124">
        <ele>102.4</ele>
        <time>2010-10-10T09:19:29Z</time>
      </trkpt>
      <trkpt lat="48.04298" lon="-0.77128">
        <ele>102.6</ele>
        <time>2010-10-10T09:19:30Z</time>
      </trkpt>
      <trkpt lat="48.04298" lon="-0.77137">
        <ele>102.4</ele>
        <time>2010-10-10T09:19:32Z</time>
      </trkpt>
      <trkpt lat="48.04298" lon="-0.77142">
        <ele>102.4</ele>
        <time>2010-10-10T09:19:33Z</time>
      </trkpt>
      <trkpt lat="48.04299" lon="-0.77156">
        <ele>102.2</ele>
        <time>2010-10-10T09:19:36Z</time>
      </trkpt>
      <trkpt lat="48.043" lon="-0.77183">
        <ele>102.4</ele>
        <time>2010-10-10T09:19:41Z</time>
      </trkpt>
      <trkpt lat="48.04302" lon="-0.77216">
        <ele>102.6</ele>
        <time>2010-10-10T09:19:47Z</time>
      </trkpt>
      <trkpt lat="48.04303" lon="-0.77235">
        <ele>103</ele>
        <time>2010-10-10T09:19:51Z</time>
      </trkpt>
      <trkpt lat="48.04303" lon="-0.77238">
        <ele>103</ele>
        <time>2010-10-10T09:19:52Z</time>
      </trkpt>
      <trkpt lat="48.04308" lon="-0.77236">
        <ele>103.4</ele>
        <time>2010-10-10T09:19:54Z</time>
      </trkpt>
      <trkpt lat="48.04312" lon="-0.77235">
        <ele>103.6</ele>
        <time>2010-10-10T09:19:55Z</time>
      </trkpt>
      <trkpt lat="48.04327" lon="-0.77234">
        <ele>104.2</ele>
        <time>2010-10-10T09:19:59Z</time>
      </trkpt>
      <trkpt lat="48.04342" lon="-0.77235">
        <ele>105</ele>
        <time>2010-10-10T09:20:04Z</time>
      </trkpt>
      <trkpt lat="48.04345" lon="-0.77234">
        <ele>104.8</ele>
        <time>2010-10-10T09:20:05Z</time>
      </trkpt>
      <trkpt lat="48.04356" lon="-0.77231">
        <ele>105.6</ele>
        <time>2010-10-10T09:20:08Z</time>
      </trkpt>
      <trkpt lat="48.04364" lon="-0.77224">
        <ele>106.2</ele>
        <time>2010-10-10T09:20:10Z</time>
      </trkpt>
      <trkpt lat="48.04377" lon="-0.77214">
        <ele>107.4</ele>
        <time>2010-10-10T09:20:13Z</time>
      </trkpt>
      <trkpt lat="48.04381" lon="-0.7721">
        <ele>107.8</ele>
        <time>2010-10-10T09:20:14Z</time>
      </trkpt>
      <trkpt lat="48.04386" lon="-0.77207">
        <ele>108.2</ele>
        <time>2010-10-10T09:20:15Z</time>
      </trkpt>
      <trkpt lat="48.04395" lon="-0.77204">
        <ele>109.2</ele>
        <time>2010-10-10T09:20:17Z</time>
      </trkpt>
      <trkpt lat="48.044" lon="-0.77202">
        <ele>109.8</ele>
        <time>2010-10-10T09:20:18Z</time>
      </trkpt>
      <trkpt lat="48.04408" lon="-0.772">
        <ele>110.8</ele>
        <time>2010-10-10T09:20:20Z</time>
      </trkpt>
      <trkpt lat="48.04415" lon="-0.772">
        <ele>111.6</ele>
        <time>2010-10-10T09:20:22Z</time>
      </trkpt>
      <trkpt lat="48.04418" lon="-0.77198">
        <ele>112.4</ele>
        <time>2010-10-10T09:20:23Z</time>
      </trkpt>
      <trkpt lat="48.04421" lon="-0.77198">
        <ele>113</ele>
        <time>2010-10-10T09:20:24Z</time>
      </trkpt>
      <trkpt lat="48.04427" lon="-0.77194">
        <ele>114</ele>
        <time>2010-10-10T09:20:26Z</time>
      </trkpt>
      <trkpt lat="48.0444" lon="-0.77188">
        <ele>116.4</ele>
        <time>2010-10-10T09:20:30Z</time>
      </trkpt>
      <trkpt lat="48.04444" lon="-0.77185">
        <ele>118.4</ele>
        <time>2010-10-10T09:20:33Z</time>
      </trkpt>
      <trkpt lat="48.04445" lon="-0.77185">
        <ele>119.2</ele>
        <time>2010-10-10T09:20:34Z</time>
      </trkpt>
      <trkpt lat="48.04447" lon="-0.77191">
        <ele>122.8</ele>
        <time>2010-10-10T09:20:38Z</time>
      </trkpt>
      <trkpt lat="48.04447" lon="-0.77194">
        <ele>123.6</ele>
        <time>2010-10-10T09:20:39Z</time>
      </trkpt>
      <trkpt lat="48.04452" lon="-0.77211">
        <ele>125.6</ele>
        <time>2010-10-10T09:20:42Z</time>
      </trkpt>
      <trkpt lat="48.04452" lon="-0.77218">
        <ele>126.4</ele>
        <time>2010-10-10T09:20:43Z</time>
      </trkpt>
      <trkpt lat="48.04452" lon="-0.77237">
        <ele>128.6</ele>
        <time>2010-10-10T09:20:46Z</time>
      </trkpt>
      <trkpt lat="48.0445" lon="-0.77242">
        <ele>129.2</ele>
        <time>2010-10-10T09:20:47Z</time>
      </trkpt>
      <trkpt lat="48.0445" lon="-0.77248">
        <ele>129.8</ele>
        <time>2010-10-10T09:20:48Z</time>
      </trkpt>
      <trkpt lat="48.0445" lon="-0.77267">
        <ele>131.6</ele>
        <time>2010-10-10T09:20:51Z</time>
      </trkpt>
      <trkpt lat="48.04451" lon="-0.77277">
        <ele>132.6</ele>
        <time>2010-10-10T09:20:53Z</time>
      </trkpt>
      <trkpt lat="48.04455" lon="-0.77304">
        <ele>135</ele>
        <time>2010-10-10T09:20:58Z</time>
      </trkpt>
      <trkpt lat="48.04458" lon="-0.77326">
        <ele>136</ele>
        <time>2010-10-10T09:21:02Z</time>
      </trkpt>
      <trkpt lat="48.04457" lon="-0.77332">
        <ele>136.2</ele>
        <time>2010-10-10T09:21:03Z</time>
      </trkpt>
      <trkpt lat="48.04454" lon="-0.77343">
        <ele>136.4</ele>
        <time>2010-10-10T09:21:05Z</time>
      </trkpt>
      <trkpt lat="48.04451" lon="-0.77352">
        <ele>136.8</ele>
        <time>2010-10-10T09:21:07Z</time>
      </trkpt>
      <trkpt lat="48.04447" lon="-0.7736">
        <ele>137</ele>
        <time>2010-10-10T09:21:09Z</time>
      </trkpt>
      <trkpt lat="48.04445" lon="-0.7737">
        <ele>137</ele>
        <time>2010-10-10T09:21:11Z</time>
      </trkpt>
      <trkpt lat="48.0444" lon="-0.77388">
        <ele>137</ele>
        <time>2010-10-10T09:21:14Z</time>
      </trkpt>
      <trkpt lat="48.04442" lon="-0.77395">
        <ele>136.8</ele>
        <time>2010-10-10T09:21:15Z</time>
      </trkpt>
      <trkpt lat="48.04439" lon="-0.77413">
        <ele>136.6</ele>
        <time>2010-10-10T09:21:19Z</time>
      </trkpt>
      <trkpt lat="48.04441" lon="-0.77413">
        <ele>136.4</ele>
        <time>2010-10-10T09:21:20Z</time>
      </trkpt>
      <trkpt lat="48.0445" lon="-0.77416">
        <ele>135.6</ele>
        <time>2010-10-10T09:21:22Z</time>
      </trkpt>
      <trkpt lat="48.04451" lon="-0.77417">
        <ele>135.4</ele>
        <time>2010-10-10T09:21:23Z</time>
      </trkpt>
      <trkpt lat="48.04445" lon="-0.77417">
        <ele>134.4</ele>
        <time>2010-10-10T09:21:27Z</time>
      </trkpt>
      <trkpt lat="48.04442" lon="-0.77415">
        <ele>134.2</ele>
        <time>2010-10-10T09:21:28Z</time>
      </trkpt>
      <trkpt lat="48.04439" lon="-0.77416">
        <ele>133.6</ele>
        <time>2010-10-10T09:21:30Z</time>
      </trkpt>
      <trkpt lat="48.04439" lon="-0.77417">
        <ele>133.2</ele>
        <time>2010-10-10T09:21:31Z</time>
      </trkpt>
      <trkpt lat="48.04433" lon="-0.77416">
        <ele>132.4</ele>
        <time>2010-10-10T09:21:34Z</time>
      </trkpt>
      <trkpt lat="48.04431" lon="-0.77414">
        <ele>132</ele>
        <time>2010-10-10T09:21:36Z</time>
      </trkpt>
      <trkpt lat="48.04428" lon="-0.77413">
        <ele>131.4</ele>
        <time>2010-10-10T09:21:38Z</time>
      </trkpt>
      <trkpt lat="48.04416" lon="-0.77413">
        <ele>130.4</ele>
        <time>2010-10-10T09:21:41Z</time>
      </trkpt>
      <trkpt lat="48.04408" lon="-0.77411">
        <ele>129.8</ele>
        <time>2010-10-10T09:21:43Z</time>
      </trkpt>
      <trkpt lat="48.04395" lon="-0.77405">
        <ele>128.6</ele>
        <time>2010-10-10T09:21:46Z</time>
      </trkpt>
      <trkpt lat="48.0439" lon="-0.77405">
        <ele>128.2</ele>
        <time>2010-10-10T09:21:47Z</time>
      </trkpt>
      <trkpt lat="48.04375" lon="-0.77407">
        <ele>127.2</ele>
        <time>2010-10-10T09:21:50Z</time>
      </trkpt>
      <trkpt lat="48.04371" lon="-0.77407">
        <ele>126.8</ele>
        <time>2010-10-10T09:21:51Z</time>
      </trkpt>
      <trkpt lat="48.04367" lon="-0.77407">
        <ele>126.6</ele>
        <time>2010-10-10T09:21:52Z</time>
      </trkpt>
      <trkpt lat="48.04359" lon="-0.77406">
        <ele>126</ele>
        <time>2010-10-10T09:21:54Z</time>
      </trkpt>
      <trkpt lat="48.04348" lon="-0.77407">
        <ele>125.2</ele>
        <time>2010-10-10T09:21:57Z</time>
      </trkpt>
      <trkpt lat="48.04342" lon="-0.77407">
        <ele>124.6</ele>
        <time>2010-10-10T09:21:59Z</time>
      </trkpt>
      <trkpt lat="48.04337" lon="-0.77406">
        <ele>123.8</ele>
        <time>2010-10-10T09:22:01Z</time>
      </trkpt>
      <trkpt lat="48.04328" lon="-0.77405">
        <ele>123</ele>
        <time>2010-10-10T09:22:04Z</time>
      </trkpt>
      <trkpt lat="48.04309" lon="-0.77403">
        <ele>121.8</ele>
        <time>2010-10-10T09:22:09Z</time>
      </trkpt>
      <trkpt lat="48.04307" lon="-0.77404">
        <ele>121.6</ele>
        <time>2010-10-10T09:22:10Z</time>
      </trkpt>
      <trkpt lat="48.04299" lon="-0.77416">
        <ele>120.6</ele>
        <time>2010-10-10T09:22:15Z</time>
      </trkpt>
      <trkpt lat="48.04298" lon="-0.7742">
        <ele>120.4</ele>
        <time>2010-10-10T09:22:16Z</time>
      </trkpt>
      <trkpt lat="48.04297" lon="-0.7743">
        <ele>120</ele>
        <time>2010-10-10T09:22:18Z</time>
      </trkpt>
      <trkpt lat="48.04296" lon="-0.77443">
        <ele>119.6</ele>
        <time>2010-10-10T09:22:21Z</time>
      </trkpt>
      <trkpt lat="48.04296" lon="-0.77448">
        <ele>119.4</ele>
        <time>2010-10-10T09:22:22Z</time>
      </trkpt>
      <trkpt lat="48.04295" lon="-0.7747">
        <ele>118.6</ele>
        <time>2010-10-10T09:22:27Z</time>
      </trkpt>
      <trkpt lat="48.04294" lon="-0.77478">
        <ele>118.4</ele>
        <time>2010-10-10T09:22:29Z</time>
      </trkpt>
      <trkpt lat="48.04292" lon="-0.77491">
        <ele>118</ele>
        <time>2010-10-10T09:22:32Z</time>
      </trkpt>
      <trkpt lat="48.04291" lon="-0.77504">
        <ele>117.6</ele>
        <time>2010-10-10T09:22:35Z</time>
      </trkpt>
      <trkpt lat="48.0429" lon="-0.77513">
        <ele>117.4</ele>
        <time>2010-10-10T09:22:37Z</time>
      </trkpt>
      <trkpt lat="48.0429" lon="-0.77532">
        <ele>117</ele>
        <time>2010-10-10T09:22:41Z</time>
      </trkpt>
      <trkpt lat="48.04291" lon="-0.77537">
        <ele>116.8</ele>
        <time>2010-10-10T09:22:42Z</time>
      </trkpt>
      <trkpt lat="48.04287" lon="-0.77559">
        <ele>116.4</ele>
        <time>2010-10-10T09:22:46Z</time>
      </trkpt>
      <trkpt lat="48.04286" lon="-0.77564">
        <ele>116.2</ele>
        <time>2010-10-10T09:22:47Z</time>
      </trkpt>
      <trkpt lat="48.04286" lon="-0.77581">
        <ele>115.8</ele>
        <time>2010-10-10T09:22:51Z</time>
      </trkpt>
      <trkpt lat="48.04286" lon="-0.77589">
        <ele>115.4</ele>
        <time>2010-10-10T09:22:53Z</time>
      </trkpt>
      <trkpt lat="48.04287" lon="-0.77602">
        <ele>115.2</ele>
        <time>2010-10-10T09:22:56Z</time>
      </trkpt>
      <trkpt lat="48.04285" lon="-0.77619">
        <ele>114.6</ele>
        <time>2010-10-10T09:23:00Z</time>
      </trkpt>
      <trkpt lat="48.04284" lon="-0.77635">
        <ele>114</ele>
        <time>2010-10-10T09:23:04Z</time>
      </trkpt>
      <trkpt lat="48.04282" lon="-0.77644">
        <ele>113.8</ele>
        <time>2010-10-10T09:23:06Z</time>
      </trkpt>
      <trkpt lat="48.04282" lon="-0.77659">
        <ele>113.4</ele>
        <time>2010-10-10T09:23:09Z</time>
      </trkpt>
      <trkpt lat="48.0428" lon="-0.77674">
        <ele>113</ele>
        <time>2010-10-10T09:23:12Z</time>
      </trkpt>
      <trkpt lat="48.04279" lon="-0.77685">
        <ele>113</ele>
        <time>2010-10-10T09:23:14Z</time>
      </trkpt>
      <trkpt lat="48.04279" lon="-0.77702">
        <ele>112.6</ele>
        <time>2010-10-10T09:23:17Z</time>
      </trkpt>
      <trkpt lat="48.04278" lon="-0.77711">
        <ele>112.4</ele>
        <time>2010-10-10T09:23:19Z</time>
      </trkpt>
      <trkpt lat="48.04278" lon="-0.77732">
        <ele>112</ele>
        <time>2010-10-10T09:23:24Z</time>
      </trkpt>
      <trkpt lat="48.04288" lon="-0.77746">
        <ele>111.6</ele>
        <time>2010-10-10T09:23:29Z</time>
      </trkpt>
      <trkpt lat="48.04292" lon="-0.77746">
        <ele>111.4</ele>
        <time>2010-10-10T09:23:31Z</time>
      </trkpt>
      <trkpt lat="48.04298" lon="-0.7775">
        <ele>111.2</ele>
        <time>2010-10-10T09:23:33Z</time>
      </trkpt>
      <trkpt lat="48.04311" lon="-0.77757">
        <ele>111</ele>
        <time>2010-10-10T09:23:37Z</time>
      </trkpt>
      <trkpt lat="48.04313" lon="-0.77759">
        <ele>111</ele>
        <time>2010-10-10T09:23:38Z</time>
      </trkpt>
      <trkpt lat="48.04329" lon="-0.77766">
        <ele>110.6</ele>
        <time>2010-10-10T09:23:42Z</time>
      </trkpt>
      <trkpt lat="48.04341" lon="-0.77766">
        <ele>110.4</ele>
        <time>2010-10-10T09:23:45Z</time>
      </trkpt>
      <trkpt lat="48.04345" lon="-0.77766">
        <ele>110.4</ele>
        <time>2010-10-10T09:23:46Z</time>
      </trkpt>
      <trkpt lat="48.04349" lon="-0.77767">
        <ele>110.4</ele>
        <time>2010-10-10T09:23:47Z</time>
      </trkpt>
      <trkpt lat="48.04361" lon="-0.77774">
        <ele>110.4</ele>
        <time>2010-10-10T09:23:50Z</time>
      </trkpt>
      <trkpt lat="48.04364" lon="-0.77777">
        <ele>110.4</ele>
        <time>2010-10-10T09:23:51Z</time>
      </trkpt>
      <trkpt lat="48.04377" lon="-0.7778">
        <ele>110.4</ele>
        <time>2010-10-10T09:23:54Z</time>
      </trkpt>
      <trkpt lat="48.04381" lon="-0.77781">
        <ele>110.2</ele>
        <time>2010-10-10T09:23:55Z</time>
      </trkpt>
      <trkpt lat="48.04385" lon="-0.77782">
        <ele>110.2</ele>
        <time>2010-10-10T09:23:56Z</time>
      </trkpt>
      <trkpt lat="48.04389" lon="-0.77783">
        <ele>110</ele>
        <time>2010-10-10T09:23:57Z</time>
      </trkpt>
      <trkpt lat="48.04403" lon="-0.77784">
        <ele>110</ele>
        <time>2010-10-10T09:23:59Z</time>
      </trkpt>
      <trkpt lat="48.0442" lon="-0.77787">
        <ele>109.8</ele>
        <time>2010-10-10T09:24:02Z</time>
      </trkpt>
      <trkpt lat="48.04426" lon="-0.77788">
        <ele>109.8</ele>
        <time>2010-10-10T09:24:03Z</time>
      </trkpt>
      <trkpt lat="48.04446" lon="-0.7779">
        <ele>109.6</ele>
        <time>2010-10-10T09:24:07Z</time>
      </trkpt>
      <trkpt lat="48.04456" lon="-0.77791">
        <ele>109.6</ele>
        <time>2010-10-10T09:24:09Z</time>
      </trkpt>
      <trkpt lat="48.04465" lon="-0.77792">
        <ele>109.4</ele>
        <time>2010-10-10T09:24:11Z</time>
      </trkpt>
      <trkpt lat="48.04478" lon="-0.77793">
        <ele>109.4</ele>
        <time>2010-10-10T09:24:14Z</time>
      </trkpt>
      <trkpt lat="48.04483" lon="-0.77794">
        <ele>109.4</ele>
        <time>2010-10-10T09:24:15Z</time>
      </trkpt>
      <trkpt lat="48.04502" lon="-0.77795">
        <ele>109.2</ele>
        <time>2010-10-10T09:24:19Z</time>
      </trkpt>
      <trkpt lat="48.04506" lon="-0.77795">
        <ele>109</ele>
        <time>2010-10-10T09:24:20Z</time>
      </trkpt>
      <trkpt lat="48.04519" lon="-0.77797">
        <ele>109</ele>
        <time>2010-10-10T09:24:23Z</time>
      </trkpt>
      <trkpt lat="48.04524" lon="-0.77798">
        <ele>109</ele>
        <time>2010-10-10T09:24:24Z</time>
      </trkpt>
      <trkpt lat="48.04528" lon="-0.77798">
        <ele>108.8</ele>
        <time>2010-10-10T09:24:25Z</time>
      </trkpt>
      <trkpt lat="48.04542" lon="-0.778">
        <ele>108.8</ele>
        <time>2010-10-10T09:24:28Z</time>
      </trkpt>
      <trkpt lat="48.04546" lon="-0.778">
        <ele>108.8</ele>
        <time>2010-10-10T09:24:29Z</time>
      </trkpt>
      <trkpt lat="48.04554" lon="-0.778">
        <ele>108.8</ele>
        <time>2010-10-10T09:24:31Z</time>
      </trkpt>
      <trkpt lat="48.04562" lon="-0.77801">
        <ele>108.6</ele>
        <time>2010-10-10T09:24:33Z</time>
      </trkpt>
      <trkpt lat="48.0457" lon="-0.77802">
        <ele>108.6</ele>
        <time>2010-10-10T09:24:35Z</time>
      </trkpt>
      <trkpt lat="48.04578" lon="-0.77802">
        <ele>108.6</ele>
        <time>2010-10-10T09:24:37Z</time>
      </trkpt>
      <trkpt lat="48.04583" lon="-0.77802">
        <ele>108.6</ele>
        <time>2010-10-10T09:24:38Z</time>
      </trkpt>
      <trkpt lat="48.04591" lon="-0.77803">
        <ele>108.6</ele>
        <time>2010-10-10T09:24:40Z</time>
      </trkpt>
      <trkpt lat="48.04598" lon="-0.77803">
        <ele>108.4</ele>
        <time>2010-10-10T09:24:42Z</time>
      </trkpt>
      <trkpt lat="48.04602" lon="-0.77803">
        <ele>108.4</ele>
        <time>2010-10-10T09:24:43Z</time>
      </trkpt>
      <trkpt lat="48.04609" lon="-0.77801">
        <ele>108.4</ele>
        <time>2010-10-10T09:24:45Z</time>
      </trkpt>
      <trkpt lat="48.04621" lon="-0.77799">
        <ele>108.4</ele>
        <time>2010-10-10T09:24:50Z</time>
      </trkpt>
      <trkpt lat="48.04625" lon="-0.77805">
        <ele>108.6</ele>
        <time>2010-10-10T09:25:03Z</time>
      </trkpt>
      <trkpt lat="48.04627" lon="-0.77807">
        <ele>108.6</ele>
        <time>2010-10-10T09:25:04Z</time>
      </trkpt>
      <trkpt lat="48.0464" lon="-0.77814">
        <ele>109.2</ele>
        <time>2010-10-10T09:25:08Z</time>
      </trkpt>
      <trkpt lat="48.04644" lon="-0.77816">
        <ele>109.4</ele>
        <time>2010-10-10T09:25:09Z</time>
      </trkpt>
      <trkpt lat="48.04658" lon="-0.77823">
        <ele>110.4</ele>
        <time>2010-10-10T09:25:13Z</time>
      </trkpt>
      <trkpt lat="48.04662" lon="-0.77824">
        <ele>110.6</ele>
        <time>2010-10-10T09:25:14Z</time>
      </trkpt>
      <trkpt lat="48.04672" lon="-0.77825">
        <ele>111.6</ele>
        <time>2010-10-10T09:25:18Z</time>
      </trkpt>
      <trkpt lat="48.04681" lon="-0.7782">
        <ele>112.6</ele>
        <time>2010-10-10T09:25:22Z</time>
      </trkpt>
      <trkpt lat="48.04683" lon="-0.77818">
        <ele>112.8</ele>
        <time>2010-10-10T09:25:23Z</time>
      </trkpt>
      <trkpt lat="48.04694" lon="-0.77808">
        <ele>114</ele>
        <time>2010-10-10T09:25:27Z</time>
      </trkpt>
      <trkpt lat="48.04697" lon="-0.77806">
        <ele>114.2</ele>
        <time>2010-10-10T09:25:28Z</time>
      </trkpt>
      <trkpt lat="48.04704" lon="-0.77803">
        <ele>114.8</ele>
        <time>2010-10-10T09:25:31Z</time>
      </trkpt>
      <trkpt lat="48.04714" lon="-0.77805">
        <ele>115.4</ele>
        <time>2010-10-10T09:25:36Z</time>
      </trkpt>
      <trkpt lat="48.04716" lon="-0.77802">
        <ele>115.6</ele>
        <time>2010-10-10T09:25:37Z</time>
      </trkpt>
      <trkpt lat="48.04723" lon="-0.77795">
        <ele>116.2</ele>
        <time>2010-10-10T09:25:40Z</time>
      </trkpt>
      <trkpt lat="48.04733" lon="-0.77788">
        <ele>116.2</ele>
        <time>2010-10-10T09:25:43Z</time>
      </trkpt>
      <trkpt lat="48.0474" lon="-0.77784">
        <ele>116.4</ele>
        <time>2010-10-10T09:25:45Z</time>
      </trkpt>
      <trkpt lat="48.0475" lon="-0.77778">
        <ele>116.6</ele>
        <time>2010-10-10T09:25:47Z</time>
      </trkpt>
      <trkpt lat="48.04761" lon="-0.77774">
        <ele>116.4</ele>
        <time>2010-10-10T09:25:49Z</time>
      </trkpt>
      <trkpt lat="48.04766" lon="-0.77771">
        <ele>116.4</ele>
        <time>2010-10-10T09:25:50Z</time>
      </trkpt>
      <trkpt lat="48.04771" lon="-0.77768">
        <ele>116.4</ele>
        <time>2010-10-10T09:25:51Z</time>
      </trkpt>
      <trkpt lat="48.04776" lon="-0.77759">
        <ele>116.2</ele>
        <time>2010-10-10T09:25:53Z</time>
      </trkpt>
      <trkpt lat="48.04779" lon="-0.77755">
        <ele>116.2</ele>
        <time>2010-10-10T09:25:54Z</time>
      </trkpt>
      <trkpt lat="48.04784" lon="-0.77747">
        <ele>116.2</ele>
        <time>2010-10-10T09:25:56Z</time>
      </trkpt>
      <trkpt lat="48.0479" lon="-0.77739">
        <ele>116.2</ele>
        <time>2010-10-10T09:25:58Z</time>
      </trkpt>
      <trkpt lat="48.04794" lon="-0.77736">
        <ele>116.2</ele>
        <time>2010-10-10T09:25:59Z</time>
      </trkpt>
      <trkpt lat="48.048" lon="-0.77734">
        <ele>116</ele>
        <time>2010-10-10T09:26:01Z</time>
      </trkpt>
      <trkpt lat="48.04807" lon="-0.77736">
        <ele>115.8</ele>
        <time>2010-10-10T09:26:03Z</time>
      </trkpt>
      <trkpt lat="48.04815" lon="-0.77748">
        <ele>115.6</ele>
        <time>2010-10-10T09:26:06Z</time>
      </trkpt>
      <trkpt lat="48.04816" lon="-0.77753">
        <ele>115.4</ele>
        <time>2010-10-10T09:26:07Z</time>
      </trkpt>
      <trkpt lat="48.04823" lon="-0.77777">
        <ele>115.2</ele>
        <time>2010-10-10T09:26:11Z</time>
      </trkpt>
      <trkpt lat="48.04828" lon="-0.7779">
        <ele>115</ele>
        <time>2010-10-10T09:26:13Z</time>
      </trkpt>
      <trkpt lat="48.04832" lon="-0.77803">
        <ele>114.8</ele>
        <time>2010-10-10T09:26:15Z</time>
      </trkpt>
      <trkpt lat="48.04836" lon="-0.77816">
        <ele>114.6</ele>
        <time>2010-10-10T09:26:17Z</time>
      </trkpt>
      <trkpt lat="48.04838" lon="-0.77829">
        <ele>114.4</ele>
        <time>2010-10-10T09:26:19Z</time>
      </trkpt>
      <trkpt lat="48.04838" lon="-0.77835">
        <ele>114.4</ele>
        <time>2010-10-10T09:26:20Z</time>
      </trkpt>
      <trkpt lat="48.04844" lon="-0.77862">
        <ele>114</ele>
        <time>2010-10-10T09:26:24Z</time>
      </trkpt>
      <trkpt lat="48.04845" lon="-0.77868">
        <ele>114</ele>
        <time>2010-10-10T09:26:25Z</time>
      </trkpt>
      <trkpt lat="48.0485" lon="-0.7789">
        <ele>113.6</ele>
        <time>2010-10-10T09:26:29Z</time>
      </trkpt>
      <trkpt lat="48.04853" lon="-0.77903">
        <ele>113.4</ele>
        <time>2010-10-10T09:26:31Z</time>
      </trkpt>
      <trkpt lat="48.04858" lon="-0.77918">
        <ele>113</ele>
        <time>2010-10-10T09:26:33Z</time>
      </trkpt>
      <trkpt lat="48.04863" lon="-0.77942">
        <ele>112.8</ele>
        <time>2010-10-10T09:26:36Z</time>
      </trkpt>
      <trkpt lat="48.04865" lon="-0.7795">
        <ele>112.6</ele>
        <time>2010-10-10T09:26:37Z</time>
      </trkpt>
      <trkpt lat="48.04873" lon="-0.77982">
        <ele>112</ele>
        <time>2010-10-10T09:26:41Z</time>
      </trkpt>
      <trkpt lat="48.04874" lon="-0.77989">
        <ele>111.8</ele>
        <time>2010-10-10T09:26:42Z</time>
      </trkpt>
      <trkpt lat="48.04875" lon="-0.77995">
        <ele>111.6</ele>
        <time>2010-10-10T09:26:43Z</time>
      </trkpt>
      <trkpt lat="48.04876" lon="-0.7801">
        <ele>111.2</ele>
        <time>2010-10-10T09:26:46Z</time>
      </trkpt>
      <trkpt lat="48.04875" lon="-0.78014">
        <ele>111</ele>
        <time>2010-10-10T09:26:47Z</time>
      </trkpt>
      <trkpt lat="48.04867" lon="-0.78026">
        <ele>110.4</ele>
        <time>2010-10-10T09:26:50Z</time>
      </trkpt>
      <trkpt lat="48.04865" lon="-0.78028">
        <ele>110.2</ele>
        <time>2010-10-10T09:26:51Z</time>
      </trkpt>
      <trkpt lat="48.04862" lon="-0.78035">
        <ele>110</ele>
        <time>2010-10-10T09:26:53Z</time>
      </trkpt>
      <trkpt lat="48.0486" lon="-0.78044">
        <ele>109.6</ele>
        <time>2010-10-10T09:26:55Z</time>
      </trkpt>
      <trkpt lat="48.04857" lon="-0.78065">
        <ele>109</ele>
        <time>2010-10-10T09:26:59Z</time>
      </trkpt>
      <trkpt lat="48.04854" lon="-0.78075">
        <ele>108.8</ele>
        <time>2010-10-10T09:27:01Z</time>
      </trkpt>
      <trkpt lat="48.04849" lon="-0.78092">
        <ele>108.2</ele>
        <time>2010-10-10T09:27:05Z</time>
      </trkpt>
      <trkpt lat="48.04848" lon="-0.78095">
        <ele>108</ele>
        <time>2010-10-10T09:27:06Z</time>
      </trkpt>
      <trkpt lat="48.04846" lon="-0.78109">
        <ele>107.6</ele>
        <time>2010-10-10T09:27:09Z</time>
      </trkpt>
      <trkpt lat="48.04848" lon="-0.78124">
        <ele>107</ele>
        <time>2010-10-10T09:27:14Z</time>
      </trkpt>
      <trkpt lat="48.04841" lon="-0.78134">
        <ele>106.8</ele>
        <time>2010-10-10T09:27:19Z</time>
      </trkpt>
      <trkpt lat="48.04832" lon="-0.78137">
        <ele>106.4</ele>
        <time>2010-10-10T09:27:24Z</time>
      </trkpt>
      <trkpt lat="48.0483" lon="-0.78138">
        <ele>106.4</ele>
        <time>2010-10-10T09:27:25Z</time>
      </trkpt>
      <trkpt lat="48.04823" lon="-0.7814">
        <ele>105.8</ele>
        <time>2010-10-10T09:27:30Z</time>
      </trkpt>
      <trkpt lat="48.04819" lon="-0.78143">
        <ele>105.6</ele>
        <time>2010-10-10T09:27:33Z</time>
      </trkpt>
      <trkpt lat="48.04815" lon="-0.78145">
        <ele>105.4</ele>
        <time>2010-10-10T09:27:36Z</time>
      </trkpt>
      <trkpt lat="48.04813" lon="-0.78147">
        <ele>105.4</ele>
        <time>2010-10-10T09:27:37Z</time>
      </trkpt>
      <trkpt lat="48.04805" lon="-0.7815">
        <ele>104.8</ele>
        <time>2010-10-10T09:27:43Z</time>
      </trkpt>
      <trkpt lat="48.04801" lon="-0.78151">
        <ele>104.6</ele>
        <time>2010-10-10T09:27:45Z</time>
      </trkpt>
      <trkpt lat="48.048" lon="-0.78152">
        <ele>104.4</ele>
        <time>2010-10-10T09:27:46Z</time>
      </trkpt>
      <trkpt lat="48.04797" lon="-0.78154">
        <ele>104.2</ele>
        <time>2010-10-10T09:27:48Z</time>
      </trkpt>
      <trkpt lat="48.04795" lon="-0.78155">
        <ele>104.2</ele>
        <time>2010-10-10T09:27:49Z</time>
      </trkpt>
      <trkpt lat="48.04787" lon="-0.7816">
        <ele>103.4</ele>
        <time>2010-10-10T09:27:55Z</time>
      </trkpt>
      <trkpt lat="48.04785" lon="-0.78161">
        <ele>103.4</ele>
        <time>2010-10-10T09:27:56Z</time>
      </trkpt>
      <trkpt lat="48.04779" lon="-0.78163">
        <ele>103</ele>
        <time>2010-10-10T09:27:59Z</time>
      </trkpt>
      <trkpt lat="48.0477" lon="-0.7817">
        <ele>102.4</ele>
        <time>2010-10-10T09:28:04Z</time>
      </trkpt>
      <trkpt lat="48.04763" lon="-0.78176">
        <ele>101.8</ele>
        <time>2010-10-10T09:28:08Z</time>
      </trkpt>
      <trkpt lat="48.04761" lon="-0.78181">
        <ele>101.6</ele>
        <time>2010-10-10T09:28:10Z</time>
      </trkpt>
      <trkpt lat="48.04757" lon="-0.78193">
        <ele>101.2</ele>
        <time>2010-10-10T09:28:14Z</time>
      </trkpt>
      <trkpt lat="48.04752" lon="-0.78198">
        <ele>101</ele>
        <time>2010-10-10T09:28:16Z</time>
      </trkpt>
      <trkpt lat="48.04749" lon="-0.78197">
        <ele>101</ele>
        <time>2010-10-10T09:28:17Z</time>
      </trkpt>
      <trkpt lat="48.04746" lon="-0.78196">
        <ele>100.8</ele>
        <time>2010-10-10T09:28:19Z</time>
      </trkpt>
      <trkpt lat="48.04738" lon="-0.78197">
        <ele>100.6</ele>
        <time>2010-10-10T09:28:23Z</time>
      </trkpt>
      <trkpt lat="48.04736" lon="-0.78198">
        <ele>100.6</ele>
        <time>2010-10-10T09:28:24Z</time>
      </trkpt>
      <trkpt lat="48.04734" lon="-0.782">
        <ele>100.4</ele>
        <time>2010-10-10T09:28:25Z</time>
      </trkpt>
      <trkpt lat="48.04725" lon="-0.78201">
        <ele>100.2</ele>
        <time>2010-10-10T09:28:29Z</time>
      </trkpt>
      <trkpt lat="48.04714" lon="-0.78199">
        <ele>100</ele>
        <time>2010-10-10T09:28:33Z</time>
      </trkpt>
      <trkpt lat="48.04707" lon="-0.78198">
        <ele>100</ele>
        <time>2010-10-10T09:28:36Z</time>
      </trkpt>
      <trkpt lat="48.04697" lon="-0.78196">
        <ele>100</ele>
        <time>2010-10-10T09:28:39Z</time>
      </trkpt>
      <trkpt lat="48.04687" lon="-0.78194">
        <ele>100.4</ele>
        <time>2010-10-10T09:28:42Z</time>
      </trkpt>
      <trkpt lat="48.04678" lon="-0.78191">
        <ele>100.6</ele>
        <time>2010-10-10T09:28:45Z</time>
      </trkpt>
      <trkpt lat="48.04668" lon="-0.7819">
        <ele>101</ele>
        <time>2010-10-10T09:28:48Z</time>
      </trkpt>
      <trkpt lat="48.04661" lon="-0.78189">
        <ele>101.2</ele>
        <time>2010-10-10T09:28:50Z</time>
      </trkpt>
      <trkpt lat="48.04645" lon="-0.78186">
        <ele>101.4</ele>
        <time>2010-10-10T09:28:54Z</time>
      </trkpt>
      <trkpt lat="48.04641" lon="-0.78186">
        <ele>101.2</ele>
        <time>2010-10-10T09:28:55Z</time>
      </trkpt>
      <trkpt lat="48.04626" lon="-0.78184">
        <ele>101.4</ele>
        <time>2010-10-10T09:28:59Z</time>
      </trkpt>
      <trkpt lat="48.0462" lon="-0.78184">
        <ele>101.2</ele>
        <time>2010-10-10T09:29:01Z</time>
      </trkpt>
      <trkpt lat="48.04609" lon="-0.78182">
        <ele>101.2</ele>
        <time>2010-10-10T09:29:04Z</time>
      </trkpt>
      <trkpt lat="48.04602" lon="-0.78185">
        <ele>101.4</ele>
        <time>2010-10-10T09:29:06Z</time>
      </trkpt>
      <trkpt lat="48.046" lon="-0.78188">
        <ele>101.4</ele>
        <time>2010-10-10T09:29:07Z</time>
      </trkpt>
      <trkpt lat="48.04598" lon="-0.78189">
        <ele>101.8</ele>
        <time>2010-10-10T09:29:08Z</time>
      </trkpt>
      <trkpt lat="48.04595" lon="-0.78193">
        <ele>102.2</ele>
        <time>2010-10-10T09:29:10Z</time>
      </trkpt>
      <trkpt lat="48.04593" lon="-0.78196">
        <ele>102.8</ele>
        <time>2010-10-10T09:29:13Z</time>
      </trkpt>
      <trkpt lat="48.0459" lon="-0.78214">
        <ele>104.8</ele>
        <time>2010-10-10T09:29:22Z</time>
      </trkpt>
      <trkpt lat="48.04588" lon="-0.78242">
        <ele>105.4</ele>
        <time>2010-10-10T09:29:26Z</time>
      </trkpt>
      <trkpt lat="48.04585" lon="-0.78275">
        <ele>106</ele>
        <time>2010-10-10T09:29:30Z</time>
      </trkpt>
      <trkpt lat="48.04585" lon="-0.78283">
        <ele>106.2</ele>
        <time>2010-10-10T09:29:31Z</time>
      </trkpt>
      <trkpt lat="48.04584" lon="-0.78291">
        <ele>106.2</ele>
        <time>2010-10-10T09:29:32Z</time>
      </trkpt>
      <trkpt lat="48.04582" lon="-0.78305">
        <ele>106.4</ele>
        <time>2010-10-10T09:29:34Z</time>
      </trkpt>
      <trkpt lat="48.04581" lon="-0.78309">
        <ele>106.4</ele>
        <time>2010-10-10T09:29:35Z</time>
      </trkpt>
      <trkpt lat="48.04574" lon="-0.78306">
        <ele>106.4</ele>
        <time>2010-10-10T09:29:38Z</time>
      </trkpt>
      <trkpt lat="48.04569" lon="-0.78297">
        <ele>106.4</ele>
        <time>2010-10-10T09:29:40Z</time>
      </trkpt>
      <trkpt lat="48.04561" lon="-0.7828">
        <ele>106.4</ele>
        <time>2010-10-10T09:29:43Z</time>
      </trkpt>
      <trkpt lat="48.04558" lon="-0.78275">
        <ele>106.6</ele>
        <time>2010-10-10T09:29:44Z</time>
      </trkpt>
      <trkpt lat="48.04546" lon="-0.78249">
        <ele>106.6</ele>
        <time>2010-10-10T09:29:48Z</time>
      </trkpt>
      <trkpt lat="48.04544" lon="-0.78241">
        <ele>106.8</ele>
        <time>2010-10-10T09:29:49Z</time>
      </trkpt>
      <trkpt lat="48.04536" lon="-0.78225">
        <ele>106.8</ele>
        <time>2010-10-10T09:29:52Z</time>
      </trkpt>
      <trkpt lat="48.04522" lon="-0.78221">
        <ele>107</ele>
        <time>2010-10-10T09:29:55Z</time>
      </trkpt>
      <trkpt lat="48.04518" lon="-0.78217">
        <ele>107</ele>
        <time>2010-10-10T09:29:56Z</time>
      </trkpt>
      <trkpt lat="48.04511" lon="-0.78204">
        <ele>107.2</ele>
        <time>2010-10-10T09:29:58Z</time>
      </trkpt>
      <trkpt lat="48.04504" lon="-0.78191">
        <ele>107.2</ele>
        <time>2010-10-10T09:30:00Z</time>
      </trkpt>
      <trkpt lat="48.04497" lon="-0.78179">
        <ele>107.6</ele>
        <time>2010-10-10T09:30:02Z</time>
      </trkpt>
      <trkpt lat="48.04488" lon="-0.7817">
        <ele>107.8</ele>
        <time>2010-10-10T09:30:04Z</time>
      </trkpt>
      <trkpt lat="48.04468" lon="-0.78162">
        <ele>108</ele>
        <time>2010-10-10T09:30:08Z</time>
      </trkpt>
      <trkpt lat="48.04464" lon="-0.78159">
        <ele>108</ele>
        <time>2010-10-10T09:30:09Z</time>
      </trkpt>
      <trkpt lat="48.04455" lon="-0.78141">
        <ele>108.2</ele>
        <time>2010-10-10T09:30:12Z</time>
      </trkpt>
      <trkpt lat="48.04453" lon="-0.78134">
        <ele>108.4</ele>
        <time>2010-10-10T09:30:13Z</time>
      </trkpt>
      <trkpt lat="48.04451" lon="-0.78127">
        <ele>108.6</ele>
        <time>2010-10-10T09:30:14Z</time>
      </trkpt>
      <trkpt lat="48.04447" lon="-0.78112">
        <ele>109</ele>
        <time>2010-10-10T09:30:16Z</time>
      </trkpt>
      <trkpt lat="48.04443" lon="-0.78098">
        <ele>109.2</ele>
        <time>2010-10-10T09:30:18Z</time>
      </trkpt>
      <trkpt lat="48.04436" lon="-0.78086">
        <ele>109.2</ele>
        <time>2010-10-10T09:30:20Z</time>
      </trkpt>
      <trkpt lat="48.04429" lon="-0.78074">
        <ele>109.6</ele>
        <time>2010-10-10T09:30:22Z</time>
      </trkpt>
      <trkpt lat="48.04422" lon="-0.78059">
        <ele>110</ele>
        <time>2010-10-10T09:30:24Z</time>
      </trkpt>
      <trkpt lat="48.04419" lon="-0.7805">
        <ele>110.4</ele>
        <time>2010-10-10T09:30:25Z</time>
      </trkpt>
      <trkpt lat="48.04415" lon="-0.78033">
        <ele>110.4</ele>
        <time>2010-10-10T09:30:27Z</time>
      </trkpt>
      <trkpt lat="48.04416" lon="-0.78009">
        <ele>110.4</ele>
        <time>2010-10-10T09:30:30Z</time>
      </trkpt>
      <trkpt lat="48.04416" lon="-0.78">
        <ele>110.6</ele>
        <time>2010-10-10T09:30:31Z</time>
      </trkpt>
      <trkpt lat="48.04414" lon="-0.77991">
        <ele>110.6</ele>
        <time>2010-10-10T09:30:32Z</time>
      </trkpt>
      <trkpt lat="48.04406" lon="-0.77981">
        <ele>110.6</ele>
        <time>2010-10-10T09:30:34Z</time>
      </trkpt>
      <trkpt lat="48.044" lon="-0.77978">
        <ele>110.6</ele>
        <time>2010-10-10T09:30:35Z</time>
      </trkpt>
      <trkpt lat="48.04387" lon="-0.77978">
        <ele>110.6</ele>
        <time>2010-10-10T09:30:37Z</time>
      </trkpt>
      <trkpt lat="48.04381" lon="-0.77977">
        <ele>110.6</ele>
        <time>2010-10-10T09:30:38Z</time>
      </trkpt>
      <trkpt lat="48.04374" lon="-0.77977">
        <ele>110.6</ele>
        <time>2010-10-10T09:30:39Z</time>
      </trkpt>
      <trkpt lat="48.04361" lon="-0.77976">
        <ele>110.6</ele>
        <time>2010-10-10T09:30:41Z</time>
      </trkpt>
      <trkpt lat="48.0435" lon="-0.77976">
        <ele>110.6</ele>
        <time>2010-10-10T09:30:43Z</time>
      </trkpt>
      <trkpt lat="48.04339" lon="-0.77974">
        <ele>110.6</ele>
        <time>2010-10-10T09:30:45Z</time>
      </trkpt>
      <trkpt lat="48.04333" lon="-0.77972">
        <ele>110.6</ele>
        <time>2010-10-10T09:30:46Z</time>
      </trkpt>
      <trkpt lat="48.04327" lon="-0.7797">
        <ele>110.6</ele>
        <time>2010-10-10T09:30:47Z</time>
      </trkpt>
      <trkpt lat="48.04322" lon="-0.77966">
        <ele>110.4</ele>
        <time>2010-10-10T09:30:48Z</time>
      </trkpt>
      <trkpt lat="48.04306" lon="-0.77956">
        <ele>110.6</ele>
        <time>2010-10-10T09:30:51Z</time>
      </trkpt>
      <trkpt lat="48.043" lon="-0.77954">
        <ele>110.6</ele>
        <time>2010-10-10T09:30:52Z</time>
      </trkpt>
      <trkpt lat="48.04283" lon="-0.77952">
        <ele>110.6</ele>
        <time>2010-10-10T09:30:55Z</time>
      </trkpt>
      <trkpt lat="48.04277" lon="-0.77953">
        <ele>110.6</ele>
        <time>2010-10-10T09:30:56Z</time>
      </trkpt>
      <trkpt lat="48.04259" lon="-0.77955">
        <ele>110.6</ele>
        <time>2010-10-10T09:30:59Z</time>
      </trkpt>
      <trkpt lat="48.04253" lon="-0.77954">
        <ele>110.6</ele>
        <time>2010-10-10T09:31:00Z</time>
      </trkpt>
      <trkpt lat="48.04233" lon="-0.7795">
        <ele>110.6</ele>
        <time>2010-10-10T09:31:04Z</time>
      </trkpt>
      <trkpt lat="48.0423" lon="-0.77949">
        <ele>110.6</ele>
        <time>2010-10-10T09:31:05Z</time>
      </trkpt>
      <trkpt lat="48.04222" lon="-0.77944">
        <ele>110.4</ele>
        <time>2010-10-10T09:31:07Z</time>
      </trkpt>
      <trkpt lat="48.04217" lon="-0.77942">
        <ele>110.4</ele>
        <time>2010-10-10T09:31:08Z</time>
      </trkpt>
      <trkpt lat="48.04211" lon="-0.77939">
        <ele>110.4</ele>
        <time>2010-10-10T09:31:09Z</time>
      </trkpt>
      <trkpt lat="48.04195" lon="-0.77934">
        <ele>110.4</ele>
        <time>2010-10-10T09:31:12Z</time>
      </trkpt>
      <trkpt lat="48.0419" lon="-0.77933">
        <ele>110.4</ele>
        <time>2010-10-10T09:31:13Z</time>
      </trkpt>
      <trkpt lat="48.04179" lon="-0.77934">
        <ele>110.4</ele>
        <time>2010-10-10T09:31:15Z</time>
      </trkpt>
      <trkpt lat="48.04173" lon="-0.77934">
        <ele>110.4</ele>
        <time>2010-10-10T09:31:16Z</time>
      </trkpt>
      <trkpt lat="48.04157" lon="-0.77936">
        <ele>110.2</ele>
        <time>2010-10-10T09:31:19Z</time>
      </trkpt>
      <trkpt lat="48.04152" lon="-0.77935">
        <ele>110</ele>
        <time>2010-10-10T09:31:20Z</time>
      </trkpt>
      <trkpt lat="48.04146" lon="-0.77934">
        <ele>110</ele>
        <time>2010-10-10T09:31:21Z</time>
      </trkpt>
      <trkpt lat="48.04132" lon="-0.77931">
        <ele>109.8</ele>
        <time>2010-10-10T09:31:24Z</time>
      </trkpt>
      <trkpt lat="48.04115" lon="-0.7793">
        <ele>109.6</ele>
        <time>2010-10-10T09:31:27Z</time>
      </trkpt>
      <trkpt lat="48.0411" lon="-0.7793">
        <ele>109.4</ele>
        <time>2010-10-10T09:31:28Z</time>
      </trkpt>
      <trkpt lat="48.04099" lon="-0.77928">
        <ele>109.2</ele>
        <time>2010-10-10T09:31:30Z</time>
      </trkpt>
      <trkpt lat="48.04088" lon="-0.77925">
        <ele>109</ele>
        <time>2010-10-10T09:31:32Z</time>
      </trkpt>
      <trkpt lat="48.04071" lon="-0.77926">
        <ele>108.8</ele>
        <time>2010-10-10T09:31:35Z</time>
      </trkpt>
      <trkpt lat="48.04066" lon="-0.77928">
        <ele>108.6</ele>
        <time>2010-10-10T09:31:36Z</time>
      </trkpt>
      <trkpt lat="48.04058" lon="-0.77927">
        <ele>108.8</ele>
        <time>2010-10-10T09:31:37Z</time>
      </trkpt>
      <trkpt lat="48.04047" lon="-0.77927">
        <ele>108.6</ele>
        <time>2010-10-10T09:31:39Z</time>
      </trkpt>
      <trkpt lat="48.0403" lon="-0.77926">
        <ele>108.4</ele>
        <time>2010-10-10T09:31:42Z</time>
      </trkpt>
      <trkpt lat="48.04024" lon="-0.77928">
        <ele>108.4</ele>
        <time>2010-10-10T09:31:43Z</time>
      </trkpt>
      <trkpt lat="48.04004" lon="-0.7794">
        <ele>108</ele>
        <time>2010-10-10T09:31:47Z</time>
      </trkpt>
      <trkpt lat="48.03994" lon="-0.77949">
        <ele>108</ele>
        <time>2010-10-10T09:31:49Z</time>
      </trkpt>
      <trkpt lat="48.03991" lon="-0.7796">
        <ele>108</ele>
        <time>2010-10-10T09:31:51Z</time>
      </trkpt>
      <trkpt lat="48.03993" lon="-0.77977">
        <ele>107.8</ele>
        <time>2010-10-10T09:31:55Z</time>
      </trkpt>
      <trkpt lat="48.03994" lon="-0.7798">
        <ele>107.8</ele>
        <time>2010-10-10T09:31:57Z</time>
      </trkpt>
      <trkpt lat="48.03994" lon="-0.77986">
        <ele>107.8</ele>
        <time>2010-10-10T09:32:00Z</time>
      </trkpt>
      <trkpt lat="48.03995" lon="-0.77991">
        <ele>107.8</ele>
        <time>2010-10-10T09:32:02Z</time>
      </trkpt>
      <trkpt lat="48.03996" lon="-0.78001">
        <ele>107.8</ele>
        <time>2010-10-10T09:32:05Z</time>
      </trkpt>
      <trkpt lat="48.04002" lon="-0.78015">
        <ele>107.8</ele>
        <time>2010-10-10T09:32:09Z</time>
      </trkpt>
      <trkpt lat="48.04004" lon="-0.78018">
        <ele>107.8</ele>
        <time>2010-10-10T09:32:10Z</time>
      </trkpt>
      <trkpt lat="48.04014" lon="-0.78038">
        <ele>107.8</ele>
        <time>2010-10-10T09:32:15Z</time>
      </trkpt>
      <trkpt lat="48.04012" lon="-0.78059">
        <ele>107.8</ele>
        <time>2010-10-10T09:32:19Z</time>
      </trkpt>
      <trkpt lat="48.04012" lon="-0.78065">
        <ele>107.6</ele>
        <time>2010-10-10T09:32:20Z</time>
      </trkpt>
      <trkpt lat="48.04018" lon="-0.78076">
        <ele>107.8</ele>
        <time>2010-10-10T09:32:23Z</time>
      </trkpt>
      <trkpt lat="48.04028" lon="-0.78082">
        <ele>107.8</ele>
        <time>2010-10-10T09:32:26Z</time>
      </trkpt>
      <trkpt lat="48.04031" lon="-0.78084">
        <ele>108</ele>
        <time>2010-10-10T09:32:27Z</time>
      </trkpt>
      <trkpt lat="48.04038" lon="-0.781">
        <ele>107.8</ele>
        <time>2010-10-10T09:32:31Z</time>
      </trkpt>
      <trkpt lat="48.04029" lon="-0.78111">
        <ele>107.8</ele>
        <time>2010-10-10T09:32:34Z</time>
      </trkpt>
      <trkpt lat="48.04026" lon="-0.78116">
        <ele>107.8</ele>
        <time>2010-10-10T09:32:35Z</time>
      </trkpt>
      <trkpt lat="48.04023" lon="-0.78121">
        <ele>107.8</ele>
        <time>2010-10-10T09:32:36Z</time>
      </trkpt>
      <trkpt lat="48.0401" lon="-0.78141">
        <ele>107.6</ele>
        <time>2010-10-10T09:32:40Z</time>
      </trkpt>
      <trkpt lat="48.04004" lon="-0.7815">
        <ele>107.4</ele>
        <time>2010-10-10T09:32:42Z</time>
      </trkpt>
      <trkpt lat="48.03997" lon="-0.78161">
        <ele>107.4</ele>
        <time>2010-10-10T09:32:44Z</time>
      </trkpt>
      <trkpt lat="48.03983" lon="-0.78185">
        <ele>107</ele>
        <time>2010-10-10T09:32:48Z</time>
      </trkpt>
      <trkpt lat="48.03974" lon="-0.78197">
        <ele>107</ele>
        <time>2010-10-10T09:32:50Z</time>
      </trkpt>
      <trkpt lat="48.03969" lon="-0.782">
        <ele>106.8</ele>
        <time>2010-10-10T09:32:51Z</time>
      </trkpt>
      <trkpt lat="48.03951" lon="-0.78205">
        <ele>106.6</ele>
        <time>2010-10-10T09:32:54Z</time>
      </trkpt>
      <trkpt lat="48.03944" lon="-0.78206">
        <ele>106.6</ele>
        <time>2010-10-10T09:32:55Z</time>
      </trkpt>
      <trkpt lat="48.03937" lon="-0.78207">
        <ele>106.6</ele>
        <time>2010-10-10T09:32:56Z</time>
      </trkpt>
      <trkpt lat="48.0393" lon="-0.78207">
        <ele>106.6</ele>
        <time>2010-10-10T09:32:57Z</time>
      </trkpt>
      <trkpt lat="48.03917" lon="-0.78202">
        <ele>106.4</ele>
        <time>2010-10-10T09:32:59Z</time>
      </trkpt>
      <trkpt lat="48.03911" lon="-0.782">
        <ele>106.2</ele>
        <time>2010-10-10T09:33:00Z</time>
      </trkpt>
      <trkpt lat="48.0389" lon="-0.78202">
        <ele>106</ele>
        <time>2010-10-10T09:33:03Z</time>
      </trkpt>
      <trkpt lat="48.03883" lon="-0.78202">
        <ele>106</ele>
        <time>2010-10-10T09:33:04Z</time>
      </trkpt>
      <trkpt lat="48.03872" lon="-0.78204">
        <ele>105.8</ele>
        <time>2010-10-10T09:33:06Z</time>
      </trkpt>
      <trkpt lat="48.03867" lon="-0.78208">
        <ele>105.6</ele>
        <time>2010-10-10T09:33:07Z</time>
      </trkpt>
      <trkpt lat="48.03862" lon="-0.78212">
        <ele>105.6</ele>
        <time>2010-10-10T09:33:08Z</time>
      </trkpt>
      <trkpt lat="48.03857" lon="-0.78217">
        <ele>105.4</ele>
        <time>2010-10-10T09:33:09Z</time>
      </trkpt>
      <trkpt lat="48.03853" lon="-0.78224">
        <ele>105.4</ele>
        <time>2010-10-10T09:33:10Z</time>
      </trkpt>
      <trkpt lat="48.03849" lon="-0.78228">
        <ele>105.4</ele>
        <time>2010-10-10T09:33:11Z</time>
      </trkpt>
      <trkpt lat="48.03847" lon="-0.78233">
        <ele>105.2</ele>
        <time>2010-10-10T09:33:12Z</time>
      </trkpt>
      <trkpt lat="48.03841" lon="-0.78241">
        <ele>105.2</ele>
        <time>2010-10-10T09:33:14Z</time>
      </trkpt>
      <trkpt lat="48.03834" lon="-0.78246">
        <ele>105</ele>
        <time>2010-10-10T09:33:16Z</time>
      </trkpt>
      <trkpt lat="48.03831" lon="-0.78248">
        <ele>105</ele>
        <time>2010-10-10T09:33:17Z</time>
      </trkpt>
      <trkpt lat="48.03816" lon="-0.78257">
        <ele>104.6</ele>
        <time>2010-10-10T09:33:21Z</time>
      </trkpt>
      <trkpt lat="48.03812" lon="-0.78262">
        <ele>104.6</ele>
        <time>2010-10-10T09:33:22Z</time>
      </trkpt>
      <trkpt lat="48.03803" lon="-0.78277">
        <ele>104.4</ele>
        <time>2010-10-10T09:33:25Z</time>
      </trkpt>
      <trkpt lat="48.038" lon="-0.78282">
        <ele>104.2</ele>
        <time>2010-10-10T09:33:26Z</time>
      </trkpt>
      <trkpt lat="48.03789" lon="-0.78286">
        <ele>104.2</ele>
        <time>2010-10-10T09:33:29Z</time>
      </trkpt>
      <trkpt lat="48.03787" lon="-0.78288">
        <ele>104.2</ele>
        <time>2010-10-10T09:33:30Z</time>
      </trkpt>
      <trkpt lat="48.03784" lon="-0.7829">
        <ele>104</ele>
        <time>2010-10-10T09:33:32Z</time>
      </trkpt>
      <trkpt lat="48.03783" lon="-0.7829">
        <ele>103.8</ele>
        <time>2010-10-10T09:33:33Z</time>
      </trkpt>
      <trkpt lat="48.03776" lon="-0.78286">
        <ele>103.6</ele>
        <time>2010-10-10T09:33:36Z</time>
      </trkpt>
      <trkpt lat="48.03775" lon="-0.78283">
        <ele>103.4</ele>
        <time>2010-10-10T09:33:37Z</time>
      </trkpt>
      <trkpt lat="48.03775" lon="-0.78274">
        <ele>103.2</ele>
        <time>2010-10-10T09:33:39Z</time>
      </trkpt>
      <trkpt lat="48.03775" lon="-0.78259">
        <ele>103.2</ele>
        <time>2010-10-10T09:33:42Z</time>
      </trkpt>
      <trkpt lat="48.03775" lon="-0.78244">
        <ele>103.2</ele>
        <time>2010-10-10T09:33:45Z</time>
      </trkpt>
      <trkpt lat="48.03777" lon="-0.78229">
        <ele>103</ele>
        <time>2010-10-10T09:33:48Z</time>
      </trkpt>
      <trkpt lat="48.03778" lon="-0.78216">
        <ele>103</ele>
        <time>2010-10-10T09:33:51Z</time>
      </trkpt>
      <trkpt lat="48.03778" lon="-0.782">
        <ele>103.2</ele>
        <time>2010-10-10T09:33:54Z</time>
      </trkpt>
      <trkpt lat="48.03778" lon="-0.78185">
        <ele>103.4</ele>
        <time>2010-10-10T09:33:57Z</time>
      </trkpt>
      <trkpt lat="48.03778" lon="-0.78175">
        <ele>103.6</ele>
        <time>2010-10-10T09:33:59Z</time>
      </trkpt>
      <trkpt lat="48.03779" lon="-0.78156">
        <ele>104.6</ele>
        <time>2010-10-10T09:34:04Z</time>
      </trkpt>
      <trkpt lat="48.03779" lon="-0.78152">
        <ele>104.8</ele>
        <time>2010-10-10T09:34:05Z</time>
      </trkpt>
      <trkpt lat="48.0378" lon="-0.78128">
        <ele>106.2</ele>
        <time>2010-10-10T09:34:11Z</time>
      </trkpt>
      <trkpt lat="48.03779" lon="-0.78109">
        <ele>107.4</ele>
        <time>2010-10-10T09:34:15Z</time>
      </trkpt>
      <trkpt lat="48.03779" lon="-0.781">
        <ele>108</ele>
        <time>2010-10-10T09:34:17Z</time>
      </trkpt>
      <trkpt lat="48.03779" lon="-0.78082">
        <ele>109.6</ele>
        <time>2010-10-10T09:34:21Z</time>
      </trkpt>
      <trkpt lat="48.03778" lon="-0.7807">
        <ele>110.4</ele>
        <time>2010-10-10T09:34:24Z</time>
      </trkpt>
      <trkpt lat="48.03779" lon="-0.78065">
        <ele>110.8</ele>
        <time>2010-10-10T09:34:26Z</time>
      </trkpt>
      <trkpt lat="48.03782" lon="-0.78046">
        <ele>112</ele>
        <time>2010-10-10T09:34:31Z</time>
      </trkpt>
      <trkpt lat="48.03782" lon="-0.78042">
        <ele>112.2</ele>
        <time>2010-10-10T09:34:32Z</time>
      </trkpt>
      <trkpt lat="48.03782" lon="-0.78035">
        <ele>112.6</ele>
        <time>2010-10-10T09:34:34Z</time>
      </trkpt>
      <trkpt lat="48.03783" lon="-0.78026">
        <ele>113</ele>
        <time>2010-10-10T09:34:36Z</time>
      </trkpt>
      <trkpt lat="48.03784" lon="-0.78016">
        <ele>113.4</ele>
        <time>2010-10-10T09:34:38Z</time>
      </trkpt>
      <trkpt lat="48.03784" lon="-0.78003">
        <ele>113.4</ele>
        <time>2010-10-10T09:34:41Z</time>
      </trkpt>
      <trkpt lat="48.03784" lon="-0.77989">
        <ele>113.8</ele>
        <time>2010-10-10T09:34:44Z</time>
      </trkpt>
      <trkpt lat="48.03785" lon="-0.77978">
        <ele>114.2</ele>
        <time>2010-10-10T09:34:46Z</time>
      </trkpt>
      <trkpt lat="48.03786" lon="-0.77961">
        <ele>114.6</ele>
        <time>2010-10-10T09:34:49Z</time>
      </trkpt>
      <trkpt lat="48.03786" lon="-0.77949">
        <ele>115</ele>
        <time>2010-10-10T09:34:51Z</time>
      </trkpt>
      <trkpt lat="48.03786" lon="-0.7793">
        <ele>115.4</ele>
        <time>2010-10-10T09:34:54Z</time>
      </trkpt>
      <trkpt lat="48.03786" lon="-0.77918">
        <ele>116</ele>
        <time>2010-10-10T09:34:56Z</time>
      </trkpt>
      <trkpt lat="48.03787" lon="-0.77899">
        <ele>116.4</ele>
        <time>2010-10-10T09:35:00Z</time>
      </trkpt>
      <trkpt lat="48.03777" lon="-0.77881">
        <ele>117.2</ele>
        <time>2010-10-10T09:35:05Z</time>
      </trkpt>
      <trkpt lat="48.03775" lon="-0.77879">
        <ele>117.2</ele>
        <time>2010-10-10T09:35:06Z</time>
      </trkpt>
      <trkpt lat="48.03762" lon="-0.77873">
        <ele>116.8</ele>
        <time>2010-10-10T09:35:10Z</time>
      </trkpt>
      <trkpt lat="48.03757" lon="-0.77871">
        <ele>116.8</ele>
        <time>2010-10-10T09:35:11Z</time>
      </trkpt>
      <trkpt lat="48.03743" lon="-0.77864">
        <ele>116.4</ele>
        <time>2010-10-10T09:35:15Z</time>
      </trkpt>
      <trkpt lat="48.03739" lon="-0.77863">
        <ele>116.2</ele>
        <time>2010-10-10T09:35:16Z</time>
      </trkpt>
      <trkpt lat="48.03734" lon="-0.77863">
        <ele>116</ele>
        <time>2010-10-10T09:35:18Z</time>
      </trkpt>
      <trkpt lat="48.03727" lon="-0.77864">
        <ele>115.8</ele>
        <time>2010-10-10T09:35:20Z</time>
      </trkpt>
      <trkpt lat="48.03724" lon="-0.77863">
        <ele>115.6</ele>
        <time>2010-10-10T09:35:21Z</time>
      </trkpt>
      <trkpt lat="48.03721" lon="-0.7786">
        <ele>115.4</ele>
        <time>2010-10-10T09:35:22Z</time>
      </trkpt>
      <trkpt lat="48.03715" lon="-0.77851">
        <ele>115.2</ele>
        <time>2010-10-10T09:35:24Z</time>
      </trkpt>
      <trkpt lat="48.03713" lon="-0.77849">
        <ele>115</ele>
        <time>2010-10-10T09:35:25Z</time>
      </trkpt>
      <trkpt lat="48.03703" lon="-0.77846">
        <ele>114.6</ele>
        <time>2010-10-10T09:35:28Z</time>
      </trkpt>
      <trkpt lat="48.03693" lon="-0.77838">
        <ele>114.2</ele>
        <time>2010-10-10T09:35:31Z</time>
      </trkpt>
      <trkpt lat="48.03689" lon="-0.77834">
        <ele>114</ele>
        <time>2010-10-10T09:35:32Z</time>
      </trkpt>
      <trkpt lat="48.03685" lon="-0.7783">
        <ele>113.8</ele>
        <time>2010-10-10T09:35:33Z</time>
      </trkpt>
      <trkpt lat="48.03669" lon="-0.7782">
        <ele>113.2</ele>
        <time>2010-10-10T09:35:37Z</time>
      </trkpt>
      <trkpt lat="48.03666" lon="-0.77818">
        <ele>113</ele>
        <time>2010-10-10T09:35:38Z</time>
      </trkpt>
      <trkpt lat="48.0365" lon="-0.77801">
        <ele>112</ele>
        <time>2010-10-10T09:35:43Z</time>
      </trkpt>
      <trkpt lat="48.03647" lon="-0.77797">
        <ele>111.8</ele>
        <time>2010-10-10T09:35:44Z</time>
      </trkpt>
      <trkpt lat="48.03637" lon="-0.77788">
        <ele>111.4</ele>
        <time>2010-10-10T09:35:47Z</time>
      </trkpt>
      <trkpt lat="48.03633" lon="-0.77786">
        <ele>111.2</ele>
        <time>2010-10-10T09:35:48Z</time>
      </trkpt>
      <trkpt lat="48.03616" lon="-0.77783">
        <ele>110.6</ele>
        <time>2010-10-10T09:35:52Z</time>
      </trkpt>
      <trkpt lat="48.03612" lon="-0.77782">
        <ele>110.6</ele>
        <time>2010-10-10T09:35:53Z</time>
      </trkpt>
      <trkpt lat="48.03595" lon="-0.77782">
        <ele>110</ele>
        <time>2010-10-10T09:35:58Z</time>
      </trkpt>
      <trkpt lat="48.03585" lon="-0.77807">
        <ele>109</ele>
        <time>2010-10-10T09:36:03Z</time>
      </trkpt>
      <trkpt lat="48.03582" lon="-0.77813">
        <ele>108.8</ele>
        <time>2010-10-10T09:36:04Z</time>
      </trkpt>
      <trkpt lat="48.0358" lon="-0.77819">
        <ele>108.8</ele>
        <time>2010-10-10T09:36:05Z</time>
      </trkpt>
      <trkpt lat="48.03575" lon="-0.7783">
        <ele>108.4</ele>
        <time>2010-10-10T09:36:07Z</time>
      </trkpt>
      <trkpt lat="48.03567" lon="-0.77847">
        <ele>107.8</ele>
        <time>2010-10-10T09:36:10Z</time>
      </trkpt>
      <trkpt lat="48.03564" lon="-0.77853">
        <ele>107.8</ele>
        <time>2010-10-10T09:36:11Z</time>
      </trkpt>
      <trkpt lat="48.03561" lon="-0.7786">
        <ele>107.6</ele>
        <time>2010-10-10T09:36:12Z</time>
      </trkpt>
      <trkpt lat="48.03553" lon="-0.77882">
        <ele>107.4</ele>
        <time>2010-10-10T09:36:15Z</time>
      </trkpt>
      <trkpt lat="48.0355" lon="-0.77889">
        <ele>107.4</ele>
        <time>2010-10-10T09:36:16Z</time>
      </trkpt>
      <trkpt lat="48.03546" lon="-0.77904">
        <ele>107.2</ele>
        <time>2010-10-10T09:36:18Z</time>
      </trkpt>
      <trkpt lat="48.03544" lon="-0.77912">
        <ele>107.2</ele>
        <time>2010-10-10T09:36:19Z</time>
      </trkpt>
      <trkpt lat="48.03537" lon="-0.77933">
        <ele>107</ele>
        <time>2010-10-10T09:36:22Z</time>
      </trkpt>
      <trkpt lat="48.03534" lon="-0.7794">
        <ele>107</ele>
        <time>2010-10-10T09:36:23Z</time>
      </trkpt>
      <trkpt lat="48.03532" lon="-0.77947">
        <ele>107</ele>
        <time>2010-10-10T09:36:24Z</time>
      </trkpt>
      <trkpt lat="48.03526" lon="-0.77966">
        <ele>106.8</ele>
        <time>2010-10-10T09:36:27Z</time>
      </trkpt>
      <trkpt lat="48.03522" lon="-0.77981">
        <ele>106.8</ele>
        <time>2010-10-10T09:36:29Z</time>
      </trkpt>
      <trkpt lat="48.03521" lon="-0.77988">
        <ele>106.8</ele>
        <time>2010-10-10T09:36:30Z</time>
      </trkpt>
      <trkpt lat="48.03518" lon="-0.77995">
        <ele>106.8</ele>
        <time>2010-10-10T09:36:31Z</time>
      </trkpt>
      <trkpt lat="48.03504" lon="-0.78005">
        <ele>106.8</ele>
        <time>2010-10-10T09:36:34Z</time>
      </trkpt>
      <trkpt lat="48.03499" lon="-0.78006">
        <ele>106.8</ele>
        <time>2010-10-10T09:36:35Z</time>
      </trkpt>
      <trkpt lat="48.03485" lon="-0.78004">
        <ele>106.8</ele>
        <time>2010-10-10T09:36:38Z</time>
      </trkpt>
      <trkpt lat="48.0348" lon="-0.78001">
        <ele>106.8</ele>
        <time>2010-10-10T09:36:39Z</time>
      </trkpt>
      <trkpt lat="48.03465" lon="-0.77997">
        <ele>106.8</ele>
        <time>2010-10-10T09:36:42Z</time>
      </trkpt>
      <trkpt lat="48.0346" lon="-0.77996">
        <ele>106.6</ele>
        <time>2010-10-10T09:36:43Z</time>
      </trkpt>
      <trkpt lat="48.03444" lon="-0.77992">
        <ele>106.8</ele>
        <time>2010-10-10T09:36:46Z</time>
      </trkpt>
      <trkpt lat="48.03439" lon="-0.77991">
        <ele>106.8</ele>
        <time>2010-10-10T09:36:47Z</time>
      </trkpt>
      <trkpt lat="48.03428" lon="-0.7799">
        <ele>106.8</ele>
        <time>2010-10-10T09:36:49Z</time>
      </trkpt>
      <trkpt lat="48.03417" lon="-0.77992">
        <ele>106.8</ele>
        <time>2010-10-10T09:36:51Z</time>
      </trkpt>
      <trkpt lat="48.03401" lon="-0.77995">
        <ele>106.8</ele>
        <time>2010-10-10T09:36:54Z</time>
      </trkpt>
      <trkpt lat="48.03397" lon="-0.77995">
        <ele>106.8</ele>
        <time>2010-10-10T09:36:55Z</time>
      </trkpt>
      <trkpt lat="48.03388" lon="-0.77994">
        <ele>106.8</ele>
        <time>2010-10-10T09:36:57Z</time>
      </trkpt>
      <trkpt lat="48.03379" lon="-0.77996">
        <ele>106.8</ele>
        <time>2010-10-10T09:36:59Z</time>
      </trkpt>
      <trkpt lat="48.03374" lon="-0.77998">
        <ele>106.8</ele>
        <time>2010-10-10T09:37:00Z</time>
      </trkpt>
      <trkpt lat="48.03361" lon="-0.78008">
        <ele>106.8</ele>
        <time>2010-10-10T09:37:03Z</time>
      </trkpt>
      <trkpt lat="48.03356" lon="-0.78009">
        <ele>106.8</ele>
        <time>2010-10-10T09:37:04Z</time>
      </trkpt>
      <trkpt lat="48.03342" lon="-0.78012">
        <ele>106.8</ele>
        <time>2010-10-10T09:37:07Z</time>
      </trkpt>
      <trkpt lat="48.03338" lon="-0.78014">
        <ele>106.8</ele>
        <time>2010-10-10T09:37:08Z</time>
      </trkpt>
      <trkpt lat="48.03323" lon="-0.78024">
        <ele>106.6</ele>
        <time>2010-10-10T09:37:12Z</time>
      </trkpt>
      <trkpt lat="48.0332" lon="-0.78028">
        <ele>106.6</ele>
        <time>2010-10-10T09:37:13Z</time>
      </trkpt>
      <trkpt lat="48.03318" lon="-0.78042">
        <ele>106.4</ele>
        <time>2010-10-10T09:37:16Z</time>
      </trkpt>
      <trkpt lat="48.03319" lon="-0.78058">
        <ele>106</ele>
        <time>2010-10-10T09:37:19Z</time>
      </trkpt>
      <trkpt lat="48.03319" lon="-0.78066">
        <ele>105.8</ele>
        <time>2010-10-10T09:37:20Z</time>
      </trkpt>
      <trkpt lat="48.03318" lon="-0.78086">
        <ele>105.6</ele>
        <time>2010-10-10T09:37:23Z</time>
      </trkpt>
      <trkpt lat="48.03317" lon="-0.78109">
        <ele>105.2</ele>
        <time>2010-10-10T09:37:26Z</time>
      </trkpt>
      <trkpt lat="48.03317" lon="-0.78117">
        <ele>105</ele>
        <time>2010-10-10T09:37:27Z</time>
      </trkpt>
      <trkpt lat="48.03316" lon="-0.7815">
        <ele>104.8</ele>
        <time>2010-10-10T09:37:31Z</time>
      </trkpt>
      <trkpt lat="48.03315" lon="-0.78158">
        <ele>104.8</ele>
        <time>2010-10-10T09:37:32Z</time>
      </trkpt>
      <trkpt lat="48.03315" lon="-0.78181">
        <ele>104.4</ele>
        <time>2010-10-10T09:37:35Z</time>
      </trkpt>
      <trkpt lat="48.03313" lon="-0.78206">
        <ele>104.2</ele>
        <time>2010-10-10T09:37:38Z</time>
      </trkpt>
      <trkpt lat="48.03313" lon="-0.78215">
        <ele>104.2</ele>
        <time>2010-10-10T09:37:39Z</time>
      </trkpt>
      <trkpt lat="48.03311" lon="-0.78247">
        <ele>104</ele>
        <time>2010-10-10T09:37:43Z</time>
      </trkpt>
      <trkpt lat="48.03311" lon="-0.78256">
        <ele>104</ele>
        <time>2010-10-10T09:37:44Z</time>
      </trkpt>
      <trkpt lat="48.03309" lon="-0.78282">
        <ele>104</ele>
        <time>2010-10-10T09:37:46Z</time>
      </trkpt>
      <trkpt lat="48.03309" lon="-0.78289">
        <ele>103.8</ele>
        <time>2010-10-10T09:37:48Z</time>
      </trkpt>
      <trkpt lat="48.0331" lon="-0.78296">
        <ele>103.8</ele>
        <time>2010-10-10T09:37:49Z</time>
      </trkpt>
      <trkpt lat="48.03317" lon="-0.78307">
        <ele>103.8</ele>
        <time>2010-10-10T09:37:51Z</time>
      </trkpt>
      <trkpt lat="48.03322" lon="-0.78309">
        <ele>103.8</ele>
        <time>2010-10-10T09:37:52Z</time>
      </trkpt>
      <trkpt lat="48.03334" lon="-0.78312">
        <ele>104</ele>
        <time>2010-10-10T09:37:54Z</time>
      </trkpt>
      <trkpt lat="48.03339" lon="-0.78314">
        <ele>104</ele>
        <time>2010-10-10T09:37:55Z</time>
      </trkpt>
      <trkpt lat="48.03345" lon="-0.78315">
        <ele>104.2</ele>
        <time>2010-10-10T09:37:56Z</time>
      </trkpt>
      <trkpt lat="48.0335" lon="-0.78316">
        <ele>104.2</ele>
        <time>2010-10-10T09:37:57Z</time>
      </trkpt>
      <trkpt lat="48.03361" lon="-0.78319">
        <ele>104.6</ele>
        <time>2010-10-10T09:37:58Z</time>
      </trkpt>
      <trkpt lat="48.03384" lon="-0.78322">
        <ele>105</ele>
        <time>2010-10-10T09:38:02Z</time>
      </trkpt>
      <trkpt lat="48.03404" lon="-0.78324">
        <ele>105.2</ele>
        <time>2010-10-10T09:38:05Z</time>
      </trkpt>
      <trkpt lat="48.03418" lon="-0.78325">
        <ele>105.4</ele>
        <time>2010-10-10T09:38:07Z</time>
      </trkpt>
      <trkpt lat="48.03425" lon="-0.78327">
        <ele>105.2</ele>
        <time>2010-10-10T09:38:08Z</time>
      </trkpt>
      <trkpt lat="48.03448" lon="-0.78328">
        <ele>105.4</ele>
        <time>2010-10-10T09:38:11Z</time>
      </trkpt>
      <trkpt lat="48.03448" lon="-0.78328">
        <ele>105.4</ele>
        <time>2010-10-10T09:38:12Z</time>
      </trkpt>
      <trkpt lat="48.03464" lon="-0.78326">
        <ele>105.6</ele>
        <time>2010-10-10T09:38:13Z</time>
      </trkpt>
      <trkpt lat="48.03472" lon="-0.78328">
        <ele>105.4</ele>
        <time>2010-10-10T09:38:14Z</time>
      </trkpt>
      <trkpt lat="48.0348" lon="-0.78329">
        <ele>105.2</ele>
        <time>2010-10-10T09:38:16Z</time>
      </trkpt>
      <trkpt lat="48.03493" lon="-0.78329">
        <ele>105.4</ele>
        <time>2010-10-10T09:38:17Z</time>
      </trkpt>
      <trkpt lat="48.03512" lon="-0.78329">
        <ele>105.4</ele>
        <time>2010-10-10T09:38:20Z</time>
      </trkpt>
      <trkpt lat="48.03525" lon="-0.78329">
        <ele>105.8</ele>
        <time>2010-10-10T09:38:22Z</time>
      </trkpt>
      <trkpt lat="48.03532" lon="-0.78329">
        <ele>105.8</ele>
        <time>2010-10-10T09:38:23Z</time>
      </trkpt>
      <trkpt lat="48.03552" lon="-0.7833">
        <ele>106.2</ele>
        <time>2010-10-10T09:38:26Z</time>
      </trkpt>
      <trkpt lat="48.03552" lon="-0.7833">
        <ele>106.4</ele>
        <time>2010-10-10T09:38:27Z</time>
      </trkpt>
      <trkpt lat="48.03571" lon="-0.78331">
        <ele>106.8</ele>
        <time>2010-10-10T09:38:29Z</time>
      </trkpt>
      <trkpt lat="48.03592" lon="-0.78334">
        <ele>107</ele>
        <time>2010-10-10T09:38:32Z</time>
      </trkpt>
      <trkpt lat="48.03613" lon="-0.78334">
        <ele>107.8</ele>
        <time>2010-10-10T09:38:35Z</time>
      </trkpt>
      <trkpt lat="48.03625" lon="-0.78335">
        <ele>108.2</ele>
        <time>2010-10-10T09:38:37Z</time>
      </trkpt>
      <trkpt lat="48.03632" lon="-0.78335">
        <ele>108.4</ele>
        <time>2010-10-10T09:38:38Z</time>
      </trkpt>
      <trkpt lat="48.03653" lon="-0.78337">
        <ele>108.6</ele>
        <time>2010-10-10T09:38:41Z</time>
      </trkpt>
      <trkpt lat="48.03673" lon="-0.7834">
        <ele>108.6</ele>
        <time>2010-10-10T09:38:44Z</time>
      </trkpt>
      <trkpt lat="48.03678" lon="-0.78341">
        <ele>108.8</ele>
        <time>2010-10-10T09:38:45Z</time>
      </trkpt>
      <trkpt lat="48.03684" lon="-0.78341">
        <ele>108.8</ele>
        <time>2010-10-10T09:38:46Z</time>
      </trkpt>
      <trkpt lat="48.03693" lon="-0.78344">
        <ele>108.6</ele>
        <time>2010-10-10T09:38:47Z</time>
      </trkpt>
      <trkpt lat="48.03712" lon="-0.78349">
        <ele>108.2</ele>
        <time>2010-10-10T09:38:50Z</time>
      </trkpt>
      <trkpt lat="48.03712" lon="-0.78349">
        <ele>108.2</ele>
        <time>2010-10-10T09:38:51Z</time>
      </trkpt>
      <trkpt lat="48.03735" lon="-0.78353">
        <ele>107.8</ele>
        <time>2010-10-10T09:38:54Z</time>
      </trkpt>
      <trkpt lat="48.03741" lon="-0.78354">
        <ele>107.6</ele>
        <time>2010-10-10T09:38:55Z</time>
      </trkpt>
      <trkpt lat="48.03748" lon="-0.78354">
        <ele>107.4</ele>
        <time>2010-10-10T09:38:57Z</time>
      </trkpt>
      <trkpt lat="48.03774" lon="-0.78358">
        <ele>107</ele>
        <time>2010-10-10T09:39:00Z</time>
      </trkpt>
      <trkpt lat="48.03781" lon="-0.78358">
        <ele>106.8</ele>
        <time>2010-10-10T09:39:01Z</time>
      </trkpt>
      <trkpt lat="48.03795" lon="-0.78359">
        <ele>106.6</ele>
        <time>2010-10-10T09:39:03Z</time>
      </trkpt>
      <trkpt lat="48.03814" lon="-0.78358">
        <ele>106.4</ele>
        <time>2010-10-10T09:39:06Z</time>
      </trkpt>
      <trkpt lat="48.03826" lon="-0.78358">
        <ele>106.2</ele>
        <time>2010-10-10T09:39:08Z</time>
      </trkpt>
      <trkpt lat="48.03832" lon="-0.78357">
        <ele>106.2</ele>
        <time>2010-10-10T09:39:09Z</time>
      </trkpt>
      <trkpt lat="48.03837" lon="-0.78358">
        <ele>106.2</ele>
        <time>2010-10-10T09:39:10Z</time>
      </trkpt>
      <trkpt lat="48.0385" lon="-0.78358">
        <ele>106</ele>
        <time>2010-10-10T09:39:13Z</time>
      </trkpt>
      <trkpt lat="48.03857" lon="-0.78358">
        <ele>106</ele>
        <time>2010-10-10T09:39:15Z</time>
      </trkpt>
      <trkpt lat="48.03867" lon="-0.78361">
        <ele>106</ele>
        <time>2010-10-10T09:39:18Z</time>
      </trkpt>
      <trkpt lat="48.03875" lon="-0.7836">
        <ele>106</ele>
        <time>2010-10-10T09:39:21Z</time>
      </trkpt>
      <trkpt lat="48.03885" lon="-0.78361">
        <ele>106.2</ele>
        <time>2010-10-10T09:39:23Z</time>
      </trkpt>
      <trkpt lat="48.03895" lon="-0.78361">
        <ele>106.4</ele>
        <time>2010-10-10T09:39:27Z</time>
      </trkpt>
      <trkpt lat="48.03907" lon="-0.78362">
        <ele>106.8</ele>
        <time>2010-10-10T09:39:30Z</time>
      </trkpt>
      <trkpt lat="48.03916" lon="-0.78365">
        <ele>106.8</ele>
        <time>2010-10-10T09:39:33Z</time>
      </trkpt>
      <trkpt lat="48.03922" lon="-0.78367">
        <ele>106.8</ele>
        <time>2010-10-10T09:39:35Z</time>
      </trkpt>
      <trkpt lat="48.03936" lon="-0.78368">
        <ele>107</ele>
        <time>2010-10-10T09:39:40Z</time>
      </trkpt>
      <trkpt lat="48.03939" lon="-0.78368">
        <ele>107</ele>
        <time>2010-10-10T09:39:41Z</time>
      </trkpt>
      <trkpt lat="48.0395" lon="-0.78368">
        <ele>107.2</ele>
        <time>2010-10-10T09:39:46Z</time>
      </trkpt>
      <trkpt lat="48.03955" lon="-0.78367">
        <ele>107.4</ele>
        <time>2010-10-10T09:39:48Z</time>
      </trkpt>
      <trkpt lat="48.03959" lon="-0.78368">
        <ele>107.6</ele>
        <time>2010-10-10T09:39:51Z</time>
      </trkpt>
      <trkpt lat="48.03973" lon="-0.78369">
        <ele>108.2</ele>
        <time>2010-10-10T09:39:56Z</time>
      </trkpt>
      <trkpt lat="48.03981" lon="-0.78371">
        <ele>108.4</ele>
        <time>2010-10-10T09:39:59Z</time>
      </trkpt>
      <trkpt lat="48.03993" lon="-0.78371">
        <ele>108.8</ele>
        <time>2010-10-10T09:40:04Z</time>
      </trkpt>
      <trkpt lat="48.04008" lon="-0.7837">
        <ele>109.6</ele>
        <time>2010-10-10T09:40:10Z</time>
      </trkpt>
      <trkpt lat="48.04011" lon="-0.7837">
        <ele>109.6</ele>
        <time>2010-10-10T09:40:11Z</time>
      </trkpt>
      <trkpt lat="48.04026" lon="-0.78373">
        <ele>110.2</ele>
        <time>2010-10-10T09:40:16Z</time>
      </trkpt>
      <trkpt lat="48.04029" lon="-0.78373">
        <ele>110.2</ele>
        <time>2010-10-10T09:40:17Z</time>
      </trkpt>
      <trkpt lat="48.04046" lon="-0.78373">
        <ele>111</ele>
        <time>2010-10-10T09:40:22Z</time>
      </trkpt>
      <trkpt lat="48.04051" lon="-0.78374">
        <ele>111</ele>
        <time>2010-10-10T09:40:23Z</time>
      </trkpt>
      <trkpt lat="48.04072" lon="-0.78377">
        <ele>111.2</ele>
        <time>2010-10-10T09:40:28Z</time>
      </trkpt>
      <trkpt lat="48.04084" lon="-0.78376">
        <ele>111.4</ele>
        <time>2010-10-10T09:40:31Z</time>
      </trkpt>
      <trkpt lat="48.04093" lon="-0.78377">
        <ele>111.6</ele>
        <time>2010-10-10T09:40:33Z</time>
      </trkpt>
      <trkpt lat="48.04113" lon="-0.78382">
        <ele>111.6</ele>
        <time>2010-10-10T09:40:37Z</time>
      </trkpt>
      <trkpt lat="48.04121" lon="-0.78384">
        <ele>111.8</ele>
        <time>2010-10-10T09:40:39Z</time>
      </trkpt>
      <trkpt lat="48.04126" lon="-0.78384">
        <ele>111.8</ele>
        <time>2010-10-10T09:40:40Z</time>
      </trkpt>
      <trkpt lat="48.04134" lon="-0.78384">
        <ele>111.8</ele>
        <time>2010-10-10T09:40:42Z</time>
      </trkpt>
      <trkpt lat="48.04138" lon="-0.78384">
        <ele>111.8</ele>
        <time>2010-10-10T09:40:43Z</time>
      </trkpt>
      <trkpt lat="48.04142" lon="-0.78384">
        <ele>111.8</ele>
        <time>2010-10-10T09:40:44Z</time>
      </trkpt>
      <trkpt lat="48.04155" lon="-0.78386">
        <ele>111.8</ele>
        <time>2010-10-10T09:40:47Z</time>
      </trkpt>
      <trkpt lat="48.04165" lon="-0.78387">
        <ele>111.8</ele>
        <time>2010-10-10T09:40:49Z</time>
      </trkpt>
      <trkpt lat="48.0417" lon="-0.78388">
        <ele>111.8</ele>
        <time>2010-10-10T09:40:51Z</time>
      </trkpt>
      <trkpt lat="48.04193" lon="-0.78392">
        <ele>112</ele>
        <time>2010-10-10T09:40:55Z</time>
      </trkpt>
      <trkpt lat="48.04197" lon="-0.78393">
        <ele>112</ele>
        <time>2010-10-10T09:40:56Z</time>
      </trkpt>
      <trkpt lat="48.04204" lon="-0.784">
        <ele>112.2</ele>
        <time>2010-10-10T09:40:58Z</time>
      </trkpt>
      <trkpt lat="48.04208" lon="-0.78411">
        <ele>112.2</ele>
        <time>2010-10-10T09:41:00Z</time>
      </trkpt>
      <trkpt lat="48.0421" lon="-0.78422">
        <ele>112.2</ele>
        <time>2010-10-10T09:41:02Z</time>
      </trkpt>
      <trkpt lat="48.0421" lon="-0.78427">
        <ele>112.2</ele>
        <time>2010-10-10T09:41:03Z</time>
      </trkpt>
      <trkpt lat="48.0421" lon="-0.7844">
        <ele>112.2</ele>
        <time>2010-10-10T09:41:05Z</time>
      </trkpt>
      <trkpt lat="48.0421" lon="-0.78448">
        <ele>112.2</ele>
        <time>2010-10-10T09:41:06Z</time>
      </trkpt>
      <trkpt lat="48.04209" lon="-0.7847">
        <ele>112.2</ele>
        <time>2010-10-10T09:41:09Z</time>
      </trkpt>
      <trkpt lat="48.04208" lon="-0.78483">
        <ele>112</ele>
        <time>2010-10-10T09:41:11Z</time>
      </trkpt>
      <trkpt lat="48.04208" lon="-0.78489">
        <ele>112</ele>
        <time>2010-10-10T09:41:12Z</time>
      </trkpt>
      <trkpt lat="48.04208" lon="-0.78503">
        <ele>112</ele>
        <time>2010-10-10T09:41:14Z</time>
      </trkpt>
      <trkpt lat="48.04208" lon="-0.78525">
        <ele>111.8</ele>
        <time>2010-10-10T09:41:17Z</time>
      </trkpt>
      <trkpt lat="48.04207" lon="-0.78533">
        <ele>111.8</ele>
        <time>2010-10-10T09:41:18Z</time>
      </trkpt>
      <trkpt lat="48.04207" lon="-0.78547">
        <ele>111.8</ele>
        <time>2010-10-10T09:41:20Z</time>
      </trkpt>
      <trkpt lat="48.04206" lon="-0.78561">
        <ele>111.6</ele>
        <time>2010-10-10T09:41:22Z</time>
      </trkpt>
      <trkpt lat="48.04206" lon="-0.78577">
        <ele>111.6</ele>
        <time>2010-10-10T09:41:24Z</time>
      </trkpt>
      <trkpt lat="48.04209" lon="-0.7859">
        <ele>111.4</ele>
        <time>2010-10-10T09:41:26Z</time>
      </trkpt>
      <trkpt lat="48.04211" lon="-0.78593">
        <ele>111.4</ele>
        <time>2010-10-10T09:41:27Z</time>
      </trkpt>
      <trkpt lat="48.0422" lon="-0.78589">
        <ele>111.4</ele>
        <time>2010-10-10T09:41:30Z</time>
      </trkpt>
      <trkpt lat="48.04228" lon="-0.78585">
        <ele>111.4</ele>
        <time>2010-10-10T09:41:32Z</time>
      </trkpt>
      <trkpt lat="48.04237" lon="-0.7858">
        <ele>111.4</ele>
        <time>2010-10-10T09:41:34Z</time>
      </trkpt>
      <trkpt lat="48.04246" lon="-0.78577">
        <ele>111.4</ele>
        <time>2010-10-10T09:41:36Z</time>
      </trkpt>
      <trkpt lat="48.04259" lon="-0.78581">
        <ele>111.4</ele>
        <time>2010-10-10T09:41:39Z</time>
      </trkpt>
      <trkpt lat="48.04264" lon="-0.78586">
        <ele>111.4</ele>
        <time>2010-10-10T09:41:40Z</time>
      </trkpt>
      <trkpt lat="48.04283" lon="-0.78604">
        <ele>111.4</ele>
        <time>2010-10-10T09:41:44Z</time>
      </trkpt>
      <trkpt lat="48.04292" lon="-0.78623">
        <ele>111.4</ele>
        <time>2010-10-10T09:41:47Z</time>
      </trkpt>
      <trkpt lat="48.04296" lon="-0.78626">
        <ele>111.2</ele>
        <time>2010-10-10T09:41:48Z</time>
      </trkpt>
      <trkpt lat="48.04314" lon="-0.78631">
        <ele>111.2</ele>
        <time>2010-10-10T09:41:51Z</time>
      </trkpt>
      <trkpt lat="48.04333" lon="-0.78639">
        <ele>111.2</ele>
        <time>2010-10-10T09:41:54Z</time>
      </trkpt>
      <trkpt lat="48.04339" lon="-0.78642">
        <ele>111.4</ele>
        <time>2010-10-10T09:41:55Z</time>
      </trkpt>
      <trkpt lat="48.04349" lon="-0.7865">
        <ele>111.6</ele>
        <time>2010-10-10T09:41:57Z</time>
      </trkpt>
      <trkpt lat="48.04352" lon="-0.78654">
        <ele>111.8</ele>
        <time>2010-10-10T09:41:58Z</time>
      </trkpt>
      <trkpt lat="48.04353" lon="-0.78659">
        <ele>111.8</ele>
        <time>2010-10-10T09:41:59Z</time>
      </trkpt>
      <trkpt lat="48.0435" lon="-0.78674">
        <ele>111.4</ele>
        <time>2010-10-10T09:42:02Z</time>
      </trkpt>
      <trkpt lat="48.04347" lon="-0.7868">
        <ele>111.4</ele>
        <time>2010-10-10T09:42:03Z</time>
      </trkpt>
      <trkpt lat="48.04341" lon="-0.78701">
        <ele>111.4</ele>
        <time>2010-10-10T09:42:06Z</time>
      </trkpt>
      <trkpt lat="48.04339" lon="-0.78709">
        <ele>111.4</ele>
        <time>2010-10-10T09:42:07Z</time>
      </trkpt>
      <trkpt lat="48.04333" lon="-0.78739">
        <ele>111.2</ele>
        <time>2010-10-10T09:42:11Z</time>
      </trkpt>
      <trkpt lat="48.04332" lon="-0.78747">
        <ele>111.2</ele>
        <time>2010-10-10T09:42:12Z</time>
      </trkpt>
      <trkpt lat="48.04332" lon="-0.78772">
        <ele>111</ele>
        <time>2010-10-10T09:42:15Z</time>
      </trkpt>
      <trkpt lat="48.04342" lon="-0.78793">
        <ele>110.8</ele>
        <time>2010-10-10T09:42:18Z</time>
      </trkpt>
      <trkpt lat="48.04345" lon="-0.78799">
        <ele>110.8</ele>
        <time>2010-10-10T09:42:19Z</time>
      </trkpt>
      <trkpt lat="48.04356" lon="-0.78824">
        <ele>110.6</ele>
        <time>2010-10-10T09:42:22Z</time>
      </trkpt>
      <trkpt lat="48.04366" lon="-0.7884">
        <ele>110.6</ele>
        <time>2010-10-10T09:42:24Z</time>
      </trkpt>
      <trkpt lat="48.04371" lon="-0.78848">
        <ele>110.6</ele>
        <time>2010-10-10T09:42:25Z</time>
      </trkpt>
      <trkpt lat="48.04375" lon="-0.78857">
        <ele>110.6</ele>
        <time>2010-10-10T09:42:26Z</time>
      </trkpt>
      <trkpt lat="48.0438" lon="-0.78874">
        <ele>110.4</ele>
        <time>2010-10-10T09:42:28Z</time>
      </trkpt>
      <trkpt lat="48.04383" lon="-0.78893">
        <ele>110.2</ele>
        <time>2010-10-10T09:42:30Z</time>
      </trkpt>
      <trkpt lat="48.04385" lon="-0.78902">
        <ele>110.2</ele>
        <time>2010-10-10T09:42:31Z</time>
      </trkpt>
      <trkpt lat="48.04392" lon="-0.78934">
        <ele>110.2</ele>
        <time>2010-10-10T09:42:34Z</time>
      </trkpt>
      <trkpt lat="48.04398" lon="-0.78956">
        <ele>110.2</ele>
        <time>2010-10-10T09:42:36Z</time>
      </trkpt>
      <trkpt lat="48.04403" lon="-0.78966">
        <ele>110.2</ele>
        <time>2010-10-10T09:42:37Z</time>
      </trkpt>
      <trkpt lat="48.04407" lon="-0.78976">
        <ele>110.2</ele>
        <time>2010-10-10T09:42:38Z</time>
      </trkpt>
      <trkpt lat="48.04416" lon="-0.78997">
        <ele>110.2</ele>
        <time>2010-10-10T09:42:40Z</time>
      </trkpt>
      <trkpt lat="48.04424" lon="-0.79016">
        <ele>110.2</ele>
        <time>2010-10-10T09:42:42Z</time>
      </trkpt>
      <trkpt lat="48.04429" lon="-0.79024">
        <ele>110.2</ele>
        <time>2010-10-10T09:42:43Z</time>
      </trkpt>
      <trkpt lat="48.04437" lon="-0.79049">
        <ele>110.2</ele>
        <time>2010-10-10T09:42:46Z</time>
      </trkpt>
      <trkpt lat="48.04438" lon="-0.79057">
        <ele>110.2</ele>
        <time>2010-10-10T09:42:47Z</time>
      </trkpt>
      <trkpt lat="48.04431" lon="-0.79072">
        <ele>110</ele>
        <time>2010-10-10T09:42:50Z</time>
      </trkpt>
      <trkpt lat="48.04421" lon="-0.7907">
        <ele>110</ele>
        <time>2010-10-10T09:42:53Z</time>
      </trkpt>
      <trkpt lat="48.04418" lon="-0.79067">
        <ele>110</ele>
        <time>2010-10-10T09:42:55Z</time>
      </trkpt>
      <trkpt lat="48.04417" lon="-0.79065">
        <ele>110</ele>
        <time>2010-10-10T09:42:57Z</time>
      </trkpt>
      <trkpt lat="48.04414" lon="-0.79062">
        <ele>110.2</ele>
        <time>2010-10-10T09:43:00Z</time>
      </trkpt>
      <trkpt lat="48.044" lon="-0.79064">
        <ele>115.4</ele>
        <time>2010-10-10T09:43:40Z</time>
      </trkpt>
      <trkpt lat="48.04397" lon="-0.79063">
        <ele>115.4</ele>
        <time>2010-10-10T09:43:41Z</time>
      </trkpt>
      <trkpt lat="48.04379" lon="-0.79064">
        <ele>115.2</ele>
        <time>2010-10-10T09:43:46Z</time>
      </trkpt>
      <trkpt lat="48.04375" lon="-0.79063">
        <ele>115.2</ele>
        <time>2010-10-10T09:43:47Z</time>
      </trkpt>
      <trkpt lat="48.04359" lon="-0.79063">
        <ele>115</ele>
        <time>2010-10-10T09:43:51Z</time>
      </trkpt>
      <trkpt lat="48.04342" lon="-0.79063">
        <ele>114.8</ele>
        <time>2010-10-10T09:43:55Z</time>
      </trkpt>
      <trkpt lat="48.04338" lon="-0.79063">
        <ele>114.8</ele>
        <time>2010-10-10T09:43:56Z</time>
      </trkpt>
      <trkpt lat="48.04334" lon="-0.79063">
        <ele>114.6</ele>
        <time>2010-10-10T09:43:57Z</time>
      </trkpt>
      <trkpt lat="48.04319" lon="-0.79063">
        <ele>114.4</ele>
        <time>2010-10-10T09:44:01Z</time>
      </trkpt>
      <trkpt lat="48.04308" lon="-0.79063">
        <ele>114.2</ele>
        <time>2010-10-10T09:44:04Z</time>
      </trkpt>
      <trkpt lat="48.04301" lon="-0.79063">
        <ele>114</ele>
        <time>2010-10-10T09:44:06Z</time>
      </trkpt>
      <trkpt lat="48.04292" lon="-0.79063">
        <ele>113.8</ele>
        <time>2010-10-10T09:44:08Z</time>
      </trkpt>
      <trkpt lat="48.0428" lon="-0.79061">
        <ele>113.6</ele>
        <time>2010-10-10T09:44:11Z</time>
      </trkpt>
      <trkpt lat="48.0427" lon="-0.79059">
        <ele>113.4</ele>
        <time>2010-10-10T09:44:14Z</time>
      </trkpt>
      <trkpt lat="48.04267" lon="-0.79058">
        <ele>113.6</ele>
        <time>2010-10-10T09:44:15Z</time>
      </trkpt>
      <trkpt lat="48.04265" lon="-0.79064">
        <ele>113.6</ele>
        <time>2010-10-10T09:44:18Z</time>
      </trkpt>
      <trkpt lat="48.04263" lon="-0.79071">
        <ele>113.6</ele>
        <time>2010-10-10T09:44:20Z</time>
      </trkpt>
      <trkpt lat="48.04259" lon="-0.79083">
        <ele>113.4</ele>
        <time>2010-10-10T09:44:23Z</time>
      </trkpt>
      <trkpt lat="48.04257" lon="-0.79098">
        <ele>113.4</ele>
        <time>2010-10-10T09:44:26Z</time>
      </trkpt>
      <trkpt lat="48.04256" lon="-0.79106">
        <ele>113.6</ele>
        <time>2010-10-10T09:44:28Z</time>
      </trkpt>
      <trkpt lat="48.0425" lon="-0.79128">
        <ele>113.4</ele>
        <time>2010-10-10T09:44:32Z</time>
      </trkpt>
      <trkpt lat="48.04246" lon="-0.79156">
        <ele>113</ele>
        <time>2010-10-10T09:44:37Z</time>
      </trkpt>
      <trkpt lat="48.04245" lon="-0.79162">
        <ele>113</ele>
        <time>2010-10-10T09:44:38Z</time>
      </trkpt>
      <trkpt lat="48.04245" lon="-0.79177">
        <ele>112.8</ele>
        <time>2010-10-10T09:44:41Z</time>
      </trkpt>
      <trkpt lat="48.04244" lon="-0.79182">
        <ele>112.8</ele>
        <time>2010-10-10T09:44:42Z</time>
      </trkpt>
      <trkpt lat="48.04244" lon="-0.79187">
        <ele>112.8</ele>
        <time>2010-10-10T09:44:43Z</time>
      </trkpt>
      <trkpt lat="48.04241" lon="-0.79206">
        <ele>112.6</ele>
        <time>2010-10-10T09:44:46Z</time>
      </trkpt>
      <trkpt lat="48.04238" lon="-0.79213">
        <ele>112.6</ele>
        <time>2010-10-10T09:44:47Z</time>
      </trkpt>
      <trkpt lat="48.04235" lon="-0.79218">
        <ele>112.4</ele>
        <time>2010-10-10T09:44:48Z</time>
      </trkpt>
      <trkpt lat="48.0423" lon="-0.79222">
        <ele>112.4</ele>
        <time>2010-10-10T09:44:49Z</time>
      </trkpt>
      <trkpt lat="48.04222" lon="-0.79228">
        <ele>112.4</ele>
        <time>2010-10-10T09:44:51Z</time>
      </trkpt>
      <trkpt lat="48.04214" lon="-0.79228">
        <ele>112.2</ele>
        <time>2010-10-10T09:44:53Z</time>
      </trkpt>
      <trkpt lat="48.04211" lon="-0.79228">
        <ele>112.2</ele>
        <time>2010-10-10T09:44:54Z</time>
      </trkpt>
      <trkpt lat="48.04207" lon="-0.79227">
        <ele>112.2</ele>
        <time>2010-10-10T09:44:55Z</time>
      </trkpt>
      <trkpt lat="48.04204" lon="-0.79229">
        <ele>112.2</ele>
        <time>2010-10-10T09:44:56Z</time>
      </trkpt>
      <trkpt lat="48.04195" lon="-0.79233">
        <ele>112</ele>
        <time>2010-10-10T09:44:58Z</time>
      </trkpt>
      <trkpt lat="48.04187" lon="-0.79241">
        <ele>112</ele>
        <time>2010-10-10T09:45:00Z</time>
      </trkpt>
      <trkpt lat="48.04183" lon="-0.79245">
        <ele>112</ele>
        <time>2010-10-10T09:45:01Z</time>
      </trkpt>
      <trkpt lat="48.04169" lon="-0.79248">
        <ele>111.8</ele>
        <time>2010-10-10T09:45:04Z</time>
      </trkpt>
      <trkpt lat="48.04158" lon="-0.79247">
        <ele>111.8</ele>
        <time>2010-10-10T09:45:06Z</time>
      </trkpt>
      <trkpt lat="48.04147" lon="-0.79244">
        <ele>111.6</ele>
        <time>2010-10-10T09:45:08Z</time>
      </trkpt>
      <trkpt lat="48.04136" lon="-0.79243">
        <ele>111.6</ele>
        <time>2010-10-10T09:45:10Z</time>
      </trkpt>
      <trkpt lat="48.04131" lon="-0.79243">
        <ele>111.6</ele>
        <time>2010-10-10T09:45:11Z</time>
      </trkpt>
      <trkpt lat="48.04128" lon="-0.79241">
        <ele>111.6</ele>
        <time>2010-10-10T09:45:12Z</time>
      </trkpt>
      <trkpt lat="48.04125" lon="-0.79238">
        <ele>111.4</ele>
        <time>2010-10-10T09:45:13Z</time>
      </trkpt>
      <trkpt lat="48.04118" lon="-0.7922">
        <ele>111.4</ele>
        <time>2010-10-10T09:45:16Z</time>
      </trkpt>
      <trkpt lat="48.04116" lon="-0.79213">
        <ele>111.4</ele>
        <time>2010-10-10T09:45:17Z</time>
      </trkpt>
      <trkpt lat="48.04115" lon="-0.792">
        <ele>111.2</ele>
        <time>2010-10-10T09:45:19Z</time>
      </trkpt>
      <trkpt lat="48.04114" lon="-0.79194">
        <ele>111.2</ele>
        <time>2010-10-10T09:45:20Z</time>
      </trkpt>
      <trkpt lat="48.04113" lon="-0.79183">
        <ele>111.2</ele>
        <time>2010-10-10T09:45:22Z</time>
      </trkpt>
      <trkpt lat="48.04112" lon="-0.79178">
        <ele>111.2</ele>
        <time>2010-10-10T09:45:23Z</time>
      </trkpt>
      <trkpt lat="48.04112" lon="-0.79172">
        <ele>111.2</ele>
        <time>2010-10-10T09:45:24Z</time>
      </trkpt>
      <trkpt lat="48.04111" lon="-0.79165">
        <ele>111.2</ele>
        <time>2010-10-10T09:45:25Z</time>
      </trkpt>
      <trkpt lat="48.04108" lon="-0.79154">
        <ele>111.2</ele>
        <time>2010-10-10T09:45:27Z</time>
      </trkpt>
      <trkpt lat="48.04107" lon="-0.79148">
        <ele>111.4</ele>
        <time>2010-10-10T09:45:28Z</time>
      </trkpt>
      <trkpt lat="48.04108" lon="-0.79131">
        <ele>111.6</ele>
        <time>2010-10-10T09:45:31Z</time>
      </trkpt>
      <trkpt lat="48.04108" lon="-0.79125">
        <ele>111.8</ele>
        <time>2010-10-10T09:45:32Z</time>
      </trkpt>
      <trkpt lat="48.04111" lon="-0.79101">
        <ele>112.2</ele>
        <time>2010-10-10T09:45:36Z</time>
      </trkpt>
      <trkpt lat="48.04112" lon="-0.79096">
        <ele>112.4</ele>
        <time>2010-10-10T09:45:37Z</time>
      </trkpt>
      <trkpt lat="48.0412" lon="-0.79078">
        <ele>113.2</ele>
        <time>2010-10-10T09:45:41Z</time>
      </trkpt>
      <trkpt lat="48.04122" lon="-0.79069">
        <ele>113.6</ele>
        <time>2010-10-10T09:45:43Z</time>
      </trkpt>
      <trkpt lat="48.04124" lon="-0.79061">
        <ele>113.8</ele>
        <time>2010-10-10T09:45:45Z</time>
      </trkpt>
      <trkpt lat="48.04128" lon="-0.79043">
        <ele>114.4</ele>
        <time>2010-10-10T09:45:50Z</time>
      </trkpt>
      <trkpt lat="48.0412" lon="-0.79039">
        <ele>114.4</ele>
        <time>2010-10-10T09:45:53Z</time>
      </trkpt>
      <trkpt lat="48.04115" lon="-0.7904">
        <ele>114.2</ele>
        <time>2010-10-10T09:45:54Z</time>
      </trkpt>
      <trkpt lat="48.04111" lon="-0.7904">
        <ele>114.2</ele>
        <time>2010-10-10T09:45:55Z</time>
      </trkpt>
      <trkpt lat="48.04095" lon="-0.79039">
        <ele>114.2</ele>
        <time>2010-10-10T09:45:58Z</time>
      </trkpt>
      <trkpt lat="48.04088" lon="-0.79039">
        <ele>114.2</ele>
        <time>2010-10-10T09:45:59Z</time>
      </trkpt>
      <trkpt lat="48.04066" lon="-0.79037">
        <ele>114</ele>
        <time>2010-10-10T09:46:02Z</time>
      </trkpt>
      <trkpt lat="48.04048" lon="-0.79035">
        <ele>113.8</ele>
        <time>2010-10-10T09:46:04Z</time>
      </trkpt>
      <trkpt lat="48.04029" lon="-0.79034">
        <ele>113.6</ele>
        <time>2010-10-10T09:46:06Z</time>
      </trkpt>
      <trkpt lat="48.0402" lon="-0.79034">
        <ele>113.6</ele>
        <time>2010-10-10T09:46:07Z</time>
      </trkpt>
      <trkpt lat="48.0401" lon="-0.79033">
        <ele>113.6</ele>
        <time>2010-10-10T09:46:08Z</time>
      </trkpt>
      <trkpt lat="48.03989" lon="-0.79032">
        <ele>113.4</ele>
        <time>2010-10-10T09:46:10Z</time>
      </trkpt>
      <trkpt lat="48.03969" lon="-0.7903">
        <ele>113</ele>
        <time>2010-10-10T09:46:12Z</time>
      </trkpt>
      <trkpt lat="48.03949" lon="-0.79029">
        <ele>112.8</ele>
        <time>2010-10-10T09:46:14Z</time>
      </trkpt>
      <trkpt lat="48.03926" lon="-0.79025">
        <ele>112.6</ele>
        <time>2010-10-10T09:46:16Z</time>
      </trkpt>
      <trkpt lat="48.03915" lon="-0.79024">
        <ele>112.4</ele>
        <time>2010-10-10T09:46:17Z</time>
      </trkpt>
      <trkpt lat="48.03904" lon="-0.79023">
        <ele>112.4</ele>
        <time>2010-10-10T09:46:18Z</time>
      </trkpt>
      <trkpt lat="48.03892" lon="-0.79021">
        <ele>112.2</ele>
        <time>2010-10-10T09:46:19Z</time>
      </trkpt>
      <trkpt lat="48.03882" lon="-0.7902">
        <ele>112</ele>
        <time>2010-10-10T09:46:20Z</time>
      </trkpt>
      <trkpt lat="48.03873" lon="-0.79019">
        <ele>112</ele>
        <time>2010-10-10T09:46:21Z</time>
      </trkpt>
      <trkpt lat="48.03856" lon="-0.79018">
        <ele>111.6</ele>
        <time>2010-10-10T09:46:23Z</time>
      </trkpt>
      <trkpt lat="48.03843" lon="-0.79012">
        <ele>111.4</ele>
        <time>2010-10-10T09:46:25Z</time>
      </trkpt>
      <trkpt lat="48.03838" lon="-0.79006">
        <ele>111.2</ele>
        <time>2010-10-10T09:46:26Z</time>
      </trkpt>
      <trkpt lat="48.03829" lon="-0.78989">
        <ele>110.8</ele>
        <time>2010-10-10T09:46:29Z</time>
      </trkpt>
      <trkpt lat="48.03826" lon="-0.78982">
        <ele>110.6</ele>
        <time>2010-10-10T09:46:30Z</time>
      </trkpt>
      <trkpt lat="48.03823" lon="-0.78974">
        <ele>110.6</ele>
        <time>2010-10-10T09:46:31Z</time>
      </trkpt>
      <trkpt lat="48.03814" lon="-0.78952">
        <ele>110</ele>
        <time>2010-10-10T09:46:34Z</time>
      </trkpt>
      <trkpt lat="48.03804" lon="-0.78928">
        <ele>109.6</ele>
        <time>2010-10-10T09:46:37Z</time>
      </trkpt>
      <trkpt lat="48.03793" lon="-0.78909">
        <ele>109.4</ele>
        <time>2010-10-10T09:46:39Z</time>
      </trkpt>
      <trkpt lat="48.03789" lon="-0.78899">
        <ele>109.2</ele>
        <time>2010-10-10T09:46:40Z</time>
      </trkpt>
      <trkpt lat="48.03777" lon="-0.78871">
        <ele>108.6</ele>
        <time>2010-10-10T09:46:43Z</time>
      </trkpt>
      <trkpt lat="48.03767" lon="-0.78855">
        <ele>108.4</ele>
        <time>2010-10-10T09:46:45Z</time>
      </trkpt>
      <trkpt lat="48.03763" lon="-0.7885">
        <ele>108.2</ele>
        <time>2010-10-10T09:46:46Z</time>
      </trkpt>
      <trkpt lat="48.03751" lon="-0.78846">
        <ele>107.8</ele>
        <time>2010-10-10T09:46:48Z</time>
      </trkpt>
      <trkpt lat="48.03745" lon="-0.78849">
        <ele>107.6</ele>
        <time>2010-10-10T09:46:49Z</time>
      </trkpt>
      <trkpt lat="48.03737" lon="-0.78851">
        <ele>107.4</ele>
        <time>2010-10-10T09:46:50Z</time>
      </trkpt>
      <trkpt lat="48.03732" lon="-0.78854">
        <ele>107.2</ele>
        <time>2010-10-10T09:46:51Z</time>
      </trkpt>
      <trkpt lat="48.03726" lon="-0.78855">
        <ele>107.2</ele>
        <time>2010-10-10T09:46:52Z</time>
      </trkpt>
      <trkpt lat="48.03704" lon="-0.78857">
        <ele>106.4</ele>
        <time>2010-10-10T09:46:56Z</time>
      </trkpt>
      <trkpt lat="48.03698" lon="-0.78858">
        <ele>106.4</ele>
        <time>2010-10-10T09:46:57Z</time>
      </trkpt>
      <trkpt lat="48.03688" lon="-0.78859">
        <ele>106</ele>
        <time>2010-10-10T09:46:59Z</time>
      </trkpt>
      <trkpt lat="48.03683" lon="-0.7886">
        <ele>105.8</ele>
        <time>2010-10-10T09:47:00Z</time>
      </trkpt>
      <trkpt lat="48.03674" lon="-0.7886">
        <ele>105.6</ele>
        <time>2010-10-10T09:47:02Z</time>
      </trkpt>
      <trkpt lat="48.03665" lon="-0.78862">
        <ele>105.4</ele>
        <time>2010-10-10T09:47:04Z</time>
      </trkpt>
      <trkpt lat="48.03653" lon="-0.78861">
        <ele>105</ele>
        <time>2010-10-10T09:47:07Z</time>
      </trkpt>
      <trkpt lat="48.03647" lon="-0.7886">
        <ele>104.6</ele>
        <time>2010-10-10T09:47:09Z</time>
      </trkpt>
      <trkpt lat="48.03638" lon="-0.7886">
        <ele>104.2</ele>
        <time>2010-10-10T09:47:12Z</time>
      </trkpt>
      <trkpt lat="48.03627" lon="-0.78859">
        <ele>103.8</ele>
        <time>2010-10-10T09:47:17Z</time>
      </trkpt>
      <trkpt lat="48.03625" lon="-0.78859">
        <ele>103.6</ele>
        <time>2010-10-10T09:47:18Z</time>
      </trkpt>
      <trkpt lat="48.03611" lon="-0.78857">
        <ele>102.8</ele>
        <time>2010-10-10T09:47:26Z</time>
      </trkpt>
      <trkpt lat="48.03608" lon="-0.78856">
        <ele>102.8</ele>
        <time>2010-10-10T09:47:28Z</time>
      </trkpt>
      <trkpt lat="48.03601" lon="-0.78855">
        <ele>102.6</ele>
        <time>2010-10-10T09:47:33Z</time>
      </trkpt>
      <trkpt lat="48.03596" lon="-0.78855">
        <ele>102.4</ele>
        <time>2010-10-10T09:47:38Z</time>
      </trkpt>
      <trkpt lat="48.03592" lon="-0.78855">
        <ele>102.4</ele>
        <time>2010-10-10T09:47:40Z</time>
      </trkpt>
      <trkpt lat="48.03589" lon="-0.78854">
        <ele>102.2</ele>
        <time>2010-10-10T09:47:43Z</time>
      </trkpt>
      <trkpt lat="48.03588" lon="-0.78854">
        <ele>102.2</ele>
        <time>2010-10-10T09:47:44Z</time>
      </trkpt>
      <trkpt lat="48.03586" lon="-0.78854">
        <ele>102.2</ele>
        <time>2010-10-10T09:47:46Z</time>
      </trkpt>
      <trkpt lat="48.03577" lon="-0.78852">
        <ele>102.2</ele>
        <time>2010-10-10T09:47:52Z</time>
      </trkpt>
      <trkpt lat="48.0357" lon="-0.7885">
        <ele>102</ele>
        <time>2010-10-10T09:47:58Z</time>
      </trkpt>
      <trkpt lat="48.03568" lon="-0.78849">
        <ele>102</ele>
        <time>2010-10-10T09:48:00Z</time>
      </trkpt>
      <trkpt lat="48.03563" lon="-0.78848">
        <ele>102</ele>
        <time>2010-10-10T09:48:06Z</time>
      </trkpt>
      <trkpt lat="48.03562" lon="-0.78847">
        <ele>102</ele>
        <time>2010-10-10T09:48:07Z</time>
      </trkpt>
      <trkpt lat="48.03552" lon="-0.78844">
        <ele>102.6</ele>
        <time>2010-10-10T09:48:15Z</time>
      </trkpt>
      <trkpt lat="48.03551" lon="-0.78843">
        <ele>102.6</ele>
        <time>2010-10-10T09:48:16Z</time>
      </trkpt>
      <trkpt lat="48.03545" lon="-0.78839">
        <ele>103.2</ele>
        <time>2010-10-10T09:48:21Z</time>
      </trkpt>
      <trkpt lat="48.03544" lon="-0.78839">
        <ele>103.4</ele>
        <time>2010-10-10T09:48:22Z</time>
      </trkpt>
      <trkpt lat="48.03539" lon="-0.78837">
        <ele>103.8</ele>
        <time>2010-10-10T09:48:27Z</time>
      </trkpt>
      <trkpt lat="48.03534" lon="-0.78835">
        <ele>104</ele>
        <time>2010-10-10T09:48:32Z</time>
      </trkpt>
      <trkpt lat="48.03533" lon="-0.78834">
        <ele>104.2</ele>
        <time>2010-10-10T09:48:33Z</time>
      </trkpt>
      <trkpt lat="48.03525" lon="-0.78831">
        <ele>104.6</ele>
        <time>2010-10-10T09:48:40Z</time>
      </trkpt>
      <trkpt lat="48.03517" lon="-0.78827">
        <ele>105.2</ele>
        <time>2010-10-10T09:48:47Z</time>
      </trkpt>
      <trkpt lat="48.03515" lon="-0.78826">
        <ele>105.2</ele>
        <time>2010-10-10T09:48:48Z</time>
      </trkpt>
      <trkpt lat="48.03504" lon="-0.78819">
        <ele>105.6</ele>
        <time>2010-10-10T09:48:55Z</time>
      </trkpt>
      <trkpt lat="48.03499" lon="-0.78814">
        <ele>105.8</ele>
        <time>2010-10-10T09:48:58Z</time>
      </trkpt>
      <trkpt lat="48.03489" lon="-0.78808">
        <ele>106.4</ele>
        <time>2010-10-10T09:49:03Z</time>
      </trkpt>
      <trkpt lat="48.03481" lon="-0.78801">
        <ele>107</ele>
        <time>2010-10-10T09:49:07Z</time>
      </trkpt>
      <trkpt lat="48.03474" lon="-0.78799">
        <ele>107.2</ele>
        <time>2010-10-10T09:49:10Z</time>
      </trkpt>
      <trkpt lat="48.03463" lon="-0.788">
        <ele>107.4</ele>
        <time>2010-10-10T09:49:14Z</time>
      </trkpt>
      <trkpt lat="48.0346" lon="-0.78801">
        <ele>107.4</ele>
        <time>2010-10-10T09:49:15Z</time>
      </trkpt>
      <trkpt lat="48.03442" lon="-0.78805">
        <ele>107.8</ele>
        <time>2010-10-10T09:49:20Z</time>
      </trkpt>
      <trkpt lat="48.03439" lon="-0.78807">
        <ele>107.8</ele>
        <time>2010-10-10T09:49:21Z</time>
      </trkpt>
      <trkpt lat="48.03433" lon="-0.7883">
        <ele>107.8</ele>
        <time>2010-10-10T09:49:25Z</time>
      </trkpt>
      <trkpt lat="48.03427" lon="-0.78853">
        <ele>107.6</ele>
        <time>2010-10-10T09:49:29Z</time>
      </trkpt>
      <trkpt lat="48.03424" lon="-0.78859">
        <ele>107.6</ele>
        <time>2010-10-10T09:49:30Z</time>
      </trkpt>
      <trkpt lat="48.03416" lon="-0.78867">
        <ele>107.6</ele>
        <time>2010-10-10T09:49:32Z</time>
      </trkpt>
      <trkpt lat="48.03409" lon="-0.78874">
        <ele>107.4</ele>
        <time>2010-10-10T09:49:34Z</time>
      </trkpt>
      <trkpt lat="48.03397" lon="-0.78884">
        <ele>107.2</ele>
        <time>2010-10-10T09:49:37Z</time>
      </trkpt>
      <trkpt lat="48.03393" lon="-0.78888">
        <ele>107.2</ele>
        <time>2010-10-10T09:49:38Z</time>
      </trkpt>
      <trkpt lat="48.03388" lon="-0.78892">
        <ele>107.2</ele>
        <time>2010-10-10T09:49:39Z</time>
      </trkpt>
      <trkpt lat="48.03376" lon="-0.78903">
        <ele>107</ele>
        <time>2010-10-10T09:49:42Z</time>
      </trkpt>
      <trkpt lat="48.03368" lon="-0.7891">
        <ele>106.8</ele>
        <time>2010-10-10T09:49:44Z</time>
      </trkpt>
      <trkpt lat="48.03357" lon="-0.78921">
        <ele>106.8</ele>
        <time>2010-10-10T09:49:47Z</time>
      </trkpt>
      <trkpt lat="48.03348" lon="-0.78929">
        <ele>106.8</ele>
        <time>2010-10-10T09:49:49Z</time>
      </trkpt>
      <trkpt lat="48.03341" lon="-0.78936">
        <ele>106.6</ele>
        <time>2010-10-10T09:49:51Z</time>
      </trkpt>
      <trkpt lat="48.03334" lon="-0.78941">
        <ele>106.6</ele>
        <time>2010-10-10T09:49:53Z</time>
      </trkpt>
      <trkpt lat="48.03324" lon="-0.78945">
        <ele>106.6</ele>
        <time>2010-10-10T09:49:57Z</time>
      </trkpt>
      <trkpt lat="48.03322" lon="-0.78945">
        <ele>106.6</ele>
        <time>2010-10-10T09:49:58Z</time>
      </trkpt>
      <trkpt lat="48.03318" lon="-0.78951">
        <ele>106.6</ele>
        <time>2010-10-10T09:50:00Z</time>
      </trkpt>
      <trkpt lat="48.0331" lon="-0.78966">
        <ele>106.6</ele>
        <time>2010-10-10T09:50:03Z</time>
      </trkpt>
      <trkpt lat="48.03306" lon="-0.7897">
        <ele>106.6</ele>
        <time>2010-10-10T09:50:04Z</time>
      </trkpt>
      <trkpt lat="48.03295" lon="-0.78985">
        <ele>106.6</ele>
        <time>2010-10-10T09:50:07Z</time>
      </trkpt>
      <trkpt lat="48.03283" lon="-0.79001">
        <ele>106.8</ele>
        <time>2010-10-10T09:50:10Z</time>
      </trkpt>
      <trkpt lat="48.03279" lon="-0.79006">
        <ele>106.8</ele>
        <time>2010-10-10T09:50:11Z</time>
      </trkpt>
      <trkpt lat="48.03264" lon="-0.79028">
        <ele>107</ele>
        <time>2010-10-10T09:50:15Z</time>
      </trkpt>
      <trkpt lat="48.03255" lon="-0.79039">
        <ele>107</ele>
        <time>2010-10-10T09:50:17Z</time>
      </trkpt>
      <trkpt lat="48.03246" lon="-0.79048">
        <ele>107.2</ele>
        <time>2010-10-10T09:50:19Z</time>
      </trkpt>
      <trkpt lat="48.03231" lon="-0.7907">
        <ele>107.4</ele>
        <time>2010-10-10T09:50:23Z</time>
      </trkpt>
      <trkpt lat="48.03215" lon="-0.7909">
        <ele>107.6</ele>
        <time>2010-10-10T09:50:27Z</time>
      </trkpt>
      <trkpt lat="48.03205" lon="-0.79103">
        <ele>107.8</ele>
        <time>2010-10-10T09:50:30Z</time>
      </trkpt>
      <trkpt lat="48.03201" lon="-0.79108">
        <ele>107.8</ele>
        <time>2010-10-10T09:50:31Z</time>
      </trkpt>
      <trkpt lat="48.03186" lon="-0.79132">
        <ele>108</ele>
        <time>2010-10-10T09:50:36Z</time>
      </trkpt>
      <trkpt lat="48.03169" lon="-0.79154">
        <ele>108.4</ele>
        <time>2010-10-10T09:50:41Z</time>
      </trkpt>
      <trkpt lat="48.03159" lon="-0.79167">
        <ele>108.6</ele>
        <time>2010-10-10T09:50:44Z</time>
      </trkpt>
      <trkpt lat="48.03155" lon="-0.79172">
        <ele>108.6</ele>
        <time>2010-10-10T09:50:45Z</time>
      </trkpt>
      <trkpt lat="48.03152" lon="-0.79176">
        <ele>108.8</ele>
        <time>2010-10-10T09:50:46Z</time>
      </trkpt>
      <trkpt lat="48.03138" lon="-0.79192">
        <ele>109</ele>
        <time>2010-10-10T09:50:50Z</time>
      </trkpt>
      <trkpt lat="48.0312" lon="-0.79211">
        <ele>109.2</ele>
        <time>2010-10-10T09:50:55Z</time>
      </trkpt>
      <trkpt lat="48.03104" lon="-0.79226">
        <ele>109.2</ele>
        <time>2010-10-10T09:50:59Z</time>
      </trkpt>
      <trkpt lat="48.03091" lon="-0.79236">
        <ele>109.4</ele>
        <time>2010-10-10T09:51:02Z</time>
      </trkpt>
      <trkpt lat="48.03087" lon="-0.79239">
        <ele>109.4</ele>
        <time>2010-10-10T09:51:03Z</time>
      </trkpt>
      <trkpt lat="48.03074" lon="-0.79251">
        <ele>109.4</ele>
        <time>2010-10-10T09:51:06Z</time>
      </trkpt>
      <trkpt lat="48.03069" lon="-0.79255">
        <ele>109.4</ele>
        <time>2010-10-10T09:51:07Z</time>
      </trkpt>
      <trkpt lat="48.03052" lon="-0.79273">
        <ele>109.6</ele>
        <time>2010-10-10T09:51:11Z</time>
      </trkpt>
      <trkpt lat="48.03043" lon="-0.79282">
        <ele>109.4</ele>
        <time>2010-10-10T09:51:13Z</time>
      </trkpt>
      <trkpt lat="48.03034" lon="-0.79292">
        <ele>109.4</ele>
        <time>2010-10-10T09:51:15Z</time>
      </trkpt>
      <trkpt lat="48.03021" lon="-0.79305">
        <ele>109.4</ele>
        <time>2010-10-10T09:51:18Z</time>
      </trkpt>
      <trkpt lat="48.03016" lon="-0.79309">
        <ele>109.4</ele>
        <time>2010-10-10T09:51:19Z</time>
      </trkpt>
      <trkpt lat="48.03009" lon="-0.79311">
        <ele>109.4</ele>
        <time>2010-10-10T09:51:21Z</time>
      </trkpt>
      <trkpt lat="48.03004" lon="-0.793">
        <ele>109.4</ele>
        <time>2010-10-10T09:51:24Z</time>
      </trkpt>
      <trkpt lat="48.03002" lon="-0.79294">
        <ele>109.4</ele>
        <time>2010-10-10T09:51:25Z</time>
      </trkpt>
      <trkpt lat="48.02999" lon="-0.79282">
        <ele>109.6</ele>
        <time>2010-10-10T09:51:27Z</time>
      </trkpt>
      <trkpt lat="48.02996" lon="-0.79268">
        <ele>109.6</ele>
        <time>2010-10-10T09:51:29Z</time>
      </trkpt>
      <trkpt lat="48.02989" lon="-0.79235">
        <ele>109.6</ele>
        <time>2010-10-10T09:51:33Z</time>
      </trkpt>
      <trkpt lat="48.02984" lon="-0.7921">
        <ele>109.8</ele>
        <time>2010-10-10T09:51:36Z</time>
      </trkpt>
      <trkpt lat="48.02982" lon="-0.79202">
        <ele>109.8</ele>
        <time>2010-10-10T09:51:37Z</time>
      </trkpt>
      <trkpt lat="48.02975" lon="-0.79169">
        <ele>110</ele>
        <time>2010-10-10T09:51:41Z</time>
      </trkpt>
      <trkpt lat="48.02967" lon="-0.79137">
        <ele>110.2</ele>
        <time>2010-10-10T09:51:45Z</time>
      </trkpt>
      <trkpt lat="48.0296" lon="-0.79105">
        <ele>110.4</ele>
        <time>2010-10-10T09:51:49Z</time>
      </trkpt>
      <trkpt lat="48.02955" lon="-0.79081">
        <ele>110.8</ele>
        <time>2010-10-10T09:51:52Z</time>
      </trkpt>
      <trkpt lat="48.02953" lon="-0.79073">
        <ele>110.8</ele>
        <time>2010-10-10T09:51:53Z</time>
      </trkpt>
      <trkpt lat="48.02946" lon="-0.79041">
        <ele>111.2</ele>
        <time>2010-10-10T09:51:57Z</time>
      </trkpt>
      <trkpt lat="48.02941" lon="-0.79018">
        <ele>111.4</ele>
        <time>2010-10-10T09:52:00Z</time>
      </trkpt>
      <trkpt lat="48.02939" lon="-0.79011">
        <ele>111.6</ele>
        <time>2010-10-10T09:52:01Z</time>
      </trkpt>
      <trkpt lat="48.02932" lon="-0.78979">
        <ele>111.8</ele>
        <time>2010-10-10T09:52:05Z</time>
      </trkpt>
      <trkpt lat="48.02927" lon="-0.78962">
        <ele>112</ele>
        <time>2010-10-10T09:52:07Z</time>
      </trkpt>
      <trkpt lat="48.02925" lon="-0.78954">
        <ele>112</ele>
        <time>2010-10-10T09:52:08Z</time>
      </trkpt>
      <trkpt lat="48.02922" lon="-0.78944">
        <ele>112.2</ele>
        <time>2010-10-10T09:52:09Z</time>
      </trkpt>
      <trkpt lat="48.02912" lon="-0.7893">
        <ele>112.2</ele>
        <time>2010-10-10T09:52:11Z</time>
      </trkpt>
      <trkpt lat="48.02891" lon="-0.78923">
        <ele>112.2</ele>
        <time>2010-10-10T09:52:14Z</time>
      </trkpt>
      <trkpt lat="48.02884" lon="-0.78923">
        <ele>112.2</ele>
        <time>2010-10-10T09:52:15Z</time>
      </trkpt>
      <trkpt lat="48.02869" lon="-0.78922">
        <ele>112.2</ele>
        <time>2010-10-10T09:52:17Z</time>
      </trkpt>
      <trkpt lat="48.02845" lon="-0.78922">
        <ele>112</ele>
        <time>2010-10-10T09:52:20Z</time>
      </trkpt>
      <trkpt lat="48.02821" lon="-0.7892">
        <ele>112</ele>
        <time>2010-10-10T09:52:23Z</time>
      </trkpt>
      <trkpt lat="48.02814" lon="-0.78915">
        <ele>111.8</ele>
        <time>2010-10-10T09:52:24Z</time>
      </trkpt>
      <trkpt lat="48.02804" lon="-0.78897">
        <ele>111.8</ele>
        <time>2010-10-10T09:52:26Z</time>
      </trkpt>
      <trkpt lat="48.02801" lon="-0.78887">
        <ele>111.8</ele>
        <time>2010-10-10T09:52:27Z</time>
      </trkpt>
      <trkpt lat="48.02796" lon="-0.78865">
        <ele>111.8</ele>
        <time>2010-10-10T09:52:29Z</time>
      </trkpt>
      <trkpt lat="48.02792" lon="-0.78841">
        <ele>111.8</ele>
        <time>2010-10-10T09:52:31Z</time>
      </trkpt>
      <trkpt lat="48.0279" lon="-0.7883">
        <ele>111.8</ele>
        <time>2010-10-10T09:52:32Z</time>
      </trkpt>
      <trkpt lat="48.02783" lon="-0.78794">
        <ele>111.8</ele>
        <time>2010-10-10T09:52:35Z</time>
      </trkpt>
      <trkpt lat="48.02776" lon="-0.7876">
        <ele>111.8</ele>
        <time>2010-10-10T09:52:38Z</time>
      </trkpt>
      <trkpt lat="48.02769" lon="-0.78728">
        <ele>111.6</ele>
        <time>2010-10-10T09:52:41Z</time>
      </trkpt>
      <trkpt lat="48.02768" lon="-0.78717">
        <ele>111.6</ele>
        <time>2010-10-10T09:52:42Z</time>
      </trkpt>
      <trkpt lat="48.0277" lon="-0.78699">
        <ele>111.6</ele>
        <time>2010-10-10T09:52:44Z</time>
      </trkpt>
      <trkpt lat="48.02771" lon="-0.78691">
        <ele>111.6</ele>
        <time>2010-10-10T09:52:45Z</time>
      </trkpt>
      <trkpt lat="48.0277" lon="-0.78669">
        <ele>111.4</ele>
        <time>2010-10-10T09:52:48Z</time>
      </trkpt>
      <trkpt lat="48.0277" lon="-0.78662">
        <ele>111.4</ele>
        <time>2010-10-10T09:52:49Z</time>
      </trkpt>
      <trkpt lat="48.02768" lon="-0.78648">
        <ele>111.2</ele>
        <time>2010-10-10T09:52:51Z</time>
      </trkpt>
      <trkpt lat="48.02767" lon="-0.7864">
        <ele>111.2</ele>
        <time>2010-10-10T09:52:52Z</time>
      </trkpt>
      <trkpt lat="48.02761" lon="-0.78622">
        <ele>111.2</ele>
        <time>2010-10-10T09:52:54Z</time>
      </trkpt>
      <trkpt lat="48.02759" lon="-0.78614">
        <ele>111</ele>
        <time>2010-10-10T09:52:55Z</time>
      </trkpt>
      <trkpt lat="48.02751" lon="-0.7859">
        <ele>110.8</ele>
        <time>2010-10-10T09:52:58Z</time>
      </trkpt>
      <trkpt lat="48.02743" lon="-0.78565">
        <ele>110.8</ele>
        <time>2010-10-10T09:53:01Z</time>
      </trkpt>
      <trkpt lat="48.02735" lon="-0.78541">
        <ele>110.4</ele>
        <time>2010-10-10T09:53:04Z</time>
      </trkpt>
      <trkpt lat="48.02732" lon="-0.78532">
        <ele>110.4</ele>
        <time>2010-10-10T09:53:05Z</time>
      </trkpt>
      <trkpt lat="48.02724" lon="-0.78508">
        <ele>110.2</ele>
        <time>2010-10-10T09:53:08Z</time>
      </trkpt>
      <trkpt lat="48.02718" lon="-0.78489">
        <ele>110</ele>
        <time>2010-10-10T09:53:10Z</time>
      </trkpt>
      <trkpt lat="48.02715" lon="-0.7848">
        <ele>110</ele>
        <time>2010-10-10T09:53:11Z</time>
      </trkpt>
      <trkpt lat="48.02706" lon="-0.78453">
        <ele>109.8</ele>
        <time>2010-10-10T09:53:14Z</time>
      </trkpt>
      <trkpt lat="48.02701" lon="-0.78434">
        <ele>109.8</ele>
        <time>2010-10-10T09:53:16Z</time>
      </trkpt>
      <trkpt lat="48.02699" lon="-0.78423">
        <ele>109.6</ele>
        <time>2010-10-10T09:53:17Z</time>
      </trkpt>
      <trkpt lat="48.02701" lon="-0.78392">
        <ele>109.4</ele>
        <time>2010-10-10T09:53:20Z</time>
      </trkpt>
      <trkpt lat="48.0271" lon="-0.78363">
        <ele>109.2</ele>
        <time>2010-10-10T09:53:23Z</time>
      </trkpt>
      <trkpt lat="48.02716" lon="-0.78345">
        <ele>109</ele>
        <time>2010-10-10T09:53:25Z</time>
      </trkpt>
      <trkpt lat="48.02718" lon="-0.78334">
        <ele>108.8</ele>
        <time>2010-10-10T09:53:26Z</time>
      </trkpt>
      <trkpt lat="48.02715" lon="-0.78313">
        <ele>108.8</ele>
        <time>2010-10-10T09:53:28Z</time>
      </trkpt>
      <trkpt lat="48.02712" lon="-0.78304">
        <ele>108.6</ele>
        <time>2010-10-10T09:53:29Z</time>
      </trkpt>
      <trkpt lat="48.02699" lon="-0.78278">
        <ele>108.4</ele>
        <time>2010-10-10T09:53:32Z</time>
      </trkpt>
      <trkpt lat="48.02687" lon="-0.78253">
        <ele>108.2</ele>
        <time>2010-10-10T09:53:35Z</time>
      </trkpt>
      <trkpt lat="48.02685" lon="-0.78244">
        <ele>108.2</ele>
        <time>2010-10-10T09:53:36Z</time>
      </trkpt>
      <trkpt lat="48.02683" lon="-0.78235">
        <ele>108.2</ele>
        <time>2010-10-10T09:53:37Z</time>
      </trkpt>
      <trkpt lat="48.02683" lon="-0.78226">
        <ele>108</ele>
        <time>2010-10-10T09:53:38Z</time>
      </trkpt>
      <trkpt lat="48.02684" lon="-0.78207">
        <ele>108</ele>
        <time>2010-10-10T09:53:40Z</time>
      </trkpt>
      <trkpt lat="48.02684" lon="-0.78198">
        <ele>108</ele>
        <time>2010-10-10T09:53:41Z</time>
      </trkpt>
      <trkpt lat="48.02686" lon="-0.78163">
        <ele>107.6</ele>
        <time>2010-10-10T09:53:45Z</time>
      </trkpt>
      <trkpt lat="48.02687" lon="-0.78146">
        <ele>107.6</ele>
        <time>2010-10-10T09:53:47Z</time>
      </trkpt>
      <trkpt lat="48.02687" lon="-0.78129">
        <ele>107.4</ele>
        <time>2010-10-10T09:53:49Z</time>
      </trkpt>
      <trkpt lat="48.02688" lon="-0.78096">
        <ele>107.2</ele>
        <time>2010-10-10T09:53:53Z</time>
      </trkpt>
      <trkpt lat="48.02687" lon="-0.78065">
        <ele>107</ele>
        <time>2010-10-10T09:53:57Z</time>
      </trkpt>
      <trkpt lat="48.02685" lon="-0.78034">
        <ele>106.8</ele>
        <time>2010-10-10T09:54:01Z</time>
      </trkpt>
      <trkpt lat="48.02683" lon="-0.78003">
        <ele>106.8</ele>
        <time>2010-10-10T09:54:05Z</time>
      </trkpt>
      <trkpt lat="48.02682" lon="-0.7799">
        <ele>106.8</ele>
        <time>2010-10-10T09:54:07Z</time>
      </trkpt>
      <trkpt lat="48.02684" lon="-0.77976">
        <ele>106.6</ele>
        <time>2010-10-10T09:54:09Z</time>
      </trkpt>
      <trkpt lat="48.02688" lon="-0.77962">
        <ele>106.6</ele>
        <time>2010-10-10T09:54:11Z</time>
      </trkpt>
      <trkpt lat="48.02694" lon="-0.7795">
        <ele>106.6</ele>
        <time>2010-10-10T09:54:13Z</time>
      </trkpt>
      <trkpt lat="48.02697" lon="-0.77944">
        <ele>106.6</ele>
        <time>2010-10-10T09:54:14Z</time>
      </trkpt>
      <trkpt lat="48.02705" lon="-0.77928">
        <ele>106.4</ele>
        <time>2010-10-10T09:54:17Z</time>
      </trkpt>
      <trkpt lat="48.02717" lon="-0.77903">
        <ele>106.4</ele>
        <time>2010-10-10T09:54:22Z</time>
      </trkpt>
      <trkpt lat="48.02722" lon="-0.77895">
        <ele>106.4</ele>
        <time>2010-10-10T09:54:24Z</time>
      </trkpt>
      <trkpt lat="48.02731" lon="-0.7788">
        <ele>106.2</ele>
        <time>2010-10-10T09:54:28Z</time>
      </trkpt>
      <trkpt lat="48.02735" lon="-0.77874">
        <ele>106.2</ele>
        <time>2010-10-10T09:54:30Z</time>
      </trkpt>
      <trkpt lat="48.02744" lon="-0.77859">
        <ele>106.2</ele>
        <time>2010-10-10T09:54:35Z</time>
      </trkpt>
      <trkpt lat="48.02757" lon="-0.77839">
        <ele>106.2</ele>
        <time>2010-10-10T09:54:40Z</time>
      </trkpt>
      <trkpt lat="48.02766" lon="-0.77827">
        <ele>106</ele>
        <time>2010-10-10T09:54:43Z</time>
      </trkpt>
      <trkpt lat="48.02772" lon="-0.77819">
        <ele>106.2</ele>
        <time>2010-10-10T09:54:45Z</time>
      </trkpt>
      <trkpt lat="48.02785" lon="-0.77799">
        <ele>106.2</ele>
        <time>2010-10-10T09:54:50Z</time>
      </trkpt>
      <trkpt lat="48.02787" lon="-0.77795">
        <ele>106.2</ele>
        <time>2010-10-10T09:54:51Z</time>
      </trkpt>
      <trkpt lat="48.02797" lon="-0.77779">
        <ele>106.2</ele>
        <time>2010-10-10T09:54:55Z</time>
      </trkpt>
      <trkpt lat="48.02805" lon="-0.77768">
        <ele>106.4</ele>
        <time>2010-10-10T09:54:58Z</time>
      </trkpt>
      <trkpt lat="48.02812" lon="-0.77757">
        <ele>106.6</ele>
        <time>2010-10-10T09:55:01Z</time>
      </trkpt>
      <trkpt lat="48.02822" lon="-0.77741">
        <ele>106.6</ele>
        <time>2010-10-10T09:55:05Z</time>
      </trkpt>
      <trkpt lat="48.02825" lon="-0.77737">
        <ele>106.6</ele>
        <time>2010-10-10T09:55:06Z</time>
      </trkpt>
      <trkpt lat="48.02839" lon="-0.77718">
        <ele>106.8</ele>
        <time>2010-10-10T09:55:11Z</time>
      </trkpt>
      <trkpt lat="48.02841" lon="-0.77714">
        <ele>106.8</ele>
        <time>2010-10-10T09:55:12Z</time>
      </trkpt>
      <trkpt lat="48.02853" lon="-0.77697">
        <ele>107.2</ele>
        <time>2010-10-10T09:55:17Z</time>
      </trkpt>
      <trkpt lat="48.02865" lon="-0.77677">
        <ele>107.8</ele>
        <time>2010-10-10T09:55:22Z</time>
      </trkpt>
      <trkpt lat="48.02878" lon="-0.77656">
        <ele>108</ele>
        <time>2010-10-10T09:55:27Z</time>
      </trkpt>
      <trkpt lat="48.02881" lon="-0.77652">
        <ele>108</ele>
        <time>2010-10-10T09:55:28Z</time>
      </trkpt>
      <trkpt lat="48.02894" lon="-0.77634">
        <ele>108.2</ele>
        <time>2010-10-10T09:55:32Z</time>
      </trkpt>
      <trkpt lat="48.02902" lon="-0.77619">
        <ele>108.4</ele>
        <time>2010-10-10T09:55:35Z</time>
      </trkpt>
      <trkpt lat="48.02908" lon="-0.7761">
        <ele>108.6</ele>
        <time>2010-10-10T09:55:37Z</time>
      </trkpt>
      <trkpt lat="48.02919" lon="-0.77594">
        <ele>108.8</ele>
        <time>2010-10-10T09:55:41Z</time>
      </trkpt>
      <trkpt lat="48.02922" lon="-0.77589">
        <ele>109</ele>
        <time>2010-10-10T09:55:42Z</time>
      </trkpt>
      <trkpt lat="48.02924" lon="-0.77585">
        <ele>109</ele>
        <time>2010-10-10T09:55:43Z</time>
      </trkpt>
      <trkpt lat="48.0293" lon="-0.77576">
        <ele>109.2</ele>
        <time>2010-10-10T09:55:45Z</time>
      </trkpt>
      <trkpt lat="48.02932" lon="-0.77571">
        <ele>109.2</ele>
        <time>2010-10-10T09:55:46Z</time>
      </trkpt>
      <trkpt lat="48.02935" lon="-0.77566">
        <ele>109.4</ele>
        <time>2010-10-10T09:55:47Z</time>
      </trkpt>
      <trkpt lat="48.02946" lon="-0.77549">
        <ele>109.4</ele>
        <time>2010-10-10T09:55:51Z</time>
      </trkpt>
      <trkpt lat="48.02949" lon="-0.77544">
        <ele>109.6</ele>
        <time>2010-10-10T09:55:52Z</time>
      </trkpt>
      <trkpt lat="48.02954" lon="-0.77534">
        <ele>109.4</ele>
        <time>2010-10-10T09:55:54Z</time>
      </trkpt>
      <trkpt lat="48.02959" lon="-0.77518">
        <ele>109.4</ele>
        <time>2010-10-10T09:55:57Z</time>
      </trkpt>
      <trkpt lat="48.02962" lon="-0.77512">
        <ele>109.4</ele>
        <time>2010-10-10T09:55:58Z</time>
      </trkpt>
      <trkpt lat="48.02966" lon="-0.77499">
        <ele>109.4</ele>
        <time>2010-10-10T09:56:00Z</time>
      </trkpt>
      <trkpt lat="48.02968" lon="-0.77492">
        <ele>109.4</ele>
        <time>2010-10-10T09:56:01Z</time>
      </trkpt>
      <trkpt lat="48.02972" lon="-0.7747">
        <ele>109.4</ele>
        <time>2010-10-10T09:56:04Z</time>
      </trkpt>
      <trkpt lat="48.02972" lon="-0.77463">
        <ele>109.4</ele>
        <time>2010-10-10T09:56:05Z</time>
      </trkpt>
      <trkpt lat="48.02967" lon="-0.77442">
        <ele>109.4</ele>
        <time>2010-10-10T09:56:08Z</time>
      </trkpt>
      <trkpt lat="48.02964" lon="-0.77435">
        <ele>109.4</ele>
        <time>2010-10-10T09:56:09Z</time>
      </trkpt>
      <trkpt lat="48.0295" lon="-0.77422">
        <ele>109.4</ele>
        <time>2010-10-10T09:56:12Z</time>
      </trkpt>
      <trkpt lat="48.02945" lon="-0.77418">
        <ele>109.4</ele>
        <time>2010-10-10T09:56:13Z</time>
      </trkpt>
      <trkpt lat="48.02923" lon="-0.77405">
        <ele>109.4</ele>
        <time>2010-10-10T09:56:17Z</time>
      </trkpt>
      <trkpt lat="48.02917" lon="-0.77401">
        <ele>109.4</ele>
        <time>2010-10-10T09:56:18Z</time>
      </trkpt>
      <trkpt lat="48.02906" lon="-0.77394">
        <ele>109.4</ele>
        <time>2010-10-10T09:56:20Z</time>
      </trkpt>
      <trkpt lat="48.02888" lon="-0.77383">
        <ele>109.2</ele>
        <time>2010-10-10T09:56:23Z</time>
      </trkpt>
      <trkpt lat="48.02871" lon="-0.77371">
        <ele>109.2</ele>
        <time>2010-10-10T09:56:26Z</time>
      </trkpt>
      <trkpt lat="48.02853" lon="-0.7736">
        <ele>109.2</ele>
        <time>2010-10-10T09:56:29Z</time>
      </trkpt>
      <trkpt lat="48.02835" lon="-0.77348">
        <ele>109</ele>
        <time>2010-10-10T09:56:32Z</time>
      </trkpt>
      <trkpt lat="48.02819" lon="-0.7734">
        <ele>108.8</ele>
        <time>2010-10-10T09:56:35Z</time>
      </trkpt>
      <trkpt lat="48.02815" lon="-0.7734">
        <ele>108.8</ele>
        <time>2010-10-10T09:56:36Z</time>
      </trkpt>
      <trkpt lat="48.02806" lon="-0.77342">
        <ele>108.8</ele>
        <time>2010-10-10T09:56:38Z</time>
      </trkpt>
      <trkpt lat="48.02797" lon="-0.77337">
        <ele>108.6</ele>
        <time>2010-10-10T09:56:40Z</time>
      </trkpt>
      <trkpt lat="48.02788" lon="-0.77332">
        <ele>108.6</ele>
        <time>2010-10-10T09:56:42Z</time>
      </trkpt>
      <trkpt lat="48.0278" lon="-0.77327">
        <ele>108.4</ele>
        <time>2010-10-10T09:56:44Z</time>
      </trkpt>
      <trkpt lat="48.02777" lon="-0.77326">
        <ele>108.4</ele>
        <time>2010-10-10T09:56:45Z</time>
      </trkpt>
      <trkpt lat="48.02776" lon="-0.77325">
        <ele>108.4</ele>
        <time>2010-10-10T09:56:46Z</time>
      </trkpt>
      <trkpt lat="48.02769" lon="-0.77323">
        <ele>108.2</ele>
        <time>2010-10-10T09:56:49Z</time>
      </trkpt>
      <trkpt lat="48.02767" lon="-0.77326">
        <ele>108.2</ele>
        <time>2010-10-10T09:56:50Z</time>
      </trkpt>
      <trkpt lat="48.02764" lon="-0.77335">
        <ele>108</ele>
        <time>2010-10-10T09:56:52Z</time>
      </trkpt>
      <trkpt lat="48.02765" lon="-0.77343">
        <ele>108</ele>
        <time>2010-10-10T09:56:54Z</time>
      </trkpt>
      <trkpt lat="48.0277" lon="-0.77356">
        <ele>107.8</ele>
        <time>2010-10-10T09:56:58Z</time>
      </trkpt>
      <trkpt lat="48.0277" lon="-0.77359">
        <ele>107.8</ele>
        <time>2010-10-10T09:56:59Z</time>
      </trkpt>
      <trkpt lat="48.0277" lon="-0.77365">
        <ele>107.6</ele>
        <time>2010-10-10T09:57:01Z</time>
      </trkpt>
      <trkpt lat="48.0277" lon="-0.77367">
        <ele>107.6</ele>
        <time>2010-10-10T09:57:03Z</time>
      </trkpt>
    </trkseg>
  </trk>
</gpx>